<?xml version="1.0" encoding="UTF-8"?>
<gpx creator="Garmin Connect" version="1.1"
  xsi:schemaLocation="http://www.topografix.com/GPX/1/1 http://www.topografix.com/GPX/11.xsd"
  xmlns:ns3="http://www.garmin.com/xmlschemas/TrackPointExtension/v1"
  xmlns="http://www.topografix.com/GPX/1/1"
  xmlns:xsi="http://www.w3.org/2001/XMLSchema-instance" xmlns:ns2="http://www.garmin.com/xmlschemas/GpxExtensions/v3">
  <metadata>
    <link href="connect.garmin.com">
      <text>Garmin Connect</text>
    </link>
    <time>2026-07-26T07:32:07.000Z</time>
  </metadata>
  <trk>
    <name>Noriunai Hiking</name>
    <type>hiking</type>
    <trkseg>
      <trkpt lat="55.80329627729952335357666015625" lon="24.88066996447741985321044921875">
        <ele>90.8000030517578125</ele>
        <time>2026-07-26T07:32:07.000Z</time>
        <extensions>
          <ns3:TrackPointExtension>
            <ns3:hr>95</ns3:hr>
            <ns3:cad>0</ns3:cad>
          </ns3:TrackPointExtension>
        </extensions>
      </trkpt>
      <trkpt lat="55.80329057760536670684814453125" lon="24.88068957813084125518798828125">
        <ele>90.59999847412109375</ele>
        <time>2026-07-26T07:32:08.000Z</time>
        <extensions>
          <ns3:TrackPointExtension>
            <ns3:hr>95</ns3:hr>
            <ns3:cad>0</ns3:cad>
          </ns3:TrackPointExtension>
        </extensions>
      </trkpt>
      <trkpt lat="55.80328068695962429046630859375" lon="24.88069712184369564056396484375">
        <ele>90.59999847412109375</ele>
        <time>2026-07-26T07:32:09.000Z</time>
        <extensions>
          <ns3:TrackPointExtension>
            <ns3:hr>95</ns3:hr>
            <ns3:cad>40</ns3:cad>
          </ns3:TrackPointExtension>
        </extensions>
      </trkpt>
      <trkpt lat="55.80326735973358154296875" lon="24.88071405328810214996337890625">
        <ele>90.1999969482421875</ele>
        <time>2026-07-26T07:32:12.000Z</time>
        <extensions>
          <ns3:TrackPointExtension>
            <ns3:hr>94</ns3:hr>
            <ns3:cad>40</ns3:cad>
          </ns3:TrackPointExtension>
        </extensions>
      </trkpt>
      <trkpt lat="55.8032660186290740966796875" lon="24.88070382736623287200927734375">
        <ele>91</ele>
        <time>2026-07-26T07:32:20.000Z</time>
        <extensions>
          <ns3:TrackPointExtension>
            <ns3:hr>97</ns3:hr>
            <ns3:cad>0</ns3:cad>
          </ns3:TrackPointExtension>
        </extensions>
      </trkpt>
      <trkpt lat="55.80326895229518413543701171875" lon="24.88071464002132415771484375">
        <ele>91</ele>
        <time>2026-07-26T07:32:22.000Z</time>
        <extensions>
          <ns3:TrackPointExtension>
            <ns3:hr>99</ns3:hr>
            <ns3:cad>0</ns3:cad>
          </ns3:TrackPointExtension>
        </extensions>
      </trkpt>
      <trkpt lat="55.80327213741838932037353515625" lon="24.88071841187775135040283203125">
        <ele>91</ele>
        <time>2026-07-26T07:32:23.000Z</time>
        <extensions>
          <ns3:TrackPointExtension>
            <ns3:hr>105</ns3:hr>
            <ns3:cad>0</ns3:cad>
          </ns3:TrackPointExtension>
        </extensions>
      </trkpt>
      <trkpt lat="55.8032735623419284820556640625" lon="24.880709610879421234130859375">
        <ele>91</ele>
        <time>2026-07-26T07:32:24.000Z</time>
        <extensions>
          <ns3:TrackPointExtension>
            <ns3:hr>105</ns3:hr>
            <ns3:cad>0</ns3:cad>
          </ns3:TrackPointExtension>
        </extensions>
      </trkpt>
      <trkpt lat="55.803289152681827545166015625" lon="24.88065102137625217437744140625">
        <ele>90.59999847412109375</ele>
        <time>2026-07-26T07:32:27.000Z</time>
        <extensions>
          <ns3:TrackPointExtension>
            <ns3:hr>102</ns3:hr>
            <ns3:cad>0</ns3:cad>
          </ns3:TrackPointExtension>
        </extensions>
      </trkpt>
      <trkpt lat="55.80330197699368000030517578125" lon="24.8805947788059711456298828125">
        <ele>90.40000152587890625</ele>
        <time>2026-07-26T07:32:29.000Z</time>
        <extensions>
          <ns3:TrackPointExtension>
            <ns3:hr>101</ns3:hr>
            <ns3:cad>51</ns3:cad>
          </ns3:TrackPointExtension>
        </extensions>
      </trkpt>
      <trkpt lat="55.803362913429737091064453125" lon="24.88056871108710765838623046875">
        <ele>91</ele>
        <time>2026-07-26T07:32:34.000Z</time>
        <extensions>
          <ns3:TrackPointExtension>
            <ns3:hr>101</ns3:hr>
            <ns3:cad>52</ns3:cad>
          </ns3:TrackPointExtension>
        </extensions>
      </trkpt>
      <trkpt lat="55.803421922028064727783203125" lon="24.8806115426123142242431640625">
        <ele>91.40000152587890625</ele>
        <time>2026-07-26T07:32:40.000Z</time>
        <extensions>
          <ns3:TrackPointExtension>
            <ns3:hr>103</ns3:hr>
            <ns3:cad>53</ns3:cad>
          </ns3:TrackPointExtension>
        </extensions>
      </trkpt>
      <trkpt lat="55.80344882793724536895751953125" lon="24.88067482598125934600830078125">
        <ele>91.1999969482421875</ele>
        <time>2026-07-26T07:32:47.000Z</time>
        <extensions>
          <ns3:TrackPointExtension>
            <ns3:hr>104</ns3:hr>
            <ns3:cad>57</ns3:cad>
          </ns3:TrackPointExtension>
        </extensions>
      </trkpt>
      <trkpt lat="55.80347849987447261810302734375" lon="24.88068044185638427734375">
        <ele>91.1999969482421875</ele>
        <time>2026-07-26T07:32:51.000Z</time>
        <extensions>
          <ns3:TrackPointExtension>
            <ns3:hr>103</ns3:hr>
            <ns3:cad>0</ns3:cad>
          </ns3:TrackPointExtension>
        </extensions>
      </trkpt>
      <trkpt lat="55.8035511709749698638916015625" lon="24.8807461559772491455078125">
        <ele>91.59999847412109375</ele>
        <time>2026-07-26T07:32:57.000Z</time>
        <extensions>
          <ns3:TrackPointExtension>
            <ns3:hr>102</ns3:hr>
            <ns3:cad>56</ns3:cad>
          </ns3:TrackPointExtension>
        </extensions>
      </trkpt>
      <trkpt lat="55.80365820787847042083740234375" lon="24.880845062434673309326171875">
        <ele>91.40000152587890625</ele>
        <time>2026-07-26T07:33:05.000Z</time>
        <extensions>
          <ns3:TrackPointExtension>
            <ns3:hr>100</ns3:hr>
            <ns3:cad>58</ns3:cad>
          </ns3:TrackPointExtension>
        </extensions>
      </trkpt>
      <trkpt lat="55.80372476018965244293212890625" lon="24.8809079267084598541259765625">
        <ele>91.1999969482421875</ele>
        <time>2026-07-26T07:33:10.000Z</time>
        <extensions>
          <ns3:TrackPointExtension>
            <ns3:hr>103</ns3:hr>
            <ns3:cad>58</ns3:cad>
          </ns3:TrackPointExtension>
        </extensions>
      </trkpt>
      <trkpt lat="55.803785026073455810546875" lon="24.88095142878592014312744140625">
        <ele>91.1999969482421875</ele>
        <time>2026-07-26T07:33:15.000Z</time>
        <extensions>
          <ns3:TrackPointExtension>
            <ns3:hr>105</ns3:hr>
            <ns3:cad>58</ns3:cad>
          </ns3:TrackPointExtension>
        </extensions>
      </trkpt>
      <trkpt lat="55.80381092615425586700439453125" lon="24.8809702880680561065673828125">
        <ele>91.40000152587890625</ele>
        <time>2026-07-26T07:33:17.000Z</time>
        <extensions>
          <ns3:TrackPointExtension>
            <ns3:hr>102</ns3:hr>
            <ns3:cad>58</ns3:cad>
          </ns3:TrackPointExtension>
        </extensions>
      </trkpt>
      <trkpt lat="55.803873538970947265625" lon="24.8810279555618762969970703125">
        <ele>91</ele>
        <time>2026-07-26T07:33:22.000Z</time>
        <extensions>
          <ns3:TrackPointExtension>
            <ns3:hr>101</ns3:hr>
            <ns3:cad>57</ns3:cad>
          </ns3:TrackPointExtension>
        </extensions>
      </trkpt>
      <trkpt lat="55.80395610071718692779541015625" lon="24.8810916580259799957275390625">
        <ele>91</ele>
        <time>2026-07-26T07:33:29.000Z</time>
        <extensions>
          <ns3:TrackPointExtension>
            <ns3:hr>101</ns3:hr>
            <ns3:cad>57</ns3:cad>
          </ns3:TrackPointExtension>
        </extensions>
      </trkpt>
      <trkpt lat="55.80410328693687915802001953125" lon="24.88122560083866119384765625">
        <ele>90.8000030517578125</ele>
        <time>2026-07-26T07:33:40.000Z</time>
        <extensions>
          <ns3:TrackPointExtension>
            <ns3:hr>103</ns3:hr>
            <ns3:cad>57</ns3:cad>
          </ns3:TrackPointExtension>
        </extensions>
      </trkpt>
      <trkpt lat="55.804233960807323455810546875" lon="24.88132358528673648834228515625">
        <ele>90.8000030517578125</ele>
        <time>2026-07-26T07:33:50.000Z</time>
        <extensions>
          <ns3:TrackPointExtension>
            <ns3:hr>105</ns3:hr>
            <ns3:cad>58</ns3:cad>
          </ns3:TrackPointExtension>
        </extensions>
      </trkpt>
      <trkpt lat="55.8043254911899566650390625" lon="24.881385862827301025390625">
        <ele>90.59999847412109375</ele>
        <time>2026-07-26T07:33:57.000Z</time>
        <extensions>
          <ns3:TrackPointExtension>
            <ns3:hr>108</ns3:hr>
            <ns3:cad>56</ns3:cad>
          </ns3:TrackPointExtension>
        </extensions>
      </trkpt>
      <trkpt lat="55.80435642041265964508056640625" lon="24.88141276873648166656494140625">
        <ele>90.59999847412109375</ele>
        <time>2026-07-26T07:33:59.000Z</time>
        <extensions>
          <ns3:TrackPointExtension>
            <ns3:hr>108</ns3:hr>
            <ns3:cad>56</ns3:cad>
          </ns3:TrackPointExtension>
        </extensions>
      </trkpt>
      <trkpt lat="55.80448818393051624298095703125" lon="24.88150983117520809173583984375">
        <ele>91</ele>
        <time>2026-07-26T07:34:09.000Z</time>
        <extensions>
          <ns3:TrackPointExtension>
            <ns3:hr>108</ns3:hr>
            <ns3:cad>57</ns3:cad>
          </ns3:TrackPointExtension>
        </extensions>
      </trkpt>
      <trkpt lat="55.80461919307708740234375" lon="24.8815999366343021392822265625">
        <ele>90.40000152587890625</ele>
        <time>2026-07-26T07:34:19.000Z</time>
        <extensions>
          <ns3:TrackPointExtension>
            <ns3:hr>107</ns3:hr>
            <ns3:cad>57</ns3:cad>
          </ns3:TrackPointExtension>
        </extensions>
      </trkpt>
      <trkpt lat="55.80478490330278873443603515625" lon="24.881699346005916595458984375">
        <ele>90</ele>
        <time>2026-07-26T07:34:31.000Z</time>
        <extensions>
          <ns3:TrackPointExtension>
            <ns3:hr>108</ns3:hr>
            <ns3:cad>60</ns3:cad>
          </ns3:TrackPointExtension>
        </extensions>
      </trkpt>
      <trkpt lat="55.8049318380653858184814453125" lon="24.88180755637586116790771484375">
        <ele>90.40000152587890625</ele>
        <time>2026-07-26T07:34:42.000Z</time>
        <extensions>
          <ns3:TrackPointExtension>
            <ns3:hr>109</ns3:hr>
            <ns3:cad>59</ns3:cad>
          </ns3:TrackPointExtension>
        </extensions>
      </trkpt>
      <trkpt lat="55.805041305720806121826171875" lon="24.88187243230640888214111328125">
        <ele>90</ele>
        <time>2026-07-26T07:34:50.000Z</time>
        <extensions>
          <ns3:TrackPointExtension>
            <ns3:hr>109</ns3:hr>
            <ns3:cad>58</ns3:cad>
          </ns3:TrackPointExtension>
        </extensions>
      </trkpt>
      <trkpt lat="55.80516460351645946502685546875" lon="24.8819311894476413726806640625">
        <ele>90</ele>
        <time>2026-07-26T07:35:00.000Z</time>
        <extensions>
          <ns3:TrackPointExtension>
            <ns3:hr>106</ns3:hr>
            <ns3:cad>59</ns3:cad>
          </ns3:TrackPointExtension>
        </extensions>
      </trkpt>
      <trkpt lat="55.80532503314316272735595703125" lon="24.882015846669673919677734375">
        <ele>89.8000030517578125</ele>
        <time>2026-07-26T07:35:12.000Z</time>
        <extensions>
          <ns3:TrackPointExtension>
            <ns3:hr>107</ns3:hr>
            <ns3:cad>59</ns3:cad>
          </ns3:TrackPointExtension>
        </extensions>
      </trkpt>
      <trkpt lat="55.805389322340488433837890625" lon="24.8820384778082370758056640625">
        <ele>89.59999847412109375</ele>
        <time>2026-07-26T07:35:17.000Z</time>
        <extensions>
          <ns3:TrackPointExtension>
            <ns3:hr>108</ns3:hr>
            <ns3:cad>58</ns3:cad>
          </ns3:TrackPointExtension>
        </extensions>
      </trkpt>
      <trkpt lat="55.8055217564105987548828125" lon="24.8820713348686695098876953125">
        <ele>89</ele>
        <time>2026-07-26T07:35:25.000Z</time>
        <extensions>
          <ns3:TrackPointExtension>
            <ns3:hr>108</ns3:hr>
            <ns3:cad>59</ns3:cad>
          </ns3:TrackPointExtension>
        </extensions>
      </trkpt>
      <trkpt lat="55.80561303533613681793212890625" lon="24.88208633847534656524658203125">
        <ele>88.40000152587890625</ele>
        <time>2026-07-26T07:35:32.000Z</time>
        <extensions>
          <ns3:TrackPointExtension>
            <ns3:hr>110</ns3:hr>
            <ns3:cad>58</ns3:cad>
          </ns3:TrackPointExtension>
        </extensions>
      </trkpt>
      <trkpt lat="55.805644802749156951904296875" lon="24.88209103234112262725830078125">
        <ele>88</ele>
        <time>2026-07-26T07:35:34.000Z</time>
        <extensions>
          <ns3:TrackPointExtension>
            <ns3:hr>110</ns3:hr>
            <ns3:cad>59</ns3:cad>
          </ns3:TrackPointExtension>
        </extensions>
      </trkpt>
      <trkpt lat="55.805764496326446533203125" lon="24.88210930489003658294677734375">
        <ele>87.59999847412109375</ele>
        <time>2026-07-26T07:35:43.000Z</time>
        <extensions>
          <ns3:TrackPointExtension>
            <ns3:hr>111</ns3:hr>
            <ns3:cad>59</ns3:cad>
          </ns3:TrackPointExtension>
        </extensions>
      </trkpt>
      <trkpt lat="55.80581855960190296173095703125" lon="24.88212288357317447662353515625">
        <ele>87.40000152587890625</ele>
        <time>2026-07-26T07:35:47.000Z</time>
        <extensions>
          <ns3:TrackPointExtension>
            <ns3:hr>111</ns3:hr>
            <ns3:cad>60</ns3:cad>
          </ns3:TrackPointExtension>
        </extensions>
      </trkpt>
      <trkpt lat="55.8058850280940532684326171875" lon="24.8821256496012210845947265625">
        <ele>86.8000030517578125</ele>
        <time>2026-07-26T07:35:52.000Z</time>
        <extensions>
          <ns3:TrackPointExtension>
            <ns3:hr>109</ns3:hr>
            <ns3:cad>58</ns3:cad>
          </ns3:TrackPointExtension>
        </extensions>
      </trkpt>
      <trkpt lat="55.805925428867340087890625" lon="24.88212950527667999267578125">
        <ele>86.59999847412109375</ele>
        <time>2026-07-26T07:35:55.000Z</time>
        <extensions>
          <ns3:TrackPointExtension>
            <ns3:hr>105</ns3:hr>
            <ns3:cad>59</ns3:cad>
          </ns3:TrackPointExtension>
        </extensions>
      </trkpt>
      <trkpt lat="55.8059866167604923248291015625" lon="24.882142245769500732421875">
        <ele>86.1999969482421875</ele>
        <time>2026-07-26T07:35:59.000Z</time>
        <extensions>
          <ns3:TrackPointExtension>
            <ns3:hr>104</ns3:hr>
            <ns3:cad>60</ns3:cad>
          </ns3:TrackPointExtension>
        </extensions>
      </trkpt>
      <trkpt lat="55.80602726899087429046630859375" lon="24.88215632736682891845703125">
        <ele>86</ele>
        <time>2026-07-26T07:36:02.000Z</time>
        <extensions>
          <ns3:TrackPointExtension>
            <ns3:hr>105</ns3:hr>
            <ns3:cad>60</ns3:cad>
          </ns3:TrackPointExtension>
        </extensions>
      </trkpt>
      <trkpt lat="55.80616825260221958160400390625" lon="24.8822309263050556182861328125">
        <ele>85.40000152587890625</ele>
        <time>2026-07-26T07:36:11.000Z</time>
        <extensions>
          <ns3:TrackPointExtension>
            <ns3:hr>107</ns3:hr>
            <ns3:cad>61</ns3:cad>
          </ns3:TrackPointExtension>
        </extensions>
      </trkpt>
      <trkpt lat="55.80621720291674137115478515625" lon="24.88227342255413532257080078125">
        <ele>85.1999969482421875</ele>
        <time>2026-07-26T07:36:15.000Z</time>
        <extensions>
          <ns3:TrackPointExtension>
            <ns3:hr>108</ns3:hr>
            <ns3:cad>61</ns3:cad>
          </ns3:TrackPointExtension>
        </extensions>
      </trkpt>
      <trkpt lat="55.8062846772372722625732421875" lon="24.88234600983560085296630859375">
        <ele>84.40000152587890625</ele>
        <time>2026-07-26T07:36:21.000Z</time>
        <extensions>
          <ns3:TrackPointExtension>
            <ns3:hr>108</ns3:hr>
            <ns3:cad>59</ns3:cad>
          </ns3:TrackPointExtension>
        </extensions>
      </trkpt>
      <trkpt lat="55.806312672793865203857421875" lon="24.8823670484125614166259765625">
        <ele>84.1999969482421875</ele>
        <time>2026-07-26T07:36:23.000Z</time>
        <extensions>
          <ns3:TrackPointExtension>
            <ns3:hr>107</ns3:hr>
            <ns3:cad>62</ns3:cad>
          </ns3:TrackPointExtension>
        </extensions>
      </trkpt>
      <trkpt lat="55.80639087595045566558837890625" lon="24.8824347741901874542236328125">
        <ele>83.1999969482421875</ele>
        <time>2026-07-26T07:36:29.000Z</time>
        <extensions>
          <ns3:TrackPointExtension>
            <ns3:hr>108</ns3:hr>
            <ns3:cad>62</ns3:cad>
          </ns3:TrackPointExtension>
        </extensions>
      </trkpt>
      <trkpt lat="55.8064663968980312347412109375" lon="24.8825132288038730621337890625">
        <ele>82</ele>
        <time>2026-07-26T07:36:35.000Z</time>
        <extensions>
          <ns3:TrackPointExtension>
            <ns3:hr>108</ns3:hr>
            <ns3:cad>61</ns3:cad>
          </ns3:TrackPointExtension>
        </extensions>
      </trkpt>
      <trkpt lat="55.8064928837120532989501953125" lon="24.8825351893901824951171875">
        <ele>81.59999847412109375</ele>
        <time>2026-07-26T07:36:37.000Z</time>
        <extensions>
          <ns3:TrackPointExtension>
            <ns3:hr>108</ns3:hr>
            <ns3:cad>61</ns3:cad>
          </ns3:TrackPointExtension>
        </extensions>
      </trkpt>
      <trkpt lat="55.8065485395491123199462890625" lon="24.8825834691524505615234375">
        <ele>81</ele>
        <time>2026-07-26T07:36:41.000Z</time>
        <extensions>
          <ns3:TrackPointExtension>
            <ns3:hr>107</ns3:hr>
            <ns3:cad>61</ns3:cad>
          </ns3:TrackPointExtension>
        </extensions>
      </trkpt>
      <trkpt lat="55.806586258113384246826171875" lon="24.882638454437255859375">
        <ele>80</ele>
        <time>2026-07-26T07:36:45.000Z</time>
        <extensions>
          <ns3:TrackPointExtension>
            <ns3:hr>106</ns3:hr>
            <ns3:cad>61</ns3:cad>
          </ns3:TrackPointExtension>
        </extensions>
      </trkpt>
      <trkpt lat="55.80659572966396808624267578125" lon="24.88264943473041057586669921875">
        <ele>79.8000030517578125</ele>
        <time>2026-07-26T07:36:46.000Z</time>
        <extensions>
          <ns3:TrackPointExtension>
            <ns3:hr>107</ns3:hr>
            <ns3:cad>61</ns3:cad>
          </ns3:TrackPointExtension>
        </extensions>
      </trkpt>
      <trkpt lat="55.80666027031838893890380859375" lon="24.88271548412740230560302734375">
        <ele>78.59999847412109375</ele>
        <time>2026-07-26T07:36:52.000Z</time>
        <extensions>
          <ns3:TrackPointExtension>
            <ns3:hr>107</ns3:hr>
            <ns3:cad>63</ns3:cad>
          </ns3:TrackPointExtension>
        </extensions>
      </trkpt>
      <trkpt lat="55.80668189562857151031494140625" lon="24.8827455751597881317138671875">
        <ele>78.40000152587890625</ele>
        <time>2026-07-26T07:36:54.000Z</time>
        <extensions>
          <ns3:TrackPointExtension>
            <ns3:hr>107</ns3:hr>
            <ns3:cad>62</ns3:cad>
          </ns3:TrackPointExtension>
        </extensions>
      </trkpt>
      <trkpt lat="55.80675632692873477935791015625" lon="24.88280265592038631439208984375">
        <ele>77.1999969482421875</ele>
        <time>2026-07-26T07:37:00.000Z</time>
        <extensions>
          <ns3:TrackPointExtension>
            <ns3:hr>105</ns3:hr>
            <ns3:cad>62</ns3:cad>
          </ns3:TrackPointExtension>
        </extensions>
      </trkpt>
      <trkpt lat="55.80678381957113742828369140625" lon="24.8828216828405857086181640625">
        <ele>76.8000030517578125</ele>
        <time>2026-07-26T07:37:02.000Z</time>
        <extensions>
          <ns3:TrackPointExtension>
            <ns3:hr>105</ns3:hr>
            <ns3:cad>62</ns3:cad>
          </ns3:TrackPointExtension>
        </extensions>
      </trkpt>
      <trkpt lat="55.80683059059083461761474609375" lon="24.882861413061618804931640625">
        <ele>76.1999969482421875</ele>
        <time>2026-07-26T07:37:06.000Z</time>
        <extensions>
          <ns3:TrackPointExtension>
            <ns3:hr>106</ns3:hr>
            <ns3:cad>60</ns3:cad>
          </ns3:TrackPointExtension>
        </extensions>
      </trkpt>
      <trkpt lat="55.8069004118442535400390625" lon="24.8829527758061885833740234375">
        <ele>75.1999969482421875</ele>
        <time>2026-07-26T07:37:12.000Z</time>
        <extensions>
          <ns3:TrackPointExtension>
            <ns3:hr>107</ns3:hr>
            <ns3:cad>60</ns3:cad>
          </ns3:TrackPointExtension>
        </extensions>
      </trkpt>
      <trkpt lat="55.80699303187429904937744140625" lon="24.8830553703010082244873046875">
        <ele>74</ele>
        <time>2026-07-26T07:37:19.000Z</time>
        <extensions>
          <ns3:TrackPointExtension>
            <ns3:hr>108</ns3:hr>
            <ns3:cad>59</ns3:cad>
          </ns3:TrackPointExtension>
        </extensions>
      </trkpt>
      <trkpt lat="55.80701851285994052886962890625" lon="24.88308160565793514251708984375">
        <ele>73.59999847412109375</ele>
        <time>2026-07-26T07:37:21.000Z</time>
        <extensions>
          <ns3:TrackPointExtension>
            <ns3:hr>108</ns3:hr>
            <ns3:cad>59</ns3:cad>
          </ns3:TrackPointExtension>
        </extensions>
      </trkpt>
      <trkpt lat="55.80708020366728305816650390625" lon="24.8831857927143573760986328125">
        <ele>72.8000030517578125</ele>
        <time>2026-07-26T07:37:27.000Z</time>
        <extensions>
          <ns3:TrackPointExtension>
            <ns3:hr>108</ns3:hr>
            <ns3:cad>61</ns3:cad>
          </ns3:TrackPointExtension>
        </extensions>
      </trkpt>
      <trkpt lat="55.80709093250334262847900390625" lon="24.88320062868297100067138671875">
        <ele>72.59999847412109375</ele>
        <time>2026-07-26T07:37:28.000Z</time>
        <extensions>
          <ns3:TrackPointExtension>
            <ns3:hr>108</ns3:hr>
            <ns3:cad>61</ns3:cad>
          </ns3:TrackPointExtension>
        </extensions>
      </trkpt>
      <trkpt lat="55.807174332439899444580078125" lon="24.88331981934607028961181640625">
        <ele>71.59999847412109375</ele>
        <time>2026-07-26T07:37:35.000Z</time>
        <extensions>
          <ns3:TrackPointExtension>
            <ns3:hr>110</ns3:hr>
            <ns3:cad>59</ns3:cad>
          </ns3:TrackPointExtension>
        </extensions>
      </trkpt>
      <trkpt lat="55.8071999810636043548583984375" lon="24.88339944742619991302490234375">
        <ele>71.40000152587890625</ele>
        <time>2026-07-26T07:37:39.000Z</time>
        <extensions>
          <ns3:TrackPointExtension>
            <ns3:hr>111</ns3:hr>
            <ns3:cad>59</ns3:cad>
          </ns3:TrackPointExtension>
        </extensions>
      </trkpt>
      <trkpt lat="55.80721079371869564056396484375" lon="24.8835361562669277191162109375">
        <ele>70.59999847412109375</ele>
        <time>2026-07-26T07:37:45.000Z</time>
        <extensions>
          <ns3:TrackPointExtension>
            <ns3:hr>109</ns3:hr>
            <ns3:cad>59</ns3:cad>
          </ns3:TrackPointExtension>
        </extensions>
      </trkpt>
      <trkpt lat="55.807208530604839324951171875" lon="24.88361000083386898040771484375">
        <ele>70.40000152587890625</ele>
        <time>2026-07-26T07:37:48.000Z</time>
        <extensions>
          <ns3:TrackPointExtension>
            <ns3:hr>108</ns3:hr>
            <ns3:cad>60</ns3:cad>
          </ns3:TrackPointExtension>
        </extensions>
      </trkpt>
      <trkpt lat="55.8071617595851421356201171875" lon="24.88381636328995227813720703125">
        <ele>69.8000030517578125</ele>
        <time>2026-07-26T07:37:56.000Z</time>
        <extensions>
          <ns3:TrackPointExtension>
            <ns3:hr>109</ns3:hr>
            <ns3:cad>59</ns3:cad>
          </ns3:TrackPointExtension>
        </extensions>
      </trkpt>
      <trkpt lat="55.8071242086589336395263671875" lon="24.88394963555037975311279296875">
        <ele>69.59999847412109375</ele>
        <time>2026-07-26T07:38:01.000Z</time>
        <extensions>
          <ns3:TrackPointExtension>
            <ns3:hr>110</ns3:hr>
            <ns3:cad>59</ns3:cad>
          </ns3:TrackPointExtension>
        </extensions>
      </trkpt>
      <trkpt lat="55.8070906810462474822998046875" lon="24.884046278893947601318359375">
        <ele>69.59999847412109375</ele>
        <time>2026-07-26T07:38:05.000Z</time>
        <extensions>
          <ns3:TrackPointExtension>
            <ns3:hr>109</ns3:hr>
            <ns3:cad>59</ns3:cad>
          </ns3:TrackPointExtension>
        </extensions>
      </trkpt>
      <trkpt lat="55.80701046623289585113525390625" lon="24.88424937240779399871826171875">
        <ele>69.59999847412109375</ele>
        <time>2026-07-26T07:38:14.000Z</time>
        <extensions>
          <ns3:TrackPointExtension>
            <ns3:hr>110</ns3:hr>
            <ns3:cad>58</ns3:cad>
          </ns3:TrackPointExtension>
        </extensions>
      </trkpt>
      <trkpt lat="55.80692161805927753448486328125" lon="24.88438733853399753570556640625">
        <ele>69.1999969482421875</ele>
        <time>2026-07-26T07:38:23.000Z</time>
        <extensions>
          <ns3:TrackPointExtension>
            <ns3:hr>110</ns3:hr>
            <ns3:cad>58</ns3:cad>
          </ns3:TrackPointExtension>
        </extensions>
      </trkpt>
      <trkpt lat="55.8068341948091983795166015625" lon="24.88448238931596279144287109375">
        <ele>69.8000030517578125</ele>
        <time>2026-07-26T07:38:30.000Z</time>
        <extensions>
          <ns3:TrackPointExtension>
            <ns3:hr>110</ns3:hr>
            <ns3:cad>58</ns3:cad>
          </ns3:TrackPointExtension>
        </extensions>
      </trkpt>
      <trkpt lat="55.8067218773066997528076171875" lon="24.88453586585819721221923828125">
        <ele>68.59999847412109375</ele>
        <time>2026-07-26T07:38:38.000Z</time>
        <extensions>
          <ns3:TrackPointExtension>
            <ns3:hr>109</ns3:hr>
            <ns3:cad>59</ns3:cad>
          </ns3:TrackPointExtension>
        </extensions>
      </trkpt>
      <trkpt lat="55.80668793059885501861572265625" lon="24.8845453374087810516357421875">
        <ele>68.40000152587890625</ele>
        <time>2026-07-26T07:38:40.000Z</time>
        <extensions>
          <ns3:TrackPointExtension>
            <ns3:hr>109</ns3:hr>
            <ns3:cad>60</ns3:cad>
          </ns3:TrackPointExtension>
        </extensions>
      </trkpt>
      <trkpt lat="55.80652951262891292572021484375" lon="24.88461147062480449676513671875">
        <ele>68.1999969482421875</ele>
        <time>2026-07-26T07:38:50.000Z</time>
        <extensions>
          <ns3:TrackPointExtension>
            <ns3:hr>111</ns3:hr>
            <ns3:cad>60</ns3:cad>
          </ns3:TrackPointExtension>
        </extensions>
      </trkpt>
      <trkpt lat="55.80643177963793277740478515625" lon="24.88464918918907642364501953125">
        <ele>67.40000152587890625</ele>
        <time>2026-07-26T07:38:57.000Z</time>
        <extensions>
          <ns3:TrackPointExtension>
            <ns3:hr>112</ns3:hr>
            <ns3:cad>60</ns3:cad>
          </ns3:TrackPointExtension>
        </extensions>
      </trkpt>
      <trkpt lat="55.806386433541774749755859375" lon="24.8846610076725482940673828125">
        <ele>67.59999847412109375</ele>
        <time>2026-07-26T07:39:00.000Z</time>
        <extensions>
          <ns3:TrackPointExtension>
            <ns3:hr>113</ns3:hr>
            <ns3:cad>59</ns3:cad>
          </ns3:TrackPointExtension>
        </extensions>
      </trkpt>
      <trkpt lat="55.80621569417417049407958984375" lon="24.88472177647054195404052734375">
        <ele>68.1999969482421875</ele>
        <time>2026-07-26T07:39:11.000Z</time>
        <extensions>
          <ns3:TrackPointExtension>
            <ns3:hr>115</ns3:hr>
            <ns3:cad>59</ns3:cad>
          </ns3:TrackPointExtension>
        </extensions>
      </trkpt>
      <trkpt lat="55.80607420764863491058349609375" lon="24.88478816114366054534912109375">
        <ele>68.1999969482421875</ele>
        <time>2026-07-26T07:39:20.000Z</time>
        <extensions>
          <ns3:TrackPointExtension>
            <ns3:hr>115</ns3:hr>
            <ns3:cad>58</ns3:cad>
          </ns3:TrackPointExtension>
        </extensions>
      </trkpt>
      <trkpt lat="55.80588863231241703033447265625" lon="24.8848487623035907745361328125">
        <ele>68.1999969482421875</ele>
        <time>2026-07-26T07:39:33.000Z</time>
        <extensions>
          <ns3:TrackPointExtension>
            <ns3:hr>116</ns3:hr>
            <ns3:cad>58</ns3:cad>
          </ns3:TrackPointExtension>
        </extensions>
      </trkpt>
      <trkpt lat="55.80579559318721294403076171875" lon="24.88487206399440765380859375">
        <ele>68.59999847412109375</ele>
        <time>2026-07-26T07:39:39.000Z</time>
        <extensions>
          <ns3:TrackPointExtension>
            <ns3:hr>116</ns3:hr>
            <ns3:cad>57</ns3:cad>
          </ns3:TrackPointExtension>
        </extensions>
      </trkpt>
      <trkpt lat="55.8057649992406368255615234375" lon="24.884883128106594085693359375">
        <ele>68.59999847412109375</ele>
        <time>2026-07-26T07:39:41.000Z</time>
        <extensions>
          <ns3:TrackPointExtension>
            <ns3:hr>116</ns3:hr>
            <ns3:cad>58</ns3:cad>
          </ns3:TrackPointExtension>
        </extensions>
      </trkpt>
      <trkpt lat="55.80563164316117763519287109375" lon="24.88493501208722591400146484375">
        <ele>68</ele>
        <time>2026-07-26T07:39:50.000Z</time>
        <extensions>
          <ns3:TrackPointExtension>
            <ns3:hr>116</ns3:hr>
            <ns3:cad>56</ns3:cad>
          </ns3:TrackPointExtension>
        </extensions>
      </trkpt>
      <trkpt lat="55.805534832179546356201171875" lon="24.88501262851059436798095703125">
        <ele>68.1999969482421875</ele>
        <time>2026-07-26T07:39:59.000Z</time>
        <extensions>
          <ns3:TrackPointExtension>
            <ns3:hr>117</ns3:hr>
            <ns3:cad>56</ns3:cad>
          </ns3:TrackPointExtension>
        </extensions>
      </trkpt>
      <trkpt lat="55.80543701536953449249267578125" lon="24.8851324059069156646728515625">
        <ele>68</ele>
        <time>2026-07-26T07:40:07.000Z</time>
        <extensions>
          <ns3:TrackPointExtension>
            <ns3:hr>118</ns3:hr>
            <ns3:cad>57</ns3:cad>
          </ns3:TrackPointExtension>
        </extensions>
      </trkpt>
      <trkpt lat="55.805375576019287109375" lon="24.88535243086516857147216796875">
        <ele>67.8000030517578125</ele>
        <time>2026-07-26T07:40:16.000Z</time>
        <extensions>
          <ns3:TrackPointExtension>
            <ns3:hr>119</ns3:hr>
            <ns3:cad>57</ns3:cad>
          </ns3:TrackPointExtension>
        </extensions>
      </trkpt>
      <trkpt lat="55.80533173866569995880126953125" lon="24.8855568654835224151611328125">
        <ele>68</ele>
        <time>2026-07-26T07:40:25.000Z</time>
        <extensions>
          <ns3:TrackPointExtension>
            <ns3:hr>118</ns3:hr>
            <ns3:cad>56</ns3:cad>
          </ns3:TrackPointExtension>
        </extensions>
      </trkpt>
      <trkpt lat="55.80529904924333095550537109375" lon="24.885638840496540069580078125">
        <ele>68.40000152587890625</ele>
        <time>2026-07-26T07:40:31.000Z</time>
        <extensions>
          <ns3:TrackPointExtension>
            <ns3:hr>117</ns3:hr>
            <ns3:cad>57</ns3:cad>
          </ns3:TrackPointExtension>
        </extensions>
      </trkpt>
      <trkpt lat="55.80527977086603641510009765625" lon="24.8857295326888561248779296875">
        <ele>68</ele>
        <time>2026-07-26T07:40:38.000Z</time>
        <extensions>
          <ns3:TrackPointExtension>
            <ns3:hr>117</ns3:hr>
            <ns3:cad>0</ns3:cad>
          </ns3:TrackPointExtension>
        </extensions>
      </trkpt>
      <trkpt lat="55.80522679723799228668212890625" lon="24.88591544330120086669921875">
        <ele>67.59999847412109375</ele>
        <time>2026-07-26T07:40:46.000Z</time>
        <extensions>
          <ns3:TrackPointExtension>
            <ns3:hr>119</ns3:hr>
            <ns3:cad>57</ns3:cad>
          </ns3:TrackPointExtension>
        </extensions>
      </trkpt>
      <trkpt lat="55.805206596851348876953125" lon="24.88599850796163082122802734375">
        <ele>67.59999847412109375</ele>
        <time>2026-07-26T07:40:49.000Z</time>
        <extensions>
          <ns3:TrackPointExtension>
            <ns3:hr>118</ns3:hr>
            <ns3:cad>58</ns3:cad>
          </ns3:TrackPointExtension>
        </extensions>
      </trkpt>
      <trkpt lat="55.80517332069575786590576171875" lon="24.88614250905811786651611328125">
        <ele>67.1999969482421875</ele>
        <time>2026-07-26T07:40:56.000Z</time>
        <extensions>
          <ns3:TrackPointExtension>
            <ns3:hr>118</ns3:hr>
            <ns3:cad>57</ns3:cad>
          </ns3:TrackPointExtension>
        </extensions>
      </trkpt>
      <trkpt lat="55.805108360946178436279296875" lon="24.88637636415660381317138671875">
        <ele>66.59999847412109375</ele>
        <time>2026-07-26T07:41:06.000Z</time>
        <extensions>
          <ns3:TrackPointExtension>
            <ns3:hr>117</ns3:hr>
            <ns3:cad>57</ns3:cad>
          </ns3:TrackPointExtension>
        </extensions>
      </trkpt>
      <trkpt lat="55.8050585724413394927978515625" lon="24.88658205606043338775634765625">
        <ele>66.8000030517578125</ele>
        <time>2026-07-26T07:41:15.000Z</time>
        <extensions>
          <ns3:TrackPointExtension>
            <ns3:hr>116</ns3:hr>
            <ns3:cad>57</ns3:cad>
          </ns3:TrackPointExtension>
        </extensions>
      </trkpt>
      <trkpt lat="55.80503367818892002105712890625" lon="24.88672689534723758697509765625">
        <ele>66.59999847412109375</ele>
        <time>2026-07-26T07:41:22.000Z</time>
        <extensions>
          <ns3:TrackPointExtension>
            <ns3:hr>115</ns3:hr>
            <ns3:cad>56</ns3:cad>
          </ns3:TrackPointExtension>
        </extensions>
      </trkpt>
      <trkpt lat="55.80502714030444622039794921875" lon="24.88674961030483245849609375">
        <ele>66.40000152587890625</ele>
        <time>2026-07-26T07:41:23.000Z</time>
        <extensions>
          <ns3:TrackPointExtension>
            <ns3:hr>115</ns3:hr>
            <ns3:cad>56</ns3:cad>
          </ns3:TrackPointExtension>
        </extensions>
      </trkpt>
      <trkpt lat="55.80497165210545063018798828125" lon="24.88693342544138431549072265625">
        <ele>66.1999969482421875</ele>
        <time>2026-07-26T07:41:30.000Z</time>
        <extensions>
          <ns3:TrackPointExtension>
            <ns3:hr>113</ns3:hr>
            <ns3:cad>56</ns3:cad>
          </ns3:TrackPointExtension>
        </extensions>
      </trkpt>
      <trkpt lat="55.80493007786571979522705078125" lon="24.887082874774932861328125">
        <ele>66.1999969482421875</ele>
        <time>2026-07-26T07:41:37.000Z</time>
        <extensions>
          <ns3:TrackPointExtension>
            <ns3:hr>116</ns3:hr>
            <ns3:cad>56</ns3:cad>
          </ns3:TrackPointExtension>
        </extensions>
      </trkpt>
      <trkpt lat="55.80491851083934307098388671875" lon="24.88712855614721775054931640625">
        <ele>66.1999969482421875</ele>
        <time>2026-07-26T07:41:39.000Z</time>
        <extensions>
          <ns3:TrackPointExtension>
            <ns3:hr>117</ns3:hr>
            <ns3:cad>57</ns3:cad>
          </ns3:TrackPointExtension>
        </extensions>
      </trkpt>
      <trkpt lat="55.80487341620028018951416015625" lon="24.8872811906039714813232421875">
        <ele>66.59999847412109375</ele>
        <time>2026-07-26T07:41:46.000Z</time>
        <extensions>
          <ns3:TrackPointExtension>
            <ns3:hr>120</ns3:hr>
            <ns3:cad>57</ns3:cad>
          </ns3:TrackPointExtension>
        </extensions>
      </trkpt>
      <trkpt lat="55.80485682003200054168701171875" lon="24.88733072765171527862548828125">
        <ele>66.59999847412109375</ele>
        <time>2026-07-26T07:41:48.000Z</time>
        <extensions>
          <ns3:TrackPointExtension>
            <ns3:hr>120</ns3:hr>
            <ns3:cad>57</ns3:cad>
          </ns3:TrackPointExtension>
        </extensions>
      </trkpt>
      <trkpt lat="55.8047581650316715240478515625" lon="24.88754262216389179229736328125">
        <ele>67.1999969482421875</ele>
        <time>2026-07-26T07:41:58.000Z</time>
        <extensions>
          <ns3:TrackPointExtension>
            <ns3:hr>121</ns3:hr>
            <ns3:cad>57</ns3:cad>
          </ns3:TrackPointExtension>
        </extensions>
      </trkpt>
      <trkpt lat="55.804670490324497222900390625" lon="24.88766114227473735809326171875">
        <ele>67.1999969482421875</ele>
        <time>2026-07-26T07:42:06.000Z</time>
        <extensions>
          <ns3:TrackPointExtension>
            <ns3:hr>122</ns3:hr>
            <ns3:cad>56</ns3:cad>
          </ns3:TrackPointExtension>
        </extensions>
      </trkpt>
      <trkpt lat="55.80454878509044647216796875" lon="24.88768436014652252197265625">
        <ele>67.1999969482421875</ele>
        <time>2026-07-26T07:42:14.000Z</time>
        <extensions>
          <ns3:TrackPointExtension>
            <ns3:hr>123</ns3:hr>
            <ns3:cad>57</ns3:cad>
          </ns3:TrackPointExtension>
        </extensions>
      </trkpt>
      <trkpt lat="55.80444728024303913116455078125" lon="24.88768310286104679107666015625">
        <ele>67.59999847412109375</ele>
        <time>2026-07-26T07:42:21.000Z</time>
        <extensions>
          <ns3:TrackPointExtension>
            <ns3:hr>123</ns3:hr>
            <ns3:cad>57</ns3:cad>
          </ns3:TrackPointExtension>
        </extensions>
      </trkpt>
      <trkpt lat="55.80443521030247211456298828125" lon="24.88768427632749080657958984375">
        <ele>67.59999847412109375</ele>
        <time>2026-07-26T07:42:22.000Z</time>
        <extensions>
          <ns3:TrackPointExtension>
            <ns3:hr>123</ns3:hr>
            <ns3:cad>57</ns3:cad>
          </ns3:TrackPointExtension>
        </extensions>
      </trkpt>
      <trkpt lat="55.8043313585221767425537109375" lon="24.88768209703266620635986328125">
        <ele>67.8000030517578125</ele>
        <time>2026-07-26T07:42:29.000Z</time>
        <extensions>
          <ns3:TrackPointExtension>
            <ns3:hr>123</ns3:hr>
            <ns3:cad>57</ns3:cad>
          </ns3:TrackPointExtension>
        </extensions>
      </trkpt>
      <trkpt lat="55.80416791141033172607421875" lon="24.887678325176239013671875">
        <ele>68.1999969482421875</ele>
        <time>2026-07-26T07:42:40.000Z</time>
        <extensions>
          <ns3:TrackPointExtension>
            <ns3:hr>123</ns3:hr>
            <ns3:cad>57</ns3:cad>
          </ns3:TrackPointExtension>
        </extensions>
      </trkpt>
      <trkpt lat="55.80405316315591335296630859375" lon="24.88769466988742351531982421875">
        <ele>68.1999969482421875</ele>
        <time>2026-07-26T07:42:48.000Z</time>
        <extensions>
          <ns3:TrackPointExtension>
            <ns3:hr>124</ns3:hr>
            <ns3:cad>57</ns3:cad>
          </ns3:TrackPointExtension>
        </extensions>
      </trkpt>
      <trkpt lat="55.80392181873321533203125" lon="24.8876743018627166748046875">
        <ele>68.8000030517578125</ele>
        <time>2026-07-26T07:42:57.000Z</time>
        <extensions>
          <ns3:TrackPointExtension>
            <ns3:hr>125</ns3:hr>
            <ns3:cad>58</ns3:cad>
          </ns3:TrackPointExtension>
        </extensions>
      </trkpt>
      <trkpt lat="55.80375560559332370758056640625" lon="24.88768612034618854522705078125">
        <ele>68.8000030517578125</ele>
        <time>2026-07-26T07:43:06.000Z</time>
        <extensions>
          <ns3:TrackPointExtension>
            <ns3:hr>124</ns3:hr>
            <ns3:cad>59</ns3:cad>
          </ns3:TrackPointExtension>
        </extensions>
      </trkpt>
      <trkpt lat="55.80368938855826854705810546875" lon="24.88769332878291606903076171875">
        <ele>68.59999847412109375</ele>
        <time>2026-07-26T07:43:12.000Z</time>
        <extensions>
          <ns3:TrackPointExtension>
            <ns3:hr>121</ns3:hr>
            <ns3:cad>59</ns3:cad>
          </ns3:TrackPointExtension>
        </extensions>
      </trkpt>
      <trkpt lat="55.80365569330751895904541015625" lon="24.8876925744116306304931640625">
        <ele>68.40000152587890625</ele>
        <time>2026-07-26T07:43:14.000Z</time>
        <extensions>
          <ns3:TrackPointExtension>
            <ns3:hr>122</ns3:hr>
            <ns3:cad>58</ns3:cad>
          </ns3:TrackPointExtension>
        </extensions>
      </trkpt>
      <trkpt lat="55.8035020530223846435546875" lon="24.88770104013383388519287109375">
        <ele>68.40000152587890625</ele>
        <time>2026-07-26T07:43:24.000Z</time>
        <extensions>
          <ns3:TrackPointExtension>
            <ns3:hr>121</ns3:hr>
            <ns3:cad>59</ns3:cad>
          </ns3:TrackPointExtension>
        </extensions>
      </trkpt>
      <trkpt lat="55.8033386059105396270751953125" lon="24.8877038061618804931640625">
        <ele>67.8000030517578125</ele>
        <time>2026-07-26T07:43:35.000Z</time>
        <extensions>
          <ns3:TrackPointExtension>
            <ns3:hr>121</ns3:hr>
            <ns3:cad>58</ns3:cad>
          </ns3:TrackPointExtension>
        </extensions>
      </trkpt>
      <trkpt lat="55.80324925482273101806640625" lon="24.88769617862999439239501953125">
        <ele>67.8000030517578125</ele>
        <time>2026-07-26T07:43:41.000Z</time>
        <extensions>
          <ns3:TrackPointExtension>
            <ns3:hr>124</ns3:hr>
            <ns3:cad>59</ns3:cad>
          </ns3:TrackPointExtension>
        </extensions>
      </trkpt>
      <trkpt lat="55.80323324538767337799072265625" lon="24.8876930773258209228515625">
        <ele>67.8000030517578125</ele>
        <time>2026-07-26T07:43:42.000Z</time>
        <extensions>
          <ns3:TrackPointExtension>
            <ns3:hr>124</ns3:hr>
            <ns3:cad>59</ns3:cad>
          </ns3:TrackPointExtension>
        </extensions>
      </trkpt>
      <trkpt lat="55.803221762180328369140625" lon="24.8876955918967723846435546875">
        <ele>67.8000030517578125</ele>
        <time>2026-07-26T07:43:43.000Z</time>
        <extensions>
          <ns3:TrackPointExtension>
            <ns3:hr>124</ns3:hr>
            <ns3:cad>59</ns3:cad>
          </ns3:TrackPointExtension>
        </extensions>
      </trkpt>
      <trkpt lat="55.80315294675529003143310546875" lon="24.88768544979393482208251953125">
        <ele>67.8000030517578125</ele>
        <time>2026-07-26T07:43:48.000Z</time>
        <extensions>
          <ns3:TrackPointExtension>
            <ns3:hr>121</ns3:hr>
            <ns3:cad>57</ns3:cad>
          </ns3:TrackPointExtension>
        </extensions>
      </trkpt>
      <trkpt lat="55.80308237113058567047119140625" lon="24.887678660452365875244140625">
        <ele>67.8000030517578125</ele>
        <time>2026-07-26T07:43:52.000Z</time>
        <extensions>
          <ns3:TrackPointExtension>
            <ns3:hr>120</ns3:hr>
            <ns3:cad>59</ns3:cad>
          </ns3:TrackPointExtension>
        </extensions>
      </trkpt>
      <trkpt lat="55.8029548823833465576171875" lon="24.887680672109127044677734375">
        <ele>67.8000030517578125</ele>
        <time>2026-07-26T07:44:01.000Z</time>
        <extensions>
          <ns3:TrackPointExtension>
            <ns3:hr>120</ns3:hr>
            <ns3:cad>60</ns3:cad>
          </ns3:TrackPointExtension>
        </extensions>
      </trkpt>
      <trkpt lat="55.80285488627851009368896484375" lon="24.8876801691949367523193359375">
        <ele>67.8000030517578125</ele>
        <time>2026-07-26T07:44:08.000Z</time>
        <extensions>
          <ns3:TrackPointExtension>
            <ns3:hr>120</ns3:hr>
            <ns3:cad>59</ns3:cad>
          </ns3:TrackPointExtension>
        </extensions>
      </trkpt>
      <trkpt lat="55.80270870588719844818115234375" lon="24.88767287693917751312255859375">
        <ele>67.59999847412109375</ele>
        <time>2026-07-26T07:44:17.000Z</time>
        <extensions>
          <ns3:TrackPointExtension>
            <ns3:hr>120</ns3:hr>
            <ns3:cad>60</ns3:cad>
          </ns3:TrackPointExtension>
        </extensions>
      </trkpt>
      <trkpt lat="55.80256436951458454132080078125" lon="24.8876769840717315673828125">
        <ele>68</ele>
        <time>2026-07-26T07:44:26.000Z</time>
        <extensions>
          <ns3:TrackPointExtension>
            <ns3:hr>121</ns3:hr>
            <ns3:cad>59</ns3:cad>
          </ns3:TrackPointExtension>
        </extensions>
      </trkpt>
      <trkpt lat="55.80246194265782833099365234375" lon="24.88766130991280078887939453125">
        <ele>68</ele>
        <time>2026-07-26T07:44:34.000Z</time>
        <extensions>
          <ns3:TrackPointExtension>
            <ns3:hr>122</ns3:hr>
            <ns3:cad>58</ns3:cad>
          </ns3:TrackPointExtension>
        </extensions>
      </trkpt>
      <trkpt lat="55.80231911502778530120849609375" lon="24.8876657523214817047119140625">
        <ele>68</ele>
        <time>2026-07-26T07:44:44.000Z</time>
        <extensions>
          <ns3:TrackPointExtension>
            <ns3:hr>121</ns3:hr>
            <ns3:cad>59</ns3:cad>
          </ns3:TrackPointExtension>
        </extensions>
      </trkpt>
      <trkpt lat="55.80218249000608921051025390625" lon="24.8876882158219814300537109375">
        <ele>68.40000152587890625</ele>
        <time>2026-07-26T07:44:52.000Z</time>
        <extensions>
          <ns3:TrackPointExtension>
            <ns3:hr>121</ns3:hr>
            <ns3:cad>59</ns3:cad>
          </ns3:TrackPointExtension>
        </extensions>
      </trkpt>
      <trkpt lat="55.802037902176380157470703125" lon="24.88768628798425197601318359375">
        <ele>67.8000030517578125</ele>
        <time>2026-07-26T07:45:01.000Z</time>
        <extensions>
          <ns3:TrackPointExtension>
            <ns3:hr>122</ns3:hr>
            <ns3:cad>59</ns3:cad>
          </ns3:TrackPointExtension>
        </extensions>
      </trkpt>
      <trkpt lat="55.80195433460175991058349609375" lon="24.88770036958158016204833984375">
        <ele>67.8000030517578125</ele>
        <time>2026-07-26T07:45:07.000Z</time>
        <extensions>
          <ns3:TrackPointExtension>
            <ns3:hr>122</ns3:hr>
            <ns3:cad>59</ns3:cad>
          </ns3:TrackPointExtension>
        </extensions>
      </trkpt>
      <trkpt lat="55.8018127642571926116943359375" lon="24.88767656497657299041748046875">
        <ele>68.40000152587890625</ele>
        <time>2026-07-26T07:45:16.000Z</time>
        <extensions>
          <ns3:TrackPointExtension>
            <ns3:hr>123</ns3:hr>
            <ns3:cad>59</ns3:cad>
          </ns3:TrackPointExtension>
        </extensions>
      </trkpt>
      <trkpt lat="55.80164303071796894073486328125" lon="24.8876959271728992462158203125">
        <ele>68.40000152587890625</ele>
        <time>2026-07-26T07:45:26.000Z</time>
        <extensions>
          <ns3:TrackPointExtension>
            <ns3:hr>122</ns3:hr>
            <ns3:cad>60</ns3:cad>
          </ns3:TrackPointExtension>
        </extensions>
      </trkpt>
      <trkpt lat="55.8015043102204799652099609375" lon="24.8876903951168060302734375">
        <ele>68</ele>
        <time>2026-07-26T07:45:35.000Z</time>
        <extensions>
          <ns3:TrackPointExtension>
            <ns3:hr>122</ns3:hr>
            <ns3:cad>59</ns3:cad>
          </ns3:TrackPointExtension>
        </extensions>
      </trkpt>
      <trkpt lat="55.8013777434825897216796875" lon="24.88769601099193096160888671875">
        <ele>67.8000030517578125</ele>
        <time>2026-07-26T07:45:44.000Z</time>
        <extensions>
          <ns3:TrackPointExtension>
            <ns3:hr>121</ns3:hr>
            <ns3:cad>58</ns3:cad>
          </ns3:TrackPointExtension>
        </extensions>
      </trkpt>
      <trkpt lat="55.8013148792088031768798828125" lon="24.887699447572231292724609375">
        <ele>68.1999969482421875</ele>
        <time>2026-07-26T07:45:48.000Z</time>
        <extensions>
          <ns3:TrackPointExtension>
            <ns3:hr>124</ns3:hr>
            <ns3:cad>59</ns3:cad>
          </ns3:TrackPointExtension>
        </extensions>
      </trkpt>
      <trkpt lat="55.80121077597141265869140625" lon="24.88769550807774066925048828125">
        <ele>67.8000030517578125</ele>
        <time>2026-07-26T07:45:55.000Z</time>
        <extensions>
          <ns3:TrackPointExtension>
            <ns3:hr>123</ns3:hr>
            <ns3:cad>58</ns3:cad>
          </ns3:TrackPointExtension>
        </extensions>
      </trkpt>
      <trkpt lat="55.80106333829462528228759765625" lon="24.88765561021864414215087890625">
        <ele>68.8000030517578125</ele>
        <time>2026-07-26T07:46:05.000Z</time>
        <extensions>
          <ns3:TrackPointExtension>
            <ns3:hr>124</ns3:hr>
            <ns3:cad>58</ns3:cad>
          </ns3:TrackPointExtension>
        </extensions>
      </trkpt>
      <trkpt lat="55.800909698009490966796875" lon="24.8876432888209819793701171875">
        <ele>68.8000030517578125</ele>
        <time>2026-07-26T07:46:15.000Z</time>
        <extensions>
          <ns3:TrackPointExtension>
            <ns3:hr>125</ns3:hr>
            <ns3:cad>57</ns3:cad>
          </ns3:TrackPointExtension>
        </extensions>
      </trkpt>
      <trkpt lat="55.800814814865589141845703125" lon="24.88760548643767833709716796875">
        <ele>68.8000030517578125</ele>
        <time>2026-07-26T07:46:22.000Z</time>
        <extensions>
          <ns3:TrackPointExtension>
            <ns3:hr>122</ns3:hr>
            <ns3:cad>58</ns3:cad>
          </ns3:TrackPointExtension>
        </extensions>
      </trkpt>
      <trkpt lat="55.80077089369297027587890625" lon="24.887587465345859527587890625">
        <ele>68.8000030517578125</ele>
        <time>2026-07-26T07:46:25.000Z</time>
        <extensions>
          <ns3:TrackPointExtension>
            <ns3:hr>122</ns3:hr>
            <ns3:cad>58</ns3:cad>
          </ns3:TrackPointExtension>
        </extensions>
      </trkpt>
      <trkpt lat="55.8006227016448974609375" lon="24.8875272832810878753662109375">
        <ele>68.40000152587890625</ele>
        <time>2026-07-26T07:46:35.000Z</time>
        <extensions>
          <ns3:TrackPointExtension>
            <ns3:hr>120</ns3:hr>
            <ns3:cad>58</ns3:cad>
          </ns3:TrackPointExtension>
        </extensions>
      </trkpt>
      <trkpt lat="55.8004776947200298309326171875" lon="24.8874562047421932220458984375">
        <ele>68.1999969482421875</ele>
        <time>2026-07-26T07:46:45.000Z</time>
        <extensions>
          <ns3:TrackPointExtension>
            <ns3:hr>119</ns3:hr>
            <ns3:cad>59</ns3:cad>
          </ns3:TrackPointExtension>
        </extensions>
      </trkpt>
      <trkpt lat="55.80034484155476093292236328125" lon="24.88737934269011020660400390625">
        <ele>68</ele>
        <time>2026-07-26T07:46:54.000Z</time>
        <extensions>
          <ns3:TrackPointExtension>
            <ns3:hr>117</ns3:hr>
            <ns3:cad>59</ns3:cad>
          </ns3:TrackPointExtension>
        </extensions>
      </trkpt>
      <trkpt lat="55.8001782931387424468994140625" lon="24.887299798429012298583984375">
        <ele>68.40000152587890625</ele>
        <time>2026-07-26T07:47:05.000Z</time>
        <extensions>
          <ns3:TrackPointExtension>
            <ns3:hr>119</ns3:hr>
            <ns3:cad>58</ns3:cad>
          </ns3:TrackPointExtension>
        </extensions>
      </trkpt>
      <trkpt lat="55.8000673167407512664794921875" lon="24.88727423362433910369873046875">
        <ele>68.40000152587890625</ele>
        <time>2026-07-26T07:47:13.000Z</time>
        <extensions>
          <ns3:TrackPointExtension>
            <ns3:hr>119</ns3:hr>
            <ns3:cad>60</ns3:cad>
          </ns3:TrackPointExtension>
        </extensions>
      </trkpt>
      <trkpt lat="55.79992826096713542938232421875" lon="24.8871980421245098114013671875">
        <ele>68</ele>
        <time>2026-07-26T07:47:23.000Z</time>
        <extensions>
          <ns3:TrackPointExtension>
            <ns3:hr>117</ns3:hr>
            <ns3:cad>59</ns3:cad>
          </ns3:TrackPointExtension>
        </extensions>
      </trkpt>
      <trkpt lat="55.79992407001554965972900390625" lon="24.88718957640230655670166015625">
        <ele>68.40000152587890625</ele>
        <time>2026-07-26T07:47:28.000Z</time>
        <extensions>
          <ns3:TrackPointExtension>
            <ns3:hr>116</ns3:hr>
            <ns3:cad>0</ns3:cad>
          </ns3:TrackPointExtension>
        </extensions>
      </trkpt>
      <trkpt lat="55.800008140504360198974609375" lon="24.8872188292443752288818359375">
        <ele>68</ele>
        <time>2026-07-26T07:47:34.000Z</time>
        <extensions>
          <ns3:TrackPointExtension>
            <ns3:hr>116</ns3:hr>
            <ns3:cad>59</ns3:cad>
          </ns3:TrackPointExtension>
        </extensions>
      </trkpt>
      <trkpt lat="55.80005608499050140380859375" lon="24.8872436396777629852294921875">
        <ele>68</ele>
        <time>2026-07-26T07:47:37.000Z</time>
        <extensions>
          <ns3:TrackPointExtension>
            <ns3:hr>119</ns3:hr>
            <ns3:cad>59</ns3:cad>
          </ns3:TrackPointExtension>
        </extensions>
      </trkpt>
      <trkpt lat="55.8000860922038555145263671875" lon="24.88725964911282062530517578125">
        <ele>68</ele>
        <time>2026-07-26T07:47:39.000Z</time>
        <extensions>
          <ns3:TrackPointExtension>
            <ns3:hr>122</ns3:hr>
            <ns3:cad>58</ns3:cad>
          </ns3:TrackPointExtension>
        </extensions>
      </trkpt>
      <trkpt lat="55.8001903630793094635009765625" lon="24.88730122335255146026611328125">
        <ele>68</ele>
        <time>2026-07-26T07:47:47.000Z</time>
        <extensions>
          <ns3:TrackPointExtension>
            <ns3:hr>122</ns3:hr>
            <ns3:cad>57</ns3:cad>
          </ns3:TrackPointExtension>
        </extensions>
      </trkpt>
      <trkpt lat="55.8003764413297176361083984375" lon="24.88739945925772190093994140625">
        <ele>68</ele>
        <time>2026-07-26T07:48:00.000Z</time>
        <extensions>
          <ns3:TrackPointExtension>
            <ns3:hr>122</ns3:hr>
            <ns3:cad>60</ns3:cad>
          </ns3:TrackPointExtension>
        </extensions>
      </trkpt>
      <trkpt lat="55.8005517907440662384033203125" lon="24.8874919116497039794921875">
        <ele>68.40000152587890625</ele>
        <time>2026-07-26T07:48:12.000Z</time>
        <extensions>
          <ns3:TrackPointExtension>
            <ns3:hr>120</ns3:hr>
            <ns3:cad>59</ns3:cad>
          </ns3:TrackPointExtension>
        </extensions>
      </trkpt>
      <trkpt lat="55.80069453455507755279541015625" lon="24.88756977953016757965087890625">
        <ele>68.59999847412109375</ele>
        <time>2026-07-26T07:48:22.000Z</time>
        <extensions>
          <ns3:TrackPointExtension>
            <ns3:hr>122</ns3:hr>
            <ns3:cad>59</ns3:cad>
          </ns3:TrackPointExtension>
        </extensions>
      </trkpt>
      <trkpt lat="55.800794698297977447509765625" lon="24.88768058829009532928466796875">
        <ele>68.59999847412109375</ele>
        <time>2026-07-26T07:48:29.000Z</time>
        <extensions>
          <ns3:TrackPointExtension>
            <ns3:hr>123</ns3:hr>
            <ns3:cad>61</ns3:cad>
          </ns3:TrackPointExtension>
        </extensions>
      </trkpt>
      <trkpt lat="55.800797045230865478515625" lon="24.8878030478954315185546875">
        <ele>69</ele>
        <time>2026-07-26T07:48:34.000Z</time>
        <extensions>
          <ns3:TrackPointExtension>
            <ns3:hr>120</ns3:hr>
            <ns3:cad>59</ns3:cad>
          </ns3:TrackPointExtension>
        </extensions>
      </trkpt>
      <trkpt lat="55.8007911778986454010009765625" lon="24.8878528364002704620361328125">
        <ele>69.1999969482421875</ele>
        <time>2026-07-26T07:48:36.000Z</time>
        <extensions>
          <ns3:TrackPointExtension>
            <ns3:hr>119</ns3:hr>
            <ns3:cad>58</ns3:cad>
          </ns3:TrackPointExtension>
        </extensions>
      </trkpt>
      <trkpt lat="55.800738371908664703369140625" lon="24.88806783221662044525146484375">
        <ele>69.59999847412109375</ele>
        <time>2026-07-26T07:48:45.000Z</time>
        <extensions>
          <ns3:TrackPointExtension>
            <ns3:hr>121</ns3:hr>
            <ns3:cad>57</ns3:cad>
          </ns3:TrackPointExtension>
        </extensions>
      </trkpt>
      <trkpt lat="55.80072638578712940216064453125" lon="24.88810890354216098785400390625">
        <ele>69.8000030517578125</ele>
        <time>2026-07-26T07:48:47.000Z</time>
        <extensions>
          <ns3:TrackPointExtension>
            <ns3:hr>122</ns3:hr>
            <ns3:cad>56</ns3:cad>
          </ns3:TrackPointExtension>
        </extensions>
      </trkpt>
      <trkpt lat="55.8007137291133403778076171875" lon="24.88816573284566402435302734375">
        <ele>70.1999969482421875</ele>
        <time>2026-07-26T07:48:50.000Z</time>
        <extensions>
          <ns3:TrackPointExtension>
            <ns3:hr>125</ns3:hr>
            <ns3:cad>57</ns3:cad>
          </ns3:TrackPointExtension>
        </extensions>
      </trkpt>
      <trkpt lat="55.800688751041889190673828125" lon="24.888252317905426025390625">
        <ele>70.59999847412109375</ele>
        <time>2026-07-26T07:48:54.000Z</time>
        <extensions>
          <ns3:TrackPointExtension>
            <ns3:hr>126</ns3:hr>
            <ns3:cad>56</ns3:cad>
          </ns3:TrackPointExtension>
        </extensions>
      </trkpt>
      <trkpt lat="55.800673663616180419921875" lon="24.8882992565631866455078125">
        <ele>70.8000030517578125</ele>
        <time>2026-07-26T07:48:56.000Z</time>
        <extensions>
          <ns3:TrackPointExtension>
            <ns3:hr>127</ns3:hr>
            <ns3:cad>56</ns3:cad>
          </ns3:TrackPointExtension>
        </extensions>
      </trkpt>
      <trkpt lat="55.80064089037477970123291015625" lon="24.888439066708087921142578125">
        <ele>71.1999969482421875</ele>
        <time>2026-07-26T07:49:02.000Z</time>
        <extensions>
          <ns3:TrackPointExtension>
            <ns3:hr>130</ns3:hr>
            <ns3:cad>56</ns3:cad>
          </ns3:TrackPointExtension>
        </extensions>
      </trkpt>
      <trkpt lat="55.80061909742653369903564453125" lon="24.8885146714746952056884765625">
        <ele>72</ele>
        <time>2026-07-26T07:49:06.000Z</time>
        <extensions>
          <ns3:TrackPointExtension>
            <ns3:hr>132</ns3:hr>
            <ns3:cad>56</ns3:cad>
          </ns3:TrackPointExtension>
        </extensions>
      </trkpt>
      <trkpt lat="55.80060266889631748199462890625" lon="24.88855415023863315582275390625">
        <ele>72.1999969482421875</ele>
        <time>2026-07-26T07:49:08.000Z</time>
        <extensions>
          <ns3:TrackPointExtension>
            <ns3:hr>133</ns3:hr>
            <ns3:cad>56</ns3:cad>
          </ns3:TrackPointExtension>
        </extensions>
      </trkpt>
      <trkpt lat="55.80057400278747081756591796875" lon="24.8886367119848728179931640625">
        <ele>73</ele>
        <time>2026-07-26T07:49:12.000Z</time>
        <extensions>
          <ns3:TrackPointExtension>
            <ns3:hr>134</ns3:hr>
            <ns3:cad>55</ns3:cad>
          </ns3:TrackPointExtension>
        </extensions>
      </trkpt>
      <trkpt lat="55.80055036582052707672119140625" lon="24.8887061141431331634521484375">
        <ele>73.59999847412109375</ele>
        <time>2026-07-26T07:49:16.000Z</time>
        <extensions>
          <ns3:TrackPointExtension>
            <ns3:hr>132</ns3:hr>
            <ns3:cad>55</ns3:cad>
          </ns3:TrackPointExtension>
        </extensions>
      </trkpt>
      <trkpt lat="55.80053494311869144439697265625" lon="24.88874492235481739044189453125">
        <ele>74</ele>
        <time>2026-07-26T07:49:18.000Z</time>
        <extensions>
          <ns3:TrackPointExtension>
            <ns3:hr>133</ns3:hr>
            <ns3:cad>55</ns3:cad>
          </ns3:TrackPointExtension>
        </extensions>
      </trkpt>
      <trkpt lat="55.800502337515354156494140625" lon="24.8888294957578182220458984375">
        <ele>75.1999969482421875</ele>
        <time>2026-07-26T07:49:23.000Z</time>
        <extensions>
          <ns3:TrackPointExtension>
            <ns3:hr>135</ns3:hr>
            <ns3:cad>53</ns3:cad>
          </ns3:TrackPointExtension>
        </extensions>
      </trkpt>
      <trkpt lat="55.80049605108797550201416015625" lon="24.88883905112743377685546875">
        <ele>75.40000152587890625</ele>
        <time>2026-07-26T07:49:24.000Z</time>
        <extensions>
          <ns3:TrackPointExtension>
            <ns3:hr>135</ns3:hr>
            <ns3:cad>53</ns3:cad>
          </ns3:TrackPointExtension>
        </extensions>
      </trkpt>
      <trkpt lat="55.8004515431821346282958984375" lon="24.88889780826866626739501953125">
        <ele>76.1999969482421875</ele>
        <time>2026-07-26T07:49:29.000Z</time>
        <extensions>
          <ns3:TrackPointExtension>
            <ns3:hr>137</ns3:hr>
            <ns3:cad>53</ns3:cad>
          </ns3:TrackPointExtension>
        </extensions>
      </trkpt>
      <trkpt lat="55.80041524954140186309814453125" lon="24.88897928036749362945556640625">
        <ele>77.40000152587890625</ele>
        <time>2026-07-26T07:49:34.000Z</time>
        <extensions>
          <ns3:TrackPointExtension>
            <ns3:hr>137</ns3:hr>
            <ns3:cad>52</ns3:cad>
          </ns3:TrackPointExtension>
        </extensions>
      </trkpt>
      <trkpt lat="55.80040552653372287750244140625" lon="24.88899587653577327728271484375">
        <ele>77.59999847412109375</ele>
        <time>2026-07-26T07:49:35.000Z</time>
        <extensions>
          <ns3:TrackPointExtension>
            <ns3:hr>138</ns3:hr>
            <ns3:cad>52</ns3:cad>
          </ns3:TrackPointExtension>
        </extensions>
      </trkpt>
      <trkpt lat="55.800369568169116973876953125" lon="24.889041893184185028076171875">
        <ele>78.1999969482421875</ele>
        <time>2026-07-26T07:49:39.000Z</time>
        <extensions>
          <ns3:TrackPointExtension>
            <ns3:hr>141</ns3:hr>
            <ns3:cad>50</ns3:cad>
          </ns3:TrackPointExtension>
        </extensions>
      </trkpt>
      <trkpt lat="55.80035917460918426513671875" lon="24.88905739970505237579345703125">
        <ele>78.40000152587890625</ele>
        <time>2026-07-26T07:49:40.000Z</time>
        <extensions>
          <ns3:TrackPointExtension>
            <ns3:hr>141</ns3:hr>
            <ns3:cad>50</ns3:cad>
          </ns3:TrackPointExtension>
        </extensions>
      </trkpt>
      <trkpt lat="55.80035003833472728729248046875" lon="24.88907366059720516204833984375">
        <ele>78.8000030517578125</ele>
        <time>2026-07-26T07:49:41.000Z</time>
        <extensions>
          <ns3:TrackPointExtension>
            <ns3:hr>141</ns3:hr>
            <ns3:cad>48</ns3:cad>
          </ns3:TrackPointExtension>
        </extensions>
      </trkpt>
      <trkpt lat="55.80031768418848514556884765625" lon="24.88912227563560009002685546875">
        <ele>79.59999847412109375</ele>
        <time>2026-07-26T07:49:45.000Z</time>
        <extensions>
          <ns3:TrackPointExtension>
            <ns3:hr>143</ns3:hr>
            <ns3:cad>51</ns3:cad>
          </ns3:TrackPointExtension>
        </extensions>
      </trkpt>
      <trkpt lat="55.80028147436678409576416015625" lon="24.88916502334177494049072265625">
        <ele>80.59999847412109375</ele>
        <time>2026-07-26T07:49:49.000Z</time>
        <extensions>
          <ns3:TrackPointExtension>
            <ns3:hr>146</ns3:hr>
            <ns3:cad>52</ns3:cad>
          </ns3:TrackPointExtension>
        </extensions>
      </trkpt>
      <trkpt lat="55.8002761937677860260009765625" lon="24.889171980321407318115234375">
        <ele>80.8000030517578125</ele>
        <time>2026-07-26T07:49:50.000Z</time>
        <extensions>
          <ns3:TrackPointExtension>
            <ns3:hr>147</ns3:hr>
            <ns3:cad>52</ns3:cad>
          </ns3:TrackPointExtension>
        </extensions>
      </trkpt>
      <trkpt lat="55.8002634532749652862548828125" lon="24.8891869001090526580810546875">
        <ele>81</ele>
        <time>2026-07-26T07:49:52.000Z</time>
        <extensions>
          <ns3:TrackPointExtension>
            <ns3:hr>150</ns3:hr>
            <ns3:cad>48</ns3:cad>
          </ns3:TrackPointExtension>
        </extensions>
      </trkpt>
      <trkpt lat="55.80022632144391536712646484375" lon="24.8892402090132236480712890625">
        <ele>82</ele>
        <time>2026-07-26T07:49:56.000Z</time>
        <extensions>
          <ns3:TrackPointExtension>
            <ns3:hr>152</ns3:hr>
            <ns3:cad>50</ns3:cad>
          </ns3:TrackPointExtension>
        </extensions>
      </trkpt>
      <trkpt lat="55.80020938999950885772705078125" lon="24.88926024176180362701416015625">
        <ele>82.40000152587890625</ele>
        <time>2026-07-26T07:49:58.000Z</time>
        <extensions>
          <ns3:TrackPointExtension>
            <ns3:hr>152</ns3:hr>
            <ns3:cad>50</ns3:cad>
          </ns3:TrackPointExtension>
        </extensions>
      </trkpt>
      <trkpt lat="55.80018927343189716339111328125" lon="24.889287985861301422119140625">
        <ele>83</ele>
        <time>2026-07-26T07:50:02.000Z</time>
        <extensions>
          <ns3:TrackPointExtension>
            <ns3:hr>155</ns3:hr>
            <ns3:cad>49</ns3:cad>
          </ns3:TrackPointExtension>
        </extensions>
      </trkpt>
      <trkpt lat="55.80017820931971073150634765625" lon="24.88929913379251956939697265625">
        <ele>83.1999969482421875</ele>
        <time>2026-07-26T07:50:03.000Z</time>
        <extensions>
          <ns3:TrackPointExtension>
            <ns3:hr>155</ns3:hr>
            <ns3:cad>49</ns3:cad>
          </ns3:TrackPointExtension>
        </extensions>
      </trkpt>
      <trkpt lat="55.8001675643026828765869140625" lon="24.88930935971438884735107421875">
        <ele>83.40000152587890625</ele>
        <time>2026-07-26T07:50:04.000Z</time>
        <extensions>
          <ns3:TrackPointExtension>
            <ns3:hr>155</ns3:hr>
            <ns3:cad>49</ns3:cad>
          </ns3:TrackPointExtension>
        </extensions>
      </trkpt>
      <trkpt lat="55.80014384351670742034912109375" lon="24.8893303982913494110107421875">
        <ele>84.1999969482421875</ele>
        <time>2026-07-26T07:50:07.000Z</time>
        <extensions>
          <ns3:TrackPointExtension>
            <ns3:hr>154</ns3:hr>
            <ns3:cad>50</ns3:cad>
          </ns3:TrackPointExtension>
        </extensions>
      </trkpt>
      <trkpt lat="55.8001139201223850250244140625" lon="24.88935671746730804443359375">
        <ele>85</ele>
        <time>2026-07-26T07:50:10.000Z</time>
        <extensions>
          <ns3:TrackPointExtension>
            <ns3:hr>155</ns3:hr>
            <ns3:cad>50</ns3:cad>
          </ns3:TrackPointExtension>
        </extensions>
      </trkpt>
      <trkpt lat="55.8001015149056911468505859375" lon="24.88936518318951129913330078125">
        <ele>85.1999969482421875</ele>
        <time>2026-07-26T07:50:11.000Z</time>
        <extensions>
          <ns3:TrackPointExtension>
            <ns3:hr>156</ns3:hr>
            <ns3:cad>50</ns3:cad>
          </ns3:TrackPointExtension>
        </extensions>
      </trkpt>
      <trkpt lat="55.800048373639583587646484375" lon="24.88940960727632045745849609375">
        <ele>86.1999969482421875</ele>
        <time>2026-07-26T07:50:17.000Z</time>
        <extensions>
          <ns3:TrackPointExtension>
            <ns3:hr>158</ns3:hr>
            <ns3:cad>48</ns3:cad>
          </ns3:TrackPointExtension>
        </extensions>
      </trkpt>
      <trkpt lat="55.79996966756880283355712890625" lon="24.88944464363157749176025390625">
        <ele>87.40000152587890625</ele>
        <time>2026-07-26T07:50:24.000Z</time>
        <extensions>
          <ns3:TrackPointExtension>
            <ns3:hr>158</ns3:hr>
            <ns3:cad>51</ns3:cad>
          </ns3:TrackPointExtension>
        </extensions>
      </trkpt>
      <trkpt lat="55.79990780912339687347412109375" lon="24.88943475298583507537841796875">
        <ele>88.59999847412109375</ele>
        <time>2026-07-26T07:50:30.000Z</time>
        <extensions>
          <ns3:TrackPointExtension>
            <ns3:hr>159</ns3:hr>
            <ns3:cad>51</ns3:cad>
          </ns3:TrackPointExtension>
        </extensions>
      </trkpt>
      <trkpt lat="55.799883417785167694091796875" lon="24.88943005912005901336669921875">
        <ele>88.59999847412109375</ele>
        <time>2026-07-26T07:50:32.000Z</time>
        <extensions>
          <ns3:TrackPointExtension>
            <ns3:hr>160</ns3:hr>
            <ns3:cad>53</ns3:cad>
          </ns3:TrackPointExtension>
        </extensions>
      </trkpt>
      <trkpt lat="55.79977369867265224456787109375" lon="24.889391250908374786376953125">
        <ele>89.1999969482421875</ele>
        <time>2026-07-26T07:50:41.000Z</time>
        <extensions>
          <ns3:TrackPointExtension>
            <ns3:hr>159</ns3:hr>
            <ns3:cad>54</ns3:cad>
          </ns3:TrackPointExtension>
        </extensions>
      </trkpt>
      <trkpt lat="55.7997337169945240020751953125" lon="24.88937817513942718505859375">
        <ele>89.59999847412109375</ele>
        <time>2026-07-26T07:50:44.000Z</time>
        <extensions>
          <ns3:TrackPointExtension>
            <ns3:hr>159</ns3:hr>
            <ns3:cad>55</ns3:cad>
          </ns3:TrackPointExtension>
        </extensions>
      </trkpt>
      <trkpt lat="55.79969055019319057464599609375" lon="24.88936468027532100677490234375">
        <ele>89.59999847412109375</ele>
        <time>2026-07-26T07:50:47.000Z</time>
        <extensions>
          <ns3:TrackPointExtension>
            <ns3:hr>161</ns3:hr>
            <ns3:cad>55</ns3:cad>
          </ns3:TrackPointExtension>
        </extensions>
      </trkpt>
      <trkpt lat="55.7996120117604732513427734375" lon="24.8893749900162220001220703125">
        <ele>89.8000030517578125</ele>
        <time>2026-07-26T07:50:53.000Z</time>
        <extensions>
          <ns3:TrackPointExtension>
            <ns3:hr>158</ns3:hr>
            <ns3:cad>56</ns3:cad>
          </ns3:TrackPointExtension>
        </extensions>
      </trkpt>
      <trkpt lat="55.79960488714277744293212890625" lon="24.88938379101455211639404296875">
        <ele>90</ele>
        <time>2026-07-26T07:50:54.000Z</time>
        <extensions>
          <ns3:TrackPointExtension>
            <ns3:hr>158</ns3:hr>
            <ns3:cad>55</ns3:cad>
          </ns3:TrackPointExtension>
        </extensions>
      </trkpt>
      <trkpt lat="55.79960036091506481170654296875" lon="24.88939368166029453277587890625">
        <ele>90.59999847412109375</ele>
        <time>2026-07-26T07:50:57.000Z</time>
        <extensions>
          <ns3:TrackPointExtension>
            <ns3:hr>158</ns3:hr>
            <ns3:cad>0</ns3:cad>
          </ns3:TrackPointExtension>
        </extensions>
      </trkpt>
      <trkpt lat="55.79959231428802013397216796875" lon="24.8893984593451023101806640625">
        <ele>90.8000030517578125</ele>
        <time>2026-07-26T07:51:03.000Z</time>
        <extensions>
          <ns3:TrackPointExtension>
            <ns3:hr>155</ns3:hr>
            <ns3:cad>0</ns3:cad>
          </ns3:TrackPointExtension>
        </extensions>
      </trkpt>
      <trkpt lat="55.79959834925830364227294921875" lon="24.8893998004496097564697265625">
        <ele>90.1999969482421875</ele>
        <time>2026-07-26T07:51:12.000Z</time>
        <extensions>
          <ns3:TrackPointExtension>
            <ns3:hr>156</ns3:hr>
            <ns3:cad>0</ns3:cad>
          </ns3:TrackPointExtension>
        </extensions>
      </trkpt>
      <trkpt lat="55.79960572533309459686279296875" lon="24.8893890716135501861572265625">
        <ele>90.1999969482421875</ele>
        <time>2026-07-26T07:51:21.000Z</time>
        <extensions>
          <ns3:TrackPointExtension>
            <ns3:hr>153</ns3:hr>
            <ns3:cad>0</ns3:cad>
          </ns3:TrackPointExtension>
        </extensions>
      </trkpt>
      <trkpt lat="55.7995781488716602325439453125" lon="24.8893552087247371673583984375">
        <ele>89.8000030517578125</ele>
        <time>2026-07-26T07:51:25.000Z</time>
        <extensions>
          <ns3:TrackPointExtension>
            <ns3:hr>149</ns3:hr>
            <ns3:cad>0</ns3:cad>
          </ns3:TrackPointExtension>
        </extensions>
      </trkpt>
      <trkpt lat="55.79955660738050937652587890625" lon="24.88932344131171703338623046875">
        <ele>89.59999847412109375</ele>
        <time>2026-07-26T07:51:27.000Z</time>
        <extensions>
          <ns3:TrackPointExtension>
            <ns3:hr>147</ns3:hr>
            <ns3:cad>51</ns3:cad>
          </ns3:TrackPointExtension>
        </extensions>
      </trkpt>
      <trkpt lat="55.799546800553798675537109375" lon="24.8892858065664768218994140625">
        <ele>90.59999847412109375</ele>
        <time>2026-07-26T07:51:33.000Z</time>
        <extensions>
          <ns3:TrackPointExtension>
            <ns3:hr>148</ns3:hr>
            <ns3:cad>0</ns3:cad>
          </ns3:TrackPointExtension>
        </extensions>
      </trkpt>
      <trkpt lat="55.79954772256314754486083984375" lon="24.8892863094806671142578125">
        <ele>90.59999847412109375</ele>
        <time>2026-07-26T07:51:34.000Z</time>
        <extensions>
          <ns3:TrackPointExtension>
            <ns3:hr>149</ns3:hr>
            <ns3:cad>0</ns3:cad>
          </ns3:TrackPointExtension>
        </extensions>
      </trkpt>
      <trkpt lat="55.79953447915613651275634765625" lon="24.889267869293689727783203125">
        <ele>91.40000152587890625</ele>
        <time>2026-07-26T07:51:39.000Z</time>
        <extensions>
          <ns3:TrackPointExtension>
            <ns3:hr>143</ns3:hr>
            <ns3:cad>0</ns3:cad>
          </ns3:TrackPointExtension>
        </extensions>
      </trkpt>
      <trkpt lat="55.799529366195201873779296875" lon="24.88926225341856479644775390625">
        <ele>91.40000152587890625</ele>
        <time>2026-07-26T07:51:40.000Z</time>
        <extensions>
          <ns3:TrackPointExtension>
            <ns3:hr>139</ns3:hr>
            <ns3:cad>0</ns3:cad>
          </ns3:TrackPointExtension>
        </extensions>
      </trkpt>
      <trkpt lat="55.799523331224918365478515625" lon="24.88925613462924957275390625">
        <ele>91.1999969482421875</ele>
        <time>2026-07-26T07:51:41.000Z</time>
        <extensions>
          <ns3:TrackPointExtension>
            <ns3:hr>137</ns3:hr>
            <ns3:cad>0</ns3:cad>
          </ns3:TrackPointExtension>
        </extensions>
      </trkpt>
      <trkpt lat="55.799493826925754547119140625" lon="24.88923559896647930145263671875">
        <ele>90.40000152587890625</ele>
        <time>2026-07-26T07:51:44.000Z</time>
        <extensions>
          <ns3:TrackPointExtension>
            <ns3:hr>134</ns3:hr>
            <ns3:cad>0</ns3:cad>
          </ns3:TrackPointExtension>
        </extensions>
      </trkpt>
      <trkpt lat="55.799469016492366790771484375" lon="24.88922621123492717742919921875">
        <ele>90.1999969482421875</ele>
        <time>2026-07-26T07:51:46.000Z</time>
        <extensions>
          <ns3:TrackPointExtension>
            <ns3:hr>130</ns3:hr>
            <ns3:cad>0</ns3:cad>
          </ns3:TrackPointExtension>
        </extensions>
      </trkpt>
      <trkpt lat="55.7994540967047214508056640625" lon="24.8892160691320896148681640625">
        <ele>90.40000152587890625</ele>
        <time>2026-07-26T07:51:47.000Z</time>
        <extensions>
          <ns3:TrackPointExtension>
            <ns3:hr>129</ns3:hr>
            <ns3:cad>53</ns3:cad>
          </ns3:TrackPointExtension>
        </extensions>
      </trkpt>
      <trkpt lat="55.799354352056980133056640625" lon="24.88916485570371150970458984375">
        <ele>90.8000030517578125</ele>
        <time>2026-07-26T07:51:53.000Z</time>
        <extensions>
          <ns3:TrackPointExtension>
            <ns3:hr>128</ns3:hr>
            <ns3:cad>57</ns3:cad>
          </ns3:TrackPointExtension>
        </extensions>
      </trkpt>
      <trkpt lat="55.79925770871341228485107421875" lon="24.88911925815045833587646484375">
        <ele>90.8000030517578125</ele>
        <time>2026-07-26T07:52:00.000Z</time>
        <extensions>
          <ns3:TrackPointExtension>
            <ns3:hr>128</ns3:hr>
            <ns3:cad>58</ns3:cad>
          </ns3:TrackPointExtension>
        </extensions>
      </trkpt>
      <trkpt lat="55.79915486276149749755859375" lon="24.88904784433543682098388671875">
        <ele>90.8000030517578125</ele>
        <time>2026-07-26T07:52:08.000Z</time>
        <extensions>
          <ns3:TrackPointExtension>
            <ns3:hr>127</ns3:hr>
            <ns3:cad>57</ns3:cad>
          </ns3:TrackPointExtension>
        </extensions>
      </trkpt>
      <trkpt lat="55.799070037901401519775390625" lon="24.88897307775914669036865234375">
        <ele>90.59999847412109375</ele>
        <time>2026-07-26T07:52:15.000Z</time>
        <extensions>
          <ns3:TrackPointExtension>
            <ns3:hr>128</ns3:hr>
            <ns3:cad>57</ns3:cad>
          </ns3:TrackPointExtension>
        </extensions>
      </trkpt>
      <trkpt lat="55.799041874706745147705078125" lon="24.88894742913544178009033203125">
        <ele>90.59999847412109375</ele>
        <time>2026-07-26T07:52:18.000Z</time>
        <extensions>
          <ns3:TrackPointExtension>
            <ns3:hr>124</ns3:hr>
            <ns3:cad>57</ns3:cad>
          </ns3:TrackPointExtension>
        </extensions>
      </trkpt>
      <trkpt lat="55.79897440038621425628662109375" lon="24.88891256041824817657470703125">
        <ele>90.40000152587890625</ele>
        <time>2026-07-26T07:52:23.000Z</time>
        <extensions>
          <ns3:TrackPointExtension>
            <ns3:hr>123</ns3:hr>
            <ns3:cad>57</ns3:cad>
          </ns3:TrackPointExtension>
        </extensions>
      </trkpt>
      <trkpt lat="55.7989253662526607513427734375" lon="24.88887886516749858856201171875">
        <ele>90.59999847412109375</ele>
        <time>2026-07-26T07:52:29.000Z</time>
        <extensions>
          <ns3:TrackPointExtension>
            <ns3:hr>122</ns3:hr>
            <ns3:cad>0</ns3:cad>
          </ns3:TrackPointExtension>
        </extensions>
      </trkpt>
      <trkpt lat="55.798842050135135650634765625" lon="24.88882790319621562957763671875">
        <ele>90</ele>
        <time>2026-07-26T07:52:35.000Z</time>
        <extensions>
          <ns3:TrackPointExtension>
            <ns3:hr>124</ns3:hr>
            <ns3:cad>55</ns3:cad>
          </ns3:TrackPointExtension>
        </extensions>
      </trkpt>
      <trkpt lat="55.7987238653004169464111328125" lon="24.88874844275414943695068359375">
        <ele>90.1999969482421875</ele>
        <time>2026-07-26T07:52:44.000Z</time>
        <extensions>
          <ns3:TrackPointExtension>
            <ns3:hr>124</ns3:hr>
            <ns3:cad>57</ns3:cad>
          </ns3:TrackPointExtension>
        </extensions>
      </trkpt>
      <trkpt lat="55.7986112125217914581298828125" lon="24.88865263760089874267578125">
        <ele>90.40000152587890625</ele>
        <time>2026-07-26T07:52:53.000Z</time>
        <extensions>
          <ns3:TrackPointExtension>
            <ns3:hr>123</ns3:hr>
            <ns3:cad>58</ns3:cad>
          </ns3:TrackPointExtension>
        </extensions>
      </trkpt>
      <trkpt lat="55.7985210232436656951904296875" lon="24.88862581551074981689453125">
        <ele>90.40000152587890625</ele>
        <time>2026-07-26T07:52:59.000Z</time>
        <extensions>
          <ns3:TrackPointExtension>
            <ns3:hr>121</ns3:hr>
            <ns3:cad>59</ns3:cad>
          </ns3:TrackPointExtension>
        </extensions>
      </trkpt>
      <trkpt lat="55.7983936183154582977294921875" lon="24.8885374702513217926025390625">
        <ele>90.8000030517578125</ele>
        <time>2026-07-26T07:53:08.000Z</time>
        <extensions>
          <ns3:TrackPointExtension>
            <ns3:hr>122</ns3:hr>
            <ns3:cad>59</ns3:cad>
          </ns3:TrackPointExtension>
        </extensions>
      </trkpt>
      <trkpt lat="55.79827199690043926239013671875" lon="24.8884687386453151702880859375">
        <ele>90.8000030517578125</ele>
        <time>2026-07-26T07:53:17.000Z</time>
        <extensions>
          <ns3:TrackPointExtension>
            <ns3:hr>123</ns3:hr>
            <ns3:cad>58</ns3:cad>
          </ns3:TrackPointExtension>
        </extensions>
      </trkpt>
      <trkpt lat="55.798224471509456634521484375" lon="24.88844417966902256011962890625">
        <ele>90.59999847412109375</ele>
        <time>2026-07-26T07:53:20.000Z</time>
        <extensions>
          <ns3:TrackPointExtension>
            <ns3:hr>127</ns3:hr>
            <ns3:cad>58</ns3:cad>
          </ns3:TrackPointExtension>
        </extensions>
      </trkpt>
      <trkpt lat="55.79818264581263065338134765625" lon="24.88842196762561798095703125">
        <ele>90.59999847412109375</ele>
        <time>2026-07-26T07:53:23.000Z</time>
        <extensions>
          <ns3:TrackPointExtension>
            <ns3:hr>130</ns3:hr>
            <ns3:cad>57</ns3:cad>
          </ns3:TrackPointExtension>
        </extensions>
      </trkpt>
      <trkpt lat="55.79815096221864223480224609375" lon="24.8884040303528308868408203125">
        <ele>90.59999847412109375</ele>
        <time>2026-07-26T07:53:25.000Z</time>
        <extensions>
          <ns3:TrackPointExtension>
            <ns3:hr>129</ns3:hr>
            <ns3:cad>59</ns3:cad>
          </ns3:TrackPointExtension>
        </extensions>
      </trkpt>
      <trkpt lat="55.79801919870078563690185546875" lon="24.88831727765500545501708984375">
        <ele>90.59999847412109375</ele>
        <time>2026-07-26T07:53:34.000Z</time>
        <extensions>
          <ns3:TrackPointExtension>
            <ns3:hr>128</ns3:hr>
            <ns3:cad>58</ns3:cad>
          </ns3:TrackPointExtension>
        </extensions>
      </trkpt>
      <trkpt lat="55.7978863455355167388916015625" lon="24.88823848776519298553466796875">
        <ele>90.59999847412109375</ele>
        <time>2026-07-26T07:53:43.000Z</time>
        <extensions>
          <ns3:TrackPointExtension>
            <ns3:hr>128</ns3:hr>
            <ns3:cad>59</ns3:cad>
          </ns3:TrackPointExtension>
        </extensions>
      </trkpt>
      <trkpt lat="55.797810070216655731201171875" lon="24.88817696459591388702392578125">
        <ele>90.40000152587890625</ele>
        <time>2026-07-26T07:53:49.000Z</time>
        <extensions>
          <ns3:TrackPointExtension>
            <ns3:hr>127</ns3:hr>
            <ns3:cad>58</ns3:cad>
          </ns3:TrackPointExtension>
        </extensions>
      </trkpt>
      <trkpt lat="55.797751061618328094482421875" lon="24.8881435208022594451904296875">
        <ele>90.1999969482421875</ele>
        <time>2026-07-26T07:53:53.000Z</time>
        <extensions>
          <ns3:TrackPointExtension>
            <ns3:hr>124</ns3:hr>
            <ns3:cad>58</ns3:cad>
          </ns3:TrackPointExtension>
        </extensions>
      </trkpt>
      <trkpt lat="55.7977245748043060302734375" lon="24.88812499679625034332275390625">
        <ele>90.1999969482421875</ele>
        <time>2026-07-26T07:53:55.000Z</time>
        <extensions>
          <ns3:TrackPointExtension>
            <ns3:hr>123</ns3:hr>
            <ns3:cad>58</ns3:cad>
          </ns3:TrackPointExtension>
        </extensions>
      </trkpt>
      <trkpt lat="55.79756037332117557525634765625" lon="24.88802407868206501007080078125">
        <ele>90.1999969482421875</ele>
        <time>2026-07-26T07:54:06.000Z</time>
        <extensions>
          <ns3:TrackPointExtension>
            <ns3:hr>123</ns3:hr>
            <ns3:cad>59</ns3:cad>
          </ns3:TrackPointExtension>
        </extensions>
      </trkpt>
      <trkpt lat="55.79742793925106525421142578125" lon="24.8879470489919185638427734375">
        <ele>90.40000152587890625</ele>
        <time>2026-07-26T07:54:15.000Z</time>
        <extensions>
          <ns3:TrackPointExtension>
            <ns3:hr>123</ns3:hr>
            <ns3:cad>58</ns3:cad>
          </ns3:TrackPointExtension>
        </extensions>
      </trkpt>
      <trkpt lat="55.79734512604773044586181640625" lon="24.8878813348710536956787109375">
        <ele>90.8000030517578125</ele>
        <time>2026-07-26T07:54:21.000Z</time>
        <extensions>
          <ns3:TrackPointExtension>
            <ns3:hr>125</ns3:hr>
            <ns3:cad>59</ns3:cad>
          </ns3:TrackPointExtension>
        </extensions>
      </trkpt>
      <trkpt lat="55.79723230563104152679443359375" lon="24.88781310617923736572265625">
        <ele>90.40000152587890625</ele>
        <time>2026-07-26T07:54:29.000Z</time>
        <extensions>
          <ns3:TrackPointExtension>
            <ns3:hr>125</ns3:hr>
            <ns3:cad>60</ns3:cad>
          </ns3:TrackPointExtension>
        </extensions>
      </trkpt>
      <trkpt lat="55.7971237599849700927734375" lon="24.887730963528156280517578125">
        <ele>90.1999969482421875</ele>
        <time>2026-07-26T07:54:37.000Z</time>
        <extensions>
          <ns3:TrackPointExtension>
            <ns3:hr>125</ns3:hr>
            <ns3:cad>59</ns3:cad>
          </ns3:TrackPointExtension>
        </extensions>
      </trkpt>
      <trkpt lat="55.79698906280100345611572265625" lon="24.8876647464931011199951171875">
        <ele>90.40000152587890625</ele>
        <time>2026-07-26T07:54:46.000Z</time>
        <extensions>
          <ns3:TrackPointExtension>
            <ns3:hr>125</ns3:hr>
            <ns3:cad>58</ns3:cad>
          </ns3:TrackPointExtension>
        </extensions>
      </trkpt>
      <trkpt lat="55.796895436942577362060546875" lon="24.88758645951747894287109375">
        <ele>90.40000152587890625</ele>
        <time>2026-07-26T07:54:53.000Z</time>
        <extensions>
          <ns3:TrackPointExtension>
            <ns3:hr>124</ns3:hr>
            <ns3:cad>57</ns3:cad>
          </ns3:TrackPointExtension>
        </extensions>
      </trkpt>
      <trkpt lat="55.79674095846712589263916015625" lon="24.887478165328502655029296875">
        <ele>90.1999969482421875</ele>
        <time>2026-07-26T07:55:04.000Z</time>
        <extensions>
          <ns3:TrackPointExtension>
            <ns3:hr>124</ns3:hr>
            <ns3:cad>59</ns3:cad>
          </ns3:TrackPointExtension>
        </extensions>
      </trkpt>
      <trkpt lat="55.79660383053123950958251953125" lon="24.88740934990346431732177734375">
        <ele>89.8000030517578125</ele>
        <time>2026-07-26T07:55:13.000Z</time>
        <extensions>
          <ns3:TrackPointExtension>
            <ns3:hr>124</ns3:hr>
            <ns3:cad>58</ns3:cad>
          </ns3:TrackPointExtension>
        </extensions>
      </trkpt>
      <trkpt lat="55.7965730689465999603271484375" lon="24.887398369610309600830078125">
        <ele>89.59999847412109375</ele>
        <time>2026-07-26T07:55:15.000Z</time>
        <extensions>
          <ns3:TrackPointExtension>
            <ns3:hr>125</ns3:hr>
            <ns3:cad>59</ns3:cad>
          </ns3:TrackPointExtension>
        </extensions>
      </trkpt>
      <trkpt lat="55.79650525934994220733642578125" lon="24.8873432166874408721923828125">
        <ele>89.1999969482421875</ele>
        <time>2026-07-26T07:55:20.000Z</time>
        <extensions>
          <ns3:TrackPointExtension>
            <ns3:hr>124</ns3:hr>
            <ns3:cad>60</ns3:cad>
          </ns3:TrackPointExtension>
        </extensions>
      </trkpt>
      <trkpt lat="55.79642395488917827606201171875" lon="24.8873054981231689453125">
        <ele>88.59999847412109375</ele>
        <time>2026-07-26T07:55:26.000Z</time>
        <extensions>
          <ns3:TrackPointExtension>
            <ns3:hr>124</ns3:hr>
            <ns3:cad>60</ns3:cad>
          </ns3:TrackPointExtension>
        </extensions>
      </trkpt>
      <trkpt lat="55.7963638566434383392333984375" lon="24.88727339543402194976806640625">
        <ele>88.1999969482421875</ele>
        <time>2026-07-26T07:55:30.000Z</time>
        <extensions>
          <ns3:TrackPointExtension>
            <ns3:hr>123</ns3:hr>
            <ns3:cad>60</ns3:cad>
          </ns3:TrackPointExtension>
        </extensions>
      </trkpt>
      <trkpt lat="55.79624324105679988861083984375" lon="24.8872114531695842742919921875">
        <ele>87.59999847412109375</ele>
        <time>2026-07-26T07:55:38.000Z</time>
        <extensions>
          <ns3:TrackPointExtension>
            <ns3:hr>121</ns3:hr>
            <ns3:cad>59</ns3:cad>
          </ns3:TrackPointExtension>
        </extensions>
      </trkpt>
      <trkpt lat="55.7962159998714923858642578125" lon="24.8871863074600696563720703125">
        <ele>87.59999847412109375</ele>
        <time>2026-07-26T07:55:41.000Z</time>
        <extensions>
          <ns3:TrackPointExtension>
            <ns3:hr>121</ns3:hr>
            <ns3:cad>59</ns3:cad>
          </ns3:TrackPointExtension>
        </extensions>
      </trkpt>
      <trkpt lat="55.79609957523643970489501953125" lon="24.887120425701141357421875">
        <ele>87.59999847412109375</ele>
        <time>2026-07-26T07:55:48.000Z</time>
        <extensions>
          <ns3:TrackPointExtension>
            <ns3:hr>123</ns3:hr>
            <ns3:cad>59</ns3:cad>
          </ns3:TrackPointExtension>
        </extensions>
      </trkpt>
      <trkpt lat="55.79599228687584400177001953125" lon="24.88705060444772243499755859375">
        <ele>87.1999969482421875</ele>
        <time>2026-07-26T07:55:56.000Z</time>
        <extensions>
          <ns3:TrackPointExtension>
            <ns3:hr>123</ns3:hr>
            <ns3:cad>57</ns3:cad>
          </ns3:TrackPointExtension>
        </extensions>
      </trkpt>
      <trkpt lat="55.7959172688424587249755859375" lon="24.88692152313888072967529296875">
        <ele>86.59999847412109375</ele>
        <time>2026-07-26T07:56:03.000Z</time>
        <extensions>
          <ns3:TrackPointExtension>
            <ns3:hr>120</ns3:hr>
            <ns3:cad>58</ns3:cad>
          </ns3:TrackPointExtension>
        </extensions>
      </trkpt>
      <trkpt lat="55.795910060405731201171875" lon="24.886894784867763519287109375">
        <ele>86.40000152587890625</ele>
        <time>2026-07-26T07:56:04.000Z</time>
        <extensions>
          <ns3:TrackPointExtension>
            <ns3:hr>120</ns3:hr>
            <ns3:cad>57</ns3:cad>
          </ns3:TrackPointExtension>
        </extensions>
      </trkpt>
      <trkpt lat="55.7958834059536457061767578125" lon="24.88673762418329715728759765625">
        <ele>85.59999847412109375</ele>
        <time>2026-07-26T07:56:10.000Z</time>
        <extensions>
          <ns3:TrackPointExtension>
            <ns3:hr>121</ns3:hr>
            <ns3:cad>58</ns3:cad>
          </ns3:TrackPointExtension>
        </extensions>
      </trkpt>
      <trkpt lat="55.79588164575397968292236328125" lon="24.88668498583137989044189453125">
        <ele>85.1999969482421875</ele>
        <time>2026-07-26T07:56:12.000Z</time>
        <extensions>
          <ns3:TrackPointExtension>
            <ns3:hr>122</ns3:hr>
            <ns3:cad>58</ns3:cad>
          </ns3:TrackPointExtension>
        </extensions>
      </trkpt>
      <trkpt lat="55.79589606262743473052978515625" lon="24.886578619480133056640625">
        <ele>84.1999969482421875</ele>
        <time>2026-07-26T07:56:17.000Z</time>
        <extensions>
          <ns3:TrackPointExtension>
            <ns3:hr>124</ns3:hr>
            <ns3:cad>59</ns3:cad>
          </ns3:TrackPointExtension>
        </extensions>
      </trkpt>
      <trkpt lat="55.79595892690122127532958984375" lon="24.8864460177719593048095703125">
        <ele>83.1999969482421875</ele>
        <time>2026-07-26T07:56:25.000Z</time>
        <extensions>
          <ns3:TrackPointExtension>
            <ns3:hr>123</ns3:hr>
            <ns3:cad>59</ns3:cad>
          </ns3:TrackPointExtension>
        </extensions>
      </trkpt>
      <trkpt lat="55.79596898518502712249755859375" lon="24.88643051125109195709228515625">
        <ele>83.1999969482421875</ele>
        <time>2026-07-26T07:56:26.000Z</time>
        <extensions>
          <ns3:TrackPointExtension>
            <ns3:hr>123</ns3:hr>
            <ns3:cad>59</ns3:cad>
          </ns3:TrackPointExtension>
        </extensions>
      </trkpt>
      <trkpt lat="55.79605498351156711578369140625" lon="24.886283576488494873046875">
        <ele>82</ele>
        <time>2026-07-26T07:56:34.000Z</time>
        <extensions>
          <ns3:TrackPointExtension>
            <ns3:hr>121</ns3:hr>
            <ns3:cad>60</ns3:cad>
          </ns3:TrackPointExtension>
        </extensions>
      </trkpt>
      <trkpt lat="55.7960704900324344635009765625" lon="24.88625633530318737030029296875">
        <ele>81.59999847412109375</ele>
        <time>2026-07-26T07:56:36.000Z</time>
        <extensions>
          <ns3:TrackPointExtension>
            <ns3:hr>121</ns3:hr>
            <ns3:cad>60</ns3:cad>
          </ns3:TrackPointExtension>
        </extensions>
      </trkpt>
      <trkpt lat="55.79612664878368377685546875" lon="24.88612792454659938812255859375">
        <ele>80.8000030517578125</ele>
        <time>2026-07-26T07:56:42.000Z</time>
        <extensions>
          <ns3:TrackPointExtension>
            <ns3:hr>122</ns3:hr>
            <ns3:cad>59</ns3:cad>
          </ns3:TrackPointExtension>
        </extensions>
      </trkpt>
      <trkpt lat="55.7961419038474559783935546875" lon="24.886090792715549468994140625">
        <ele>80.59999847412109375</ele>
        <time>2026-07-26T07:56:44.000Z</time>
        <extensions>
          <ns3:TrackPointExtension>
            <ns3:hr>122</ns3:hr>
            <ns3:cad>59</ns3:cad>
          </ns3:TrackPointExtension>
        </extensions>
      </trkpt>
      <trkpt lat="55.7961673848330974578857421875" lon="24.88601761870086193084716796875">
        <ele>79.8000030517578125</ele>
        <time>2026-07-26T07:56:48.000Z</time>
        <extensions>
          <ns3:TrackPointExtension>
            <ns3:hr>122</ns3:hr>
            <ns3:cad>59</ns3:cad>
          </ns3:TrackPointExtension>
        </extensions>
      </trkpt>
      <trkpt lat="55.79620569013059139251708984375" lon="24.8858995176851749420166015625">
        <ele>79.1999969482421875</ele>
        <time>2026-07-26T07:56:53.000Z</time>
        <extensions>
          <ns3:TrackPointExtension>
            <ns3:hr>123</ns3:hr>
            <ns3:cad>59</ns3:cad>
          </ns3:TrackPointExtension>
        </extensions>
      </trkpt>
      <trkpt lat="55.79622111283242702484130859375" lon="24.8858542554080486297607421875">
        <ele>78.8000030517578125</ele>
        <time>2026-07-26T07:56:55.000Z</time>
        <extensions>
          <ns3:TrackPointExtension>
            <ns3:hr>123</ns3:hr>
            <ns3:cad>59</ns3:cad>
          </ns3:TrackPointExtension>
        </extensions>
      </trkpt>
      <trkpt lat="55.79628984443843364715576171875" lon="24.885674379765987396240234375">
        <ele>77.8000030517578125</ele>
        <time>2026-07-26T07:57:02.000Z</time>
        <extensions>
          <ns3:TrackPointExtension>
            <ns3:hr>125</ns3:hr>
            <ns3:cad>60</ns3:cad>
          </ns3:TrackPointExtension>
        </extensions>
      </trkpt>
      <trkpt lat="55.79635371454060077667236328125" lon="24.8855535127222537994384765625">
        <ele>76.59999847412109375</ele>
        <time>2026-07-26T07:57:08.000Z</time>
        <extensions>
          <ns3:TrackPointExtension>
            <ns3:hr>126</ns3:hr>
            <ns3:cad>60</ns3:cad>
          </ns3:TrackPointExtension>
        </extensions>
      </trkpt>
      <trkpt lat="55.796377770602703094482421875" lon="24.885496012866497039794921875">
        <ele>76</ele>
        <time>2026-07-26T07:57:11.000Z</time>
        <extensions>
          <ns3:TrackPointExtension>
            <ns3:hr>126</ns3:hr>
            <ns3:cad>60</ns3:cad>
          </ns3:TrackPointExtension>
        </extensions>
      </trkpt>
      <trkpt lat="55.79639344476163387298583984375" lon="24.8854569531977176666259765625">
        <ele>75.59999847412109375</ele>
        <time>2026-07-26T07:57:13.000Z</time>
        <extensions>
          <ns3:TrackPointExtension>
            <ns3:hr>126</ns3:hr>
            <ns3:cad>61</ns3:cad>
          </ns3:TrackPointExtension>
        </extensions>
      </trkpt>
      <trkpt lat="55.79643703065812587738037109375" lon="24.88535393960773944854736328125">
        <ele>74.40000152587890625</ele>
        <time>2026-07-26T07:57:18.000Z</time>
        <extensions>
          <ns3:TrackPointExtension>
            <ns3:hr>125</ns3:hr>
            <ns3:cad>61</ns3:cad>
          </ns3:TrackPointExtension>
        </extensions>
      </trkpt>
      <trkpt lat="55.7964637689292430877685546875" lon="24.8852936737239360809326171875">
        <ele>73.8000030517578125</ele>
        <time>2026-07-26T07:57:21.000Z</time>
        <extensions>
          <ns3:TrackPointExtension>
            <ns3:hr>124</ns3:hr>
            <ns3:cad>60</ns3:cad>
          </ns3:TrackPointExtension>
        </extensions>
      </trkpt>
      <trkpt lat="55.7964895851910114288330078125" lon="24.88520373590290546417236328125">
        <ele>73.40000152587890625</ele>
        <time>2026-07-26T07:57:24.000Z</time>
        <extensions>
          <ns3:TrackPointExtension>
            <ns3:hr>123</ns3:hr>
            <ns3:cad>62</ns3:cad>
          </ns3:TrackPointExtension>
        </extensions>
      </trkpt>
      <trkpt lat="55.79652688466012477874755859375" lon="24.8851315677165985107421875">
        <ele>72.40000152587890625</ele>
        <time>2026-07-26T07:57:28.000Z</time>
        <extensions>
          <ns3:TrackPointExtension>
            <ns3:hr>122</ns3:hr>
            <ns3:cad>61</ns3:cad>
          </ns3:TrackPointExtension>
        </extensions>
      </trkpt>
      <trkpt lat="55.7965623401105403900146484375" lon="24.88505504094064235687255859375">
        <ele>71.59999847412109375</ele>
        <time>2026-07-26T07:57:32.000Z</time>
        <extensions>
          <ns3:TrackPointExtension>
            <ns3:hr>119</ns3:hr>
            <ns3:cad>62</ns3:cad>
          </ns3:TrackPointExtension>
        </extensions>
      </trkpt>
      <trkpt lat="55.79658329486846923828125" lon="24.88501531071960926055908203125">
        <ele>71.1999969482421875</ele>
        <time>2026-07-26T07:57:34.000Z</time>
        <extensions>
          <ns3:TrackPointExtension>
            <ns3:hr>119</ns3:hr>
            <ns3:cad>62</ns3:cad>
          </ns3:TrackPointExtension>
        </extensions>
      </trkpt>
      <trkpt lat="55.796626545488834381103515625" lon="24.88492646254599094390869140625">
        <ele>70.59999847412109375</ele>
        <time>2026-07-26T07:57:38.000Z</time>
        <extensions>
          <ns3:TrackPointExtension>
            <ns3:hr>120</ns3:hr>
            <ns3:cad>62</ns3:cad>
          </ns3:TrackPointExtension>
        </extensions>
      </trkpt>
      <trkpt lat="55.7966555468738079071044921875" lon="24.8848786018788814544677734375">
        <ele>70.1999969482421875</ele>
        <time>2026-07-26T07:57:41.000Z</time>
        <extensions>
          <ns3:TrackPointExtension>
            <ns3:hr>120</ns3:hr>
            <ns3:cad>62</ns3:cad>
          </ns3:TrackPointExtension>
        </extensions>
      </trkpt>
      <trkpt lat="55.79669049941003322601318359375" lon="24.88480660133063793182373046875">
        <ele>69.59999847412109375</ele>
        <time>2026-07-26T07:57:45.000Z</time>
        <extensions>
          <ns3:TrackPointExtension>
            <ns3:hr>121</ns3:hr>
            <ns3:cad>62</ns3:cad>
          </ns3:TrackPointExtension>
        </extensions>
      </trkpt>
      <trkpt lat="55.79672469757497310638427734375" lon="24.8847458325326442718505859375">
        <ele>69.1999969482421875</ele>
        <time>2026-07-26T07:57:48.000Z</time>
        <extensions>
          <ns3:TrackPointExtension>
            <ns3:hr>120</ns3:hr>
            <ns3:cad>62</ns3:cad>
          </ns3:TrackPointExtension>
        </extensions>
      </trkpt>
      <trkpt lat="55.7967723906040191650390625" lon="24.8846576549112796783447265625">
        <ele>68.40000152587890625</ele>
        <time>2026-07-26T07:57:53.000Z</time>
        <extensions>
          <ns3:TrackPointExtension>
            <ns3:hr>121</ns3:hr>
            <ns3:cad>60</ns3:cad>
          </ns3:TrackPointExtension>
        </extensions>
      </trkpt>
      <trkpt lat="55.7967953570187091827392578125" lon="24.8846165835857391357421875">
        <ele>68</ele>
        <time>2026-07-26T07:57:55.000Z</time>
        <extensions>
          <ns3:TrackPointExtension>
            <ns3:hr>120</ns3:hr>
            <ns3:cad>60</ns3:cad>
          </ns3:TrackPointExtension>
        </extensions>
      </trkpt>
      <trkpt lat="55.79687054269015789031982421875" lon="24.8844420723617076873779296875">
        <ele>67</ele>
        <time>2026-07-26T07:58:03.000Z</time>
        <extensions>
          <ns3:TrackPointExtension>
            <ns3:hr>120</ns3:hr>
            <ns3:cad>60</ns3:cad>
          </ns3:TrackPointExtension>
        </extensions>
      </trkpt>
      <trkpt lat="55.79687909223139286041259765625" lon="24.88442338071763515472412109375">
        <ele>66.8000030517578125</ele>
        <time>2026-07-26T07:58:04.000Z</time>
        <extensions>
          <ns3:TrackPointExtension>
            <ns3:hr>120</ns3:hr>
            <ns3:cad>60</ns3:cad>
          </ns3:TrackPointExtension>
        </extensions>
      </trkpt>
      <trkpt lat="55.79695335589349269866943359375" lon="24.88425917923450469970703125">
        <ele>66</ele>
        <time>2026-07-26T07:58:12.000Z</time>
        <extensions>
          <ns3:TrackPointExtension>
            <ns3:hr>120</ns3:hr>
            <ns3:cad>60</ns3:cad>
          </ns3:TrackPointExtension>
        </extensions>
      </trkpt>
      <trkpt lat="55.796963833272457122802734375" lon="24.8842368833720684051513671875">
        <ele>66</ele>
        <time>2026-07-26T07:58:13.000Z</time>
        <extensions>
          <ns3:TrackPointExtension>
            <ns3:hr>119</ns3:hr>
            <ns3:cad>60</ns3:cad>
          </ns3:TrackPointExtension>
        </extensions>
      </trkpt>
      <trkpt lat="55.79703197814524173736572265625" lon="24.88406161777675151824951171875">
        <ele>65.1999969482421875</ele>
        <time>2026-07-26T07:58:21.000Z</time>
        <extensions>
          <ns3:TrackPointExtension>
            <ns3:hr>122</ns3:hr>
            <ns3:cad>59</ns3:cad>
          </ns3:TrackPointExtension>
        </extensions>
      </trkpt>
      <trkpt lat="55.79703734256327152252197265625" lon="24.88400696776807308197021484375">
        <ele>64.8000030517578125</ele>
        <time>2026-07-26T07:58:23.000Z</time>
        <extensions>
          <ns3:TrackPointExtension>
            <ns3:hr>122</ns3:hr>
            <ns3:cad>59</ns3:cad>
          </ns3:TrackPointExtension>
        </extensions>
      </trkpt>
      <trkpt lat="55.79701420851051807403564453125" lon="24.8838529922068119049072265625">
        <ele>63.799999237060546875</ele>
        <time>2026-07-26T07:58:29.000Z</time>
        <extensions>
          <ns3:TrackPointExtension>
            <ns3:hr>121</ns3:hr>
            <ns3:cad>61</ns3:cad>
          </ns3:TrackPointExtension>
        </extensions>
      </trkpt>
      <trkpt lat="55.796984620392322540283203125" lon="24.88370086066424846649169921875">
        <ele>63.59999847412109375</ele>
        <time>2026-07-26T07:58:35.000Z</time>
        <extensions>
          <ns3:TrackPointExtension>
            <ns3:hr>118</ns3:hr>
            <ns3:cad>61</ns3:cad>
          </ns3:TrackPointExtension>
        </extensions>
      </trkpt>
      <trkpt lat="55.7969562895596027374267578125" lon="24.88359726034104824066162109375">
        <ele>63.40000152587890625</ele>
        <time>2026-07-26T07:58:39.000Z</time>
        <extensions>
          <ns3:TrackPointExtension>
            <ns3:hr>118</ns3:hr>
            <ns3:cad>61</ns3:cad>
          </ns3:TrackPointExtension>
        </extensions>
      </trkpt>
      <trkpt lat="55.7968724705278873443603515625" lon="24.88337539136409759521484375">
        <ele>62.59999847412109375</ele>
        <time>2026-07-26T07:58:49.000Z</time>
        <extensions>
          <ns3:TrackPointExtension>
            <ns3:hr>116</ns3:hr>
            <ns3:cad>60</ns3:cad>
          </ns3:TrackPointExtension>
        </extensions>
      </trkpt>
      <trkpt lat="55.79680516384541988372802734375" lon="24.88309619016945362091064453125">
        <ele>62.40000152587890625</ele>
        <time>2026-07-26T07:59:00.000Z</time>
        <extensions>
          <ns3:TrackPointExtension>
            <ns3:hr>116</ns3:hr>
            <ns3:cad>59</ns3:cad>
          </ns3:TrackPointExtension>
        </extensions>
      </trkpt>
      <trkpt lat="55.79675805754959583282470703125" lon="24.8829004727303981781005859375">
        <ele>61.59999847412109375</ele>
        <time>2026-07-26T07:59:08.000Z</time>
        <extensions>
          <ns3:TrackPointExtension>
            <ns3:hr>116</ns3:hr>
            <ns3:cad>59</ns3:cad>
          </ns3:TrackPointExtension>
        </extensions>
      </trkpt>
      <trkpt lat="55.79675302840769290924072265625" lon="24.882878847420215606689453125">
        <ele>61.59999847412109375</ele>
        <time>2026-07-26T07:59:09.000Z</time>
        <extensions>
          <ns3:TrackPointExtension>
            <ns3:hr>116</ns3:hr>
            <ns3:cad>59</ns3:cad>
          </ns3:TrackPointExtension>
        </extensions>
      </trkpt>
      <trkpt lat="55.7966704666614532470703125" lon="24.882677681744098663330078125">
        <ele>61.799999237060546875</ele>
        <time>2026-07-26T07:59:19.000Z</time>
        <extensions>
          <ns3:TrackPointExtension>
            <ns3:hr>115</ns3:hr>
            <ns3:cad>59</ns3:cad>
          </ns3:TrackPointExtension>
        </extensions>
      </trkpt>
      <trkpt lat="55.79654733650386333465576171875" lon="24.88252907060086727142333984375">
        <ele>61.40000152587890625</ele>
        <time>2026-07-26T07:59:29.000Z</time>
        <extensions>
          <ns3:TrackPointExtension>
            <ns3:hr>115</ns3:hr>
            <ns3:cad>59</ns3:cad>
          </ns3:TrackPointExtension>
        </extensions>
      </trkpt>
      <trkpt lat="55.79642278142273426055908203125" lon="24.8824451677501201629638671875">
        <ele>62</ele>
        <time>2026-07-26T07:59:38.000Z</time>
        <extensions>
          <ns3:TrackPointExtension>
            <ns3:hr>118</ns3:hr>
            <ns3:cad>59</ns3:cad>
          </ns3:TrackPointExtension>
        </extensions>
      </trkpt>
      <trkpt lat="55.7963915169239044189453125" lon="24.8824270628392696380615234375">
        <ele>61.799999237060546875</ele>
        <time>2026-07-26T07:59:40.000Z</time>
        <extensions>
          <ns3:TrackPointExtension>
            <ns3:hr>118</ns3:hr>
            <ns3:cad>58</ns3:cad>
          </ns3:TrackPointExtension>
        </extensions>
      </trkpt>
      <trkpt lat="55.796303339302539825439453125" lon="24.8823804594576358795166015625">
        <ele>61.799999237060546875</ele>
        <time>2026-07-26T07:59:46.000Z</time>
        <extensions>
          <ns3:TrackPointExtension>
            <ns3:hr>121</ns3:hr>
            <ns3:cad>58</ns3:cad>
          </ns3:TrackPointExtension>
        </extensions>
      </trkpt>
      <trkpt lat="55.79626142978668212890625" lon="24.8823626898229122161865234375">
        <ele>62.200000762939453125</ele>
        <time>2026-07-26T07:59:49.000Z</time>
        <extensions>
          <ns3:TrackPointExtension>
            <ns3:hr>122</ns3:hr>
            <ns3:cad>58</ns3:cad>
          </ns3:TrackPointExtension>
        </extensions>
      </trkpt>
      <trkpt lat="55.79613997600972652435302734375" lon="24.88231591880321502685546875">
        <ele>61.799999237060546875</ele>
        <time>2026-07-26T07:59:58.000Z</time>
        <extensions>
          <ns3:TrackPointExtension>
            <ns3:hr>123</ns3:hr>
            <ns3:cad>59</ns3:cad>
          </ns3:TrackPointExtension>
        </extensions>
      </trkpt>
      <trkpt lat="55.79602212645113468170166015625" lon="24.88223067484796047210693359375">
        <ele>61.799999237060546875</ele>
        <time>2026-07-26T08:00:07.000Z</time>
        <extensions>
          <ns3:TrackPointExtension>
            <ns3:hr>121</ns3:hr>
            <ns3:cad>58</ns3:cad>
          </ns3:TrackPointExtension>
        </extensions>
      </trkpt>
      <trkpt lat="55.79591584391891956329345703125" lon="24.88208256661891937255859375">
        <ele>62</ele>
        <time>2026-07-26T08:00:16.000Z</time>
        <extensions>
          <ns3:TrackPointExtension>
            <ns3:hr>123</ns3:hr>
            <ns3:cad>58</ns3:cad>
          </ns3:TrackPointExtension>
        </extensions>
      </trkpt>
      <trkpt lat="55.79580436460673809051513671875" lon="24.88187544979155063629150390625">
        <ele>62.200000762939453125</ele>
        <time>2026-07-26T08:00:26.000Z</time>
        <extensions>
          <ns3:TrackPointExtension>
            <ns3:hr>122</ns3:hr>
            <ns3:cad>59</ns3:cad>
          </ns3:TrackPointExtension>
        </extensions>
      </trkpt>
      <trkpt lat="55.79568819142878055572509765625" lon="24.88168652169406414031982421875">
        <ele>62.200000762939453125</ele>
        <time>2026-07-26T08:00:36.000Z</time>
        <extensions>
          <ns3:TrackPointExtension>
            <ns3:hr>122</ns3:hr>
            <ns3:cad>60</ns3:cad>
          </ns3:TrackPointExtension>
        </extensions>
      </trkpt>
      <trkpt lat="55.7955675758421421051025390625" lon="24.8815187998116016387939453125">
        <ele>61.799999237060546875</ele>
        <time>2026-07-26T08:00:46.000Z</time>
        <extensions>
          <ns3:TrackPointExtension>
            <ns3:hr>122</ns3:hr>
            <ns3:cad>60</ns3:cad>
          </ns3:TrackPointExtension>
        </extensions>
      </trkpt>
      <trkpt lat="55.7954715192317962646484375" lon="24.88136147148907184600830078125">
        <ele>61.200000762939453125</ele>
        <time>2026-07-26T08:00:55.000Z</time>
        <extensions>
          <ns3:TrackPointExtension>
            <ns3:hr>123</ns3:hr>
            <ns3:cad>60</ns3:cad>
          </ns3:TrackPointExtension>
        </extensions>
      </trkpt>
      <trkpt lat="55.795331038534641265869140625" lon="24.88115762360394001007080078125">
        <ele>62</ele>
        <time>2026-07-26T08:01:07.000Z</time>
        <extensions>
          <ns3:TrackPointExtension>
            <ns3:hr>123</ns3:hr>
            <ns3:cad>59</ns3:cad>
          </ns3:TrackPointExtension>
        </extensions>
      </trkpt>
      <trkpt lat="55.79531670548021793365478515625" lon="24.88114421255886554718017578125">
        <ele>62.40000152587890625</ele>
        <time>2026-07-26T08:01:08.000Z</time>
        <extensions>
          <ns3:TrackPointExtension>
            <ns3:hr>123</ns3:hr>
            <ns3:cad>59</ns3:cad>
          </ns3:TrackPointExtension>
        </extensions>
      </trkpt>
      <trkpt lat="55.7952292822301387786865234375" lon="24.8809956014156341552734375">
        <ele>62.59999847412109375</ele>
        <time>2026-07-26T08:01:16.000Z</time>
        <extensions>
          <ns3:TrackPointExtension>
            <ns3:hr>125</ns3:hr>
            <ns3:cad>59</ns3:cad>
          </ns3:TrackPointExtension>
        </extensions>
      </trkpt>
      <trkpt lat="55.79514085315167903900146484375" lon="24.88081027753651142120361328125">
        <ele>62.200000762939453125</ele>
        <time>2026-07-26T08:01:25.000Z</time>
        <extensions>
          <ns3:TrackPointExtension>
            <ns3:hr>126</ns3:hr>
            <ns3:cad>60</ns3:cad>
          </ns3:TrackPointExtension>
        </extensions>
      </trkpt>
      <trkpt lat="55.7950562797486782073974609375" lon="24.88055814988911151885986328125">
        <ele>61.799999237060546875</ele>
        <time>2026-07-26T08:01:36.000Z</time>
        <extensions>
          <ns3:TrackPointExtension>
            <ns3:hr>123</ns3:hr>
            <ns3:cad>59</ns3:cad>
          </ns3:TrackPointExtension>
        </extensions>
      </trkpt>
      <trkpt lat="55.795042701065540313720703125" lon="24.880506433546543121337890625">
        <ele>61.59999847412109375</ele>
        <time>2026-07-26T08:01:38.000Z</time>
        <extensions>
          <ns3:TrackPointExtension>
            <ns3:hr>122</ns3:hr>
            <ns3:cad>58</ns3:cad>
          </ns3:TrackPointExtension>
        </extensions>
      </trkpt>
      <trkpt lat="55.795003473758697509765625" lon="24.88023108802735805511474609375">
        <ele>62</ele>
        <time>2026-07-26T08:01:49.000Z</time>
        <extensions>
          <ns3:TrackPointExtension>
            <ns3:hr>123</ns3:hr>
            <ns3:cad>58</ns3:cad>
          </ns3:TrackPointExtension>
        </extensions>
      </trkpt>
      <trkpt lat="55.795011855661869049072265625" lon="24.879920370876789093017578125">
        <ele>61.200000762939453125</ele>
        <time>2026-07-26T08:02:01.000Z</time>
        <extensions>
          <ns3:TrackPointExtension>
            <ns3:hr>121</ns3:hr>
            <ns3:cad>59</ns3:cad>
          </ns3:TrackPointExtension>
        </extensions>
      </trkpt>
      <trkpt lat="55.7950029708445072174072265625" lon="24.8797934688627719879150390625">
        <ele>61.40000152587890625</ele>
        <time>2026-07-26T08:02:06.000Z</time>
        <extensions>
          <ns3:TrackPointExtension>
            <ns3:hr>122</ns3:hr>
            <ns3:cad>59</ns3:cad>
          </ns3:TrackPointExtension>
        </extensions>
      </trkpt>
      <trkpt lat="55.79497455619275569915771484375" lon="24.87968911416828632354736328125">
        <ele>61.200000762939453125</ele>
        <time>2026-07-26T08:02:10.000Z</time>
        <extensions>
          <ns3:TrackPointExtension>
            <ns3:hr>122</ns3:hr>
            <ns3:cad>58</ns3:cad>
          </ns3:TrackPointExtension>
        </extensions>
      </trkpt>
      <trkpt lat="55.79491890035569667816162109375" lon="24.87956137396395206451416015625">
        <ele>61.40000152587890625</ele>
        <time>2026-07-26T08:02:16.000Z</time>
        <extensions>
          <ns3:TrackPointExtension>
            <ns3:hr>125</ns3:hr>
            <ns3:cad>60</ns3:cad>
          </ns3:TrackPointExtension>
        </extensions>
      </trkpt>
      <trkpt lat="55.7948859594762325286865234375" lon="24.87951359711587429046630859375">
        <ele>61.799999237060546875</ele>
        <time>2026-07-26T08:02:19.000Z</time>
        <extensions>
          <ns3:TrackPointExtension>
            <ns3:hr>126</ns3:hr>
            <ns3:cad>59</ns3:cad>
          </ns3:TrackPointExtension>
        </extensions>
      </trkpt>
      <trkpt lat="55.79478831030428409576416015625" lon="24.87937060184776782989501953125">
        <ele>62.200000762939453125</ele>
        <time>2026-07-26T08:02:28.000Z</time>
        <extensions>
          <ns3:TrackPointExtension>
            <ns3:hr>127</ns3:hr>
            <ns3:cad>59</ns3:cad>
          </ns3:TrackPointExtension>
        </extensions>
      </trkpt>
      <trkpt lat="55.79473550431430339813232421875" lon="24.87930304370820522308349609375">
        <ele>62.59999847412109375</ele>
        <time>2026-07-26T08:02:32.000Z</time>
        <extensions>
          <ns3:TrackPointExtension>
            <ns3:hr>128</ns3:hr>
            <ns3:cad>58</ns3:cad>
          </ns3:TrackPointExtension>
        </extensions>
      </trkpt>
      <trkpt lat="55.79469979740679264068603515625" lon="24.87925744615495204925537109375">
        <ele>62.59999847412109375</ele>
        <time>2026-07-26T08:02:35.000Z</time>
        <extensions>
          <ns3:TrackPointExtension>
            <ns3:hr>125</ns3:hr>
            <ns3:cad>59</ns3:cad>
          </ns3:TrackPointExtension>
        </extensions>
      </trkpt>
      <trkpt lat="55.7946774177253246307373046875" lon="24.879228360950946807861328125">
        <ele>62.200000762939453125</ele>
        <time>2026-07-26T08:02:37.000Z</time>
        <extensions>
          <ns3:TrackPointExtension>
            <ns3:hr>124</ns3:hr>
            <ns3:cad>59</ns3:cad>
          </ns3:TrackPointExtension>
        </extensions>
      </trkpt>
      <trkpt lat="55.794551186263561248779296875" lon="24.87907715141773223876953125">
        <ele>63.40000152587890625</ele>
        <time>2026-07-26T08:02:47.000Z</time>
        <extensions>
          <ns3:TrackPointExtension>
            <ns3:hr>123</ns3:hr>
            <ns3:cad>59</ns3:cad>
          </ns3:TrackPointExtension>
        </extensions>
      </trkpt>
      <trkpt lat="55.79441162757575511932373046875" lon="24.8789073340594768524169921875">
        <ele>62.40000152587890625</ele>
        <time>2026-07-26T08:02:58.000Z</time>
        <extensions>
          <ns3:TrackPointExtension>
            <ns3:hr>125</ns3:hr>
            <ns3:cad>58</ns3:cad>
          </ns3:TrackPointExtension>
        </extensions>
      </trkpt>
      <trkpt lat="55.79431171528995037078857421875" lon="24.8787829466164112091064453125">
        <ele>62.799999237060546875</ele>
        <time>2026-07-26T08:03:07.000Z</time>
        <extensions>
          <ns3:TrackPointExtension>
            <ns3:hr>126</ns3:hr>
            <ns3:cad>59</ns3:cad>
          </ns3:TrackPointExtension>
        </extensions>
      </trkpt>
      <trkpt lat="55.7942294888198375701904296875" lon="24.878681190311908721923828125">
        <ele>62.40000152587890625</ele>
        <time>2026-07-26T08:03:13.000Z</time>
        <extensions>
          <ns3:TrackPointExtension>
            <ns3:hr>126</ns3:hr>
            <ns3:cad>59</ns3:cad>
          </ns3:TrackPointExtension>
        </extensions>
      </trkpt>
      <trkpt lat="55.79407366923987865447998046875" lon="24.878478012979030609130859375">
        <ele>62.59999847412109375</ele>
        <time>2026-07-26T08:03:26.000Z</time>
        <extensions>
          <ns3:TrackPointExtension>
            <ns3:hr>126</ns3:hr>
            <ns3:cad>58</ns3:cad>
          </ns3:TrackPointExtension>
        </extensions>
      </trkpt>
      <trkpt lat="55.7940635271370410919189453125" lon="24.87845982424914836883544921875">
        <ele>62.799999237060546875</ele>
        <time>2026-07-26T08:03:27.000Z</time>
        <extensions>
          <ns3:TrackPointExtension>
            <ns3:hr>126</ns3:hr>
            <ns3:cad>59</ns3:cad>
          </ns3:TrackPointExtension>
        </extensions>
      </trkpt>
      <trkpt lat="55.79393394291400909423828125" lon="24.87827592529356479644775390625">
        <ele>62.59999847412109375</ele>
        <time>2026-07-26T08:03:38.000Z</time>
        <extensions>
          <ns3:TrackPointExtension>
            <ns3:hr>127</ns3:hr>
            <ns3:cad>59</ns3:cad>
          </ns3:TrackPointExtension>
        </extensions>
      </trkpt>
      <trkpt lat="55.79383193515241146087646484375" lon="24.8781392164528369903564453125">
        <ele>62.59999847412109375</ele>
        <time>2026-07-26T08:03:47.000Z</time>
        <extensions>
          <ns3:TrackPointExtension>
            <ns3:hr>127</ns3:hr>
            <ns3:cad>58</ns3:cad>
          </ns3:TrackPointExtension>
        </extensions>
      </trkpt>
      <trkpt lat="55.7937173545360565185546875" lon="24.877997897565364837646484375">
        <ele>62.200000762939453125</ele>
        <time>2026-07-26T08:03:56.000Z</time>
        <extensions>
          <ns3:TrackPointExtension>
            <ns3:hr>124</ns3:hr>
            <ns3:cad>60</ns3:cad>
          </ns3:TrackPointExtension>
        </extensions>
      </trkpt>
      <trkpt lat="55.79370469786226749420166015625" lon="24.87798524089157581329345703125">
        <ele>62.40000152587890625</ele>
        <time>2026-07-26T08:03:57.000Z</time>
        <extensions>
          <ns3:TrackPointExtension>
            <ns3:hr>124</ns3:hr>
            <ns3:cad>58</ns3:cad>
          </ns3:TrackPointExtension>
        </extensions>
      </trkpt>
      <trkpt lat="55.79358768649399280548095703125" lon="24.87783788703382015228271484375">
        <ele>62</ele>
        <time>2026-07-26T08:04:07.000Z</time>
        <extensions>
          <ns3:TrackPointExtension>
            <ns3:hr>124</ns3:hr>
            <ns3:cad>58</ns3:cad>
          </ns3:TrackPointExtension>
        </extensions>
      </trkpt>
      <trkpt lat="55.7934865169227123260498046875" lon="24.877739734947681427001953125">
        <ele>62.59999847412109375</ele>
        <time>2026-07-26T08:04:15.000Z</time>
        <extensions>
          <ns3:TrackPointExtension>
            <ns3:hr>125</ns3:hr>
            <ns3:cad>58</ns3:cad>
          </ns3:TrackPointExtension>
        </extensions>
      </trkpt>
      <trkpt lat="55.793327428400516510009765625" lon="24.87769992090761661529541015625">
        <ele>62.799999237060546875</ele>
        <time>2026-07-26T08:04:26.000Z</time>
        <extensions>
          <ns3:TrackPointExtension>
            <ns3:hr>126</ns3:hr>
            <ns3:cad>59</ns3:cad>
          </ns3:TrackPointExtension>
        </extensions>
      </trkpt>
      <trkpt lat="55.79317152500152587890625" lon="24.87773872911930084228515625">
        <ele>63.40000152587890625</ele>
        <time>2026-07-26T08:04:37.000Z</time>
        <extensions>
          <ns3:TrackPointExtension>
            <ns3:hr>126</ns3:hr>
            <ns3:cad>58</ns3:cad>
          </ns3:TrackPointExtension>
        </extensions>
      </trkpt>
      <trkpt lat="55.79311586916446685791015625" lon="24.87774903886020183563232421875">
        <ele>63.799999237060546875</ele>
        <time>2026-07-26T08:04:41.000Z</time>
        <extensions>
          <ns3:TrackPointExtension>
            <ns3:hr>128</ns3:hr>
            <ns3:cad>58</ns3:cad>
          </ns3:TrackPointExtension>
        </extensions>
      </trkpt>
      <trkpt lat="55.79304076731204986572265625" lon="24.87777351401746273040771484375">
        <ele>64.59999847412109375</ele>
        <time>2026-07-26T08:04:47.000Z</time>
        <extensions>
          <ns3:TrackPointExtension>
            <ns3:hr>129</ns3:hr>
            <ns3:cad>58</ns3:cad>
          </ns3:TrackPointExtension>
        </extensions>
      </trkpt>
      <trkpt lat="55.79300992190837860107421875" lon="24.87777753733098506927490234375">
        <ele>64.8000030517578125</ele>
        <time>2026-07-26T08:04:49.000Z</time>
        <extensions>
          <ns3:TrackPointExtension>
            <ns3:hr>129</ns3:hr>
            <ns3:cad>58</ns3:cad>
          </ns3:TrackPointExtension>
        </extensions>
      </trkpt>
      <trkpt lat="55.79291612841188907623291015625" lon="24.87777586095035076141357421875">
        <ele>65.40000152587890625</ele>
        <time>2026-07-26T08:04:55.000Z</time>
        <extensions>
          <ns3:TrackPointExtension>
            <ns3:hr>127</ns3:hr>
            <ns3:cad>58</ns3:cad>
          </ns3:TrackPointExtension>
        </extensions>
      </trkpt>
      <trkpt lat="55.7928726263344287872314453125" lon="24.87775809131562709808349609375">
        <ele>65.8000030517578125</ele>
        <time>2026-07-26T08:04:58.000Z</time>
        <extensions>
          <ns3:TrackPointExtension>
            <ns3:hr>128</ns3:hr>
            <ns3:cad>59</ns3:cad>
          </ns3:TrackPointExtension>
        </extensions>
      </trkpt>
      <trkpt lat="55.7928323931992053985595703125" lon="24.87772137857973575592041015625">
        <ele>65.8000030517578125</ele>
        <time>2026-07-26T08:05:01.000Z</time>
        <extensions>
          <ns3:TrackPointExtension>
            <ns3:hr>131</ns3:hr>
            <ns3:cad>59</ns3:cad>
          </ns3:TrackPointExtension>
        </extensions>
      </trkpt>
      <trkpt lat="55.792804062366485595703125" lon="24.87769304774701595306396484375">
        <ele>66</ele>
        <time>2026-07-26T08:05:03.000Z</time>
        <extensions>
          <ns3:TrackPointExtension>
            <ns3:hr>132</ns3:hr>
            <ns3:cad>59</ns3:cad>
          </ns3:TrackPointExtension>
        </extensions>
      </trkpt>
      <trkpt lat="55.79269618727266788482666015625" lon="24.87755893729627132415771484375">
        <ele>66</ele>
        <time>2026-07-26T08:05:12.000Z</time>
        <extensions>
          <ns3:TrackPointExtension>
            <ns3:hr>129</ns3:hr>
            <ns3:cad>60</ns3:cad>
          </ns3:TrackPointExtension>
        </extensions>
      </trkpt>
      <trkpt lat="55.7926872186362743377685546875" lon="24.87754292786121368408203125">
        <ele>66</ele>
        <time>2026-07-26T08:05:13.000Z</time>
        <extensions>
          <ns3:TrackPointExtension>
            <ns3:hr>129</ns3:hr>
            <ns3:cad>60</ns3:cad>
          </ns3:TrackPointExtension>
        </extensions>
      </trkpt>
      <trkpt lat="55.7925826124846935272216796875" lon="24.877388365566730499267578125">
        <ele>66</ele>
        <time>2026-07-26T08:05:22.000Z</time>
        <extensions>
          <ns3:TrackPointExtension>
            <ns3:hr>129</ns3:hr>
            <ns3:cad>60</ns3:cad>
          </ns3:TrackPointExtension>
        </extensions>
      </trkpt>
      <trkpt lat="55.792459063231945037841796875" lon="24.8772121779620647430419921875">
        <ele>66.1999969482421875</ele>
        <time>2026-07-26T08:05:33.000Z</time>
        <extensions>
          <ns3:TrackPointExtension>
            <ns3:hr>127</ns3:hr>
            <ns3:cad>59</ns3:cad>
          </ns3:TrackPointExtension>
        </extensions>
      </trkpt>
      <trkpt lat="55.79234029166400432586669921875" lon="24.87704881466925144195556640625">
        <ele>66</ele>
        <time>2026-07-26T08:05:43.000Z</time>
        <extensions>
          <ns3:TrackPointExtension>
            <ns3:hr>126</ns3:hr>
            <ns3:cad>59</ns3:cad>
          </ns3:TrackPointExtension>
        </extensions>
      </trkpt>
      <trkpt lat="55.7921980507671833038330078125" lon="24.87685753963887691497802734375">
        <ele>65.8000030517578125</ele>
        <time>2026-07-26T08:05:55.000Z</time>
        <extensions>
          <ns3:TrackPointExtension>
            <ns3:hr>127</ns3:hr>
            <ns3:cad>59</ns3:cad>
          </ns3:TrackPointExtension>
        </extensions>
      </trkpt>
      <trkpt lat="55.79215270467102527618408203125" lon="24.87679056823253631591796875">
        <ele>66.8000030517578125</ele>
        <time>2026-07-26T08:05:59.000Z</time>
        <extensions>
          <ns3:TrackPointExtension>
            <ns3:hr>127</ns3:hr>
            <ns3:cad>59</ns3:cad>
          </ns3:TrackPointExtension>
        </extensions>
      </trkpt>
      <trkpt lat="55.79211431555449962615966796875" lon="24.876733236014842987060546875">
        <ele>66.1999969482421875</ele>
        <time>2026-07-26T08:06:02.000Z</time>
        <extensions>
          <ns3:TrackPointExtension>
            <ns3:hr>127</ns3:hr>
            <ns3:cad>59</ns3:cad>
          </ns3:TrackPointExtension>
        </extensions>
      </trkpt>
      <trkpt lat="55.79210375435650348663330078125" lon="24.87671622075140476226806640625">
        <ele>65.8000030517578125</ele>
        <time>2026-07-26T08:06:03.000Z</time>
        <extensions>
          <ns3:TrackPointExtension>
            <ns3:hr>127</ns3:hr>
            <ns3:cad>59</ns3:cad>
          </ns3:TrackPointExtension>
        </extensions>
      </trkpt>
      <trkpt lat="55.79203150235116481781005859375" lon="24.876589067280292510986328125">
        <ele>65.59999847412109375</ele>
        <time>2026-07-26T08:06:10.000Z</time>
        <extensions>
          <ns3:TrackPointExtension>
            <ns3:hr>130</ns3:hr>
            <ns3:cad>59</ns3:cad>
          </ns3:TrackPointExtension>
        </extensions>
      </trkpt>
      <trkpt lat="55.7920123077929019927978515625" lon="24.876556880772113800048828125">
        <ele>65.8000030517578125</ele>
        <time>2026-07-26T08:06:12.000Z</time>
        <extensions>
          <ns3:TrackPointExtension>
            <ns3:hr>129</ns3:hr>
            <ns3:cad>58</ns3:cad>
          </ns3:TrackPointExtension>
        </extensions>
      </trkpt>
      <trkpt lat="55.79188347794115543365478515625" lon="24.87636686302721500396728515625">
        <ele>65.8000030517578125</ele>
        <time>2026-07-26T08:06:23.000Z</time>
        <extensions>
          <ns3:TrackPointExtension>
            <ns3:hr>127</ns3:hr>
            <ns3:cad>59</ns3:cad>
          </ns3:TrackPointExtension>
        </extensions>
      </trkpt>
      <trkpt lat="55.791736543178558349609375" lon="24.87615949474275112152099609375">
        <ele>65.8000030517578125</ele>
        <time>2026-07-26T08:06:36.000Z</time>
        <extensions>
          <ns3:TrackPointExtension>
            <ns3:hr>127</ns3:hr>
            <ns3:cad>60</ns3:cad>
          </ns3:TrackPointExtension>
        </extensions>
      </trkpt>
      <trkpt lat="55.79160670749843120574951171875" lon="24.87598062492907047271728515625">
        <ele>65</ele>
        <time>2026-07-26T08:06:47.000Z</time>
        <extensions>
          <ns3:TrackPointExtension>
            <ns3:hr>126</ns3:hr>
            <ns3:cad>58</ns3:cad>
          </ns3:TrackPointExtension>
        </extensions>
      </trkpt>
      <trkpt lat="55.79148466698825359344482421875" lon="24.8758083768188953399658203125">
        <ele>65.8000030517578125</ele>
        <time>2026-07-26T08:06:58.000Z</time>
        <extensions>
          <ns3:TrackPointExtension>
            <ns3:hr>124</ns3:hr>
            <ns3:cad>59</ns3:cad>
          </ns3:TrackPointExtension>
        </extensions>
      </trkpt>
      <trkpt lat="55.79134468920528888702392578125" lon="24.8756095580756664276123046875">
        <ele>66</ele>
        <time>2026-07-26T08:07:10.000Z</time>
        <extensions>
          <ns3:TrackPointExtension>
            <ns3:hr>124</ns3:hr>
            <ns3:cad>59</ns3:cad>
          </ns3:TrackPointExtension>
        </extensions>
      </trkpt>
      <trkpt lat="55.7912187092006206512451171875" lon="24.87544401548802852630615234375">
        <ele>66.1999969482421875</ele>
        <time>2026-07-26T08:07:21.000Z</time>
        <extensions>
          <ns3:TrackPointExtension>
            <ns3:hr>124</ns3:hr>
            <ns3:cad>61</ns3:cad>
          </ns3:TrackPointExtension>
        </extensions>
      </trkpt>
      <trkpt lat="55.79116866923868656158447265625" lon="24.8753416724503040313720703125">
        <ele>65.8000030517578125</ele>
        <time>2026-07-26T08:07:26.000Z</time>
        <extensions>
          <ns3:TrackPointExtension>
            <ns3:hr>125</ns3:hr>
            <ns3:cad>59</ns3:cad>
          </ns3:TrackPointExtension>
        </extensions>
      </trkpt>
      <trkpt lat="55.79107764177024364471435546875" lon="24.8751016147434711456298828125">
        <ele>65</ele>
        <time>2026-07-26T08:07:37.000Z</time>
        <extensions>
          <ns3:TrackPointExtension>
            <ns3:hr>126</ns3:hr>
            <ns3:cad>61</ns3:cad>
          </ns3:TrackPointExtension>
        </extensions>
      </trkpt>
      <trkpt lat="55.79106305725872516632080078125" lon="24.87503464333713054656982421875">
        <ele>64.8000030517578125</ele>
        <time>2026-07-26T08:07:39.000Z</time>
        <extensions>
          <ns3:TrackPointExtension>
            <ns3:hr>126</ns3:hr>
            <ns3:cad>61</ns3:cad>
          </ns3:TrackPointExtension>
        </extensions>
      </trkpt>
      <trkpt lat="55.7910487242043018341064453125" lon="24.8749510757625102996826171875">
        <ele>65.1999969482421875</ele>
        <time>2026-07-26T08:07:42.000Z</time>
        <extensions>
          <ns3:TrackPointExtension>
            <ns3:hr>125</ns3:hr>
            <ns3:cad>59</ns3:cad>
          </ns3:TrackPointExtension>
        </extensions>
      </trkpt>
      <trkpt lat="55.79101092182099819183349609375" lon="24.87478352151811122894287109375">
        <ele>63.799999237060546875</ele>
        <time>2026-07-26T08:07:49.000Z</time>
        <extensions>
          <ns3:TrackPointExtension>
            <ns3:hr>127</ns3:hr>
            <ns3:cad>59</ns3:cad>
          </ns3:TrackPointExtension>
        </extensions>
      </trkpt>
      <trkpt lat="55.79100119881331920623779296875" lon="24.87473591230809688568115234375">
        <ele>63.59999847412109375</ele>
        <time>2026-07-26T08:07:51.000Z</time>
        <extensions>
          <ns3:TrackPointExtension>
            <ns3:hr>126</ns3:hr>
            <ns3:cad>59</ns3:cad>
          </ns3:TrackPointExtension>
        </extensions>
      </trkpt>
      <trkpt lat="55.7909323833882808685302734375" lon="24.87442796118557453155517578125">
        <ele>64.40000152587890625</ele>
        <time>2026-07-26T08:08:03.000Z</time>
        <extensions>
          <ns3:TrackPointExtension>
            <ns3:hr>126</ns3:hr>
            <ns3:cad>60</ns3:cad>
          </ns3:TrackPointExtension>
        </extensions>
      </trkpt>
      <trkpt lat="55.79092693515121936798095703125" lon="24.87440398894250392913818359375">
        <ele>64.40000152587890625</ele>
        <time>2026-07-26T08:08:04.000Z</time>
        <extensions>
          <ns3:TrackPointExtension>
            <ns3:hr>126</ns3:hr>
            <ns3:cad>60</ns3:cad>
          </ns3:TrackPointExtension>
        </extensions>
      </trkpt>
      <trkpt lat="55.79085200093686580657958984375" lon="24.87413057126104831695556640625">
        <ele>64</ele>
        <time>2026-07-26T08:08:15.000Z</time>
        <extensions>
          <ns3:TrackPointExtension>
            <ns3:hr>124</ns3:hr>
            <ns3:cad>59</ns3:cad>
          </ns3:TrackPointExtension>
        </extensions>
      </trkpt>
      <trkpt lat="55.79078829847276210784912109375" lon="24.8739492706954479217529296875">
        <ele>64</ele>
        <time>2026-07-26T08:08:23.000Z</time>
        <extensions>
          <ns3:TrackPointExtension>
            <ns3:hr>125</ns3:hr>
            <ns3:cad>61</ns3:cad>
          </ns3:TrackPointExtension>
        </extensions>
      </trkpt>
      <trkpt lat="55.79070934094488620758056640625" lon="24.8737739212810993194580078125">
        <ele>63.799999237060546875</ele>
        <time>2026-07-26T08:08:31.000Z</time>
        <extensions>
          <ns3:TrackPointExtension>
            <ns3:hr>123</ns3:hr>
            <ns3:cad>59</ns3:cad>
          </ns3:TrackPointExtension>
        </extensions>
      </trkpt>
      <trkpt lat="55.790626443922519683837890625" lon="24.8735811375081539154052734375">
        <ele>64.1999969482421875</ele>
        <time>2026-07-26T08:08:41.000Z</time>
        <extensions>
          <ns3:TrackPointExtension>
            <ns3:hr>123</ns3:hr>
            <ns3:cad>59</ns3:cad>
          </ns3:TrackPointExtension>
        </extensions>
      </trkpt>
      <trkpt lat="55.7905518449842929840087890625" lon="24.8733772896230220794677734375">
        <ele>64</ele>
        <time>2026-07-26T08:08:50.000Z</time>
        <extensions>
          <ns3:TrackPointExtension>
            <ns3:hr>121</ns3:hr>
            <ns3:cad>59</ns3:cad>
          </ns3:TrackPointExtension>
        </extensions>
      </trkpt>
      <trkpt lat="55.790440030395984649658203125" lon="24.87313731573522090911865234375">
        <ele>64</ele>
        <time>2026-07-26T08:09:01.000Z</time>
        <extensions>
          <ns3:TrackPointExtension>
            <ns3:hr>122</ns3:hr>
            <ns3:cad>61</ns3:cad>
          </ns3:TrackPointExtension>
        </extensions>
      </trkpt>
      <trkpt lat="55.7903365977108478546142578125" lon="24.87289960496127605438232421875">
        <ele>63</ele>
        <time>2026-07-26T08:09:13.000Z</time>
        <extensions>
          <ns3:TrackPointExtension>
            <ns3:hr>121</ns3:hr>
            <ns3:cad>59</ns3:cad>
          </ns3:TrackPointExtension>
        </extensions>
      </trkpt>
      <trkpt lat="55.79029628075659275054931640625" lon="24.87281075678765773773193359375">
        <ele>63.59999847412109375</ele>
        <time>2026-07-26T08:09:17.000Z</time>
        <extensions>
          <ns3:TrackPointExtension>
            <ns3:hr>124</ns3:hr>
            <ns3:cad>59</ns3:cad>
          </ns3:TrackPointExtension>
        </extensions>
      </trkpt>
      <trkpt lat="55.79022771678864955902099609375" lon="24.8726594634354114532470703125">
        <ele>63.59999847412109375</ele>
        <time>2026-07-26T08:09:24.000Z</time>
        <extensions>
          <ns3:TrackPointExtension>
            <ns3:hr>124</ns3:hr>
            <ns3:cad>59</ns3:cad>
          </ns3:TrackPointExtension>
        </extensions>
      </trkpt>
      <trkpt lat="55.790153704583644866943359375" lon="24.87250884063541889190673828125">
        <ele>63.200000762939453125</ele>
        <time>2026-07-26T08:09:32.000Z</time>
        <extensions>
          <ns3:TrackPointExtension>
            <ns3:hr>123</ns3:hr>
            <ns3:cad>59</ns3:cad>
          </ns3:TrackPointExtension>
        </extensions>
      </trkpt>
      <trkpt lat="55.7900626771152019500732421875" lon="24.87229761667549610137939453125">
        <ele>63.200000762939453125</ele>
        <time>2026-07-26T08:09:42.000Z</time>
        <extensions>
          <ns3:TrackPointExtension>
            <ns3:hr>122</ns3:hr>
            <ns3:cad>60</ns3:cad>
          </ns3:TrackPointExtension>
        </extensions>
      </trkpt>
      <trkpt lat="55.790013559162616729736328125" lon="24.87219686619937419891357421875">
        <ele>62.799999237060546875</ele>
        <time>2026-07-26T08:09:47.000Z</time>
        <extensions>
          <ns3:TrackPointExtension>
            <ns3:hr>123</ns3:hr>
            <ns3:cad>60</ns3:cad>
          </ns3:TrackPointExtension>
        </extensions>
      </trkpt>
      <trkpt lat="55.78995890915393829345703125" lon="24.87206912599503993988037109375">
        <ele>63.40000152587890625</ele>
        <time>2026-07-26T08:09:53.000Z</time>
        <extensions>
          <ns3:TrackPointExtension>
            <ns3:hr>124</ns3:hr>
            <ns3:cad>61</ns3:cad>
          </ns3:TrackPointExtension>
        </extensions>
      </trkpt>
      <trkpt lat="55.789845250546932220458984375" lon="24.8718249611556529998779296875">
        <ele>63.200000762939453125</ele>
        <time>2026-07-26T08:10:05.000Z</time>
        <extensions>
          <ns3:TrackPointExtension>
            <ns3:hr>123</ns3:hr>
            <ns3:cad>58</ns3:cad>
          </ns3:TrackPointExtension>
        </extensions>
      </trkpt>
      <trkpt lat="55.78973569907248020172119140625" lon="24.87160183489322662353515625">
        <ele>63.40000152587890625</ele>
        <time>2026-07-26T08:10:16.000Z</time>
        <extensions>
          <ns3:TrackPointExtension>
            <ns3:hr>125</ns3:hr>
            <ns3:cad>60</ns3:cad>
          </ns3:TrackPointExtension>
        </extensions>
      </trkpt>
      <trkpt lat="55.78965506516396999359130859375" lon="24.87143361009657382965087890625">
        <ele>62.799999237060546875</ele>
        <time>2026-07-26T08:10:24.000Z</time>
        <extensions>
          <ns3:TrackPointExtension>
            <ns3:hr>126</ns3:hr>
            <ns3:cad>61</ns3:cad>
          </ns3:TrackPointExtension>
        </extensions>
      </trkpt>
      <trkpt lat="55.78955884091556072235107421875" lon="24.8712164349853992462158203125">
        <ele>63</ele>
        <time>2026-07-26T08:10:35.000Z</time>
        <extensions>
          <ns3:TrackPointExtension>
            <ns3:hr>125</ns3:hr>
            <ns3:cad>58</ns3:cad>
          </ns3:TrackPointExtension>
        </extensions>
      </trkpt>
      <trkpt lat="55.78946647234261035919189453125" lon="24.87102289684116840362548828125">
        <ele>62.59999847412109375</ele>
        <time>2026-07-26T08:10:45.000Z</time>
        <extensions>
          <ns3:TrackPointExtension>
            <ns3:hr>125</ns3:hr>
            <ns3:cad>59</ns3:cad>
          </ns3:TrackPointExtension>
        </extensions>
      </trkpt>
      <trkpt lat="55.78935801051557064056396484375" lon="24.87080127932131290435791015625">
        <ele>63</ele>
        <time>2026-07-26T08:10:57.000Z</time>
        <extensions>
          <ns3:TrackPointExtension>
            <ns3:hr>125</ns3:hr>
            <ns3:cad>59</ns3:cad>
          </ns3:TrackPointExtension>
        </extensions>
      </trkpt>
      <trkpt lat="55.7892402447760105133056640625" lon="24.870580248534679412841796875">
        <ele>62.40000152587890625</ele>
        <time>2026-07-26T08:11:08.000Z</time>
        <extensions>
          <ns3:TrackPointExtension>
            <ns3:hr>126</ns3:hr>
            <ns3:cad>58</ns3:cad>
          </ns3:TrackPointExtension>
        </extensions>
      </trkpt>
      <trkpt lat="55.7891621254384517669677734375" lon="24.870385117828845977783203125">
        <ele>62.59999847412109375</ele>
        <time>2026-07-26T08:11:17.000Z</time>
        <extensions>
          <ns3:TrackPointExtension>
            <ns3:hr>125</ns3:hr>
            <ns3:cad>59</ns3:cad>
          </ns3:TrackPointExtension>
        </extensions>
      </trkpt>
      <trkpt lat="55.78911133110523223876953125" lon="24.87026148475706577301025390625">
        <ele>62.59999847412109375</ele>
        <time>2026-07-26T08:11:23.000Z</time>
        <extensions>
          <ns3:TrackPointExtension>
            <ns3:hr>128</ns3:hr>
            <ns3:cad>59</ns3:cad>
          </ns3:TrackPointExtension>
        </extensions>
      </trkpt>
      <trkpt lat="55.78903815709054470062255859375" lon="24.8700956068933010101318359375">
        <ele>62.40000152587890625</ele>
        <time>2026-07-26T08:11:31.000Z</time>
        <extensions>
          <ns3:TrackPointExtension>
            <ns3:hr>129</ns3:hr>
            <ns3:cad>59</ns3:cad>
          </ns3:TrackPointExtension>
        </extensions>
      </trkpt>
      <trkpt lat="55.78896372579038143157958984375" lon="24.8699524439871311187744140625">
        <ele>63.799999237060546875</ele>
        <time>2026-07-26T08:11:40.000Z</time>
        <extensions>
          <ns3:TrackPointExtension>
            <ns3:hr>129</ns3:hr>
            <ns3:cad>57</ns3:cad>
          </ns3:TrackPointExtension>
        </extensions>
      </trkpt>
      <trkpt lat="55.78896355815231800079345703125" lon="24.86995504237711429595947265625">
        <ele>63.799999237060546875</ele>
        <time>2026-07-26T08:11:41.000Z</time>
        <extensions>
          <ns3:TrackPointExtension>
            <ns3:hr>129</ns3:hr>
            <ns3:cad>0</ns3:cad>
          </ns3:TrackPointExtension>
        </extensions>
      </trkpt>
      <trkpt lat="55.78894478268921375274658203125" lon="24.86990978009998798370361328125">
        <ele>63.200000762939453125</ele>
        <time>2026-07-26T08:11:46.000Z</time>
        <extensions>
          <ns3:TrackPointExtension>
            <ns3:hr>129</ns3:hr>
            <ns3:cad>0</ns3:cad>
          </ns3:TrackPointExtension>
        </extensions>
      </trkpt>
      <trkpt lat="55.78892718069255352020263671875" lon="24.86986334435641765594482421875">
        <ele>62.799999237060546875</ele>
        <time>2026-07-26T08:11:48.000Z</time>
        <extensions>
          <ns3:TrackPointExtension>
            <ns3:hr>129</ns3:hr>
            <ns3:cad>57</ns3:cad>
          </ns3:TrackPointExtension>
        </extensions>
      </trkpt>
      <trkpt lat="55.78887621872127056121826171875" lon="24.8697338439524173736572265625">
        <ele>62.59999847412109375</ele>
        <time>2026-07-26T08:11:54.000Z</time>
        <extensions>
          <ns3:TrackPointExtension>
            <ns3:hr>128</ns3:hr>
            <ns3:cad>59</ns3:cad>
          </ns3:TrackPointExtension>
        </extensions>
      </trkpt>
      <trkpt lat="55.78876591287553310394287109375" lon="24.869459085166454315185546875">
        <ele>62.59999847412109375</ele>
        <time>2026-07-26T08:12:08.000Z</time>
        <extensions>
          <ns3:TrackPointExtension>
            <ns3:hr>126</ns3:hr>
            <ns3:cad>59</ns3:cad>
          </ns3:TrackPointExtension>
        </extensions>
      </trkpt>
      <trkpt lat="55.7887101732194423675537109375" lon="24.86932254396378993988037109375">
        <ele>62.59999847412109375</ele>
        <time>2026-07-26T08:12:14.000Z</time>
        <extensions>
          <ns3:TrackPointExtension>
            <ns3:hr>129</ns3:hr>
            <ns3:cad>58</ns3:cad>
          </ns3:TrackPointExtension>
        </extensions>
      </trkpt>
      <trkpt lat="55.7886937446892261505126953125" lon="24.86928599886596202850341796875">
        <ele>62.40000152587890625</ele>
        <time>2026-07-26T08:12:16.000Z</time>
        <extensions>
          <ns3:TrackPointExtension>
            <ns3:hr>129</ns3:hr>
            <ns3:cad>58</ns3:cad>
          </ns3:TrackPointExtension>
        </extensions>
      </trkpt>
      <trkpt lat="55.78863364644348621368408203125" lon="24.8691410757601261138916015625">
        <ele>62.40000152587890625</ele>
        <time>2026-07-26T08:12:23.000Z</time>
        <extensions>
          <ns3:TrackPointExtension>
            <ns3:hr>127</ns3:hr>
            <ns3:cad>57</ns3:cad>
          </ns3:TrackPointExtension>
        </extensions>
      </trkpt>
      <trkpt lat="55.7885733805596828460693359375" lon="24.868975616991519927978515625">
        <ele>63.200000762939453125</ele>
        <time>2026-07-26T08:12:32.000Z</time>
        <extensions>
          <ns3:TrackPointExtension>
            <ns3:hr>125</ns3:hr>
            <ns3:cad>59</ns3:cad>
          </ns3:TrackPointExtension>
        </extensions>
      </trkpt>
      <trkpt lat="55.788550078868865966796875" lon="24.8689174465835094451904296875">
        <ele>63</ele>
        <time>2026-07-26T08:12:39.000Z</time>
        <extensions>
          <ns3:TrackPointExtension>
            <ns3:hr>126</ns3:hr>
            <ns3:cad>56</ns3:cad>
          </ns3:TrackPointExtension>
        </extensions>
      </trkpt>
      <trkpt lat="55.78855250962078571319580078125" lon="24.86892306245863437652587890625">
        <ele>62.200000762939453125</ele>
        <time>2026-07-26T08:12:47.000Z</time>
        <extensions>
          <ns3:TrackPointExtension>
            <ns3:hr>125</ns3:hr>
            <ns3:cad>0</ns3:cad>
          </ns3:TrackPointExtension>
        </extensions>
      </trkpt>
      <trkpt lat="55.7885512523353099822998046875" lon="24.8689040355384349822998046875">
        <ele>62.200000762939453125</ele>
        <time>2026-07-26T08:12:49.000Z</time>
        <extensions>
          <ns3:TrackPointExtension>
            <ns3:hr>129</ns3:hr>
            <ns3:cad>0</ns3:cad>
          </ns3:TrackPointExtension>
        </extensions>
      </trkpt>
      <trkpt lat="55.7885514199733734130859375" lon="24.8688996769487857818603515625">
        <ele>62.200000762939453125</ele>
        <time>2026-07-26T08:12:50.000Z</time>
        <extensions>
          <ns3:TrackPointExtension>
            <ns3:hr>133</ns3:hr>
            <ns3:cad>0</ns3:cad>
          </ns3:TrackPointExtension>
        </extensions>
      </trkpt>
      <trkpt lat="55.7885380089282989501953125" lon="24.868866987526416778564453125">
        <ele>62.40000152587890625</ele>
        <time>2026-07-26T08:12:53.000Z</time>
        <extensions>
          <ns3:TrackPointExtension>
            <ns3:hr>135</ns3:hr>
            <ns3:cad>0</ns3:cad>
          </ns3:TrackPointExtension>
        </extensions>
      </trkpt>
      <trkpt lat="55.7884878851473331451416015625" lon="24.868742935359477996826171875">
        <ele>62.200000762939453125</ele>
        <time>2026-07-26T08:13:00.000Z</time>
        <extensions>
          <ns3:TrackPointExtension>
            <ns3:hr>134</ns3:hr>
            <ns3:cad>0</ns3:cad>
          </ns3:TrackPointExtension>
        </extensions>
      </trkpt>
      <trkpt lat="55.7884174771606922149658203125" lon="24.86858703196048736572265625">
        <ele>62.799999237060546875</ele>
        <time>2026-07-26T08:13:08.000Z</time>
        <extensions>
          <ns3:TrackPointExtension>
            <ns3:hr>136</ns3:hr>
            <ns3:cad>57</ns3:cad>
          </ns3:TrackPointExtension>
        </extensions>
      </trkpt>
      <trkpt lat="55.788358636200428009033203125" lon="24.868429787456989288330078125">
        <ele>62.40000152587890625</ele>
        <time>2026-07-26T08:13:16.000Z</time>
        <extensions>
          <ns3:TrackPointExtension>
            <ns3:hr>134</ns3:hr>
            <ns3:cad>57</ns3:cad>
          </ns3:TrackPointExtension>
        </extensions>
      </trkpt>
      <trkpt lat="55.78827523626387119293212890625" lon="24.86818394623696804046630859375">
        <ele>62.799999237060546875</ele>
        <time>2026-07-26T08:13:27.000Z</time>
        <extensions>
          <ns3:TrackPointExtension>
            <ns3:hr>133</ns3:hr>
            <ns3:cad>57</ns3:cad>
          </ns3:TrackPointExtension>
        </extensions>
      </trkpt>
      <trkpt lat="55.78820767812430858612060546875" lon="24.86798755824565887451171875">
        <ele>61.799999237060546875</ele>
        <time>2026-07-26T08:13:36.000Z</time>
        <extensions>
          <ns3:TrackPointExtension>
            <ns3:hr>131</ns3:hr>
            <ns3:cad>56</ns3:cad>
          </ns3:TrackPointExtension>
        </extensions>
      </trkpt>
      <trkpt lat="55.78814581967890262603759765625" lon="24.86778127960860729217529296875">
        <ele>62.59999847412109375</ele>
        <time>2026-07-26T08:13:45.000Z</time>
        <extensions>
          <ns3:TrackPointExtension>
            <ns3:hr>132</ns3:hr>
            <ns3:cad>57</ns3:cad>
          </ns3:TrackPointExtension>
        </extensions>
      </trkpt>
      <trkpt lat="55.78809184022247791290283203125" lon="24.86760894767940044403076171875">
        <ele>62.799999237060546875</ele>
        <time>2026-07-26T08:13:53.000Z</time>
        <extensions>
          <ns3:TrackPointExtension>
            <ns3:hr>134</ns3:hr>
            <ns3:cad>57</ns3:cad>
          </ns3:TrackPointExtension>
        </extensions>
      </trkpt>
      <trkpt lat="55.78802763484418392181396484375" lon="24.86743862740695476531982421875">
        <ele>62.59999847412109375</ele>
        <time>2026-07-26T08:14:01.000Z</time>
        <extensions>
          <ns3:TrackPointExtension>
            <ns3:hr>132</ns3:hr>
            <ns3:cad>58</ns3:cad>
          </ns3:TrackPointExtension>
        </extensions>
      </trkpt>
      <trkpt lat="55.78796393238008022308349609375" lon="24.86720074899494647979736328125">
        <ele>62.799999237060546875</ele>
        <time>2026-07-26T08:14:11.000Z</time>
        <extensions>
          <ns3:TrackPointExtension>
            <ns3:hr>132</ns3:hr>
            <ns3:cad>59</ns3:cad>
          </ns3:TrackPointExtension>
        </extensions>
      </trkpt>
      <trkpt lat="55.787890590727329254150390625" lon="24.86697561107575893402099609375">
        <ele>63</ele>
        <time>2026-07-26T08:14:21.000Z</time>
        <extensions>
          <ns3:TrackPointExtension>
            <ns3:hr>131</ns3:hr>
            <ns3:cad>57</ns3:cad>
          </ns3:TrackPointExtension>
        </extensions>
      </trkpt>
      <trkpt lat="55.7878164947032928466796875" lon="24.86674703657627105712890625">
        <ele>62.799999237060546875</ele>
        <time>2026-07-26T08:14:31.000Z</time>
        <extensions>
          <ns3:TrackPointExtension>
            <ns3:hr>130</ns3:hr>
            <ns3:cad>58</ns3:cad>
          </ns3:TrackPointExtension>
        </extensions>
      </trkpt>
      <trkpt lat="55.78775438480079174041748046875" lon="24.86655886285006999969482421875">
        <ele>62.59999847412109375</ele>
        <time>2026-07-26T08:14:39.000Z</time>
        <extensions>
          <ns3:TrackPointExtension>
            <ns3:hr>130</ns3:hr>
            <ns3:cad>57</ns3:cad>
          </ns3:TrackPointExtension>
        </extensions>
      </trkpt>
      <trkpt lat="55.78770493157207965850830078125" lon="24.8663928173482418060302734375">
        <ele>63</ele>
        <time>2026-07-26T08:14:46.000Z</time>
        <extensions>
          <ns3:TrackPointExtension>
            <ns3:hr>131</ns3:hr>
            <ns3:cad>58</ns3:cad>
          </ns3:TrackPointExtension>
        </extensions>
      </trkpt>
      <trkpt lat="55.7876708172261714935302734375" lon="24.86628980375826358795166015625">
        <ele>62.799999237060546875</ele>
        <time>2026-07-26T08:14:51.000Z</time>
        <extensions>
          <ns3:TrackPointExtension>
            <ns3:hr>128</ns3:hr>
            <ns3:cad>57</ns3:cad>
          </ns3:TrackPointExtension>
        </extensions>
      </trkpt>
      <trkpt lat="55.7876389659941196441650390625" lon="24.86619810573756694793701171875">
        <ele>62.59999847412109375</ele>
        <time>2026-07-26T08:14:55.000Z</time>
        <extensions>
          <ns3:TrackPointExtension>
            <ns3:hr>127</ns3:hr>
            <ns3:cad>57</ns3:cad>
          </ns3:TrackPointExtension>
        </extensions>
      </trkpt>
      <trkpt lat="55.7875883392989635467529296875" lon="24.8660637438297271728515625">
        <ele>62.799999237060546875</ele>
        <time>2026-07-26T08:15:02.000Z</time>
        <extensions>
          <ns3:TrackPointExtension>
            <ns3:hr>127</ns3:hr>
            <ns3:cad>57</ns3:cad>
          </ns3:TrackPointExtension>
        </extensions>
      </trkpt>
      <trkpt lat="55.78750678338110446929931640625" lon="24.86583366058766841888427734375">
        <ele>62.59999847412109375</ele>
        <time>2026-07-26T08:15:12.000Z</time>
        <extensions>
          <ns3:TrackPointExtension>
            <ns3:hr>130</ns3:hr>
            <ns3:cad>57</ns3:cad>
          </ns3:TrackPointExtension>
        </extensions>
      </trkpt>
      <trkpt lat="55.78744173981249332427978515625" lon="24.86563970334827899932861328125">
        <ele>62.40000152587890625</ele>
        <time>2026-07-26T08:15:21.000Z</time>
        <extensions>
          <ns3:TrackPointExtension>
            <ns3:hr>129</ns3:hr>
            <ns3:cad>57</ns3:cad>
          </ns3:TrackPointExtension>
        </extensions>
      </trkpt>
      <trkpt lat="55.787343084812164306640625" lon="24.865398220717906951904296875">
        <ele>62.40000152587890625</ele>
        <time>2026-07-26T08:15:32.000Z</time>
        <extensions>
          <ns3:TrackPointExtension>
            <ns3:hr>128</ns3:hr>
            <ns3:cad>57</ns3:cad>
          </ns3:TrackPointExtension>
        </extensions>
      </trkpt>
      <trkpt lat="55.78725080005824565887451171875" lon="24.86518087796866893768310546875">
        <ele>62.200000762939453125</ele>
        <time>2026-07-26T08:15:43.000Z</time>
        <extensions>
          <ns3:TrackPointExtension>
            <ns3:hr>128</ns3:hr>
            <ns3:cad>57</ns3:cad>
          </ns3:TrackPointExtension>
        </extensions>
      </trkpt>
      <trkpt lat="55.78720905818045139312744140625" lon="24.86508079804480075836181640625">
        <ele>62.799999237060546875</ele>
        <time>2026-07-26T08:15:48.000Z</time>
        <extensions>
          <ns3:TrackPointExtension>
            <ns3:hr>124</ns3:hr>
            <ns3:cad>57</ns3:cad>
          </ns3:TrackPointExtension>
        </extensions>
      </trkpt>
      <trkpt lat="55.78718642704188823699951171875" lon="24.86502598039805889129638671875">
        <ele>62.59999847412109375</ele>
        <time>2026-07-26T08:15:51.000Z</time>
        <extensions>
          <ns3:TrackPointExtension>
            <ns3:hr>123</ns3:hr>
            <ns3:cad>58</ns3:cad>
          </ns3:TrackPointExtension>
        </extensions>
      </trkpt>
      <trkpt lat="55.78715289942920207977294921875" lon="24.86493545584380626678466796875">
        <ele>62.200000762939453125</ele>
        <time>2026-07-26T08:15:55.000Z</time>
        <extensions>
          <ns3:TrackPointExtension>
            <ns3:hr>126</ns3:hr>
            <ns3:cad>55</ns3:cad>
          </ns3:TrackPointExtension>
        </extensions>
      </trkpt>
      <trkpt lat="55.78710461966693401336669921875" lon="24.86482297070324420928955078125">
        <ele>62.200000762939453125</ele>
        <time>2026-07-26T08:16:00.000Z</time>
        <extensions>
          <ns3:TrackPointExtension>
            <ns3:hr>127</ns3:hr>
            <ns3:cad>58</ns3:cad>
          </ns3:TrackPointExtension>
        </extensions>
      </trkpt>
      <trkpt lat="55.7870190404355525970458984375" lon="24.86462733708322048187255859375">
        <ele>62</ele>
        <time>2026-07-26T08:16:10.000Z</time>
        <extensions>
          <ns3:TrackPointExtension>
            <ns3:hr>126</ns3:hr>
            <ns3:cad>57</ns3:cad>
          </ns3:TrackPointExtension>
        </extensions>
      </trkpt>
      <trkpt lat="55.7869640551507472991943359375" lon="24.86447654664516448974609375">
        <ele>62.40000152587890625</ele>
        <time>2026-07-26T08:16:17.000Z</time>
        <extensions>
          <ns3:TrackPointExtension>
            <ns3:hr>126</ns3:hr>
            <ns3:cad>57</ns3:cad>
          </ns3:TrackPointExtension>
        </extensions>
      </trkpt>
      <trkpt lat="55.78688803128898143768310546875" lon="24.86431033350527286529541015625">
        <ele>63.200000762939453125</ele>
        <time>2026-07-26T08:16:25.000Z</time>
        <extensions>
          <ns3:TrackPointExtension>
            <ns3:hr>127</ns3:hr>
            <ns3:cad>58</ns3:cad>
          </ns3:TrackPointExtension>
        </extensions>
      </trkpt>
      <trkpt lat="55.7868074811995029449462890625" lon="24.86413347534835338592529296875">
        <ele>62.59999847412109375</ele>
        <time>2026-07-26T08:16:34.000Z</time>
        <extensions>
          <ns3:TrackPointExtension>
            <ns3:hr>130</ns3:hr>
            <ns3:cad>57</ns3:cad>
          </ns3:TrackPointExtension>
        </extensions>
      </trkpt>
      <trkpt lat="55.78674352727830410003662109375" lon="24.86396550200879573822021484375">
        <ele>62</ele>
        <time>2026-07-26T08:16:42.000Z</time>
        <extensions>
          <ns3:TrackPointExtension>
            <ns3:hr>130</ns3:hr>
            <ns3:cad>56</ns3:cad>
          </ns3:TrackPointExtension>
        </extensions>
      </trkpt>
      <trkpt lat="55.7866711914539337158203125" lon="24.8637994565069675445556640625">
        <ele>63</ele>
        <time>2026-07-26T08:16:50.000Z</time>
        <extensions>
          <ns3:TrackPointExtension>
            <ns3:hr>132</ns3:hr>
            <ns3:cad>57</ns3:cad>
          </ns3:TrackPointExtension>
        </extensions>
      </trkpt>
      <trkpt lat="55.786598436534404754638671875" lon="24.86363123171031475067138671875">
        <ele>63.200000762939453125</ele>
        <time>2026-07-26T08:16:59.000Z</time>
        <extensions>
          <ns3:TrackPointExtension>
            <ns3:hr>132</ns3:hr>
            <ns3:cad>56</ns3:cad>
          </ns3:TrackPointExtension>
        </extensions>
      </trkpt>
      <trkpt lat="55.78652023337781429290771484375" lon="24.86340542323887348175048828125">
        <ele>63.200000762939453125</ele>
        <time>2026-07-26T08:17:09.000Z</time>
        <extensions>
          <ns3:TrackPointExtension>
            <ns3:hr>132</ns3:hr>
            <ns3:cad>56</ns3:cad>
          </ns3:TrackPointExtension>
        </extensions>
      </trkpt>
      <trkpt lat="55.78643876127898693084716796875" lon="24.86322403885424137115478515625">
        <ele>62.799999237060546875</ele>
        <time>2026-07-26T08:17:18.000Z</time>
        <extensions>
          <ns3:TrackPointExtension>
            <ns3:hr>131</ns3:hr>
            <ns3:cad>57</ns3:cad>
          </ns3:TrackPointExtension>
        </extensions>
      </trkpt>
      <trkpt lat="55.786377154290676116943359375" lon="24.8630816303193569183349609375">
        <ele>62.799999237060546875</ele>
        <time>2026-07-26T08:17:25.000Z</time>
        <extensions>
          <ns3:TrackPointExtension>
            <ns3:hr>132</ns3:hr>
            <ns3:cad>56</ns3:cad>
          </ns3:TrackPointExtension>
        </extensions>
      </trkpt>
      <trkpt lat="55.786318480968475341796875" lon="24.86294098198413848876953125">
        <ele>63.799999237060546875</ele>
        <time>2026-07-26T08:17:32.000Z</time>
        <extensions>
          <ns3:TrackPointExtension>
            <ns3:hr>134</ns3:hr>
            <ns3:cad>56</ns3:cad>
          </ns3:TrackPointExtension>
        </extensions>
      </trkpt>
      <trkpt lat="55.78630867414176464080810546875" lon="24.86292421817779541015625">
        <ele>63.799999237060546875</ele>
        <time>2026-07-26T08:17:33.000Z</time>
        <extensions>
          <ns3:TrackPointExtension>
            <ns3:hr>133</ns3:hr>
            <ns3:cad>56</ns3:cad>
          </ns3:TrackPointExtension>
        </extensions>
      </trkpt>
      <trkpt lat="55.7862613163888454437255859375" lon="24.8627916164696216583251953125">
        <ele>64.1999969482421875</ele>
        <time>2026-07-26T08:17:39.000Z</time>
        <extensions>
          <ns3:TrackPointExtension>
            <ns3:hr>132</ns3:hr>
            <ns3:cad>56</ns3:cad>
          </ns3:TrackPointExtension>
        </extensions>
      </trkpt>
      <trkpt lat="55.78620381653308868408203125" lon="24.86260570585727691650390625">
        <ele>63.799999237060546875</ele>
        <time>2026-07-26T08:17:48.000Z</time>
        <extensions>
          <ns3:TrackPointExtension>
            <ns3:hr>134</ns3:hr>
            <ns3:cad>55</ns3:cad>
          </ns3:TrackPointExtension>
        </extensions>
      </trkpt>
      <trkpt lat="55.7861617393791675567626953125" lon="24.8623383231461048126220703125">
        <ele>63.59999847412109375</ele>
        <time>2026-07-26T08:17:58.000Z</time>
        <extensions>
          <ns3:TrackPointExtension>
            <ns3:hr>136</ns3:hr>
            <ns3:cad>57</ns3:cad>
          </ns3:TrackPointExtension>
        </extensions>
      </trkpt>
      <trkpt lat="55.78616584651172161102294921875" lon="24.8621170409023761749267578125">
        <ele>63.799999237060546875</ele>
        <time>2026-07-26T08:18:07.000Z</time>
        <extensions>
          <ns3:TrackPointExtension>
            <ns3:hr>135</ns3:hr>
            <ns3:cad>57</ns3:cad>
          </ns3:TrackPointExtension>
        </extensions>
      </trkpt>
      <trkpt lat="55.78619099222123622894287109375" lon="24.86191092990338802337646484375">
        <ele>63.40000152587890625</ele>
        <time>2026-07-26T08:18:15.000Z</time>
        <extensions>
          <ns3:TrackPointExtension>
            <ns3:hr>137</ns3:hr>
            <ns3:cad>57</ns3:cad>
          </ns3:TrackPointExtension>
        </extensions>
      </trkpt>
      <trkpt lat="55.78617825172841548919677734375" lon="24.86181353218853473663330078125">
        <ele>63.200000762939453125</ele>
        <time>2026-07-26T08:18:18.000Z</time>
        <extensions>
          <ns3:TrackPointExtension>
            <ns3:hr>133</ns3:hr>
            <ns3:cad>57</ns3:cad>
          </ns3:TrackPointExtension>
        </extensions>
      </trkpt>
      <trkpt lat="55.7861671037971973419189453125" lon="24.86175133846700191497802734375">
        <ele>63.200000762939453125</ele>
        <time>2026-07-26T08:18:20.000Z</time>
        <extensions>
          <ns3:TrackPointExtension>
            <ns3:hr>130</ns3:hr>
            <ns3:cad>57</ns3:cad>
          </ns3:TrackPointExtension>
        </extensions>
      </trkpt>
      <trkpt lat="55.78615411184728145599365234375" lon="24.86167321912944316864013671875">
        <ele>63.200000762939453125</ele>
        <time>2026-07-26T08:18:23.000Z</time>
        <extensions>
          <ns3:TrackPointExtension>
            <ns3:hr>130</ns3:hr>
            <ns3:cad>59</ns3:cad>
          </ns3:TrackPointExtension>
        </extensions>
      </trkpt>
      <trkpt lat="55.78612360171973705291748046875" lon="24.861469455063343048095703125">
        <ele>63.59999847412109375</ele>
        <time>2026-07-26T08:18:32.000Z</time>
        <extensions>
          <ns3:TrackPointExtension>
            <ns3:hr>132</ns3:hr>
            <ns3:cad>58</ns3:cad>
          </ns3:TrackPointExtension>
        </extensions>
      </trkpt>
      <trkpt lat="55.78610298223793506622314453125" lon="24.8612191714346408843994140625">
        <ele>63.59999847412109375</ele>
        <time>2026-07-26T08:18:42.000Z</time>
        <extensions>
          <ns3:TrackPointExtension>
            <ns3:hr>130</ns3:hr>
            <ns3:cad>57</ns3:cad>
          </ns3:TrackPointExtension>
        </extensions>
      </trkpt>
      <trkpt lat="55.7860879786312580108642578125" lon="24.86088213510811328887939453125">
        <ele>63.40000152587890625</ele>
        <time>2026-07-26T08:18:55.000Z</time>
        <extensions>
          <ns3:TrackPointExtension>
            <ns3:hr>130</ns3:hr>
            <ns3:cad>58</ns3:cad>
          </ns3:TrackPointExtension>
        </extensions>
      </trkpt>
      <trkpt lat="55.78607238829135894775390625" lon="24.86055205576121807098388671875">
        <ele>63.40000152587890625</ele>
        <time>2026-07-26T08:19:08.000Z</time>
        <extensions>
          <ns3:TrackPointExtension>
            <ns3:hr>129</ns3:hr>
            <ns3:cad>58</ns3:cad>
          </ns3:TrackPointExtension>
        </extensions>
      </trkpt>
      <trkpt lat="55.7860618270933628082275390625" lon="24.86030261032283306121826171875">
        <ele>63.40000152587890625</ele>
        <time>2026-07-26T08:19:17.000Z</time>
        <extensions>
          <ns3:TrackPointExtension>
            <ns3:hr>128</ns3:hr>
            <ns3:cad>57</ns3:cad>
          </ns3:TrackPointExtension>
        </extensions>
      </trkpt>
      <trkpt lat="55.7860494218766689300537109375" lon="24.86011368222534656524658203125">
        <ele>63.200000762939453125</ele>
        <time>2026-07-26T08:19:24.000Z</time>
        <extensions>
          <ns3:TrackPointExtension>
            <ns3:hr>131</ns3:hr>
            <ns3:cad>57</ns3:cad>
          </ns3:TrackPointExtension>
        </extensions>
      </trkpt>
      <trkpt lat="55.7860447280108928680419921875" lon="24.8600597865879535675048828125">
        <ele>63.200000762939453125</ele>
        <time>2026-07-26T08:19:26.000Z</time>
        <extensions>
          <ns3:TrackPointExtension>
            <ns3:hr>131</ns3:hr>
            <ns3:cad>57</ns3:cad>
          </ns3:TrackPointExtension>
        </extensions>
      </trkpt>
      <trkpt lat="55.78603123314678668975830078125" lon="24.85988586209714412689208984375">
        <ele>63</ele>
        <time>2026-07-26T08:19:33.000Z</time>
        <extensions>
          <ns3:TrackPointExtension>
            <ns3:hr>128</ns3:hr>
            <ns3:cad>57</ns3:cad>
          </ns3:TrackPointExtension>
        </extensions>
      </trkpt>
      <trkpt lat="55.78601849265396595001220703125" lon="24.85977061092853546142578125">
        <ele>63</ele>
        <time>2026-07-26T08:19:38.000Z</time>
        <extensions>
          <ns3:TrackPointExtension>
            <ns3:hr>129</ns3:hr>
            <ns3:cad>58</ns3:cad>
          </ns3:TrackPointExtension>
        </extensions>
      </trkpt>
      <trkpt lat="55.7859947718679904937744140625" lon="24.8595535196363925933837890625">
        <ele>63</ele>
        <time>2026-07-26T08:19:46.000Z</time>
        <extensions>
          <ns3:TrackPointExtension>
            <ns3:hr>128</ns3:hr>
            <ns3:cad>57</ns3:cad>
          </ns3:TrackPointExtension>
        </extensions>
      </trkpt>
      <trkpt lat="55.785966776311397552490234375" lon="24.85928018577396869659423828125">
        <ele>63.59999847412109375</ele>
        <time>2026-07-26T08:19:56.000Z</time>
        <extensions>
          <ns3:TrackPointExtension>
            <ns3:hr>127</ns3:hr>
            <ns3:cad>59</ns3:cad>
          </ns3:TrackPointExtension>
        </extensions>
      </trkpt>
      <trkpt lat="55.7859562151134014129638671875" lon="24.85905119217932224273681640625">
        <ele>63.59999847412109375</ele>
        <time>2026-07-26T08:20:05.000Z</time>
        <extensions>
          <ns3:TrackPointExtension>
            <ns3:hr>128</ns3:hr>
            <ns3:cad>58</ns3:cad>
          </ns3:TrackPointExtension>
        </extensions>
      </trkpt>
      <trkpt lat="55.78593534417450428009033203125" lon="24.858846254646778106689453125">
        <ele>63.59999847412109375</ele>
        <time>2026-07-26T08:20:13.000Z</time>
        <extensions>
          <ns3:TrackPointExtension>
            <ns3:hr>132</ns3:hr>
            <ns3:cad>57</ns3:cad>
          </ns3:TrackPointExtension>
        </extensions>
      </trkpt>
      <trkpt lat="55.78591137193143367767333984375" lon="24.85861432738602161407470703125">
        <ele>63.40000152587890625</ele>
        <time>2026-07-26T08:20:22.000Z</time>
        <extensions>
          <ns3:TrackPointExtension>
            <ns3:hr>131</ns3:hr>
            <ns3:cad>58</ns3:cad>
          </ns3:TrackPointExtension>
        </extensions>
      </trkpt>
      <trkpt lat="55.78588672913610935211181640625" lon="24.85837510786950588226318359375">
        <ele>63.40000152587890625</ele>
        <time>2026-07-26T08:20:31.000Z</time>
        <extensions>
          <ns3:TrackPointExtension>
            <ns3:hr>131</ns3:hr>
            <ns3:cad>58</ns3:cad>
          </ns3:TrackPointExtension>
        </extensions>
      </trkpt>
      <trkpt lat="55.785870216786861419677734375" lon="24.8581386543810367584228515625">
        <ele>63</ele>
        <time>2026-07-26T08:20:40.000Z</time>
        <extensions>
          <ns3:TrackPointExtension>
            <ns3:hr>130</ns3:hr>
            <ns3:cad>59</ns3:cad>
          </ns3:TrackPointExtension>
        </extensions>
      </trkpt>
      <trkpt lat="55.78586728312075138092041015625" lon="24.857931621372699737548828125">
        <ele>63</ele>
        <time>2026-07-26T08:20:48.000Z</time>
        <extensions>
          <ns3:TrackPointExtension>
            <ns3:hr>131</ns3:hr>
            <ns3:cad>59</ns3:cad>
          </ns3:TrackPointExtension>
        </extensions>
      </trkpt>
      <trkpt lat="55.78586225397884845733642578125" lon="24.8578580282628536224365234375">
        <ele>62.799999237060546875</ele>
        <time>2026-07-26T08:20:51.000Z</time>
        <extensions>
          <ns3:TrackPointExtension>
            <ns3:hr>130</ns3:hr>
            <ns3:cad>59</ns3:cad>
          </ns3:TrackPointExtension>
        </extensions>
      </trkpt>
      <trkpt lat="55.785870216786861419677734375" lon="24.8576833494007587432861328125">
        <ele>62.40000152587890625</ele>
        <time>2026-07-26T08:20:57.000Z</time>
        <extensions>
          <ns3:TrackPointExtension>
            <ns3:hr>133</ns3:hr>
            <ns3:cad>57</ns3:cad>
          </ns3:TrackPointExtension>
        </extensions>
      </trkpt>
      <trkpt lat="55.7858754135668277740478515625" lon="24.85765527002513408660888671875">
        <ele>62.40000152587890625</ele>
        <time>2026-07-26T08:20:58.000Z</time>
        <extensions>
          <ns3:TrackPointExtension>
            <ns3:hr>133</ns3:hr>
            <ns3:cad>57</ns3:cad>
          </ns3:TrackPointExtension>
        </extensions>
      </trkpt>
      <trkpt lat="55.7859059236943721771240234375" lon="24.857413955032825469970703125">
        <ele>62.200000762939453125</ele>
        <time>2026-07-26T08:21:07.000Z</time>
        <extensions>
          <ns3:TrackPointExtension>
            <ns3:hr>132</ns3:hr>
            <ns3:cad>58</ns3:cad>
          </ns3:TrackPointExtension>
        </extensions>
      </trkpt>
      <trkpt lat="55.7859092764556407928466796875" lon="24.85716752707958221435546875">
        <ele>62.200000762939453125</ele>
        <time>2026-07-26T08:21:17.000Z</time>
        <extensions>
          <ns3:TrackPointExtension>
            <ns3:hr>129</ns3:hr>
            <ns3:cad>58</ns3:cad>
          </ns3:TrackPointExtension>
        </extensions>
      </trkpt>
      <trkpt lat="55.78592796809971332550048828125" lon="24.85692168585956096649169921875">
        <ele>62.40000152587890625</ele>
        <time>2026-07-26T08:21:26.000Z</time>
        <extensions>
          <ns3:TrackPointExtension>
            <ns3:hr>129</ns3:hr>
            <ns3:cad>57</ns3:cad>
          </ns3:TrackPointExtension>
        </extensions>
      </trkpt>
      <trkpt lat="55.7859498448669910430908203125" lon="24.85672504641115665435791015625">
        <ele>62.40000152587890625</ele>
        <time>2026-07-26T08:21:34.000Z</time>
        <extensions>
          <ns3:TrackPointExtension>
            <ns3:hr>128</ns3:hr>
            <ns3:cad>57</ns3:cad>
          </ns3:TrackPointExtension>
        </extensions>
      </trkpt>
      <trkpt lat="55.7859635911881923675537109375" lon="24.856529496610164642333984375">
        <ele>62.200000762939453125</ele>
        <time>2026-07-26T08:21:41.000Z</time>
        <extensions>
          <ns3:TrackPointExtension>
            <ns3:hr>131</ns3:hr>
            <ns3:cad>59</ns3:cad>
          </ns3:TrackPointExtension>
        </extensions>
      </trkpt>
      <trkpt lat="55.78596367500722408294677734375" lon="24.8564502038061618804931640625">
        <ele>62.200000762939453125</ele>
        <time>2026-07-26T08:21:44.000Z</time>
        <extensions>
          <ns3:TrackPointExtension>
            <ns3:hr>132</ns3:hr>
            <ns3:cad>59</ns3:cad>
          </ns3:TrackPointExtension>
        </extensions>
      </trkpt>
      <trkpt lat="55.78596451319754123687744140625" lon="24.85628063790500164031982421875">
        <ele>62.40000152587890625</ele>
        <time>2026-07-26T08:21:50.000Z</time>
        <extensions>
          <ns3:TrackPointExtension>
            <ns3:hr>129</ns3:hr>
            <ns3:cad>58</ns3:cad>
          </ns3:TrackPointExtension>
        </extensions>
      </trkpt>
      <trkpt lat="55.78596241772174835205078125" lon="24.8562041111290454864501953125">
        <ele>62.40000152587890625</ele>
        <time>2026-07-26T08:21:53.000Z</time>
        <extensions>
          <ns3:TrackPointExtension>
            <ns3:hr>129</ns3:hr>
            <ns3:cad>58</ns3:cad>
          </ns3:TrackPointExtension>
        </extensions>
      </trkpt>
      <trkpt lat="55.78594741411507129669189453125" lon="24.85594586469233036041259765625">
        <ele>63.200000762939453125</ele>
        <time>2026-07-26T08:22:03.000Z</time>
        <extensions>
          <ns3:TrackPointExtension>
            <ns3:hr>128</ns3:hr>
            <ns3:cad>58</ns3:cad>
          </ns3:TrackPointExtension>
        </extensions>
      </trkpt>
      <trkpt lat="55.78593693673610687255859375" lon="24.85568619333207607269287109375">
        <ele>63.200000762939453125</ele>
        <time>2026-07-26T08:22:13.000Z</time>
        <extensions>
          <ns3:TrackPointExtension>
            <ns3:hr>128</ns3:hr>
            <ns3:cad>57</ns3:cad>
          </ns3:TrackPointExtension>
        </extensions>
      </trkpt>
      <trkpt lat="55.7859216816723346710205078125" lon="24.85544144175946712493896484375">
        <ele>63.40000152587890625</ele>
        <time>2026-07-26T08:22:23.000Z</time>
        <extensions>
          <ns3:TrackPointExtension>
            <ns3:hr>129</ns3:hr>
            <ns3:cad>58</ns3:cad>
          </ns3:TrackPointExtension>
        </extensions>
      </trkpt>
      <trkpt lat="55.7859174907207489013671875" lon="24.85539182089269161224365234375">
        <ele>63.40000152587890625</ele>
        <time>2026-07-26T08:22:25.000Z</time>
        <extensions>
          <ns3:TrackPointExtension>
            <ns3:hr>132</ns3:hr>
            <ns3:cad>57</ns3:cad>
          </ns3:TrackPointExtension>
        </extensions>
      </trkpt>
      <trkpt lat="55.78591707162559032440185546875" lon="24.85523633658885955810546875">
        <ele>63.59999847412109375</ele>
        <time>2026-07-26T08:22:31.000Z</time>
        <extensions>
          <ns3:TrackPointExtension>
            <ns3:hr>130</ns3:hr>
            <ns3:cad>56</ns3:cad>
          </ns3:TrackPointExtension>
        </extensions>
      </trkpt>
      <trkpt lat="55.785909108817577362060546875" lon="24.85500642098486423492431640625">
        <ele>63.40000152587890625</ele>
        <time>2026-07-26T08:22:40.000Z</time>
        <extensions>
          <ns3:TrackPointExtension>
            <ns3:hr>130</ns3:hr>
            <ns3:cad>57</ns3:cad>
          </ns3:TrackPointExtension>
        </extensions>
      </trkpt>
      <trkpt lat="55.7858975417912006378173828125" lon="24.8547828756272792816162109375">
        <ele>63.200000762939453125</ele>
        <time>2026-07-26T08:22:49.000Z</time>
        <extensions>
          <ns3:TrackPointExtension>
            <ns3:hr>131</ns3:hr>
            <ns3:cad>56</ns3:cad>
          </ns3:TrackPointExtension>
        </extensions>
      </trkpt>
      <trkpt lat="55.78589293174445629119873046875" lon="24.85455103218555450439453125">
        <ele>62.799999237060546875</ele>
        <time>2026-07-26T08:22:58.000Z</time>
        <extensions>
          <ns3:TrackPointExtension>
            <ns3:hr>133</ns3:hr>
            <ns3:cad>57</ns3:cad>
          </ns3:TrackPointExtension>
        </extensions>
      </trkpt>
      <trkpt lat="55.78590315766632556915283203125" lon="24.85448238439857959747314453125">
        <ele>62.799999237060546875</ele>
        <time>2026-07-26T08:23:03.000Z</time>
        <extensions>
          <ns3:TrackPointExtension>
            <ns3:hr>134</ns3:hr>
            <ns3:cad>54</ns3:cad>
          </ns3:TrackPointExtension>
        </extensions>
      </trkpt>
      <trkpt lat="55.78591070137917995452880859375" lon="24.85447349958121776580810546875">
        <ele>62.59999847412109375</ele>
        <time>2026-07-26T08:23:04.000Z</time>
        <extensions>
          <ns3:TrackPointExtension>
            <ns3:hr>134</ns3:hr>
            <ns3:cad>54</ns3:cad>
          </ns3:TrackPointExtension>
        </extensions>
      </trkpt>
      <trkpt lat="55.78596686013042926788330078125" lon="24.85443142242729663848876953125">
        <ele>62.200000762939453125</ele>
        <time>2026-07-26T08:23:12.000Z</time>
        <extensions>
          <ns3:TrackPointExtension>
            <ns3:hr>132</ns3:hr>
            <ns3:cad>49</ns3:cad>
          </ns3:TrackPointExtension>
        </extensions>
      </trkpt>
      <trkpt lat="55.78598119318485260009765625" lon="24.85443008132278919219970703125">
        <ele>61.799999237060546875</ele>
        <time>2026-07-26T08:23:15.000Z</time>
        <extensions>
          <ns3:TrackPointExtension>
            <ns3:hr>132</ns3:hr>
            <ns3:cad>43</ns3:cad>
          </ns3:TrackPointExtension>
        </extensions>
      </trkpt>
      <trkpt lat="55.785977840423583984375" lon="24.85443779267370700836181640625">
        <ele>61.40000152587890625</ele>
        <time>2026-07-26T08:23:20.000Z</time>
        <extensions>
          <ns3:TrackPointExtension>
            <ns3:hr>131</ns3:hr>
            <ns3:cad>0</ns3:cad>
          </ns3:TrackPointExtension>
        </extensions>
      </trkpt>
      <trkpt lat="55.7859525270760059356689453125" lon="24.85447735525667667388916015625">
        <ele>62</ele>
        <time>2026-07-26T08:23:25.000Z</time>
        <extensions>
          <ns3:TrackPointExtension>
            <ns3:hr>128</ns3:hr>
            <ns3:cad>0</ns3:cad>
          </ns3:TrackPointExtension>
        </extensions>
      </trkpt>
      <trkpt lat="55.7859417982399463653564453125" lon="24.8544888384640216827392578125">
        <ele>62</ele>
        <time>2026-07-26T08:23:26.000Z</time>
        <extensions>
          <ns3:TrackPointExtension>
            <ns3:hr>127</ns3:hr>
            <ns3:cad>44</ns3:cad>
          </ns3:TrackPointExtension>
        </extensions>
      </trkpt>
      <trkpt lat="55.78586359508335590362548828125" lon="24.85447634942829608917236328125">
        <ele>62.59999847412109375</ele>
        <time>2026-07-26T08:23:33.000Z</time>
        <extensions>
          <ns3:TrackPointExtension>
            <ns3:hr>127</ns3:hr>
            <ns3:cad>49</ns3:cad>
          </ns3:TrackPointExtension>
        </extensions>
      </trkpt>
      <trkpt lat="55.78584314323961734771728515625" lon="24.8544538021087646484375">
        <ele>62.799999237060546875</ele>
        <time>2026-07-26T08:23:35.000Z</time>
        <extensions>
          <ns3:TrackPointExtension>
            <ns3:hr>128</ns3:hr>
            <ns3:cad>50</ns3:cad>
          </ns3:TrackPointExtension>
        </extensions>
      </trkpt>
      <trkpt lat="55.78578480519354343414306640625" lon="24.8543641157448291778564453125">
        <ele>63.200000762939453125</ele>
        <time>2026-07-26T08:23:41.000Z</time>
        <extensions>
          <ns3:TrackPointExtension>
            <ns3:hr>128</ns3:hr>
            <ns3:cad>54</ns3:cad>
          </ns3:TrackPointExtension>
        </extensions>
      </trkpt>
      <trkpt lat="55.7857594080269336700439453125" lon="24.854252301156520843505859375">
        <ele>63.799999237060546875</ele>
        <time>2026-07-26T08:23:46.000Z</time>
        <extensions>
          <ns3:TrackPointExtension>
            <ns3:hr>128</ns3:hr>
            <ns3:cad>52</ns3:cad>
          </ns3:TrackPointExtension>
        </extensions>
      </trkpt>
      <trkpt lat="55.7857553847134113311767578125" lon="24.8542110621929168701171875">
        <ele>63.799999237060546875</ele>
        <time>2026-07-26T08:23:48.000Z</time>
        <extensions>
          <ns3:TrackPointExtension>
            <ns3:hr>129</ns3:hr>
            <ns3:cad>53</ns3:cad>
          </ns3:TrackPointExtension>
        </extensions>
      </trkpt>
      <trkpt lat="55.785750187933444976806640625" lon="24.85409245826303958892822265625">
        <ele>64</ele>
        <time>2026-07-26T08:23:53.000Z</time>
        <extensions>
          <ns3:TrackPointExtension>
            <ns3:hr>133</ns3:hr>
            <ns3:cad>55</ns3:cad>
          </ns3:TrackPointExtension>
        </extensions>
      </trkpt>
      <trkpt lat="55.78574826009571552276611328125" lon="24.85399438999593257904052734375">
        <ele>64.1999969482421875</ele>
        <time>2026-07-26T08:23:57.000Z</time>
        <extensions>
          <ns3:TrackPointExtension>
            <ns3:hr>135</ns3:hr>
            <ns3:cad>55</ns3:cad>
          </ns3:TrackPointExtension>
        </extensions>
      </trkpt>
      <trkpt lat="55.7857587374746799468994140625" lon="24.8538444377481937408447265625">
        <ele>64.40000152587890625</ele>
        <time>2026-07-26T08:24:04.000Z</time>
        <extensions>
          <ns3:TrackPointExtension>
            <ns3:hr>137</ns3:hr>
            <ns3:cad>54</ns3:cad>
          </ns3:TrackPointExtension>
        </extensions>
      </trkpt>
      <trkpt lat="55.785760581493377685546875" lon="24.853621311485767364501953125">
        <ele>64.59999847412109375</ele>
        <time>2026-07-26T08:24:13.000Z</time>
        <extensions>
          <ns3:TrackPointExtension>
            <ns3:hr>134</ns3:hr>
            <ns3:cad>55</ns3:cad>
          </ns3:TrackPointExtension>
        </extensions>
      </trkpt>
      <trkpt lat="55.78578497283160686492919921875" lon="24.8534546792507171630859375">
        <ele>64</ele>
        <time>2026-07-26T08:24:20.000Z</time>
        <extensions>
          <ns3:TrackPointExtension>
            <ns3:hr>133</ns3:hr>
            <ns3:cad>53</ns3:cad>
          </ns3:TrackPointExtension>
        </extensions>
      </trkpt>
      <trkpt lat="55.785795785486698150634765625" lon="24.85332936979830265045166015625">
        <ele>64</ele>
        <time>2026-07-26T08:24:26.000Z</time>
        <extensions>
          <ns3:TrackPointExtension>
            <ns3:hr>135</ns3:hr>
            <ns3:cad>52</ns3:cad>
          </ns3:TrackPointExtension>
        </extensions>
      </trkpt>
      <trkpt lat="55.78578966669738292694091796875" lon="24.85318939201533794403076171875">
        <ele>64.59999847412109375</ele>
        <time>2026-07-26T08:24:33.000Z</time>
        <extensions>
          <ns3:TrackPointExtension>
            <ns3:hr>135</ns3:hr>
            <ns3:cad>55</ns3:cad>
          </ns3:TrackPointExtension>
        </extensions>
      </trkpt>
      <trkpt lat="55.7857833802700042724609375" lon="24.85312007367610931396484375">
        <ele>64.8000030517578125</ele>
        <time>2026-07-26T08:24:36.000Z</time>
        <extensions>
          <ns3:TrackPointExtension>
            <ns3:hr>135</ns3:hr>
            <ns3:cad>55</ns3:cad>
          </ns3:TrackPointExtension>
        </extensions>
      </trkpt>
      <trkpt lat="55.7857815362513065338134765625" lon="24.853048659861087799072265625">
        <ele>65</ele>
        <time>2026-07-26T08:24:39.000Z</time>
        <extensions>
          <ns3:TrackPointExtension>
            <ns3:hr>135</ns3:hr>
            <ns3:cad>55</ns3:cad>
          </ns3:TrackPointExtension>
        </extensions>
      </trkpt>
      <trkpt lat="55.78579553402960300445556640625" lon="24.8528922535479068756103515625">
        <ele>65.40000152587890625</ele>
        <time>2026-07-26T08:24:46.000Z</time>
        <extensions>
          <ns3:TrackPointExtension>
            <ns3:hr>132</ns3:hr>
            <ns3:cad>55</ns3:cad>
          </ns3:TrackPointExtension>
        </extensions>
      </trkpt>
      <trkpt lat="55.78579972498118877410888671875" lon="24.85286652110517024993896484375">
        <ele>65.40000152587890625</ele>
        <time>2026-07-26T08:24:47.000Z</time>
        <extensions>
          <ns3:TrackPointExtension>
            <ns3:hr>132</ns3:hr>
            <ns3:cad>55</ns3:cad>
          </ns3:TrackPointExtension>
        </extensions>
      </trkpt>
      <trkpt lat="55.785822607576847076416015625" lon="24.852691590785980224609375">
        <ele>65.59999847412109375</ele>
        <time>2026-07-26T08:24:55.000Z</time>
        <extensions>
          <ns3:TrackPointExtension>
            <ns3:hr>133</ns3:hr>
            <ns3:cad>56</ns3:cad>
          </ns3:TrackPointExtension>
        </extensions>
      </trkpt>
      <trkpt lat="55.78582805581390857696533203125" lon="24.8526397906243801116943359375">
        <ele>66</ele>
        <time>2026-07-26T08:24:58.000Z</time>
        <extensions>
          <ns3:TrackPointExtension>
            <ns3:hr>132</ns3:hr>
            <ns3:cad>52</ns3:cad>
          </ns3:TrackPointExtension>
        </extensions>
      </trkpt>
      <trkpt lat="55.7858338393270969390869140625" lon="24.85253007151186466217041015625">
        <ele>66</ele>
        <time>2026-07-26T08:25:03.000Z</time>
        <extensions>
          <ns3:TrackPointExtension>
            <ns3:hr>135</ns3:hr>
            <ns3:cad>50</ns3:cad>
          </ns3:TrackPointExtension>
        </extensions>
      </trkpt>
      <trkpt lat="55.785841047763824462890625" lon="24.852388836443424224853515625">
        <ele>66.40000152587890625</ele>
        <time>2026-07-26T08:25:10.000Z</time>
        <extensions>
          <ns3:TrackPointExtension>
            <ns3:hr>134</ns3:hr>
            <ns3:cad>53</ns3:cad>
          </ns3:TrackPointExtension>
        </extensions>
      </trkpt>
      <trkpt lat="55.78585403971374034881591796875" lon="24.85221105627715587615966796875">
        <ele>66.40000152587890625</ele>
        <time>2026-07-26T08:25:17.000Z</time>
        <extensions>
          <ns3:TrackPointExtension>
            <ns3:hr>133</ns3:hr>
            <ns3:cad>55</ns3:cad>
          </ns3:TrackPointExtension>
        </extensions>
      </trkpt>
      <trkpt lat="55.78588865697383880615234375" lon="24.852122962474822998046875">
        <ele>66</ele>
        <time>2026-07-26T08:25:23.000Z</time>
        <extensions>
          <ns3:TrackPointExtension>
            <ns3:hr>133</ns3:hr>
            <ns3:cad>56</ns3:cad>
          </ns3:TrackPointExtension>
        </extensions>
      </trkpt>
      <trkpt lat="55.7858982123434543609619140625" lon="24.8520835675299167633056640625">
        <ele>65.8000030517578125</ele>
        <time>2026-07-26T08:25:26.000Z</time>
        <extensions>
          <ns3:TrackPointExtension>
            <ns3:hr>134</ns3:hr>
            <ns3:cad>55</ns3:cad>
          </ns3:TrackPointExtension>
        </extensions>
      </trkpt>
      <trkpt lat="55.78589980490505695343017578125" lon="24.85207158140838146209716796875">
        <ele>66</ele>
        <time>2026-07-26T08:25:28.000Z</time>
        <extensions>
          <ns3:TrackPointExtension>
            <ns3:hr>134</ns3:hr>
            <ns3:cad>0</ns3:cad>
          </ns3:TrackPointExtension>
        </extensions>
      </trkpt>
      <trkpt lat="55.785897038877010345458984375" lon="24.8520465195178985595703125">
        <ele>65.8000030517578125</ele>
        <time>2026-07-26T08:25:30.000Z</time>
        <extensions>
          <ns3:TrackPointExtension>
            <ns3:hr>133</ns3:hr>
            <ns3:cad>0</ns3:cad>
          </ns3:TrackPointExtension>
        </extensions>
      </trkpt>
      <trkpt lat="55.785917825996875762939453125" lon="24.85191567800939083099365234375">
        <ele>65.8000030517578125</ele>
        <time>2026-07-26T08:25:36.000Z</time>
        <extensions>
          <ns3:TrackPointExtension>
            <ns3:hr>134</ns3:hr>
            <ns3:cad>56</ns3:cad>
          </ns3:TrackPointExtension>
        </extensions>
      </trkpt>
      <trkpt lat="55.7859310694038867950439453125" lon="24.8517452739179134368896484375">
        <ele>66.1999969482421875</ele>
        <time>2026-07-26T08:25:44.000Z</time>
        <extensions>
          <ns3:TrackPointExtension>
            <ns3:hr>129</ns3:hr>
            <ns3:cad>57</ns3:cad>
          </ns3:TrackPointExtension>
        </extensions>
      </trkpt>
      <trkpt lat="55.7859381102025508880615234375" lon="24.85169489867985248565673828125">
        <ele>66</ele>
        <time>2026-07-26T08:25:46.000Z</time>
        <extensions>
          <ns3:TrackPointExtension>
            <ns3:hr>126</ns3:hr>
            <ns3:cad>57</ns3:cad>
          </ns3:TrackPointExtension>
        </extensions>
      </trkpt>
      <trkpt lat="55.7859468273818492889404296875" lon="24.85161594115197658538818359375">
        <ele>66.1999969482421875</ele>
        <time>2026-07-26T08:25:51.000Z</time>
        <extensions>
          <ns3:TrackPointExtension>
            <ns3:hr>128</ns3:hr>
            <ns3:cad>54</ns3:cad>
          </ns3:TrackPointExtension>
        </extensions>
      </trkpt>
      <trkpt lat="55.78594791702926158905029296875" lon="24.85155995003879070281982421875">
        <ele>65.8000030517578125</ele>
        <time>2026-07-26T08:25:56.000Z</time>
        <extensions>
          <ns3:TrackPointExtension>
            <ns3:hr>132</ns3:hr>
            <ns3:cad>0</ns3:cad>
          </ns3:TrackPointExtension>
        </extensions>
      </trkpt>
      <trkpt lat="55.78595646657049655914306640625" lon="24.85152072273194789886474609375">
        <ele>66</ele>
        <time>2026-07-26T08:25:58.000Z</time>
        <extensions>
          <ns3:TrackPointExtension>
            <ns3:hr>133</ns3:hr>
            <ns3:cad>0</ns3:cad>
          </ns3:TrackPointExtension>
        </extensions>
      </trkpt>
      <trkpt lat="55.7859904132783412933349609375" lon="24.85138108022511005401611328125">
        <ele>66</ele>
        <time>2026-07-26T08:26:05.000Z</time>
        <extensions>
          <ns3:TrackPointExtension>
            <ns3:hr>133</ns3:hr>
            <ns3:cad>53</ns3:cad>
          </ns3:TrackPointExtension>
        </extensions>
      </trkpt>
      <trkpt lat="55.78603609465062618255615234375" lon="24.85126071609556674957275390625">
        <ele>65.59999847412109375</ele>
        <time>2026-07-26T08:26:12.000Z</time>
        <extensions>
          <ns3:TrackPointExtension>
            <ns3:hr>133</ns3:hr>
            <ns3:cad>53</ns3:cad>
          </ns3:TrackPointExtension>
        </extensions>
      </trkpt>
      <trkpt lat="55.78605252318084239959716796875" lon="24.85111487098038196563720703125">
        <ele>65</ele>
        <time>2026-07-26T08:26:19.000Z</time>
        <extensions>
          <ns3:TrackPointExtension>
            <ns3:hr>132</ns3:hr>
            <ns3:cad>55</ns3:cad>
          </ns3:TrackPointExtension>
        </extensions>
      </trkpt>
      <trkpt lat="55.78605336137115955352783203125" lon="24.85100842081010341644287109375">
        <ele>65</ele>
        <time>2026-07-26T08:26:24.000Z</time>
        <extensions>
          <ns3:TrackPointExtension>
            <ns3:hr>131</ns3:hr>
            <ns3:cad>51</ns3:cad>
          </ns3:TrackPointExtension>
        </extensions>
      </trkpt>
      <trkpt lat="55.7860547862946987152099609375" lon="24.85095821321010589599609375">
        <ele>64.8000030517578125</ele>
        <time>2026-07-26T08:26:26.000Z</time>
        <extensions>
          <ns3:TrackPointExtension>
            <ns3:hr>131</ns3:hr>
            <ns3:cad>54</ns3:cad>
          </ns3:TrackPointExtension>
        </extensions>
      </trkpt>
      <trkpt lat="55.78606828115880489349365234375" lon="24.85081898979842662811279296875">
        <ele>64.59999847412109375</ele>
        <time>2026-07-26T08:26:34.000Z</time>
        <extensions>
          <ns3:TrackPointExtension>
            <ns3:hr>130</ns3:hr>
            <ns3:cad>52</ns3:cad>
          </ns3:TrackPointExtension>
        </extensions>
      </trkpt>
      <trkpt lat="55.786084793508052825927734375" lon="24.85070734284818172454833984375">
        <ele>64.59999847412109375</ele>
        <time>2026-07-26T08:26:40.000Z</time>
        <extensions>
          <ns3:TrackPointExtension>
            <ns3:hr>129</ns3:hr>
            <ns3:cad>0</ns3:cad>
          </ns3:TrackPointExtension>
        </extensions>
      </trkpt>
      <trkpt lat="55.7860906608402729034423828125" lon="24.8505552113056182861328125">
        <ele>64.1999969482421875</ele>
        <time>2026-07-26T08:26:47.000Z</time>
        <extensions>
          <ns3:TrackPointExtension>
            <ns3:hr>132</ns3:hr>
            <ns3:cad>52</ns3:cad>
          </ns3:TrackPointExtension>
        </extensions>
      </trkpt>
      <trkpt lat="55.7860876433551311492919921875" lon="24.85046845860779285430908203125">
        <ele>64.1999969482421875</ele>
        <time>2026-07-26T08:26:52.000Z</time>
        <extensions>
          <ns3:TrackPointExtension>
            <ns3:hr>133</ns3:hr>
            <ns3:cad>50</ns3:cad>
          </ns3:TrackPointExtension>
        </extensions>
      </trkpt>
      <trkpt lat="55.786093510687351226806640625" lon="24.85032781027257442474365234375">
        <ele>64.59999847412109375</ele>
        <time>2026-07-26T08:26:59.000Z</time>
        <extensions>
          <ns3:TrackPointExtension>
            <ns3:hr>132</ns3:hr>
            <ns3:cad>44</ns3:cad>
          </ns3:TrackPointExtension>
        </extensions>
      </trkpt>
      <trkpt lat="55.78608823008835315704345703125" lon="24.85026259906589984893798828125">
        <ele>64.59999847412109375</ele>
        <time>2026-07-26T08:27:04.000Z</time>
        <extensions>
          <ns3:TrackPointExtension>
            <ns3:hr>133</ns3:hr>
            <ns3:cad>44</ns3:cad>
          </ns3:TrackPointExtension>
        </extensions>
      </trkpt>
      <trkpt lat="55.78608714044094085693359375" lon="24.8502475954592227935791015625">
        <ele>64.59999847412109375</ele>
        <time>2026-07-26T08:27:07.000Z</time>
        <extensions>
          <ns3:TrackPointExtension>
            <ns3:hr>136</ns3:hr>
            <ns3:cad>43</ns3:cad>
          </ns3:TrackPointExtension>
        </extensions>
      </trkpt>
      <trkpt lat="55.7860873080790042877197265625" lon="24.85021197237074375152587890625">
        <ele>64.8000030517578125</ele>
        <time>2026-07-26T08:27:09.000Z</time>
        <extensions>
          <ns3:TrackPointExtension>
            <ns3:hr>139</ns3:hr>
            <ns3:cad>0</ns3:cad>
          </ns3:TrackPointExtension>
        </extensions>
      </trkpt>
      <trkpt lat="55.7860859669744968414306640625" lon="24.85018850304186344146728515625">
        <ele>65</ele>
        <time>2026-07-26T08:27:10.000Z</time>
        <extensions>
          <ns3:TrackPointExtension>
            <ns3:hr>140</ns3:hr>
            <ns3:cad>0</ns3:cad>
          </ns3:TrackPointExtension>
        </extensions>
      </trkpt>
      <trkpt lat="55.78608705662190914154052734375" lon="24.85013267956674098968505859375">
        <ele>65.40000152587890625</ele>
        <time>2026-07-26T08:27:13.000Z</time>
        <extensions>
          <ns3:TrackPointExtension>
            <ns3:hr>137</ns3:hr>
            <ns3:cad>48</ns3:cad>
          </ns3:TrackPointExtension>
        </extensions>
      </trkpt>
      <trkpt lat="55.786091499030590057373046875" lon="24.850087501108646392822265625">
        <ele>65.40000152587890625</ele>
        <time>2026-07-26T08:27:15.000Z</time>
        <extensions>
          <ns3:TrackPointExtension>
            <ns3:hr>133</ns3:hr>
            <ns3:cad>50</ns3:cad>
          </ns3:TrackPointExtension>
        </extensions>
      </trkpt>
      <trkpt lat="55.78609049320220947265625" lon="24.85000862739980220794677734375">
        <ele>65.1999969482421875</ele>
        <time>2026-07-26T08:27:18.000Z</time>
        <extensions>
          <ns3:TrackPointExtension>
            <ns3:hr>135</ns3:hr>
            <ns3:cad>52</ns3:cad>
          </ns3:TrackPointExtension>
        </extensions>
      </trkpt>
      <trkpt lat="55.786074064671993255615234375" lon="24.84990770928561687469482421875">
        <ele>65.59999847412109375</ele>
        <time>2026-07-26T08:27:23.000Z</time>
        <extensions>
          <ns3:TrackPointExtension>
            <ns3:hr>138</ns3:hr>
            <ns3:cad>53</ns3:cad>
          </ns3:TrackPointExtension>
        </extensions>
      </trkpt>
      <trkpt lat="55.78606643714010715484619140625" lon="24.84987049363553524017333984375">
        <ele>65.40000152587890625</ele>
        <time>2026-07-26T08:27:25.000Z</time>
        <extensions>
          <ns3:TrackPointExtension>
            <ns3:hr>140</ns3:hr>
            <ns3:cad>53</ns3:cad>
          </ns3:TrackPointExtension>
        </extensions>
      </trkpt>
      <trkpt lat="55.786048583686351776123046875" lon="24.849674440920352935791015625">
        <ele>65.1999969482421875</ele>
        <time>2026-07-26T08:27:35.000Z</time>
        <extensions>
          <ns3:TrackPointExtension>
            <ns3:hr>141</ns3:hr>
            <ns3:cad>49</ns3:cad>
          </ns3:TrackPointExtension>
        </extensions>
      </trkpt>
      <trkpt lat="55.7860205881297588348388671875" lon="24.84953337348997592926025390625">
        <ele>65.40000152587890625</ele>
        <time>2026-07-26T08:27:41.000Z</time>
        <extensions>
          <ns3:TrackPointExtension>
            <ns3:hr>140</ns3:hr>
            <ns3:cad>51</ns3:cad>
          </ns3:TrackPointExtension>
        </extensions>
      </trkpt>
      <trkpt lat="55.78600323759019374847412109375" lon="24.84939037822186946868896484375">
        <ele>65.8000030517578125</ele>
        <time>2026-07-26T08:27:49.000Z</time>
        <extensions>
          <ns3:TrackPointExtension>
            <ns3:hr>140</ns3:hr>
            <ns3:cad>50</ns3:cad>
          </ns3:TrackPointExtension>
        </extensions>
      </trkpt>
      <trkpt lat="55.78599854372441768646240234375" lon="24.8493678309023380279541015625">
        <ele>66</ele>
        <time>2026-07-26T08:27:50.000Z</time>
        <extensions>
          <ns3:TrackPointExtension>
            <ns3:hr>141</ns3:hr>
            <ns3:cad>50</ns3:cad>
          </ns3:TrackPointExtension>
        </extensions>
      </trkpt>
      <trkpt lat="55.78597423620522022247314453125" lon="24.84926976263523101806640625">
        <ele>66.40000152587890625</ele>
        <time>2026-07-26T08:27:55.000Z</time>
        <extensions>
          <ns3:TrackPointExtension>
            <ns3:hr>144</ns3:hr>
            <ns3:cad>48</ns3:cad>
          </ns3:TrackPointExtension>
        </extensions>
      </trkpt>
      <trkpt lat="55.78596644103527069091796875" lon="24.84922324307262897491455078125">
        <ele>66.59999847412109375</ele>
        <time>2026-07-26T08:27:57.000Z</time>
        <extensions>
          <ns3:TrackPointExtension>
            <ns3:hr>144</ns3:hr>
            <ns3:cad>50</ns3:cad>
          </ns3:TrackPointExtension>
        </extensions>
      </trkpt>
      <trkpt lat="55.785962752997875213623046875" lon="24.84918334521353244781494140625">
        <ele>67</ele>
        <time>2026-07-26T08:28:00.000Z</time>
        <extensions>
          <ns3:TrackPointExtension>
            <ns3:hr>144</ns3:hr>
            <ns3:cad>49</ns3:cad>
          </ns3:TrackPointExtension>
        </extensions>
      </trkpt>
      <trkpt lat="55.78596401028335094451904296875" lon="24.84912718646228313446044921875">
        <ele>67.1999969482421875</ele>
        <time>2026-07-26T08:28:03.000Z</time>
        <extensions>
          <ns3:TrackPointExtension>
            <ns3:hr>142</ns3:hr>
            <ns3:cad>49</ns3:cad>
          </ns3:TrackPointExtension>
        </extensions>
      </trkpt>
      <trkpt lat="55.78595168888568878173828125" lon="24.84901227056980133056640625">
        <ele>67.59999847412109375</ele>
        <time>2026-07-26T08:28:09.000Z</time>
        <extensions>
          <ns3:TrackPointExtension>
            <ns3:hr>144</ns3:hr>
            <ns3:cad>49</ns3:cad>
          </ns3:TrackPointExtension>
        </extensions>
      </trkpt>
      <trkpt lat="55.78594523482024669647216796875" lon="24.84897673130035400390625">
        <ele>67.8000030517578125</ele>
        <time>2026-07-26T08:28:11.000Z</time>
        <extensions>
          <ns3:TrackPointExtension>
            <ns3:hr>147</ns3:hr>
            <ns3:cad>50</ns3:cad>
          </ns3:TrackPointExtension>
        </extensions>
      </trkpt>
      <trkpt lat="55.7859367690980434417724609375" lon="24.84893222339451313018798828125">
        <ele>68</ele>
        <time>2026-07-26T08:28:13.000Z</time>
        <extensions>
          <ns3:TrackPointExtension>
            <ns3:hr>147</ns3:hr>
            <ns3:cad>53</ns3:cad>
          </ns3:TrackPointExtension>
        </extensions>
      </trkpt>
      <trkpt lat="55.7859293930232524871826171875" lon="24.84886751510202884674072265625">
        <ele>68.40000152587890625</ele>
        <time>2026-07-26T08:28:16.000Z</time>
        <extensions>
          <ns3:TrackPointExtension>
            <ns3:hr>147</ns3:hr>
            <ns3:cad>51</ns3:cad>
          </ns3:TrackPointExtension>
        </extensions>
      </trkpt>
      <trkpt lat="55.78592075966298580169677734375" lon="24.8488055728375911712646484375">
        <ele>69</ele>
        <time>2026-07-26T08:28:19.000Z</time>
        <extensions>
          <ns3:TrackPointExtension>
            <ns3:hr>146</ns3:hr>
            <ns3:cad>50</ns3:cad>
          </ns3:TrackPointExtension>
        </extensions>
      </trkpt>
      <trkpt lat="55.78591707162559032440185546875" lon="24.84870356507599353790283203125">
        <ele>69.40000152587890625</ele>
        <time>2026-07-26T08:28:24.000Z</time>
        <extensions>
          <ns3:TrackPointExtension>
            <ns3:hr>145</ns3:hr>
            <ns3:cad>50</ns3:cad>
          </ns3:TrackPointExtension>
        </extensions>
      </trkpt>
      <trkpt lat="55.78591103665530681610107421875" lon="24.8486205004155635833740234375">
        <ele>69.1999969482421875</ele>
        <time>2026-07-26T08:28:29.000Z</time>
        <extensions>
          <ns3:TrackPointExtension>
            <ns3:hr>148</ns3:hr>
            <ns3:cad>53</ns3:cad>
          </ns3:TrackPointExtension>
        </extensions>
      </trkpt>
      <trkpt lat="55.78590718097984790802001953125" lon="24.84862578101456165313720703125">
        <ele>69.40000152587890625</ele>
        <time>2026-07-26T08:28:32.000Z</time>
        <extensions>
          <ns3:TrackPointExtension>
            <ns3:hr>150</ns3:hr>
            <ns3:cad>0</ns3:cad>
          </ns3:TrackPointExtension>
        </extensions>
      </trkpt>
      <trkpt lat="55.78590818680822849273681640625" lon="24.84855872578918933868408203125">
        <ele>69.1999969482421875</ele>
        <time>2026-07-26T08:28:38.000Z</time>
        <extensions>
          <ns3:TrackPointExtension>
            <ns3:hr>153</ns3:hr>
            <ns3:cad>0</ns3:cad>
          </ns3:TrackPointExtension>
        </extensions>
      </trkpt>
      <trkpt lat="55.7859062589704990386962890625" lon="24.848533831536769866943359375">
        <ele>69</ele>
        <time>2026-07-26T08:28:39.000Z</time>
        <extensions>
          <ns3:TrackPointExtension>
            <ns3:hr>153</ns3:hr>
            <ns3:cad>0</ns3:cad>
          </ns3:TrackPointExtension>
        </extensions>
      </trkpt>
      <trkpt lat="55.78590902499854564666748046875" lon="24.848436601459980010986328125">
        <ele>68.8000030517578125</ele>
        <time>2026-07-26T08:28:45.000Z</time>
        <extensions>
          <ns3:TrackPointExtension>
            <ns3:hr>149</ns3:hr>
            <ns3:cad>0</ns3:cad>
          </ns3:TrackPointExtension>
        </extensions>
      </trkpt>
      <trkpt lat="55.78591254539787769317626953125" lon="24.84841371886432170867919921875">
        <ele>68.8000030517578125</ele>
        <time>2026-07-26T08:28:46.000Z</time>
        <extensions>
          <ns3:TrackPointExtension>
            <ns3:hr>146</ns3:hr>
            <ns3:cad>0</ns3:cad>
          </ns3:TrackPointExtension>
        </extensions>
      </trkpt>
      <trkpt lat="55.78592780046164989471435546875" lon="24.84833543188869953155517578125">
        <ele>68.1999969482421875</ele>
        <time>2026-07-26T08:28:50.000Z</time>
        <extensions>
          <ns3:TrackPointExtension>
            <ns3:hr>143</ns3:hr>
            <ns3:cad>56</ns3:cad>
          </ns3:TrackPointExtension>
        </extensions>
      </trkpt>
      <trkpt lat="55.7859401218593120574951171875" lon="24.84828648157417774200439453125">
        <ele>68</ele>
        <time>2026-07-26T08:28:52.000Z</time>
        <extensions>
          <ns3:TrackPointExtension>
            <ns3:hr>143</ns3:hr>
            <ns3:cad>55</ns3:cad>
          </ns3:TrackPointExtension>
        </extensions>
      </trkpt>
      <trkpt lat="55.78594590537250041961669921875" lon="24.84826301224529743194580078125">
        <ele>68</ele>
        <time>2026-07-26T08:28:53.000Z</time>
        <extensions>
          <ns3:TrackPointExtension>
            <ns3:hr>143</ns3:hr>
            <ns3:cad>55</ns3:cad>
          </ns3:TrackPointExtension>
        </extensions>
      </trkpt>
      <trkpt lat="55.7859696261584758758544921875" lon="24.848089255392551422119140625">
        <ele>67.40000152587890625</ele>
        <time>2026-07-26T08:29:01.000Z</time>
        <extensions>
          <ns3:TrackPointExtension>
            <ns3:hr>146</ns3:hr>
            <ns3:cad>56</ns3:cad>
          </ns3:TrackPointExtension>
        </extensions>
      </trkpt>
      <trkpt lat="55.7859759964048862457275390625" lon="24.84796755015850067138671875">
        <ele>67</ele>
        <time>2026-07-26T08:29:07.000Z</time>
        <extensions>
          <ns3:TrackPointExtension>
            <ns3:hr>146</ns3:hr>
            <ns3:cad>53</ns3:cad>
          </ns3:TrackPointExtension>
        </extensions>
      </trkpt>
      <trkpt lat="55.785977505147457122802734375" lon="24.8479521274566650390625">
        <ele>67</ele>
        <time>2026-07-26T08:29:08.000Z</time>
        <extensions>
          <ns3:TrackPointExtension>
            <ns3:hr>146</ns3:hr>
            <ns3:cad>48</ns3:cad>
          </ns3:TrackPointExtension>
        </extensions>
      </trkpt>
      <trkpt lat="55.7859756611287593841552734375" lon="24.84789672307670116424560546875">
        <ele>66.59999847412109375</ele>
        <time>2026-07-26T08:29:11.000Z</time>
        <extensions>
          <ns3:TrackPointExtension>
            <ns3:hr>143</ns3:hr>
            <ns3:cad>52</ns3:cad>
          </ns3:TrackPointExtension>
        </extensions>
      </trkpt>
      <trkpt lat="55.7859753258526325225830078125" lon="24.84785347245633602142333984375">
        <ele>66.59999847412109375</ele>
        <time>2026-07-26T08:29:13.000Z</time>
        <extensions>
          <ns3:TrackPointExtension>
            <ns3:hr>142</ns3:hr>
            <ns3:cad>51</ns3:cad>
          </ns3:TrackPointExtension>
        </extensions>
      </trkpt>
      <trkpt lat="55.78597960062325000762939453125" lon="24.847754649817943572998046875">
        <ele>66.59999847412109375</ele>
        <time>2026-07-26T08:29:18.000Z</time>
        <extensions>
          <ns3:TrackPointExtension>
            <ns3:hr>139</ns3:hr>
            <ns3:cad>52</ns3:cad>
          </ns3:TrackPointExtension>
        </extensions>
      </trkpt>
      <trkpt lat="55.785978175699710845947265625" lon="24.847715087234973907470703125">
        <ele>66.59999847412109375</ele>
        <time>2026-07-26T08:29:20.000Z</time>
        <extensions>
          <ns3:TrackPointExtension>
            <ns3:hr>138</ns3:hr>
            <ns3:cad>52</ns3:cad>
          </ns3:TrackPointExtension>
        </extensions>
      </trkpt>
      <trkpt lat="55.78596166335046291351318359375" lon="24.84755658544600009918212890625">
        <ele>66.59999847412109375</ele>
        <time>2026-07-26T08:29:27.000Z</time>
        <extensions>
          <ns3:TrackPointExtension>
            <ns3:hr>138</ns3:hr>
            <ns3:cad>53</ns3:cad>
          </ns3:TrackPointExtension>
        </extensions>
      </trkpt>
      <trkpt lat="55.78593735583126544952392578125" lon="24.84740554355084896087646484375">
        <ele>67</ele>
        <time>2026-07-26T08:29:34.000Z</time>
        <extensions>
          <ns3:TrackPointExtension>
            <ns3:hr>137</ns3:hr>
            <ns3:cad>55</ns3:cad>
          </ns3:TrackPointExtension>
        </extensions>
      </trkpt>
      <trkpt lat="55.78592218458652496337890625" lon="24.847295321524143218994140625">
        <ele>66.8000030517578125</ele>
        <time>2026-07-26T08:29:39.000Z</time>
        <extensions>
          <ns3:TrackPointExtension>
            <ns3:hr>134</ns3:hr>
            <ns3:cad>53</ns3:cad>
          </ns3:TrackPointExtension>
        </extensions>
      </trkpt>
      <trkpt lat="55.7859122939407825469970703125" lon="24.8472428508102893829345703125">
        <ele>66.8000030517578125</ele>
        <time>2026-07-26T08:29:42.000Z</time>
        <extensions>
          <ns3:TrackPointExtension>
            <ns3:hr>133</ns3:hr>
            <ns3:cad>0</ns3:cad>
          </ns3:TrackPointExtension>
        </extensions>
      </trkpt>
      <trkpt lat="55.78590114600956439971923828125" lon="24.8471043817698955535888671875">
        <ele>67.1999969482421875</ele>
        <time>2026-07-26T08:29:49.000Z</time>
        <extensions>
          <ns3:TrackPointExtension>
            <ns3:hr>132</ns3:hr>
            <ns3:cad>52</ns3:cad>
          </ns3:TrackPointExtension>
        </extensions>
      </trkpt>
      <trkpt lat="55.7859032414853572845458984375" lon="24.84697052277624607086181640625">
        <ele>67.59999847412109375</ele>
        <time>2026-07-26T08:29:56.000Z</time>
        <extensions>
          <ns3:TrackPointExtension>
            <ns3:hr>133</ns3:hr>
            <ns3:cad>52</ns3:cad>
          </ns3:TrackPointExtension>
        </extensions>
      </trkpt>
      <trkpt lat="55.78589527867734432220458984375" lon="24.846838004887104034423828125">
        <ele>67.1999969482421875</ele>
        <time>2026-07-26T08:30:04.000Z</time>
        <extensions>
          <ns3:TrackPointExtension>
            <ns3:hr>133</ns3:hr>
            <ns3:cad>52</ns3:cad>
          </ns3:TrackPointExtension>
        </extensions>
      </trkpt>
      <trkpt lat="55.7858858071267604827880859375" lon="24.846740104258060455322265625">
        <ele>66.8000030517578125</ele>
        <time>2026-07-26T08:30:11.000Z</time>
        <extensions>
          <ns3:TrackPointExtension>
            <ns3:hr>133</ns3:hr>
            <ns3:cad>50</ns3:cad>
          </ns3:TrackPointExtension>
        </extensions>
      </trkpt>
      <trkpt lat="55.785878263413906097412109375" lon="24.84669073484838008880615234375">
        <ele>67.40000152587890625</ele>
        <time>2026-07-26T08:30:14.000Z</time>
        <extensions>
          <ns3:TrackPointExtension>
            <ns3:hr>136</ns3:hr>
            <ns3:cad>0</ns3:cad>
          </ns3:TrackPointExtension>
        </extensions>
      </trkpt>
      <trkpt lat="55.785882286727428436279296875" lon="24.84663583338260650634765625">
        <ele>67.59999847412109375</ele>
        <time>2026-07-26T08:30:17.000Z</time>
        <extensions>
          <ns3:TrackPointExtension>
            <ns3:hr>135</ns3:hr>
            <ns3:cad>0</ns3:cad>
          </ns3:TrackPointExtension>
        </extensions>
      </trkpt>
      <trkpt lat="55.78587482683360576629638671875" lon="24.84657556749880313873291015625">
        <ele>67.59999847412109375</ele>
        <time>2026-07-26T08:30:23.000Z</time>
        <extensions>
          <ns3:TrackPointExtension>
            <ns3:hr>135</ns3:hr>
            <ns3:cad>0</ns3:cad>
          </ns3:TrackPointExtension>
        </extensions>
      </trkpt>
      <trkpt lat="55.78587390482425689697265625" lon="24.8465421237051486968994140625">
        <ele>67.59999847412109375</ele>
        <time>2026-07-26T08:30:25.000Z</time>
        <extensions>
          <ns3:TrackPointExtension>
            <ns3:hr>139</ns3:hr>
            <ns3:cad>0</ns3:cad>
          </ns3:TrackPointExtension>
        </extensions>
      </trkpt>
      <trkpt lat="55.78586745075881481170654296875" lon="24.84651454724371433258056640625">
        <ele>67.8000030517578125</ele>
        <time>2026-07-26T08:30:26.000Z</time>
        <extensions>
          <ns3:TrackPointExtension>
            <ns3:hr>142</ns3:hr>
            <ns3:cad>0</ns3:cad>
          </ns3:TrackPointExtension>
        </extensions>
      </trkpt>
      <trkpt lat="55.78585605137050151824951171875" lon="24.8464764095842838287353515625">
        <ele>68</ele>
        <time>2026-07-26T08:30:28.000Z</time>
        <extensions>
          <ns3:TrackPointExtension>
            <ns3:hr>144</ns3:hr>
            <ns3:cad>0</ns3:cad>
          </ns3:TrackPointExtension>
        </extensions>
      </trkpt>
      <trkpt lat="55.78585219569504261016845703125" lon="24.84645746648311614990234375">
        <ele>68</ele>
        <time>2026-07-26T08:30:29.000Z</time>
        <extensions>
          <ns3:TrackPointExtension>
            <ns3:hr>144</ns3:hr>
            <ns3:cad>0</ns3:cad>
          </ns3:TrackPointExtension>
        </extensions>
      </trkpt>
      <trkpt lat="55.78582688234746456146240234375" lon="24.8463436402380466461181640625">
        <ele>68.1999969482421875</ele>
        <time>2026-07-26T08:30:35.000Z</time>
        <extensions>
          <ns3:TrackPointExtension>
            <ns3:hr>144</ns3:hr>
            <ns3:cad>55</ns3:cad>
          </ns3:TrackPointExtension>
        </extensions>
      </trkpt>
      <trkpt lat="55.78582252375781536102294921875" lon="24.8463238589465618133544921875">
        <ele>68.1999969482421875</ele>
        <time>2026-07-26T08:30:36.000Z</time>
        <extensions>
          <ns3:TrackPointExtension>
            <ns3:hr>147</ns3:hr>
            <ns3:cad>55</ns3:cad>
          </ns3:TrackPointExtension>
        </extensions>
      </trkpt>
      <trkpt lat="55.7858187519013881683349609375" lon="24.846315644681453704833984375">
        <ele>68.40000152587890625</ele>
        <time>2026-07-26T08:30:37.000Z</time>
        <extensions>
          <ns3:TrackPointExtension>
            <ns3:hr>150</ns3:hr>
            <ns3:cad>54</ns3:cad>
          </ns3:TrackPointExtension>
        </extensions>
      </trkpt>
      <trkpt lat="55.78581464476883411407470703125" lon="24.84630198217928409576416015625">
        <ele>68.40000152587890625</ele>
        <time>2026-07-26T08:30:41.000Z</time>
        <extensions>
          <ns3:TrackPointExtension>
            <ns3:hr>152</ns3:hr>
            <ns3:cad>0</ns3:cad>
          </ns3:TrackPointExtension>
        </extensions>
      </trkpt>
      <trkpt lat="55.7858113758265972137451171875" lon="24.8462792672216892242431640625">
        <ele>68.40000152587890625</ele>
        <time>2026-07-26T08:30:48.000Z</time>
        <extensions>
          <ns3:TrackPointExtension>
            <ns3:hr>151</ns3:hr>
            <ns3:cad>0</ns3:cad>
          </ns3:TrackPointExtension>
        </extensions>
      </trkpt>
      <trkpt lat="55.78581430949270725250244140625" lon="24.84629695303738117218017578125">
        <ele>68.8000030517578125</ele>
        <time>2026-07-26T08:30:52.000Z</time>
        <extensions>
          <ns3:TrackPointExtension>
            <ns3:hr>148</ns3:hr>
            <ns3:cad>0</ns3:cad>
          </ns3:TrackPointExtension>
        </extensions>
      </trkpt>
      <trkpt lat="55.78581816516816616058349609375" lon="24.846320338547229766845703125">
        <ele>68.59999847412109375</ele>
        <time>2026-07-26T08:30:56.000Z</time>
        <extensions>
          <ns3:TrackPointExtension>
            <ns3:hr>146</ns3:hr>
            <ns3:cad>0</ns3:cad>
          </ns3:TrackPointExtension>
        </extensions>
      </trkpt>
      <trkpt lat="55.78580123372375965118408203125" lon="24.8462500981986522674560546875">
        <ele>68.59999847412109375</ele>
        <time>2026-07-26T08:31:01.000Z</time>
        <extensions>
          <ns3:TrackPointExtension>
            <ns3:hr>148</ns3:hr>
            <ns3:cad>0</ns3:cad>
          </ns3:TrackPointExtension>
        </extensions>
      </trkpt>
      <trkpt lat="55.7857942767441272735595703125" lon="24.84622051008045673370361328125">
        <ele>69</ele>
        <time>2026-07-26T08:31:03.000Z</time>
        <extensions>
          <ns3:TrackPointExtension>
            <ns3:hr>146</ns3:hr>
            <ns3:cad>0</ns3:cad>
          </ns3:TrackPointExtension>
        </extensions>
      </trkpt>
      <trkpt lat="55.7857946120202541351318359375" lon="24.8462102003395557403564453125">
        <ele>69</ele>
        <time>2026-07-26T08:31:04.000Z</time>
        <extensions>
          <ns3:TrackPointExtension>
            <ns3:hr>143</ns3:hr>
            <ns3:cad>55</ns3:cad>
          </ns3:TrackPointExtension>
        </extensions>
      </trkpt>
      <trkpt lat="55.78579754568636417388916015625" lon="24.846207015216350555419921875">
        <ele>69</ele>
        <time>2026-07-26T08:31:05.000Z</time>
        <extensions>
          <ns3:TrackPointExtension>
            <ns3:hr>143</ns3:hr>
            <ns3:cad>55</ns3:cad>
          </ns3:TrackPointExtension>
        </extensions>
      </trkpt>
      <trkpt lat="55.78579880297183990478515625" lon="24.84619586728513240814208984375">
        <ele>68.8000030517578125</ele>
        <time>2026-07-26T08:31:07.000Z</time>
        <extensions>
          <ns3:TrackPointExtension>
            <ns3:hr>144</ns3:hr>
            <ns3:cad>55</ns3:cad>
          </ns3:TrackPointExtension>
        </extensions>
      </trkpt>
      <trkpt lat="55.78579318709671497344970703125" lon="24.8461991362273693084716796875">
        <ele>69</ele>
        <time>2026-07-26T08:31:14.000Z</time>
        <extensions>
          <ns3:TrackPointExtension>
            <ns3:hr>145</ns3:hr>
            <ns3:cad>0</ns3:cad>
          </ns3:TrackPointExtension>
        </extensions>
      </trkpt>
      <trkpt lat="55.78578581102192401885986328125" lon="24.84617675654590129852294921875">
        <ele>69.1999969482421875</ele>
        <time>2026-07-26T08:31:16.000Z</time>
        <extensions>
          <ns3:TrackPointExtension>
            <ns3:hr>142</ns3:hr>
            <ns3:cad>0</ns3:cad>
          </ns3:TrackPointExtension>
        </extensions>
      </trkpt>
      <trkpt lat="55.78576720319688320159912109375" lon="24.8460812866687774658203125">
        <ele>69.59999847412109375</ele>
        <time>2026-07-26T08:31:21.000Z</time>
        <extensions>
          <ns3:TrackPointExtension>
            <ns3:hr>141</ns3:hr>
            <ns3:cad>45</ns3:cad>
          </ns3:TrackPointExtension>
        </extensions>
      </trkpt>
      <trkpt lat="55.785751529037952423095703125" lon="24.84601557254791259765625">
        <ele>70</ele>
        <time>2026-07-26T08:31:25.000Z</time>
        <extensions>
          <ns3:TrackPointExtension>
            <ns3:hr>143</ns3:hr>
            <ns3:cad>52</ns3:cad>
          </ns3:TrackPointExtension>
        </extensions>
      </trkpt>
      <trkpt lat="55.78573367558419704437255859375" lon="24.8459418118000030517578125">
        <ele>70</ele>
        <time>2026-07-26T08:31:29.000Z</time>
        <extensions>
          <ns3:TrackPointExtension>
            <ns3:hr>147</ns3:hr>
            <ns3:cad>51</ns3:cad>
          </ns3:TrackPointExtension>
        </extensions>
      </trkpt>
      <trkpt lat="55.7857352681457996368408203125" lon="24.8458776064217090606689453125">
        <ele>69.59999847412109375</ele>
        <time>2026-07-26T08:31:33.000Z</time>
        <extensions>
          <ns3:TrackPointExtension>
            <ns3:hr>150</ns3:hr>
            <ns3:cad>50</ns3:cad>
          </ns3:TrackPointExtension>
        </extensions>
      </trkpt>
      <trkpt lat="55.7857345975935459136962890625" lon="24.84582656063139438629150390625">
        <ele>69.59999847412109375</ele>
        <time>2026-07-26T08:31:35.000Z</time>
        <extensions>
          <ns3:TrackPointExtension>
            <ns3:hr>150</ns3:hr>
            <ns3:cad>50</ns3:cad>
          </ns3:TrackPointExtension>
        </extensions>
      </trkpt>
      <trkpt lat="55.7857235334813594818115234375" lon="24.84573653899133205413818359375">
        <ele>69.8000030517578125</ele>
        <time>2026-07-26T08:31:40.000Z</time>
        <extensions>
          <ns3:TrackPointExtension>
            <ns3:hr>149</ns3:hr>
            <ns3:cad>50</ns3:cad>
          </ns3:TrackPointExtension>
        </extensions>
      </trkpt>
      <trkpt lat="55.78571498394012451171875" lon="24.8456137441098690032958984375">
        <ele>70</ele>
        <time>2026-07-26T08:31:47.000Z</time>
        <extensions>
          <ns3:TrackPointExtension>
            <ns3:hr>149</ns3:hr>
            <ns3:cad>44</ns3:cad>
          </ns3:TrackPointExtension>
        </extensions>
      </trkpt>
      <trkpt lat="55.78571557067334651947021484375" lon="24.84552766196429729461669921875">
        <ele>69.8000030517578125</ele>
        <time>2026-07-26T08:31:52.000Z</time>
        <extensions>
          <ns3:TrackPointExtension>
            <ns3:hr>147</ns3:hr>
            <ns3:cad>0</ns3:cad>
          </ns3:TrackPointExtension>
        </extensions>
      </trkpt>
      <trkpt lat="55.78572504222393035888671875" lon="24.84540629200637340545654296875">
        <ele>69.1999969482421875</ele>
        <time>2026-07-26T08:31:59.000Z</time>
        <extensions>
          <ns3:TrackPointExtension>
            <ns3:hr>147</ns3:hr>
            <ns3:cad>0</ns3:cad>
          </ns3:TrackPointExtension>
        </extensions>
      </trkpt>
      <trkpt lat="55.78572663478553295135498046875" lon="24.84538315795361995697021484375">
        <ele>69</ele>
        <time>2026-07-26T08:32:00.000Z</time>
        <extensions>
          <ns3:TrackPointExtension>
            <ns3:hr>147</ns3:hr>
            <ns3:cad>0</ns3:cad>
          </ns3:TrackPointExtension>
        </extensions>
      </trkpt>
      <trkpt lat="55.78574038110673427581787109375" lon="24.84525625593960285186767578125">
        <ele>68.40000152587890625</ele>
        <time>2026-07-26T08:32:06.000Z</time>
        <extensions>
          <ns3:TrackPointExtension>
            <ns3:hr>146</ns3:hr>
            <ns3:cad>52</ns3:cad>
          </ns3:TrackPointExtension>
        </extensions>
      </trkpt>
      <trkpt lat="55.7857372798025608062744140625" lon="24.8451245762407779693603515625">
        <ele>67.8000030517578125</ele>
        <time>2026-07-26T08:32:13.000Z</time>
        <extensions>
          <ns3:TrackPointExtension>
            <ns3:hr>146</ns3:hr>
            <ns3:cad>54</ns3:cad>
          </ns3:TrackPointExtension>
        </extensions>
      </trkpt>
      <trkpt lat="55.7857376150786876678466796875" lon="24.8450897075235843658447265625">
        <ele>67.59999847412109375</ele>
        <time>2026-07-26T08:32:16.000Z</time>
        <extensions>
          <ns3:TrackPointExtension>
            <ns3:hr>143</ns3:hr>
            <ns3:cad>55</ns3:cad>
          </ns3:TrackPointExtension>
        </extensions>
      </trkpt>
      <trkpt lat="55.78573199920356273651123046875" lon="24.84506363980472087860107421875">
        <ele>67.8000030517578125</ele>
        <time>2026-07-26T08:32:19.000Z</time>
        <extensions>
          <ns3:TrackPointExtension>
            <ns3:hr>140</ns3:hr>
            <ns3:cad>0</ns3:cad>
          </ns3:TrackPointExtension>
        </extensions>
      </trkpt>
      <trkpt lat="55.78572998754680156707763671875" lon="24.84505467116832733154296875">
        <ele>67.8000030517578125</ele>
        <time>2026-07-26T08:32:20.000Z</time>
        <extensions>
          <ns3:TrackPointExtension>
            <ns3:hr>140</ns3:hr>
            <ns3:cad>0</ns3:cad>
          </ns3:TrackPointExtension>
        </extensions>
      </trkpt>
      <trkpt lat="55.78570987097918987274169921875" lon="24.8449589498341083526611328125">
        <ele>67.40000152587890625</ele>
        <time>2026-07-26T08:32:27.000Z</time>
        <extensions>
          <ns3:TrackPointExtension>
            <ns3:hr>143</ns3:hr>
            <ns3:cad>47</ns3:cad>
          </ns3:TrackPointExtension>
        </extensions>
      </trkpt>
      <trkpt lat="55.78570702113211154937744140625" lon="24.844950735569000244140625">
        <ele>67.40000152587890625</ele>
        <time>2026-07-26T08:32:28.000Z</time>
        <extensions>
          <ns3:TrackPointExtension>
            <ns3:hr>145</ns3:hr>
            <ns3:cad>47</ns3:cad>
          </ns3:TrackPointExtension>
        </extensions>
      </trkpt>
      <trkpt lat="55.7857027463614940643310546875" lon="24.8449398390948772430419921875">
        <ele>67.59999847412109375</ele>
        <time>2026-07-26T08:32:33.000Z</time>
        <extensions>
          <ns3:TrackPointExtension>
            <ns3:hr>142</ns3:hr>
            <ns3:cad>0</ns3:cad>
          </ns3:TrackPointExtension>
        </extensions>
      </trkpt>
      <trkpt lat="55.785703249275684356689453125" lon="24.84493439085781574249267578125">
        <ele>67.40000152587890625</ele>
        <time>2026-07-26T08:32:34.000Z</time>
        <extensions>
          <ns3:TrackPointExtension>
            <ns3:hr>142</ns3:hr>
            <ns3:cad>0</ns3:cad>
          </ns3:TrackPointExtension>
        </extensions>
      </trkpt>
      <trkpt lat="55.78569897450506687164306640625" lon="24.8448999412357807159423828125">
        <ele>67.59999847412109375</ele>
        <time>2026-07-26T08:32:41.000Z</time>
        <extensions>
          <ns3:TrackPointExtension>
            <ns3:hr>143</ns3:hr>
            <ns3:cad>0</ns3:cad>
          </ns3:TrackPointExtension>
        </extensions>
      </trkpt>
      <trkpt lat="55.7856626808643341064453125" lon="24.8447993583977222442626953125">
        <ele>67.8000030517578125</ele>
        <time>2026-07-26T08:32:49.000Z</time>
        <extensions>
          <ns3:TrackPointExtension>
            <ns3:hr>144</ns3:hr>
            <ns3:cad>0</ns3:cad>
          </ns3:TrackPointExtension>
        </extensions>
      </trkpt>
      <trkpt lat="55.7856544665992259979248046875" lon="24.84473724849522113800048828125">
        <ele>67.8000030517578125</ele>
        <time>2026-07-26T08:32:54.000Z</time>
        <extensions>
          <ns3:TrackPointExtension>
            <ns3:hr>144</ns3:hr>
            <ns3:cad>0</ns3:cad>
          </ns3:TrackPointExtension>
        </extensions>
      </trkpt>
      <trkpt lat="55.78564398922026157379150390625" lon="24.84454597346484661102294921875">
        <ele>67.59999847412109375</ele>
        <time>2026-07-26T08:33:02.000Z</time>
        <extensions>
          <ns3:TrackPointExtension>
            <ns3:hr>145</ns3:hr>
            <ns3:cad>50</ns3:cad>
          </ns3:TrackPointExtension>
        </extensions>
      </trkpt>
      <trkpt lat="55.78562554903328418731689453125" lon="24.84445997513830661773681640625">
        <ele>68</ele>
        <time>2026-07-26T08:33:06.000Z</time>
        <extensions>
          <ns3:TrackPointExtension>
            <ns3:hr>149</ns3:hr>
            <ns3:cad>51</ns3:cad>
          </ns3:TrackPointExtension>
        </extensions>
      </trkpt>
      <trkpt lat="55.7856206037104129791259765625" lon="24.84442661516368389129638671875">
        <ele>68</ele>
        <time>2026-07-26T08:33:08.000Z</time>
        <extensions>
          <ns3:TrackPointExtension>
            <ns3:hr>150</ns3:hr>
            <ns3:cad>51</ns3:cad>
          </ns3:TrackPointExtension>
        </extensions>
      </trkpt>
      <trkpt lat="55.78559336252510547637939453125" lon="24.84430591575801372528076171875">
        <ele>67.59999847412109375</ele>
        <time>2026-07-26T08:33:14.000Z</time>
        <extensions>
          <ns3:TrackPointExtension>
            <ns3:hr>152</ns3:hr>
            <ns3:cad>51</ns3:cad>
          </ns3:TrackPointExtension>
        </extensions>
      </trkpt>
      <trkpt lat="55.78554994426667690277099609375" lon="24.8441653512418270111083984375">
        <ele>67.40000152587890625</ele>
        <time>2026-07-26T08:33:21.000Z</time>
        <extensions>
          <ns3:TrackPointExtension>
            <ns3:hr>153</ns3:hr>
            <ns3:cad>50</ns3:cad>
          </ns3:TrackPointExtension>
        </extensions>
      </trkpt>
      <trkpt lat="55.78552111051976680755615234375" lon="24.84411162324249744415283203125">
        <ele>67.59999847412109375</ele>
        <time>2026-07-26T08:33:26.000Z</time>
        <extensions>
          <ns3:TrackPointExtension>
            <ns3:hr>153</ns3:hr>
            <ns3:cad>50</ns3:cad>
          </ns3:TrackPointExtension>
        </extensions>
      </trkpt>
      <trkpt lat="55.7854938693344593048095703125" lon="24.844026379287242889404296875">
        <ele>67.8000030517578125</ele>
        <time>2026-07-26T08:33:32.000Z</time>
        <extensions>
          <ns3:TrackPointExtension>
            <ns3:hr>156</ns3:hr>
            <ns3:cad>68</ns3:cad>
          </ns3:TrackPointExtension>
        </extensions>
      </trkpt>
      <trkpt lat="55.7854918576776981353759765625" lon="24.84400601126253604888916015625">
        <ele>68</ele>
        <time>2026-07-26T08:33:33.000Z</time>
        <extensions>
          <ns3:TrackPointExtension>
            <ns3:hr>156</ns3:hr>
            <ns3:cad>77</ns3:cad>
          </ns3:TrackPointExtension>
        </extensions>
      </trkpt>
      <trkpt lat="55.78545237891376018524169921875" lon="24.84389704652130603790283203125">
        <ele>67.8000030517578125</ele>
        <time>2026-07-26T08:33:41.000Z</time>
        <extensions>
          <ns3:TrackPointExtension>
            <ns3:hr>157</ns3:hr>
            <ns3:cad>0</ns3:cad>
          </ns3:TrackPointExtension>
        </extensions>
      </trkpt>
      <trkpt lat="55.7854539714753627777099609375" lon="24.843851365149021148681640625">
        <ele>67.40000152587890625</ele>
        <time>2026-07-26T08:33:46.000Z</time>
        <extensions>
          <ns3:TrackPointExtension>
            <ns3:hr>157</ns3:hr>
            <ns3:cad>0</ns3:cad>
          </ns3:TrackPointExtension>
        </extensions>
      </trkpt>
      <trkpt lat="55.785457827150821685791015625" lon="24.8438362777233123779296875">
        <ele>67.1999969482421875</ele>
        <time>2026-07-26T08:33:47.000Z</time>
        <extensions>
          <ns3:TrackPointExtension>
            <ns3:hr>158</ns3:hr>
            <ns3:cad>0</ns3:cad>
          </ns3:TrackPointExtension>
        </extensions>
      </trkpt>
      <trkpt lat="55.7854590006172657012939453125" lon="24.843816496431827545166015625">
        <ele>66.8000030517578125</ele>
        <time>2026-07-26T08:33:49.000Z</time>
        <extensions>
          <ns3:TrackPointExtension>
            <ns3:hr>158</ns3:hr>
            <ns3:cad>0</ns3:cad>
          </ns3:TrackPointExtension>
        </extensions>
      </trkpt>
      <trkpt lat="55.7854600064456462860107421875" lon="24.84376109205186367034912109375">
        <ele>66.1999969482421875</ele>
        <time>2026-07-26T08:33:53.000Z</time>
        <extensions>
          <ns3:TrackPointExtension>
            <ns3:hr>160</ns3:hr>
            <ns3:cad>0</ns3:cad>
          </ns3:TrackPointExtension>
        </extensions>
      </trkpt>
      <trkpt lat="55.78546218574047088623046875" lon="24.843756817281246185302734375">
        <ele>65.8000030517578125</ele>
        <time>2026-07-26T08:33:58.000Z</time>
        <extensions>
          <ns3:TrackPointExtension>
            <ns3:hr>159</ns3:hr>
            <ns3:cad>0</ns3:cad>
          </ns3:TrackPointExtension>
        </extensions>
      </trkpt>
      <trkpt lat="55.7854613475501537322998046875" lon="24.84374835155904293060302734375">
        <ele>65.8000030517578125</ele>
        <time>2026-07-26T08:34:00.000Z</time>
        <extensions>
          <ns3:TrackPointExtension>
            <ns3:hr>160</ns3:hr>
            <ns3:cad>0</ns3:cad>
          </ns3:TrackPointExtension>
        </extensions>
      </trkpt>
      <trkpt lat="55.78546361066401004791259765625" lon="24.8436929471790790557861328125">
        <ele>66.1999969482421875</ele>
        <time>2026-07-26T08:34:03.000Z</time>
        <extensions>
          <ns3:TrackPointExtension>
            <ns3:hr>156</ns3:hr>
            <ns3:cad>0</ns3:cad>
          </ns3:TrackPointExtension>
        </extensions>
      </trkpt>
      <trkpt lat="55.785457827150821685791015625" lon="24.843675680458545684814453125">
        <ele>66.40000152587890625</ele>
        <time>2026-07-26T08:34:05.000Z</time>
        <extensions>
          <ns3:TrackPointExtension>
            <ns3:hr>150</ns3:hr>
            <ns3:cad>0</ns3:cad>
          </ns3:TrackPointExtension>
        </extensions>
      </trkpt>
      <trkpt lat="55.785452462732791900634765625" lon="24.843663610517978668212890625">
        <ele>66.1999969482421875</ele>
        <time>2026-07-26T08:34:06.000Z</time>
        <extensions>
          <ns3:TrackPointExtension>
            <ns3:hr>148</ns3:hr>
            <ns3:cad>0</ns3:cad>
          </ns3:TrackPointExtension>
        </extensions>
      </trkpt>
      <trkpt lat="55.78542958013713359832763671875" lon="24.8436029255390167236328125">
        <ele>66.1999969482421875</ele>
        <time>2026-07-26T08:34:12.000Z</time>
        <extensions>
          <ns3:TrackPointExtension>
            <ns3:hr>151</ns3:hr>
            <ns3:cad>0</ns3:cad>
          </ns3:TrackPointExtension>
        </extensions>
      </trkpt>
      <trkpt lat="55.785411894321441650390625" lon="24.84356026165187358856201171875">
        <ele>66.1999969482421875</ele>
        <time>2026-07-26T08:34:15.000Z</time>
        <extensions>
          <ns3:TrackPointExtension>
            <ns3:hr>152</ns3:hr>
            <ns3:cad>0</ns3:cad>
          </ns3:TrackPointExtension>
        </extensions>
      </trkpt>
      <trkpt lat="55.785408876836299896240234375" lon="24.8435414023697376251220703125">
        <ele>66.59999847412109375</ele>
        <time>2026-07-26T08:34:22.000Z</time>
        <extensions>
          <ns3:TrackPointExtension>
            <ns3:hr>154</ns3:hr>
            <ns3:cad>0</ns3:cad>
          </ns3:TrackPointExtension>
        </extensions>
      </trkpt>
      <trkpt lat="55.78538951463997364044189453125" lon="24.8434849083423614501953125">
        <ele>66.1999969482421875</ele>
        <time>2026-07-26T08:34:27.000Z</time>
        <extensions>
          <ns3:TrackPointExtension>
            <ns3:hr>155</ns3:hr>
            <ns3:cad>0</ns3:cad>
          </ns3:TrackPointExtension>
        </extensions>
      </trkpt>
      <trkpt lat="55.7853708229959011077880859375" lon="24.843403436243534088134765625">
        <ele>65.59999847412109375</ele>
        <time>2026-07-26T08:34:31.000Z</time>
        <extensions>
          <ns3:TrackPointExtension>
            <ns3:hr>155</ns3:hr>
            <ns3:cad>46</ns3:cad>
          </ns3:TrackPointExtension>
        </extensions>
      </trkpt>
      <trkpt lat="55.78536788932979106903076171875" lon="24.8433663882315158843994140625">
        <ele>65.59999847412109375</ele>
        <time>2026-07-26T08:34:33.000Z</time>
        <extensions>
          <ns3:TrackPointExtension>
            <ns3:hr>152</ns3:hr>
            <ns3:cad>46</ns3:cad>
          </ns3:TrackPointExtension>
        </extensions>
      </trkpt>
      <trkpt lat="55.7853662967681884765625" lon="24.8433534801006317138671875">
        <ele>65.59999847412109375</ele>
        <time>2026-07-26T08:34:34.000Z</time>
        <extensions>
          <ns3:TrackPointExtension>
            <ns3:hr>149</ns3:hr>
            <ns3:cad>47</ns3:cad>
          </ns3:TrackPointExtension>
        </extensions>
      </trkpt>
      <trkpt lat="55.785344503819942474365234375" lon="24.8432946391403675079345703125">
        <ele>65.1999969482421875</ele>
        <time>2026-07-26T08:34:39.000Z</time>
        <extensions>
          <ns3:TrackPointExtension>
            <ns3:hr>147</ns3:hr>
            <ns3:cad>45</ns3:cad>
          </ns3:TrackPointExtension>
        </extensions>
      </trkpt>
      <trkpt lat="55.7853141613304615020751953125" lon="24.84318391419947147369384765625">
        <ele>66.1999969482421875</ele>
        <time>2026-07-26T08:34:47.000Z</time>
        <extensions>
          <ns3:TrackPointExtension>
            <ns3:hr>148</ns3:hr>
            <ns3:cad>0</ns3:cad>
          </ns3:TrackPointExtension>
        </extensions>
      </trkpt>
      <trkpt lat="55.78531625680625438690185546875" lon="24.84316681511700153350830078125">
        <ele>66.1999969482421875</ele>
        <time>2026-07-26T08:34:48.000Z</time>
        <extensions>
          <ns3:TrackPointExtension>
            <ns3:hr>149</ns3:hr>
            <ns3:cad>45</ns3:cad>
          </ns3:TrackPointExtension>
        </extensions>
      </trkpt>
      <trkpt lat="55.78527845442295074462890625" lon="24.843111075460910797119140625">
        <ele>65</ele>
        <time>2026-07-26T08:34:54.000Z</time>
        <extensions>
          <ns3:TrackPointExtension>
            <ns3:hr>150</ns3:hr>
            <ns3:cad>44</ns3:cad>
          </ns3:TrackPointExtension>
        </extensions>
      </trkpt>
      <trkpt lat="55.78522858209908008575439453125" lon="24.84305667690932750701904296875">
        <ele>65.1999969482421875</ele>
        <time>2026-07-26T08:35:00.000Z</time>
        <extensions>
          <ns3:TrackPointExtension>
            <ns3:hr>153</ns3:hr>
            <ns3:cad>0</ns3:cad>
          </ns3:TrackPointExtension>
        </extensions>
      </trkpt>
      <trkpt lat="55.7852172665297985076904296875" lon="24.84305449761450290679931640625">
        <ele>65</ele>
        <time>2026-07-26T08:35:02.000Z</time>
        <extensions>
          <ns3:TrackPointExtension>
            <ns3:hr>151</ns3:hr>
            <ns3:cad>0</ns3:cad>
          </ns3:TrackPointExtension>
        </extensions>
      </trkpt>
      <trkpt lat="55.78516873531043529510498046875" lon="24.8429848439991474151611328125">
        <ele>65.40000152587890625</ele>
        <time>2026-07-26T08:35:08.000Z</time>
        <extensions>
          <ns3:TrackPointExtension>
            <ns3:hr>151</ns3:hr>
            <ns3:cad>0</ns3:cad>
          </ns3:TrackPointExtension>
        </extensions>
      </trkpt>
      <trkpt lat="55.7851267419755458831787109375" lon="24.84292692504823207855224609375">
        <ele>65.40000152587890625</ele>
        <time>2026-07-26T08:35:15.000Z</time>
        <extensions>
          <ns3:TrackPointExtension>
            <ns3:hr>154</ns3:hr>
            <ns3:cad>0</ns3:cad>
          </ns3:TrackPointExtension>
        </extensions>
      </trkpt>
      <trkpt lat="55.785093046724796295166015625" lon="24.84283170662820339202880859375">
        <ele>65.40000152587890625</ele>
        <time>2026-07-26T08:35:22.000Z</time>
        <extensions>
          <ns3:TrackPointExtension>
            <ns3:hr>156</ns3:hr>
            <ns3:cad>0</ns3:cad>
          </ns3:TrackPointExtension>
        </extensions>
      </trkpt>
      <trkpt lat="55.78504065982997417449951171875" lon="24.8427695967257022857666015625">
        <ele>64.8000030517578125</ele>
        <time>2026-07-26T08:35:28.000Z</time>
        <extensions>
          <ns3:TrackPointExtension>
            <ns3:hr>156</ns3:hr>
            <ns3:cad>0</ns3:cad>
          </ns3:TrackPointExtension>
        </extensions>
      </trkpt>
      <trkpt lat="55.7850328646600246429443359375" lon="24.8427622206509113311767578125">
        <ele>64.59999847412109375</ele>
        <time>2026-07-26T08:35:29.000Z</time>
        <extensions>
          <ns3:TrackPointExtension>
            <ns3:hr>156</ns3:hr>
            <ns3:cad>47</ns3:cad>
          </ns3:TrackPointExtension>
        </extensions>
      </trkpt>
      <trkpt lat="55.78496857546269893646240234375" lon="24.8426763899624347686767578125">
        <ele>64.8000030517578125</ele>
        <time>2026-07-26T08:35:36.000Z</time>
        <extensions>
          <ns3:TrackPointExtension>
            <ns3:hr>155</ns3:hr>
            <ns3:cad>75</ns3:cad>
          </ns3:TrackPointExtension>
        </extensions>
      </trkpt>
      <trkpt lat="55.78494778834283351898193359375" lon="24.8425865359604358673095703125">
        <ele>64.40000152587890625</ele>
        <time>2026-07-26T08:35:44.000Z</time>
        <extensions>
          <ns3:TrackPointExtension>
            <ns3:hr>155</ns3:hr>
            <ns3:cad>0</ns3:cad>
          </ns3:TrackPointExtension>
        </extensions>
      </trkpt>
      <trkpt lat="55.7849520631134510040283203125" lon="24.8425640724599361419677734375">
        <ele>64.1999969482421875</ele>
        <time>2026-07-26T08:35:46.000Z</time>
        <extensions>
          <ns3:TrackPointExtension>
            <ns3:hr>154</ns3:hr>
            <ns3:cad>0</ns3:cad>
          </ns3:TrackPointExtension>
        </extensions>
      </trkpt>
      <trkpt lat="55.7849389873445034027099609375" lon="24.8425382561981678009033203125">
        <ele>64.1999969482421875</ele>
        <time>2026-07-26T08:35:49.000Z</time>
        <extensions>
          <ns3:TrackPointExtension>
            <ns3:hr>157</ns3:hr>
            <ns3:cad>0</ns3:cad>
          </ns3:TrackPointExtension>
        </extensions>
      </trkpt>
      <trkpt lat="55.784930773079395294189453125" lon="24.8425328917801380157470703125">
        <ele>64.1999969482421875</ele>
        <time>2026-07-26T08:35:50.000Z</time>
        <extensions>
          <ns3:TrackPointExtension>
            <ns3:hr>157</ns3:hr>
            <ns3:cad>0</ns3:cad>
          </ns3:TrackPointExtension>
        </extensions>
      </trkpt>
      <trkpt lat="55.7849145121872425079345703125" lon="24.8424996994435787200927734375">
        <ele>64.40000152587890625</ele>
        <time>2026-07-26T08:35:53.000Z</time>
        <extensions>
          <ns3:TrackPointExtension>
            <ns3:hr>154</ns3:hr>
            <ns3:cad>0</ns3:cad>
          </ns3:TrackPointExtension>
        </extensions>
      </trkpt>
      <trkpt lat="55.78489263541996479034423828125" lon="24.84246902167797088623046875">
        <ele>64.40000152587890625</ele>
        <time>2026-07-26T08:35:57.000Z</time>
        <extensions>
          <ns3:TrackPointExtension>
            <ns3:hr>154</ns3:hr>
            <ns3:cad>0</ns3:cad>
          </ns3:TrackPointExtension>
        </extensions>
      </trkpt>
      <trkpt lat="55.78484251163899898529052734375" lon="24.84244965948164463043212890625">
        <ele>64</ele>
        <time>2026-07-26T08:36:06.000Z</time>
        <extensions>
          <ns3:TrackPointExtension>
            <ns3:hr>157</ns3:hr>
            <ns3:cad>0</ns3:cad>
          </ns3:TrackPointExtension>
        </extensions>
      </trkpt>
      <trkpt lat="55.784793980419635772705078125" lon="24.8424473963677883148193359375">
        <ele>63.799999237060546875</ele>
        <time>2026-07-26T08:36:12.000Z</time>
        <extensions>
          <ns3:TrackPointExtension>
            <ns3:hr>157</ns3:hr>
            <ns3:cad>42</ns3:cad>
          </ns3:TrackPointExtension>
        </extensions>
      </trkpt>
      <trkpt lat="55.784778892993927001953125" lon="24.84245133586227893829345703125">
        <ele>63.59999847412109375</ele>
        <time>2026-07-26T08:36:14.000Z</time>
        <extensions>
          <ns3:TrackPointExtension>
            <ns3:hr>157</ns3:hr>
            <ns3:cad>42</ns3:cad>
          </ns3:TrackPointExtension>
        </extensions>
      </trkpt>
      <trkpt lat="55.784725584089756011962890625" lon="24.8424604721367359161376953125">
        <ele>64.40000152587890625</ele>
        <time>2026-07-26T08:36:21.000Z</time>
        <extensions>
          <ns3:TrackPointExtension>
            <ns3:hr>153</ns3:hr>
            <ns3:cad>48</ns3:cad>
          </ns3:TrackPointExtension>
        </extensions>
      </trkpt>
      <trkpt lat="55.78471896238625049591064453125" lon="24.84246508218348026275634765625">
        <ele>64.40000152587890625</ele>
        <time>2026-07-26T08:36:23.000Z</time>
        <extensions>
          <ns3:TrackPointExtension>
            <ns3:hr>150</ns3:hr>
            <ns3:cad>0</ns3:cad>
          </ns3:TrackPointExtension>
        </extensions>
      </trkpt>
      <trkpt lat="55.78470236621797084808349609375" lon="24.84248586930334568023681640625">
        <ele>64</ele>
        <time>2026-07-26T08:36:29.000Z</time>
        <extensions>
          <ns3:TrackPointExtension>
            <ns3:hr>154</ns3:hr>
            <ns3:cad>0</ns3:cad>
          </ns3:TrackPointExtension>
        </extensions>
      </trkpt>
      <trkpt lat="55.7846982590854167938232421875" lon="24.84249307774007320404052734375">
        <ele>64.1999969482421875</ele>
        <time>2026-07-26T08:36:32.000Z</time>
        <extensions>
          <ns3:TrackPointExtension>
            <ns3:hr>157</ns3:hr>
            <ns3:cad>0</ns3:cad>
          </ns3:TrackPointExtension>
        </extensions>
      </trkpt>
      <trkpt lat="55.78468107618391513824462890625" lon="24.84249542467296123504638671875">
        <ele>64.1999969482421875</ele>
        <time>2026-07-26T08:36:35.000Z</time>
        <extensions>
          <ns3:TrackPointExtension>
            <ns3:hr>158</ns3:hr>
            <ns3:cad>0</ns3:cad>
          </ns3:TrackPointExtension>
        </extensions>
      </trkpt>
      <trkpt lat="55.784659869968891143798828125" lon="24.84250011853873729705810546875">
        <ele>64</ele>
        <time>2026-07-26T08:36:41.000Z</time>
        <extensions>
          <ns3:TrackPointExtension>
            <ns3:hr>158</ns3:hr>
            <ns3:cad>0</ns3:cad>
          </ns3:TrackPointExtension>
        </extensions>
      </trkpt>
      <trkpt lat="55.78463413752615451812744140625" lon="24.84256097115576267242431640625">
        <ele>63.59999847412109375</ele>
        <time>2026-07-26T08:36:46.000Z</time>
        <extensions>
          <ns3:TrackPointExtension>
            <ns3:hr>156</ns3:hr>
            <ns3:cad>42</ns3:cad>
          </ns3:TrackPointExtension>
        </extensions>
      </trkpt>
      <trkpt lat="55.78461452387273311614990234375" lon="24.84267152845859527587890625">
        <ele>64</ele>
        <time>2026-07-26T08:36:54.000Z</time>
        <extensions>
          <ns3:TrackPointExtension>
            <ns3:hr>156</ns3:hr>
            <ns3:cad>0</ns3:cad>
          </ns3:TrackPointExtension>
        </extensions>
      </trkpt>
      <trkpt lat="55.78460530377924442291259765625" lon="24.84277077019214630126953125">
        <ele>63.59999847412109375</ele>
        <time>2026-07-26T08:37:01.000Z</time>
        <extensions>
          <ns3:TrackPointExtension>
            <ns3:hr>156</ns3:hr>
            <ns3:cad>0</ns3:cad>
          </ns3:TrackPointExtension>
        </extensions>
      </trkpt>
      <trkpt lat="55.78459289856255054473876953125" lon="24.8428993485867977142333984375">
        <ele>64</ele>
        <time>2026-07-26T08:37:07.000Z</time>
        <extensions>
          <ns3:TrackPointExtension>
            <ns3:hr>156</ns3:hr>
            <ns3:cad>46</ns3:cad>
          </ns3:TrackPointExtension>
        </extensions>
      </trkpt>
      <trkpt lat="55.78457479365170001983642578125" lon="24.8429472930729389190673828125">
        <ele>63.40000152587890625</ele>
        <time>2026-07-26T08:37:13.000Z</time>
        <extensions>
          <ns3:TrackPointExtension>
            <ns3:hr>160</ns3:hr>
            <ns3:cad>46</ns3:cad>
          </ns3:TrackPointExtension>
        </extensions>
      </trkpt>
      <trkpt lat="55.7845735363662242889404296875" lon="24.84294301830232143402099609375">
        <ele>63.40000152587890625</ele>
        <time>2026-07-26T08:37:14.000Z</time>
        <extensions>
          <ns3:TrackPointExtension>
            <ns3:hr>163</ns3:hr>
            <ns3:cad>46</ns3:cad>
          </ns3:TrackPointExtension>
        </extensions>
      </trkpt>
      <trkpt lat="55.784568004310131072998046875" lon="24.84294402413070201873779296875">
        <ele>63.59999847412109375</ele>
        <time>2026-07-26T08:37:15.000Z</time>
        <extensions>
          <ns3:TrackPointExtension>
            <ns3:hr>163</ns3:hr>
            <ns3:cad>46</ns3:cad>
          </ns3:TrackPointExtension>
        </extensions>
      </trkpt>
      <trkpt lat="55.78456121496856212615966796875" lon="24.84293128363788127899169921875">
        <ele>64.1999969482421875</ele>
        <time>2026-07-26T08:37:20.000Z</time>
        <extensions>
          <ns3:TrackPointExtension>
            <ns3:hr>160</ns3:hr>
            <ns3:cad>0</ns3:cad>
          </ns3:TrackPointExtension>
        </extensions>
      </trkpt>
      <trkpt lat="55.78455886803567409515380859375" lon="24.8429261706769466400146484375">
        <ele>64</ele>
        <time>2026-07-26T08:37:22.000Z</time>
        <extensions>
          <ns3:TrackPointExtension>
            <ns3:hr>159</ns3:hr>
            <ns3:cad>0</ns3:cad>
          </ns3:TrackPointExtension>
        </extensions>
      </trkpt>
      <trkpt lat="55.78454847447574138641357421875" lon="24.84295039437711238861083984375">
        <ele>64</ele>
        <time>2026-07-26T08:37:26.000Z</time>
        <extensions>
          <ns3:TrackPointExtension>
            <ns3:hr>156</ns3:hr>
            <ns3:cad>0</ns3:cad>
          </ns3:TrackPointExtension>
        </extensions>
      </trkpt>
      <trkpt lat="55.78454428352415561676025390625" lon="24.84296430833637714385986328125">
        <ele>64.1999969482421875</ele>
        <time>2026-07-26T08:37:30.000Z</time>
        <extensions>
          <ns3:TrackPointExtension>
            <ns3:hr>158</ns3:hr>
            <ns3:cad>0</ns3:cad>
          </ns3:TrackPointExtension>
        </extensions>
      </trkpt>
      <trkpt lat="55.784514360129833221435546875" lon="24.842980317771434783935546875">
        <ele>64.59999847412109375</ele>
        <time>2026-07-26T08:37:36.000Z</time>
        <extensions>
          <ns3:TrackPointExtension>
            <ns3:hr>161</ns3:hr>
            <ns3:cad>0</ns3:cad>
          </ns3:TrackPointExtension>
        </extensions>
      </trkpt>
      <trkpt lat="55.78451000154018402099609375" lon="24.84297922812402248382568359375">
        <ele>64.59999847412109375</ele>
        <time>2026-07-26T08:37:38.000Z</time>
        <extensions>
          <ns3:TrackPointExtension>
            <ns3:hr>160</ns3:hr>
            <ns3:cad>0</ns3:cad>
          </ns3:TrackPointExtension>
        </extensions>
      </trkpt>
      <trkpt lat="55.78450606204569339752197265625" lon="24.8429781384766101837158203125">
        <ele>64.40000152587890625</ele>
        <time>2026-07-26T08:37:39.000Z</time>
        <extensions>
          <ns3:TrackPointExtension>
            <ns3:hr>157</ns3:hr>
            <ns3:cad>0</ns3:cad>
          </ns3:TrackPointExtension>
        </extensions>
      </trkpt>
      <trkpt lat="55.78446197323501110076904296875" lon="24.84300806187093257904052734375">
        <ele>64</ele>
        <time>2026-07-26T08:37:46.000Z</time>
        <extensions>
          <ns3:TrackPointExtension>
            <ns3:hr>157</ns3:hr>
            <ns3:cad>0</ns3:cad>
          </ns3:TrackPointExtension>
        </extensions>
      </trkpt>
      <trkpt lat="55.78444353304803371429443359375" lon="24.8430093191564083099365234375">
        <ele>64</ele>
        <time>2026-07-26T08:37:53.000Z</time>
        <extensions>
          <ns3:TrackPointExtension>
            <ns3:hr>155</ns3:hr>
            <ns3:cad>0</ns3:cad>
          </ns3:TrackPointExtension>
        </extensions>
      </trkpt>
      <trkpt lat="55.7843837700784206390380859375" lon="24.84302834607660770416259765625">
        <ele>64.1999969482421875</ele>
        <time>2026-07-26T08:38:00.000Z</time>
        <extensions>
          <ns3:TrackPointExtension>
            <ns3:hr>153</ns3:hr>
            <ns3:cad>53</ns3:cad>
          </ns3:TrackPointExtension>
        </extensions>
      </trkpt>
      <trkpt lat="55.78437329269945621490478515625" lon="24.84300085343420505523681640625">
        <ele>64.1999969482421875</ele>
        <time>2026-07-26T08:38:02.000Z</time>
        <extensions>
          <ns3:TrackPointExtension>
            <ns3:hr>150</ns3:hr>
            <ns3:cad>53</ns3:cad>
          </ns3:TrackPointExtension>
        </extensions>
      </trkpt>
      <trkpt lat="55.78435468487441539764404296875" lon="24.8429141007363796234130859375">
        <ele>63.799999237060546875</ele>
        <time>2026-07-26T08:38:07.000Z</time>
        <extensions>
          <ns3:TrackPointExtension>
            <ns3:hr>149</ns3:hr>
            <ns3:cad>49</ns3:cad>
          </ns3:TrackPointExtension>
        </extensions>
      </trkpt>
      <trkpt lat="55.784291066229343414306640625" lon="24.84282952733337879180908203125">
        <ele>64</ele>
        <time>2026-07-26T08:38:13.000Z</time>
        <extensions>
          <ns3:TrackPointExtension>
            <ns3:hr>149</ns3:hr>
            <ns3:cad>52</ns3:cad>
          </ns3:TrackPointExtension>
        </extensions>
      </trkpt>
      <trkpt lat="55.7842573709785938262939453125" lon="24.84278979711234569549560546875">
        <ele>63.59999847412109375</ele>
        <time>2026-07-26T08:38:16.000Z</time>
        <extensions>
          <ns3:TrackPointExtension>
            <ns3:hr>146</ns3:hr>
            <ns3:cad>50</ns3:cad>
          </ns3:TrackPointExtension>
        </extensions>
      </trkpt>
      <trkpt lat="55.7842225022614002227783203125" lon="24.8427199758589267730712890625">
        <ele>63.59999847412109375</ele>
        <time>2026-07-26T08:38:21.000Z</time>
        <extensions>
          <ns3:TrackPointExtension>
            <ns3:hr>148</ns3:hr>
            <ns3:cad>48</ns3:cad>
          </ns3:TrackPointExtension>
        </extensions>
      </trkpt>
      <trkpt lat="55.78416190110146999359130859375" lon="24.84264470636844635009765625">
        <ele>64.1999969482421875</ele>
        <time>2026-07-26T08:38:28.000Z</time>
        <extensions>
          <ns3:TrackPointExtension>
            <ns3:hr>149</ns3:hr>
            <ns3:cad>49</ns3:cad>
          </ns3:TrackPointExtension>
        </extensions>
      </trkpt>
      <trkpt lat="55.78416491858661174774169921875" lon="24.8426260985434055328369140625">
        <ele>64.40000152587890625</ele>
        <time>2026-07-26T08:38:29.000Z</time>
        <extensions>
          <ns3:TrackPointExtension>
            <ns3:hr>149</ns3:hr>
            <ns3:cad>49</ns3:cad>
          </ns3:TrackPointExtension>
        </extensions>
      </trkpt>
      <trkpt lat="55.7841514237225055694580078125" lon="24.84251487068831920623779296875">
        <ele>64.1999969482421875</ele>
        <time>2026-07-26T08:38:34.000Z</time>
        <extensions>
          <ns3:TrackPointExtension>
            <ns3:hr>147</ns3:hr>
            <ns3:cad>51</ns3:cad>
          </ns3:TrackPointExtension>
        </extensions>
      </trkpt>
      <trkpt lat="55.78415452502667903900146484375" lon="24.8424872942268848419189453125">
        <ele>64</ele>
        <time>2026-07-26T08:38:36.000Z</time>
        <extensions>
          <ns3:TrackPointExtension>
            <ns3:hr>147</ns3:hr>
            <ns3:cad>109</ns3:cad>
          </ns3:TrackPointExtension>
        </extensions>
      </trkpt>
      <trkpt lat="55.78414664603769779205322265625" lon="24.84239249490201473236083984375">
        <ele>64</ele>
        <time>2026-07-26T08:38:40.000Z</time>
        <extensions>
          <ns3:TrackPointExtension>
            <ns3:hr>148</ns3:hr>
            <ns3:cad>56</ns3:cad>
          </ns3:TrackPointExtension>
        </extensions>
      </trkpt>
      <trkpt lat="55.784136839210987091064453125" lon="24.8423240147531032562255859375">
        <ele>64</ele>
        <time>2026-07-26T08:38:43.000Z</time>
        <extensions>
          <ns3:TrackPointExtension>
            <ns3:hr>145</ns3:hr>
            <ns3:cad>56</ns3:cad>
          </ns3:TrackPointExtension>
        </extensions>
      </trkpt>
      <trkpt lat="55.7841246016323566436767578125" lon="24.842263162136077880859375">
        <ele>64.1999969482421875</ele>
        <time>2026-07-26T08:38:48.000Z</time>
        <extensions>
          <ns3:TrackPointExtension>
            <ns3:hr>144</ns3:hr>
            <ns3:cad>0</ns3:cad>
          </ns3:TrackPointExtension>
        </extensions>
      </trkpt>
      <trkpt lat="55.78411378897726535797119140625" lon="24.842209853231906890869140625">
        <ele>64.1999969482421875</ele>
        <time>2026-07-26T08:38:55.000Z</time>
        <extensions>
          <ns3:TrackPointExtension>
            <ns3:hr>147</ns3:hr>
            <ns3:cad>0</ns3:cad>
          </ns3:TrackPointExtension>
        </extensions>
      </trkpt>
      <trkpt lat="55.78411110676825046539306640625" lon="24.842188060283660888671875">
        <ele>64.1999969482421875</ele>
        <time>2026-07-26T08:38:56.000Z</time>
        <extensions>
          <ns3:TrackPointExtension>
            <ns3:hr>147</ns3:hr>
            <ns3:cad>0</ns3:cad>
          </ns3:TrackPointExtension>
        </extensions>
      </trkpt>
      <trkpt lat="55.78411730937659740447998046875" lon="24.8420447297394275665283203125">
        <ele>64.1999969482421875</ele>
        <time>2026-07-26T08:39:02.000Z</time>
        <extensions>
          <ns3:TrackPointExtension>
            <ns3:hr>147</ns3:hr>
            <ns3:cad>55</ns3:cad>
          </ns3:TrackPointExtension>
        </extensions>
      </trkpt>
      <trkpt lat="55.78411831520497798919677734375" lon="24.84192587435245513916015625">
        <ele>64.1999969482421875</ele>
        <time>2026-07-26T08:39:07.000Z</time>
        <extensions>
          <ns3:TrackPointExtension>
            <ns3:hr>143</ns3:hr>
            <ns3:cad>57</ns3:cad>
          </ns3:TrackPointExtension>
        </extensions>
      </trkpt>
      <trkpt lat="55.7841138727962970733642578125" lon="24.84179469756782054901123046875">
        <ele>64.1999969482421875</ele>
        <time>2026-07-26T08:39:12.000Z</time>
        <extensions>
          <ns3:TrackPointExtension>
            <ns3:hr>142</ns3:hr>
            <ns3:cad>56</ns3:cad>
          </ns3:TrackPointExtension>
        </extensions>
      </trkpt>
      <trkpt lat="55.784103311598300933837890625" lon="24.8417231999337673187255859375">
        <ele>64.1999969482421875</ele>
        <time>2026-07-26T08:39:15.000Z</time>
        <extensions>
          <ns3:TrackPointExtension>
            <ns3:hr>137</ns3:hr>
            <ns3:cad>56</ns3:cad>
          </ns3:TrackPointExtension>
        </extensions>
      </trkpt>
      <trkpt lat="55.78409668989479541778564453125" lon="24.841683469712734222412109375">
        <ele>64.1999969482421875</ele>
        <time>2026-07-26T08:39:17.000Z</time>
        <extensions>
          <ns3:TrackPointExtension>
            <ns3:hr>134</ns3:hr>
            <ns3:cad>56</ns3:cad>
          </ns3:TrackPointExtension>
        </extensions>
      </trkpt>
      <trkpt lat="55.78408679924905300140380859375" lon="24.84160727821290493011474609375">
        <ele>64.1999969482421875</ele>
        <time>2026-07-26T08:39:20.000Z</time>
        <extensions>
          <ns3:TrackPointExtension>
            <ns3:hr>134</ns3:hr>
            <ns3:cad>57</ns3:cad>
          </ns3:TrackPointExtension>
        </extensions>
      </trkpt>
      <trkpt lat="55.784066431224346160888671875" lon="24.84142891131341457366943359375">
        <ele>64.8000030517578125</ele>
        <time>2026-07-26T08:39:27.000Z</time>
        <extensions>
          <ns3:TrackPointExtension>
            <ns3:hr>133</ns3:hr>
            <ns3:cad>57</ns3:cad>
          </ns3:TrackPointExtension>
        </extensions>
      </trkpt>
      <trkpt lat="55.78405595384538173675537109375" lon="24.841353893280029296875">
        <ele>65.1999969482421875</ele>
        <time>2026-07-26T08:39:30.000Z</time>
        <extensions>
          <ns3:TrackPointExtension>
            <ns3:hr>134</ns3:hr>
            <ns3:cad>58</ns3:cad>
          </ns3:TrackPointExtension>
        </extensions>
      </trkpt>
      <trkpt lat="55.78404421918094158172607421875" lon="24.8411384783685207366943359375">
        <ele>65.8000030517578125</ele>
        <time>2026-07-26T08:39:39.000Z</time>
        <extensions>
          <ns3:TrackPointExtension>
            <ns3:hr>135</ns3:hr>
            <ns3:cad>58</ns3:cad>
          </ns3:TrackPointExtension>
        </extensions>
      </trkpt>
      <trkpt lat="55.7840280421078205108642578125" lon="24.8409520648419857025146484375">
        <ele>65</ele>
        <time>2026-07-26T08:39:47.000Z</time>
        <extensions>
          <ns3:TrackPointExtension>
            <ns3:hr>133</ns3:hr>
            <ns3:cad>56</ns3:cad>
          </ns3:TrackPointExtension>
        </extensions>
      </trkpt>
      <trkpt lat="55.78400180675089359283447265625" lon="24.84074897132813930511474609375">
        <ele>65.59999847412109375</ele>
        <time>2026-07-26T08:39:56.000Z</time>
        <extensions>
          <ns3:TrackPointExtension>
            <ns3:hr>132</ns3:hr>
            <ns3:cad>57</ns3:cad>
          </ns3:TrackPointExtension>
        </extensions>
      </trkpt>
      <trkpt lat="55.78399560414254665374755859375" lon="24.84049499966204166412353515625">
        <ele>65</ele>
        <time>2026-07-26T08:40:06.000Z</time>
        <extensions>
          <ns3:TrackPointExtension>
            <ns3:hr>131</ns3:hr>
            <ns3:cad>57</ns3:cad>
          </ns3:TrackPointExtension>
        </extensions>
      </trkpt>
      <trkpt lat="55.7839817740023136138916015625" lon="24.840251170098781585693359375">
        <ele>64.8000030517578125</ele>
        <time>2026-07-26T08:40:15.000Z</time>
        <extensions>
          <ns3:TrackPointExtension>
            <ns3:hr>132</ns3:hr>
            <ns3:cad>58</ns3:cad>
          </ns3:TrackPointExtension>
        </extensions>
      </trkpt>
      <trkpt lat="55.78397884033620357513427734375" lon="24.8402255214750766754150390625">
        <ele>64.8000030517578125</ele>
        <time>2026-07-26T08:40:16.000Z</time>
        <extensions>
          <ns3:TrackPointExtension>
            <ns3:hr>131</ns3:hr>
            <ns3:cad>58</ns3:cad>
          </ns3:TrackPointExtension>
        </extensions>
      </trkpt>
      <trkpt lat="55.78396962024271488189697265625" lon="24.84015838243067264556884765625">
        <ele>64.8000030517578125</ele>
        <time>2026-07-26T08:40:19.000Z</time>
        <extensions>
          <ns3:TrackPointExtension>
            <ns3:hr>135</ns3:hr>
            <ns3:cad>57</ns3:cad>
          </ns3:TrackPointExtension>
        </extensions>
      </trkpt>
      <trkpt lat="55.78396425582468509674072265625" lon="24.84011747874319553375244140625">
        <ele>65.1999969482421875</ele>
        <time>2026-07-26T08:40:21.000Z</time>
        <extensions>
          <ns3:TrackPointExtension>
            <ns3:hr>138</ns3:hr>
            <ns3:cad>58</ns3:cad>
          </ns3:TrackPointExtension>
        </extensions>
      </trkpt>
      <trkpt lat="55.78395352698862552642822265625" lon="24.84001471661031246185302734375">
        <ele>66</ele>
        <time>2026-07-26T08:40:25.000Z</time>
        <extensions>
          <ns3:TrackPointExtension>
            <ns3:hr>137</ns3:hr>
            <ns3:cad>58</ns3:cad>
          </ns3:TrackPointExtension>
        </extensions>
      </trkpt>
      <trkpt lat="55.78394397161900997161865234375" lon="24.83998286537826061248779296875">
        <ele>66</ele>
        <time>2026-07-26T08:40:26.000Z</time>
        <extensions>
          <ns3:TrackPointExtension>
            <ns3:hr>137</ns3:hr>
            <ns3:cad>58</ns3:cad>
          </ns3:TrackPointExtension>
        </extensions>
      </trkpt>
      <trkpt lat="55.78390927053987979888916015625" lon="24.839865602552890777587890625">
        <ele>66</ele>
        <time>2026-07-26T08:40:31.000Z</time>
        <extensions>
          <ns3:TrackPointExtension>
            <ns3:hr>134</ns3:hr>
            <ns3:cad>60</ns3:cad>
          </ns3:TrackPointExtension>
        </extensions>
      </trkpt>
      <trkpt lat="55.78388127498328685760498046875" lon="24.83978572301566600799560546875">
        <ele>65.40000152587890625</ele>
        <time>2026-07-26T08:40:35.000Z</time>
        <extensions>
          <ns3:TrackPointExtension>
            <ns3:hr>133</ns3:hr>
            <ns3:cad>59</ns3:cad>
          </ns3:TrackPointExtension>
        </extensions>
      </trkpt>
      <trkpt lat="55.7838468253612518310546875" lon="24.8396478407084941864013671875">
        <ele>65.8000030517578125</ele>
        <time>2026-07-26T08:40:41.000Z</time>
        <extensions>
          <ns3:TrackPointExtension>
            <ns3:hr>130</ns3:hr>
            <ns3:cad>59</ns3:cad>
          </ns3:TrackPointExtension>
        </extensions>
      </trkpt>
      <trkpt lat="55.783816315233707427978515625" lon="24.8395110480487346649169921875">
        <ele>66</ele>
        <time>2026-07-26T08:40:47.000Z</time>
        <extensions>
          <ns3:TrackPointExtension>
            <ns3:hr>131</ns3:hr>
            <ns3:cad>59</ns3:cad>
          </ns3:TrackPointExtension>
        </extensions>
      </trkpt>
      <trkpt lat="55.7837561331689357757568359375" lon="24.83934030868113040924072265625">
        <ele>65</ele>
        <time>2026-07-26T08:40:54.000Z</time>
        <extensions>
          <ns3:TrackPointExtension>
            <ns3:hr>129</ns3:hr>
            <ns3:cad>59</ns3:cad>
          </ns3:TrackPointExtension>
        </extensions>
      </trkpt>
      <trkpt lat="55.78374163247644901275634765625" lon="24.83929521404206752777099609375">
        <ele>64.8000030517578125</ele>
        <time>2026-07-26T08:40:56.000Z</time>
        <extensions>
          <ns3:TrackPointExtension>
            <ns3:hr>129</ns3:hr>
            <ns3:cad>59</ns3:cad>
          </ns3:TrackPointExtension>
        </extensions>
      </trkpt>
      <trkpt lat="55.78369863331317901611328125" lon="24.839126653969287872314453125">
        <ele>65.1999969482421875</ele>
        <time>2026-07-26T08:41:03.000Z</time>
        <extensions>
          <ns3:TrackPointExtension>
            <ns3:hr>129</ns3:hr>
            <ns3:cad>58</ns3:cad>
          </ns3:TrackPointExtension>
        </extensions>
      </trkpt>
      <trkpt lat="55.783664770424365997314453125" lon="24.83900964260101318359375">
        <ele>65.8000030517578125</ele>
        <time>2026-07-26T08:41:08.000Z</time>
        <extensions>
          <ns3:TrackPointExtension>
            <ns3:hr>129</ns3:hr>
            <ns3:cad>59</ns3:cad>
          </ns3:TrackPointExtension>
        </extensions>
      </trkpt>
      <trkpt lat="55.783641301095485687255859375" lon="24.83890696428716182708740234375">
        <ele>65.8000030517578125</ele>
        <time>2026-07-26T08:41:12.000Z</time>
        <extensions>
          <ns3:TrackPointExtension>
            <ns3:hr>129</ns3:hr>
            <ns3:cad>60</ns3:cad>
          </ns3:TrackPointExtension>
        </extensions>
      </trkpt>
      <trkpt lat="55.78361942432820796966552734375" lon="24.83881048858165740966796875">
        <ele>66</ele>
        <time>2026-07-26T08:41:16.000Z</time>
        <extensions>
          <ns3:TrackPointExtension>
            <ns3:hr>132</ns3:hr>
            <ns3:cad>59</ns3:cad>
          </ns3:TrackPointExtension>
        </extensions>
      </trkpt>
      <trkpt lat="55.78359142877161502838134765625" lon="24.83869850635528564453125">
        <ele>66</ele>
        <time>2026-07-26T08:41:21.000Z</time>
        <extensions>
          <ns3:TrackPointExtension>
            <ns3:hr>131</ns3:hr>
            <ns3:cad>59</ns3:cad>
          </ns3:TrackPointExtension>
        </extensions>
      </trkpt>
      <trkpt lat="55.7835422269999980926513671875" lon="24.83852173201739788055419921875">
        <ele>65.8000030517578125</ele>
        <time>2026-07-26T08:41:29.000Z</time>
        <extensions>
          <ns3:TrackPointExtension>
            <ns3:hr>131</ns3:hr>
            <ns3:cad>60</ns3:cad>
          </ns3:TrackPointExtension>
        </extensions>
      </trkpt>
      <trkpt lat="55.78348296694457530975341796875" lon="24.83832760713994503021240234375">
        <ele>65.40000152587890625</ele>
        <time>2026-07-26T08:41:37.000Z</time>
        <extensions>
          <ns3:TrackPointExtension>
            <ns3:hr>132</ns3:hr>
            <ns3:cad>58</ns3:cad>
          </ns3:TrackPointExtension>
        </extensions>
      </trkpt>
      <trkpt lat="55.783422701060771942138671875" lon="24.8381199873983860015869140625">
        <ele>65.59999847412109375</ele>
        <time>2026-07-26T08:41:46.000Z</time>
        <extensions>
          <ns3:TrackPointExtension>
            <ns3:hr>132</ns3:hr>
            <ns3:cad>58</ns3:cad>
          </ns3:TrackPointExtension>
        </extensions>
      </trkpt>
      <trkpt lat="55.783344246447086334228515625" lon="24.83792267739772796630859375">
        <ele>66</ele>
        <time>2026-07-26T08:41:55.000Z</time>
        <extensions>
          <ns3:TrackPointExtension>
            <ns3:hr>131</ns3:hr>
            <ns3:cad>60</ns3:cad>
          </ns3:TrackPointExtension>
        </extensions>
      </trkpt>
      <trkpt lat="55.7832679711282253265380859375" lon="24.83776467852294445037841796875">
        <ele>65.59999847412109375</ele>
        <time>2026-07-26T08:42:03.000Z</time>
        <extensions>
          <ns3:TrackPointExtension>
            <ns3:hr>132</ns3:hr>
            <ns3:cad>59</ns3:cad>
          </ns3:TrackPointExtension>
        </extensions>
      </trkpt>
      <trkpt lat="55.7831868343055248260498046875" lon="24.83756820671260356903076171875">
        <ele>66.8000030517578125</ele>
        <time>2026-07-26T08:42:13.000Z</time>
        <extensions>
          <ns3:TrackPointExtension>
            <ns3:hr>130</ns3:hr>
            <ns3:cad>59</ns3:cad>
          </ns3:TrackPointExtension>
        </extensions>
      </trkpt>
      <trkpt lat="55.78316730447113513946533203125" lon="24.837520010769367218017578125">
        <ele>66.8000030517578125</ele>
        <time>2026-07-26T08:42:15.000Z</time>
        <extensions>
          <ns3:TrackPointExtension>
            <ns3:hr>130</ns3:hr>
            <ns3:cad>59</ns3:cad>
          </ns3:TrackPointExtension>
        </extensions>
      </trkpt>
      <trkpt lat="55.78311349265277385711669921875" lon="24.83735916204750537872314453125">
        <ele>66.59999847412109375</ele>
        <time>2026-07-26T08:42:22.000Z</time>
        <extensions>
          <ns3:TrackPointExtension>
            <ns3:hr>129</ns3:hr>
            <ns3:cad>58</ns3:cad>
          </ns3:TrackPointExtension>
        </extensions>
      </trkpt>
      <trkpt lat="55.78304727561771869659423828125" lon="24.8372595012187957763671875">
        <ele>66.40000152587890625</ele>
        <time>2026-07-26T08:42:28.000Z</time>
        <extensions>
          <ns3:TrackPointExtension>
            <ns3:hr>130</ns3:hr>
            <ns3:cad>59</ns3:cad>
          </ns3:TrackPointExtension>
        </extensions>
      </trkpt>
      <trkpt lat="55.782970748841762542724609375" lon="24.83713419176638126373291015625">
        <ele>67.40000152587890625</ele>
        <time>2026-07-26T08:42:35.000Z</time>
        <extensions>
          <ns3:TrackPointExtension>
            <ns3:hr>130</ns3:hr>
            <ns3:cad>0</ns3:cad>
          </ns3:TrackPointExtension>
        </extensions>
      </trkpt>
      <trkpt lat="55.782941244542598724365234375" lon="24.83708540908992290496826171875">
        <ele>67.1999969482421875</ele>
        <time>2026-07-26T08:42:38.000Z</time>
        <extensions>
          <ns3:TrackPointExtension>
            <ns3:hr>133</ns3:hr>
            <ns3:cad>0</ns3:cad>
          </ns3:TrackPointExtension>
        </extensions>
      </trkpt>
      <trkpt lat="55.7828986644744873046875" lon="24.837017096579074859619140625">
        <ele>67.40000152587890625</ele>
        <time>2026-07-26T08:42:42.000Z</time>
        <extensions>
          <ns3:TrackPointExtension>
            <ns3:hr>134</ns3:hr>
            <ns3:cad>57</ns3:cad>
          </ns3:TrackPointExtension>
        </extensions>
      </trkpt>
      <trkpt lat="55.7828222215175628662109375" lon="24.83688575215637683868408203125">
        <ele>68</ele>
        <time>2026-07-26T08:42:50.000Z</time>
        <extensions>
          <ns3:TrackPointExtension>
            <ns3:hr>135</ns3:hr>
            <ns3:cad>58</ns3:cad>
          </ns3:TrackPointExtension>
        </extensions>
      </trkpt>
      <trkpt lat="55.78281241469085216522216796875" lon="24.83686932362616062164306640625">
        <ele>68</ele>
        <time>2026-07-26T08:42:51.000Z</time>
        <extensions>
          <ns3:TrackPointExtension>
            <ns3:hr>135</ns3:hr>
            <ns3:cad>58</ns3:cad>
          </ns3:TrackPointExtension>
        </extensions>
      </trkpt>
      <trkpt lat="55.7827311940491199493408203125" lon="24.83683311380445957183837890625">
        <ele>67.8000030517578125</ele>
        <time>2026-07-26T08:42:57.000Z</time>
        <extensions>
          <ns3:TrackPointExtension>
            <ns3:hr>134</ns3:hr>
            <ns3:cad>59</ns3:cad>
          </ns3:TrackPointExtension>
        </extensions>
      </trkpt>
      <trkpt lat="55.7826398313045501708984375" lon="24.83676739968359470367431640625">
        <ele>68.40000152587890625</ele>
        <time>2026-07-26T08:43:04.000Z</time>
        <extensions>
          <ns3:TrackPointExtension>
            <ns3:hr>135</ns3:hr>
            <ns3:cad>59</ns3:cad>
          </ns3:TrackPointExtension>
        </extensions>
      </trkpt>
      <trkpt lat="55.78258090652525424957275390625" lon="24.83670453540980815887451171875">
        <ele>68.1999969482421875</ele>
        <time>2026-07-26T08:43:09.000Z</time>
        <extensions>
          <ns3:TrackPointExtension>
            <ns3:hr>132</ns3:hr>
            <ns3:cad>58</ns3:cad>
          </ns3:TrackPointExtension>
        </extensions>
      </trkpt>
      <trkpt lat="55.7825192995369434356689453125" lon="24.83661568723618984222412109375">
        <ele>68.59999847412109375</ele>
        <time>2026-07-26T08:43:14.000Z</time>
        <extensions>
          <ns3:TrackPointExtension>
            <ns3:hr>131</ns3:hr>
            <ns3:cad>58</ns3:cad>
          </ns3:TrackPointExtension>
        </extensions>
      </trkpt>
      <trkpt lat="55.78246355988085269927978515625" lon="24.8365297727286815643310546875">
        <ele>69</ele>
        <time>2026-07-26T08:43:19.000Z</time>
        <extensions>
          <ns3:TrackPointExtension>
            <ns3:hr>134</ns3:hr>
            <ns3:cad>57</ns3:cad>
          </ns3:TrackPointExtension>
        </extensions>
      </trkpt>
      <trkpt lat="55.78243388794362545013427734375" lon="24.836474955081939697265625">
        <ele>69.8000030517578125</ele>
        <time>2026-07-26T08:43:22.000Z</time>
        <extensions>
          <ns3:TrackPointExtension>
            <ns3:hr>135</ns3:hr>
            <ns3:cad>59</ns3:cad>
          </ns3:TrackPointExtension>
        </extensions>
      </trkpt>
      <trkpt lat="55.78242232091724872589111328125" lon="24.83645810745656490325927734375">
        <ele>70</ele>
        <time>2026-07-26T08:43:23.000Z</time>
        <extensions>
          <ns3:TrackPointExtension>
            <ns3:hr>136</ns3:hr>
            <ns3:cad>59</ns3:cad>
          </ns3:TrackPointExtension>
        </extensions>
      </trkpt>
      <trkpt lat="55.78237990848720073699951171875" lon="24.83636758290231227874755859375">
        <ele>69.40000152587890625</ele>
        <time>2026-07-26T08:43:30.000Z</time>
        <extensions>
          <ns3:TrackPointExtension>
            <ns3:hr>135</ns3:hr>
            <ns3:cad>0</ns3:cad>
          </ns3:TrackPointExtension>
        </extensions>
      </trkpt>
      <trkpt lat="55.78235023654997348785400390625" lon="24.83629885129630565643310546875">
        <ele>69.59999847412109375</ele>
        <time>2026-07-26T08:43:35.000Z</time>
        <extensions>
          <ns3:TrackPointExtension>
            <ns3:hr>135</ns3:hr>
            <ns3:cad>0</ns3:cad>
          </ns3:TrackPointExtension>
        </extensions>
      </trkpt>
      <trkpt lat="55.78232534229755401611328125" lon="24.8362256772816181182861328125">
        <ele>69.8000030517578125</ele>
        <time>2026-07-26T08:43:38.000Z</time>
        <extensions>
          <ns3:TrackPointExtension>
            <ns3:hr>132</ns3:hr>
            <ns3:cad>62</ns3:cad>
          </ns3:TrackPointExtension>
        </extensions>
      </trkpt>
      <trkpt lat="55.78229726292192935943603515625" lon="24.836133308708667755126953125">
        <ele>69.59999847412109375</ele>
        <time>2026-07-26T08:43:42.000Z</time>
        <extensions>
          <ns3:TrackPointExtension>
            <ns3:hr>131</ns3:hr>
            <ns3:cad>62</ns3:cad>
          </ns3:TrackPointExtension>
        </extensions>
      </trkpt>
      <trkpt lat="55.7822544313967227935791015625" lon="24.83601168729364871978759765625">
        <ele>69.59999847412109375</ele>
        <time>2026-07-26T08:43:48.000Z</time>
        <extensions>
          <ns3:TrackPointExtension>
            <ns3:hr>129</ns3:hr>
            <ns3:cad>0</ns3:cad>
          </ns3:TrackPointExtension>
        </extensions>
      </trkpt>
      <trkpt lat="55.7821957580745220184326171875" lon="24.835845641791820526123046875">
        <ele>69.59999847412109375</ele>
        <time>2026-07-26T08:43:55.000Z</time>
        <extensions>
          <ns3:TrackPointExtension>
            <ns3:hr>129</ns3:hr>
            <ns3:cad>60</ns3:cad>
          </ns3:TrackPointExtension>
        </extensions>
      </trkpt>
      <trkpt lat="55.7821253500878810882568359375" lon="24.8356769979000091552734375">
        <ele>69.40000152587890625</ele>
        <time>2026-07-26T08:44:03.000Z</time>
        <extensions>
          <ns3:TrackPointExtension>
            <ns3:hr>132</ns3:hr>
            <ns3:cad>59</ns3:cad>
          </ns3:TrackPointExtension>
        </extensions>
      </trkpt>
      <trkpt lat="55.78204463236033916473388671875" lon="24.8354662768542766571044921875">
        <ele>69.1999969482421875</ele>
        <time>2026-07-26T08:44:12.000Z</time>
        <extensions>
          <ns3:TrackPointExtension>
            <ns3:hr>133</ns3:hr>
            <ns3:cad>59</ns3:cad>
          </ns3:TrackPointExtension>
        </extensions>
      </trkpt>
      <trkpt lat="55.78200356103479862213134765625" lon="24.83536544255912303924560546875">
        <ele>69</ele>
        <time>2026-07-26T08:44:17.000Z</time>
        <extensions>
          <ns3:TrackPointExtension>
            <ns3:hr>133</ns3:hr>
            <ns3:cad>60</ns3:cad>
          </ns3:TrackPointExtension>
        </extensions>
      </trkpt>
      <trkpt lat="55.7819821871817111968994140625" lon="24.83529838733375072479248046875">
        <ele>68.8000030517578125</ele>
        <time>2026-07-26T08:44:20.000Z</time>
        <extensions>
          <ns3:TrackPointExtension>
            <ns3:hr>133</ns3:hr>
            <ns3:cad>58</ns3:cad>
          </ns3:TrackPointExtension>
        </extensions>
      </trkpt>
      <trkpt lat="55.7819496653974056243896484375" lon="24.83514952473342418670654296875">
        <ele>68.59999847412109375</ele>
        <time>2026-07-26T08:44:27.000Z</time>
        <extensions>
          <ns3:TrackPointExtension>
            <ns3:hr>132</ns3:hr>
            <ns3:cad>60</ns3:cad>
          </ns3:TrackPointExtension>
        </extensions>
      </trkpt>
      <trkpt lat="55.781932733952999114990234375" lon="24.83510308898985385894775390625">
        <ele>68.59999847412109375</ele>
        <time>2026-07-26T08:44:29.000Z</time>
        <extensions>
          <ns3:TrackPointExtension>
            <ns3:hr>132</ns3:hr>
            <ns3:cad>59</ns3:cad>
          </ns3:TrackPointExtension>
        </extensions>
      </trkpt>
      <trkpt lat="55.78186760656535625457763671875" lon="24.83491047285497188568115234375">
        <ele>68.40000152587890625</ele>
        <time>2026-07-26T08:44:37.000Z</time>
        <extensions>
          <ns3:TrackPointExtension>
            <ns3:hr>131</ns3:hr>
            <ns3:cad>57</ns3:cad>
          </ns3:TrackPointExtension>
        </extensions>
      </trkpt>
      <trkpt lat="55.78183022327721118927001953125" lon="24.8347551561892032623291015625">
        <ele>68.1999969482421875</ele>
        <time>2026-07-26T08:44:44.000Z</time>
        <extensions>
          <ns3:TrackPointExtension>
            <ns3:hr>129</ns3:hr>
            <ns3:cad>58</ns3:cad>
          </ns3:TrackPointExtension>
        </extensions>
      </trkpt>
      <trkpt lat="55.78184925019741058349609375" lon="24.834711737930774688720703125">
        <ele>67.8000030517578125</ele>
        <time>2026-07-26T08:44:46.000Z</time>
        <extensions>
          <ns3:TrackPointExtension>
            <ns3:hr>128</ns3:hr>
            <ns3:cad>59</ns3:cad>
          </ns3:TrackPointExtension>
        </extensions>
      </trkpt>
      <trkpt lat="55.781857967376708984375" lon="24.8346979916095733642578125">
        <ele>67.59999847412109375</ele>
        <time>2026-07-26T08:44:47.000Z</time>
        <extensions>
          <ns3:TrackPointExtension>
            <ns3:hr>128</ns3:hr>
            <ns3:cad>58</ns3:cad>
          </ns3:TrackPointExtension>
        </extensions>
      </trkpt>
      <trkpt lat="55.7819070853292942047119140625" lon="24.8346542380750179290771484375">
        <ele>66.59999847412109375</ele>
        <time>2026-07-26T08:44:51.000Z</time>
        <extensions>
          <ns3:TrackPointExtension>
            <ns3:hr>127</ns3:hr>
            <ns3:cad>61</ns3:cad>
          </ns3:TrackPointExtension>
        </extensions>
      </trkpt>
      <trkpt lat="55.78196533955633640289306640625" lon="24.83461308293044567108154296875">
        <ele>66</ele>
        <time>2026-07-26T08:44:56.000Z</time>
        <extensions>
          <ns3:TrackPointExtension>
            <ns3:hr>125</ns3:hr>
            <ns3:cad>59</ns3:cad>
          </ns3:TrackPointExtension>
        </extensions>
      </trkpt>
      <trkpt lat="55.7820365019142627716064453125" lon="24.8345982469618320465087890625">
        <ele>65.59999847412109375</ele>
        <time>2026-07-26T08:45:01.000Z</time>
        <extensions>
          <ns3:TrackPointExtension>
            <ns3:hr>125</ns3:hr>
            <ns3:cad>57</ns3:cad>
          </ns3:TrackPointExtension>
        </extensions>
      </trkpt>
      <trkpt lat="55.78206106089055538177490234375" lon="24.83459430746734142303466796875">
        <ele>65.40000152587890625</ele>
        <time>2026-07-26T08:45:03.000Z</time>
        <extensions>
          <ns3:TrackPointExtension>
            <ns3:hr>125</ns3:hr>
            <ns3:cad>57</ns3:cad>
          </ns3:TrackPointExtension>
        </extensions>
      </trkpt>
      <trkpt lat="55.78215175308287143707275390625" lon="24.83454418368637561798095703125">
        <ele>65.1999969482421875</ele>
        <time>2026-07-26T08:45:10.000Z</time>
        <extensions>
          <ns3:TrackPointExtension>
            <ns3:hr>125</ns3:hr>
            <ns3:cad>53</ns3:cad>
          </ns3:TrackPointExtension>
        </extensions>
      </trkpt>
      <trkpt lat="55.7822872884571552276611328125" lon="24.8345063813030719757080078125">
        <ele>64.8000030517578125</ele>
        <time>2026-07-26T08:45:19.000Z</time>
        <extensions>
          <ns3:TrackPointExtension>
            <ns3:hr>124</ns3:hr>
            <ns3:cad>57</ns3:cad>
          </ns3:TrackPointExtension>
        </extensions>
      </trkpt>
      <trkpt lat="55.7823432795703411102294921875" lon="24.83449355699121952056884765625">
        <ele>64.59999847412109375</ele>
        <time>2026-07-26T08:45:23.000Z</time>
        <extensions>
          <ns3:TrackPointExtension>
            <ns3:hr>125</ns3:hr>
            <ns3:cad>57</ns3:cad>
          </ns3:TrackPointExtension>
        </extensions>
      </trkpt>
      <trkpt lat="55.7823892123997211456298828125" lon="24.8344876058399677276611328125">
        <ele>64.59999847412109375</ele>
        <time>2026-07-26T08:45:26.000Z</time>
        <extensions>
          <ns3:TrackPointExtension>
            <ns3:hr>125</ns3:hr>
            <ns3:cad>57</ns3:cad>
          </ns3:TrackPointExtension>
        </extensions>
      </trkpt>
      <trkpt lat="55.7824881188571453094482421875" lon="24.83445458114147186279296875">
        <ele>64.40000152587890625</ele>
        <time>2026-07-26T08:45:33.000Z</time>
        <extensions>
          <ns3:TrackPointExtension>
            <ns3:hr>122</ns3:hr>
            <ns3:cad>58</ns3:cad>
          </ns3:TrackPointExtension>
        </extensions>
      </trkpt>
      <trkpt lat="55.78250194899737834930419921875" lon="24.83444988727569580078125">
        <ele>64.1999969482421875</ele>
        <time>2026-07-26T08:45:34.000Z</time>
        <extensions>
          <ns3:TrackPointExtension>
            <ns3:hr>122</ns3:hr>
            <ns3:cad>58</ns3:cad>
          </ns3:TrackPointExtension>
        </extensions>
      </trkpt>
      <trkpt lat="55.7826747000217437744140625" lon="24.834418706595897674560546875">
        <ele>64</ele>
        <time>2026-07-26T08:45:46.000Z</time>
        <extensions>
          <ns3:TrackPointExtension>
            <ns3:hr>123</ns3:hr>
            <ns3:cad>57</ns3:cad>
          </ns3:TrackPointExtension>
        </extensions>
      </trkpt>
      <trkpt lat="55.78273312188684940338134765625" lon="24.83439699746668338775634765625">
        <ele>64</ele>
        <time>2026-07-26T08:45:50.000Z</time>
        <extensions>
          <ns3:TrackPointExtension>
            <ns3:hr>127</ns3:hr>
            <ns3:cad>57</ns3:cad>
          </ns3:TrackPointExtension>
        </extensions>
      </trkpt>
      <trkpt lat="55.7827737741172313690185546875" lon="24.83436204493045806884765625">
        <ele>64.40000152587890625</ele>
        <time>2026-07-26T08:45:54.000Z</time>
        <extensions>
          <ns3:TrackPointExtension>
            <ns3:hr>127</ns3:hr>
            <ns3:cad>57</ns3:cad>
          </ns3:TrackPointExtension>
        </extensions>
      </trkpt>
      <trkpt lat="55.78277067281305789947509765625" lon="24.83434871770441532135009765625">
        <ele>64.59999847412109375</ele>
        <time>2026-07-26T08:46:00.000Z</time>
        <extensions>
          <ns3:TrackPointExtension>
            <ns3:hr>126</ns3:hr>
            <ns3:cad>0</ns3:cad>
          </ns3:TrackPointExtension>
        </extensions>
      </trkpt>
      <trkpt lat="55.78278207220137119293212890625" lon="24.8343374021351337432861328125">
        <ele>64</ele>
        <time>2026-07-26T08:46:06.000Z</time>
        <extensions>
          <ns3:TrackPointExtension>
            <ns3:hr>129</ns3:hr>
            <ns3:cad>0</ns3:cad>
          </ns3:TrackPointExtension>
        </extensions>
      </trkpt>
      <trkpt lat="55.7827979139983654022216796875" lon="24.8343377374112606048583984375">
        <ele>63.799999237060546875</ele>
        <time>2026-07-26T08:46:09.000Z</time>
        <extensions>
          <ns3:TrackPointExtension>
            <ns3:hr>130</ns3:hr>
            <ns3:cad>0</ns3:cad>
          </ns3:TrackPointExtension>
        </extensions>
      </trkpt>
      <trkpt lat="55.78280520625412464141845703125" lon="24.8343385756015777587890625">
        <ele>63.799999237060546875</ele>
        <time>2026-07-26T08:46:14.000Z</time>
        <extensions>
          <ns3:TrackPointExtension>
            <ns3:hr>131</ns3:hr>
            <ns3:cad>0</ns3:cad>
          </ns3:TrackPointExtension>
        </extensions>
      </trkpt>
      <trkpt lat="55.7828166894614696502685546875" lon="24.83438978902995586395263671875">
        <ele>63.799999237060546875</ele>
        <time>2026-07-26T08:46:17.000Z</time>
        <extensions>
          <ns3:TrackPointExtension>
            <ns3:hr>134</ns3:hr>
            <ns3:cad>0</ns3:cad>
          </ns3:TrackPointExtension>
        </extensions>
      </trkpt>
      <trkpt lat="55.7828223891556262969970703125" lon="24.8344088159501552581787109375">
        <ele>63.799999237060546875</ele>
        <time>2026-07-26T08:46:18.000Z</time>
        <extensions>
          <ns3:TrackPointExtension>
            <ns3:hr>131</ns3:hr>
            <ns3:cad>0</ns3:cad>
          </ns3:TrackPointExtension>
        </extensions>
      </trkpt>
      <trkpt lat="55.7828275859355926513671875" lon="24.83443404547870159149169921875">
        <ele>63.59999847412109375</ele>
        <time>2026-07-26T08:46:20.000Z</time>
        <extensions>
          <ns3:TrackPointExtension>
            <ns3:hr>129</ns3:hr>
            <ns3:cad>51</ns3:cad>
          </ns3:TrackPointExtension>
        </extensions>
      </trkpt>
      <trkpt lat="55.7828358002007007598876953125" lon="24.83443823643028736114501953125">
        <ele>63.59999847412109375</ele>
        <time>2026-07-26T08:46:22.000Z</time>
        <extensions>
          <ns3:TrackPointExtension>
            <ns3:hr>129</ns3:hr>
            <ns3:cad>51</ns3:cad>
          </ns3:TrackPointExtension>
        </extensions>
      </trkpt>
      <trkpt lat="55.7828356325626373291015625" lon="24.83444762416183948516845703125">
        <ele>63.59999847412109375</ele>
        <time>2026-07-26T08:46:28.000Z</time>
        <extensions>
          <ns3:TrackPointExtension>
            <ns3:hr>129</ns3:hr>
            <ns3:cad>0</ns3:cad>
          </ns3:TrackPointExtension>
        </extensions>
      </trkpt>
      <trkpt lat="55.7828381471335887908935546875" lon="24.83445248566567897796630859375">
        <ele>63.59999847412109375</ele>
        <time>2026-07-26T08:46:32.000Z</time>
        <extensions>
          <ns3:TrackPointExtension>
            <ns3:hr>133</ns3:hr>
            <ns3:cad>0</ns3:cad>
          </ns3:TrackPointExtension>
        </extensions>
      </trkpt>
      <trkpt lat="55.78283772803843021392822265625" lon="24.83448802493512630462646484375">
        <ele>63.59999847412109375</ele>
        <time>2026-07-26T08:46:43.000Z</time>
        <extensions>
          <ns3:TrackPointExtension>
            <ns3:hr>132</ns3:hr>
            <ns3:cad>0</ns3:cad>
          </ns3:TrackPointExtension>
        </extensions>
      </trkpt>
      <trkpt lat="55.7828358002007007598876953125" lon="24.83449053950607776641845703125">
        <ele>63.40000152587890625</ele>
        <time>2026-07-26T08:46:46.000Z</time>
        <extensions>
          <ns3:TrackPointExtension>
            <ns3:hr>129</ns3:hr>
            <ns3:cad>0</ns3:cad>
          </ns3:TrackPointExtension>
        </extensions>
      </trkpt>
      <trkpt lat="55.78283764421939849853515625" lon="24.8344728536903858184814453125">
        <ele>63.40000152587890625</ele>
        <time>2026-07-26T08:46:49.000Z</time>
        <extensions>
          <ns3:TrackPointExtension>
            <ns3:hr>126</ns3:hr>
            <ns3:cad>0</ns3:cad>
          </ns3:TrackPointExtension>
        </extensions>
      </trkpt>
      <trkpt lat="55.78285968862473964691162109375" lon="24.83444209210574626922607421875">
        <ele>63.59999847412109375</ele>
        <time>2026-07-26T08:46:52.000Z</time>
        <extensions>
          <ns3:TrackPointExtension>
            <ns3:hr>125</ns3:hr>
            <ns3:cad>0</ns3:cad>
          </ns3:TrackPointExtension>
        </extensions>
      </trkpt>
      <trkpt lat="55.7828780449926853179931640625" lon="24.83441694639623165130615234375">
        <ele>63.40000152587890625</ele>
        <time>2026-07-26T08:46:57.000Z</time>
        <extensions>
          <ns3:TrackPointExtension>
            <ns3:hr>128</ns3:hr>
            <ns3:cad>0</ns3:cad>
          </ns3:TrackPointExtension>
        </extensions>
      </trkpt>
      <trkpt lat="55.78287184238433837890625" lon="24.83441242016851902008056640625">
        <ele>63.40000152587890625</ele>
        <time>2026-07-26T08:47:00.000Z</time>
        <extensions>
          <ns3:TrackPointExtension>
            <ns3:hr>127</ns3:hr>
            <ns3:cad>0</ns3:cad>
          </ns3:TrackPointExtension>
        </extensions>
      </trkpt>
      <trkpt lat="55.78281442634761333465576171875" lon="24.83435777015984058380126953125">
        <ele>63.40000152587890625</ele>
        <time>2026-07-26T08:47:06.000Z</time>
        <extensions>
          <ns3:TrackPointExtension>
            <ns3:hr>125</ns3:hr>
            <ns3:cad>56</ns3:cad>
          </ns3:TrackPointExtension>
        </extensions>
      </trkpt>
      <trkpt lat="55.78278358094394207000732421875" lon="24.83435726724565029144287109375">
        <ele>63.59999847412109375</ele>
        <time>2026-07-26T08:47:13.000Z</time>
        <extensions>
          <ns3:TrackPointExtension>
            <ns3:hr>124</ns3:hr>
            <ns3:cad>0</ns3:cad>
          </ns3:TrackPointExtension>
        </extensions>
      </trkpt>
      <trkpt lat="55.78276522457599639892578125" lon="24.8343732766807079315185546875">
        <ele>63.59999847412109375</ele>
        <time>2026-07-26T08:47:20.000Z</time>
        <extensions>
          <ns3:TrackPointExtension>
            <ns3:hr>121</ns3:hr>
            <ns3:cad>0</ns3:cad>
          </ns3:TrackPointExtension>
        </extensions>
      </trkpt>
      <trkpt lat="55.78268283046782016754150390625" lon="24.83441007323563098907470703125">
        <ele>63.799999237060546875</ele>
        <time>2026-07-26T08:47:28.000Z</time>
        <extensions>
          <ns3:TrackPointExtension>
            <ns3:hr>122</ns3:hr>
            <ns3:cad>53</ns3:cad>
          </ns3:TrackPointExtension>
        </extensions>
      </trkpt>
      <trkpt lat="55.78258241526782512664794921875" lon="24.83443220146000385284423828125">
        <ele>64</ele>
        <time>2026-07-26T08:47:36.000Z</time>
        <extensions>
          <ns3:TrackPointExtension>
            <ns3:hr>120</ns3:hr>
            <ns3:cad>55</ns3:cad>
          </ns3:TrackPointExtension>
        </extensions>
      </trkpt>
      <trkpt lat="55.78248736448585987091064453125" lon="24.83445449732244014739990234375">
        <ele>64.1999969482421875</ele>
        <time>2026-07-26T08:47:43.000Z</time>
        <extensions>
          <ns3:TrackPointExtension>
            <ns3:hr>120</ns3:hr>
            <ns3:cad>56</ns3:cad>
          </ns3:TrackPointExtension>
        </extensions>
      </trkpt>
      <trkpt lat="55.78234638087451457977294921875" lon="24.834497161209583282470703125">
        <ele>64.40000152587890625</ele>
        <time>2026-07-26T08:47:53.000Z</time>
        <extensions>
          <ns3:TrackPointExtension>
            <ns3:hr>122</ns3:hr>
            <ns3:cad>56</ns3:cad>
          </ns3:TrackPointExtension>
        </extensions>
      </trkpt>
      <trkpt lat="55.7822215743362903594970703125" lon="24.8345389030873775482177734375">
        <ele>64.40000152587890625</ele>
        <time>2026-07-26T08:48:02.000Z</time>
        <extensions>
          <ns3:TrackPointExtension>
            <ns3:hr>122</ns3:hr>
            <ns3:cad>56</ns3:cad>
          </ns3:TrackPointExtension>
        </extensions>
      </trkpt>
      <trkpt lat="55.782145299017429351806640625" lon="24.83457318507134914398193359375">
        <ele>64.59999847412109375</ele>
        <time>2026-07-26T08:48:09.000Z</time>
        <extensions>
          <ns3:TrackPointExtension>
            <ns3:hr>123</ns3:hr>
            <ns3:cad>55</ns3:cad>
          </ns3:TrackPointExtension>
        </extensions>
      </trkpt>
      <trkpt lat="55.7820485718548297882080078125" lon="24.8346109874546527862548828125">
        <ele>64.59999847412109375</ele>
        <time>2026-07-26T08:48:16.000Z</time>
        <extensions>
          <ns3:TrackPointExtension>
            <ns3:hr>122</ns3:hr>
            <ns3:cad>53</ns3:cad>
          </ns3:TrackPointExtension>
        </extensions>
      </trkpt>
      <trkpt lat="55.78197053633630275726318359375" lon="24.83464744873344898223876953125">
        <ele>65.1999969482421875</ele>
        <time>2026-07-26T08:48:22.000Z</time>
        <extensions>
          <ns3:TrackPointExtension>
            <ns3:hr>123</ns3:hr>
            <ns3:cad>59</ns3:cad>
          </ns3:TrackPointExtension>
        </extensions>
      </trkpt>
      <trkpt lat="55.781879760324954986572265625" lon="24.8346894420683383941650390625">
        <ele>65.40000152587890625</ele>
        <time>2026-07-26T08:48:29.000Z</time>
        <extensions>
          <ns3:TrackPointExtension>
            <ns3:hr>125</ns3:hr>
            <ns3:cad>53</ns3:cad>
          </ns3:TrackPointExtension>
        </extensions>
      </trkpt>
      <trkpt lat="55.78184648416936397552490234375" lon="24.834711737930774688720703125">
        <ele>65.59999847412109375</ele>
        <time>2026-07-26T08:48:31.000Z</time>
        <extensions>
          <ns3:TrackPointExtension>
            <ns3:hr>126</ns3:hr>
            <ns3:cad>55</ns3:cad>
          </ns3:TrackPointExtension>
        </extensions>
      </trkpt>
      <trkpt lat="55.78181630931794643402099609375" lon="24.8347145877778530120849609375">
        <ele>66.1999969482421875</ele>
        <time>2026-07-26T08:48:33.000Z</time>
        <extensions>
          <ns3:TrackPointExtension>
            <ns3:hr>127</ns3:hr>
            <ns3:cad>54</ns3:cad>
          </ns3:TrackPointExtension>
        </extensions>
      </trkpt>
      <trkpt lat="55.78179837204515933990478515625" lon="24.834684915840625762939453125">
        <ele>66.59999847412109375</ele>
        <time>2026-07-26T08:48:35.000Z</time>
        <extensions>
          <ns3:TrackPointExtension>
            <ns3:hr>128</ns3:hr>
            <ns3:cad>53</ns3:cad>
          </ns3:TrackPointExtension>
        </extensions>
      </trkpt>
      <trkpt lat="55.78178529627621173858642578125" lon="24.83466555364429950714111328125">
        <ele>66.8000030517578125</ele>
        <time>2026-07-26T08:48:36.000Z</time>
        <extensions>
          <ns3:TrackPointExtension>
            <ns3:hr>129</ns3:hr>
            <ns3:cad>53</ns3:cad>
          </ns3:TrackPointExtension>
        </extensions>
      </trkpt>
      <trkpt lat="55.781740956008434295654296875" lon="24.83457871712744235992431640625">
        <ele>67.1999969482421875</ele>
        <time>2026-07-26T08:48:41.000Z</time>
        <extensions>
          <ns3:TrackPointExtension>
            <ns3:hr>130</ns3:hr>
            <ns3:cad>57</ns3:cad>
          </ns3:TrackPointExtension>
        </extensions>
      </trkpt>
      <trkpt lat="55.7816723920404911041259765625" lon="24.83441208489239215850830078125">
        <ele>67</ele>
        <time>2026-07-26T08:48:49.000Z</time>
        <extensions>
          <ns3:TrackPointExtension>
            <ns3:hr>132</ns3:hr>
            <ns3:cad>57</ns3:cad>
          </ns3:TrackPointExtension>
        </extensions>
      </trkpt>
      <trkpt lat="55.7816073484718799591064453125" lon="24.83431770466268062591552734375">
        <ele>67</ele>
        <time>2026-07-26T08:48:55.000Z</time>
        <extensions>
          <ns3:TrackPointExtension>
            <ns3:hr>134</ns3:hr>
            <ns3:cad>59</ns3:cad>
          </ns3:TrackPointExtension>
        </extensions>
      </trkpt>
      <trkpt lat="55.78153836540877819061279296875" lon="24.83414076268672943115234375">
        <ele>66.59999847412109375</ele>
        <time>2026-07-26T08:49:03.000Z</time>
        <extensions>
          <ns3:TrackPointExtension>
            <ns3:hr>134</ns3:hr>
            <ns3:cad>58</ns3:cad>
          </ns3:TrackPointExtension>
        </extensions>
      </trkpt>
      <trkpt lat="55.7814864814281463623046875" lon="24.83399726450443267822265625">
        <ele>66.59999847412109375</ele>
        <time>2026-07-26T08:49:10.000Z</time>
        <extensions>
          <ns3:TrackPointExtension>
            <ns3:hr>135</ns3:hr>
            <ns3:cad>59</ns3:cad>
          </ns3:TrackPointExtension>
        </extensions>
      </trkpt>
      <trkpt lat="55.78141330741345882415771484375" lon="24.833816550672054290771484375">
        <ele>67</ele>
        <time>2026-07-26T08:49:19.000Z</time>
        <extensions>
          <ns3:TrackPointExtension>
            <ns3:hr>134</ns3:hr>
            <ns3:cad>59</ns3:cad>
          </ns3:TrackPointExtension>
        </extensions>
      </trkpt>
      <trkpt lat="55.78133602626621723175048828125" lon="24.8336048237979412078857421875">
        <ele>67</ele>
        <time>2026-07-26T08:49:29.000Z</time>
        <extensions>
          <ns3:TrackPointExtension>
            <ns3:hr>133</ns3:hr>
            <ns3:cad>58</ns3:cad>
          </ns3:TrackPointExtension>
        </extensions>
      </trkpt>
      <trkpt lat="55.78128221444785594940185546875" lon="24.83343794010579586029052734375">
        <ele>67</ele>
        <time>2026-07-26T08:49:37.000Z</time>
        <extensions>
          <ns3:TrackPointExtension>
            <ns3:hr>130</ns3:hr>
            <ns3:cad>59</ns3:cad>
          </ns3:TrackPointExtension>
        </extensions>
      </trkpt>
      <trkpt lat="55.78120493330061435699462890625" lon="24.8332537896931171417236328125">
        <ele>67</ele>
        <time>2026-07-26T08:49:45.000Z</time>
        <extensions>
          <ns3:TrackPointExtension>
            <ns3:hr>130</ns3:hr>
            <ns3:cad>59</ns3:cad>
          </ns3:TrackPointExtension>
        </extensions>
      </trkpt>
      <trkpt lat="55.78113569878041744232177734375" lon="24.8330693878233432769775390625">
        <ele>67.40000152587890625</ele>
        <time>2026-07-26T08:49:54.000Z</time>
        <extensions>
          <ns3:TrackPointExtension>
            <ns3:hr>128</ns3:hr>
            <ns3:cad>58</ns3:cad>
          </ns3:TrackPointExtension>
        </extensions>
      </trkpt>
      <trkpt lat="55.78111859969794750213623046875" lon="24.83302940614521503448486328125">
        <ele>67.8000030517578125</ele>
        <time>2026-07-26T08:49:56.000Z</time>
        <extensions>
          <ns3:TrackPointExtension>
            <ns3:hr>127</ns3:hr>
            <ns3:cad>58</ns3:cad>
          </ns3:TrackPointExtension>
        </extensions>
      </trkpt>
      <trkpt lat="55.78106193803250789642333984375" lon="24.8328725807368755340576171875">
        <ele>67.40000152587890625</ele>
        <time>2026-07-26T08:50:04.000Z</time>
        <extensions>
          <ns3:TrackPointExtension>
            <ns3:hr>128</ns3:hr>
            <ns3:cad>58</ns3:cad>
          </ns3:TrackPointExtension>
        </extensions>
      </trkpt>
      <trkpt lat="55.78097845427691936492919921875" lon="24.83267962932586669921875">
        <ele>67.8000030517578125</ele>
        <time>2026-07-26T08:50:14.000Z</time>
        <extensions>
          <ns3:TrackPointExtension>
            <ns3:hr>127</ns3:hr>
            <ns3:cad>60</ns3:cad>
          </ns3:TrackPointExtension>
        </extensions>
      </trkpt>
      <trkpt lat="55.780907459557056427001953125" lon="24.8324679024517536163330078125">
        <ele>68.40000152587890625</ele>
        <time>2026-07-26T08:50:23.000Z</time>
        <extensions>
          <ns3:TrackPointExtension>
            <ns3:hr>125</ns3:hr>
            <ns3:cad>59</ns3:cad>
          </ns3:TrackPointExtension>
        </extensions>
      </trkpt>
      <trkpt lat="55.78083495609462261199951171875" lon="24.8322948999702930450439453125">
        <ele>68.8000030517578125</ele>
        <time>2026-07-26T08:50:32.000Z</time>
        <extensions>
          <ns3:TrackPointExtension>
            <ns3:hr>126</ns3:hr>
            <ns3:cad>57</ns3:cad>
          </ns3:TrackPointExtension>
        </extensions>
      </trkpt>
      <trkpt lat="55.7808321900665760040283203125" lon="24.8322975821793079376220703125">
        <ele>68.8000030517578125</ele>
        <time>2026-07-26T08:50:33.000Z</time>
        <extensions>
          <ns3:TrackPointExtension>
            <ns3:hr>126</ns3:hr>
            <ns3:cad>56</ns3:cad>
          </ns3:TrackPointExtension>
        </extensions>
      </trkpt>
      <trkpt lat="55.78081266023218631744384765625" lon="24.83229129575192928314208984375">
        <ele>68.8000030517578125</ele>
        <time>2026-07-26T08:50:38.000Z</time>
        <extensions>
          <ns3:TrackPointExtension>
            <ns3:hr>128</ns3:hr>
            <ns3:cad>0</ns3:cad>
          </ns3:TrackPointExtension>
        </extensions>
      </trkpt>
      <trkpt lat="55.78079438768327236175537109375" lon="24.8321721889078617095947265625">
        <ele>68.40000152587890625</ele>
        <time>2026-07-26T08:50:44.000Z</time>
        <extensions>
          <ns3:TrackPointExtension>
            <ns3:hr>127</ns3:hr>
            <ns3:cad>0</ns3:cad>
          </ns3:TrackPointExtension>
        </extensions>
      </trkpt>
      <trkpt lat="55.78074577264487743377685546875" lon="24.8319663293659687042236328125">
        <ele>68</ele>
        <time>2026-07-26T08:50:53.000Z</time>
        <extensions>
          <ns3:TrackPointExtension>
            <ns3:hr>128</ns3:hr>
            <ns3:cad>60</ns3:cad>
          </ns3:TrackPointExtension>
        </extensions>
      </trkpt>
      <trkpt lat="55.78071467578411102294921875" lon="24.83181453309953212738037109375">
        <ele>67.8000030517578125</ele>
        <time>2026-07-26T08:50:59.000Z</time>
        <extensions>
          <ns3:TrackPointExtension>
            <ns3:hr>128</ns3:hr>
            <ns3:cad>59</ns3:cad>
          </ns3:TrackPointExtension>
        </extensions>
      </trkpt>
      <trkpt lat="55.7806977443397045135498046875" lon="24.831704981625080108642578125">
        <ele>67.8000030517578125</ele>
        <time>2026-07-26T08:51:03.000Z</time>
        <extensions>
          <ns3:TrackPointExtension>
            <ns3:hr>128</ns3:hr>
            <ns3:cad>58</ns3:cad>
          </ns3:TrackPointExtension>
        </extensions>
      </trkpt>
      <trkpt lat="55.7806675694882869720458984375" lon="24.83142645098268985748291015625">
        <ele>68</ele>
        <time>2026-07-26T08:51:14.000Z</time>
        <extensions>
          <ns3:TrackPointExtension>
            <ns3:hr>127</ns3:hr>
            <ns3:cad>57</ns3:cad>
          </ns3:TrackPointExtension>
        </extensions>
      </trkpt>
      <trkpt lat="55.7806692458689212799072265625" lon="24.83121925033628940582275390625">
        <ele>68.1999969482421875</ele>
        <time>2026-07-26T08:51:23.000Z</time>
        <extensions>
          <ns3:TrackPointExtension>
            <ns3:hr>130</ns3:hr>
            <ns3:cad>57</ns3:cad>
          </ns3:TrackPointExtension>
        </extensions>
      </trkpt>
      <trkpt lat="55.78066932968795299530029296875" lon="24.83119343407452106475830078125">
        <ele>68.1999969482421875</ele>
        <time>2026-07-26T08:51:24.000Z</time>
        <extensions>
          <ns3:TrackPointExtension>
            <ns3:hr>130</ns3:hr>
            <ns3:cad>57</ns3:cad>
          </ns3:TrackPointExtension>
        </extensions>
      </trkpt>
      <trkpt lat="55.7806833274662494659423828125" lon="24.8309809528291225433349609375">
        <ele>68.1999969482421875</ele>
        <time>2026-07-26T08:51:32.000Z</time>
        <extensions>
          <ns3:TrackPointExtension>
            <ns3:hr>130</ns3:hr>
            <ns3:cad>59</ns3:cad>
          </ns3:TrackPointExtension>
        </extensions>
      </trkpt>
      <trkpt lat="55.78070889227092266082763671875" lon="24.83084457926452159881591796875">
        <ele>68</ele>
        <time>2026-07-26T08:51:38.000Z</time>
        <extensions>
          <ns3:TrackPointExtension>
            <ns3:hr>127</ns3:hr>
            <ns3:cad>59</ns3:cad>
          </ns3:TrackPointExtension>
        </extensions>
      </trkpt>
      <trkpt lat="55.7807255722582340240478515625" lon="24.830795712769031524658203125">
        <ele>68</ele>
        <time>2026-07-26T08:51:40.000Z</time>
        <extensions>
          <ns3:TrackPointExtension>
            <ns3:hr>127</ns3:hr>
            <ns3:cad>59</ns3:cad>
          </ns3:TrackPointExtension>
        </extensions>
      </trkpt>
      <trkpt lat="55.7807865925133228302001953125" lon="24.83059764839708805084228515625">
        <ele>67.59999847412109375</ele>
        <time>2026-07-26T08:51:49.000Z</time>
        <extensions>
          <ns3:TrackPointExtension>
            <ns3:hr>125</ns3:hr>
            <ns3:cad>57</ns3:cad>
          </ns3:TrackPointExtension>
        </extensions>
      </trkpt>
      <trkpt lat="55.7808070443570613861083984375" lon="24.830448366701602935791015625">
        <ele>67</ele>
        <time>2026-07-26T08:51:56.000Z</time>
        <extensions>
          <ns3:TrackPointExtension>
            <ns3:hr>122</ns3:hr>
            <ns3:cad>0</ns3:cad>
          </ns3:TrackPointExtension>
        </extensions>
      </trkpt>
      <trkpt lat="55.78080863691866397857666015625" lon="24.830428250133991241455078125">
        <ele>67</ele>
        <time>2026-07-26T08:51:57.000Z</time>
        <extensions>
          <ns3:TrackPointExtension>
            <ns3:hr>121</ns3:hr>
            <ns3:cad>57</ns3:cad>
          </ns3:TrackPointExtension>
        </extensions>
      </trkpt>
      <trkpt lat="55.780843086540699005126953125" lon="24.83029849827289581298828125">
        <ele>67.1999969482421875</ele>
        <time>2026-07-26T08:52:04.000Z</time>
        <extensions>
          <ns3:TrackPointExtension>
            <ns3:hr>121</ns3:hr>
            <ns3:cad>0</ns3:cad>
          </ns3:TrackPointExtension>
        </extensions>
      </trkpt>
      <trkpt lat="55.780826993286609649658203125" lon="24.83031802810728549957275390625">
        <ele>68</ele>
        <time>2026-07-26T08:52:14.000Z</time>
        <extensions>
          <ns3:TrackPointExtension>
            <ns3:hr>121</ns3:hr>
            <ns3:cad>0</ns3:cad>
          </ns3:TrackPointExtension>
        </extensions>
      </trkpt>
      <trkpt lat="55.7808427512645721435546875" lon="24.83046504668891429901123046875">
        <ele>67.1999969482421875</ele>
        <time>2026-07-26T08:52:22.000Z</time>
        <extensions>
          <ns3:TrackPointExtension>
            <ns3:hr>120</ns3:hr>
            <ns3:cad>55</ns3:cad>
          </ns3:TrackPointExtension>
        </extensions>
      </trkpt>
      <trkpt lat="55.780910141766071319580078125" lon="24.83049237169325351715087890625">
        <ele>67</ele>
        <time>2026-07-26T08:52:28.000Z</time>
        <extensions>
          <ns3:TrackPointExtension>
            <ns3:hr>119</ns3:hr>
            <ns3:cad>56</ns3:cad>
          </ns3:TrackPointExtension>
        </extensions>
      </trkpt>
      <trkpt lat="55.78094811178743839263916015625" lon="24.830479212105274200439453125">
        <ele>67.40000152587890625</ele>
        <time>2026-07-26T08:52:33.000Z</time>
        <extensions>
          <ns3:TrackPointExtension>
            <ns3:hr>119</ns3:hr>
            <ns3:cad>54</ns3:cad>
          </ns3:TrackPointExtension>
        </extensions>
      </trkpt>
      <trkpt lat="55.7809461839497089385986328125" lon="24.8304896056652069091796875">
        <ele>67</ele>
        <time>2026-07-26T08:52:40.000Z</time>
        <extensions>
          <ns3:TrackPointExtension>
            <ns3:hr>119</ns3:hr>
            <ns3:cad>0</ns3:cad>
          </ns3:TrackPointExtension>
        </extensions>
      </trkpt>
      <trkpt lat="55.7809312641620635986328125" lon="24.83049094676971435546875">
        <ele>66.8000030517578125</ele>
        <time>2026-07-26T08:52:42.000Z</time>
        <extensions>
          <ns3:TrackPointExtension>
            <ns3:hr>119</ns3:hr>
            <ns3:cad>0</ns3:cad>
          </ns3:TrackPointExtension>
        </extensions>
      </trkpt>
      <trkpt lat="55.78086261637508869171142578125" lon="24.830479212105274200439453125">
        <ele>67.1999969482421875</ele>
        <time>2026-07-26T08:52:47.000Z</time>
        <extensions>
          <ns3:TrackPointExtension>
            <ns3:hr>119</ns3:hr>
            <ns3:cad>0</ns3:cad>
          </ns3:TrackPointExtension>
        </extensions>
      </trkpt>
      <trkpt lat="55.78080813400447368621826171875" lon="24.830399416387081146240234375">
        <ele>67.8000030517578125</ele>
        <time>2026-07-26T08:52:52.000Z</time>
        <extensions>
          <ns3:TrackPointExtension>
            <ns3:hr>117</ns3:hr>
            <ns3:cad>55</ns3:cad>
          </ns3:TrackPointExtension>
        </extensions>
      </trkpt>
      <trkpt lat="55.7808020152151584625244140625" lon="24.83036412857472896575927734375">
        <ele>68</ele>
        <time>2026-07-26T08:52:54.000Z</time>
        <extensions>
          <ns3:TrackPointExtension>
            <ns3:hr>116</ns3:hr>
            <ns3:cad>56</ns3:cad>
          </ns3:TrackPointExtension>
        </extensions>
      </trkpt>
      <trkpt lat="55.78081115148961544036865234375" lon="24.83019347302615642547607421875">
        <ele>68</ele>
        <time>2026-07-26T08:53:00.000Z</time>
        <extensions>
          <ns3:TrackPointExtension>
            <ns3:hr>117</ns3:hr>
            <ns3:cad>55</ns3:cad>
          </ns3:TrackPointExtension>
        </extensions>
      </trkpt>
      <trkpt lat="55.78081400133669376373291015625" lon="24.8300304450094699859619140625">
        <ele>67.8000030517578125</ele>
        <time>2026-07-26T08:53:06.000Z</time>
        <extensions>
          <ns3:TrackPointExtension>
            <ns3:hr>118</ns3:hr>
            <ns3:cad>57</ns3:cad>
          </ns3:TrackPointExtension>
        </extensions>
      </trkpt>
      <trkpt lat="55.78081081621348857879638671875" lon="24.8298447020351886749267578125">
        <ele>66.8000030517578125</ele>
        <time>2026-07-26T08:53:14.000Z</time>
        <extensions>
          <ns3:TrackPointExtension>
            <ns3:hr>120</ns3:hr>
            <ns3:cad>57</ns3:cad>
          </ns3:TrackPointExtension>
        </extensions>
      </trkpt>
      <trkpt lat="55.7808063738048076629638671875" lon="24.82962752692401409149169921875">
        <ele>66.8000030517578125</ele>
        <time>2026-07-26T08:53:23.000Z</time>
        <extensions>
          <ns3:TrackPointExtension>
            <ns3:hr>119</ns3:hr>
            <ns3:cad>57</ns3:cad>
          </ns3:TrackPointExtension>
        </extensions>
      </trkpt>
      <trkpt lat="55.78080930747091770172119140625" lon="24.82952459715306758880615234375">
        <ele>68</ele>
        <time>2026-07-26T08:53:27.000Z</time>
        <extensions>
          <ns3:TrackPointExtension>
            <ns3:hr>119</ns3:hr>
            <ns3:cad>58</ns3:cad>
          </ns3:TrackPointExtension>
        </extensions>
      </trkpt>
      <trkpt lat="55.78080855309963226318359375" lon="24.8294547758996486663818359375">
        <ele>68</ele>
        <time>2026-07-26T08:53:30.000Z</time>
        <extensions>
          <ns3:TrackPointExtension>
            <ns3:hr>116</ns3:hr>
            <ns3:cad>59</ns3:cad>
          </ns3:TrackPointExtension>
        </extensions>
      </trkpt>
      <trkpt lat="55.78080696053802967071533203125" lon="24.82943340204656124114990234375">
        <ele>67.8000030517578125</ele>
        <time>2026-07-26T08:53:31.000Z</time>
        <extensions>
          <ns3:TrackPointExtension>
            <ns3:hr>115</ns3:hr>
            <ns3:cad>59</ns3:cad>
          </ns3:TrackPointExtension>
        </extensions>
      </trkpt>
      <trkpt lat="55.780810229480266571044921875" lon="24.82936550863087177276611328125">
        <ele>67.40000152587890625</ele>
        <time>2026-07-26T08:53:34.000Z</time>
        <extensions>
          <ns3:TrackPointExtension>
            <ns3:hr>112</ns3:hr>
            <ns3:cad>59</ns3:cad>
          </ns3:TrackPointExtension>
        </extensions>
      </trkpt>
      <trkpt lat="55.7808212935924530029296875" lon="24.8292033188045024871826171875">
        <ele>67.59999847412109375</ele>
        <time>2026-07-26T08:53:41.000Z</time>
        <extensions>
          <ns3:TrackPointExtension>
            <ns3:hr>111</ns3:hr>
            <ns3:cad>59</ns3:cad>
          </ns3:TrackPointExtension>
        </extensions>
      </trkpt>
      <trkpt lat="55.78084073960781097412109375" lon="24.82904280535876750946044921875">
        <ele>67</ele>
        <time>2026-07-26T08:53:48.000Z</time>
        <extensions>
          <ns3:TrackPointExtension>
            <ns3:hr>112</ns3:hr>
            <ns3:cad>57</ns3:cad>
          </ns3:TrackPointExtension>
        </extensions>
      </trkpt>
      <trkpt lat="55.78085406683385372161865234375" lon="24.82894557528197765350341796875">
        <ele>66.8000030517578125</ele>
        <time>2026-07-26T08:53:52.000Z</time>
        <extensions>
          <ns3:TrackPointExtension>
            <ns3:hr>112</ns3:hr>
            <ns3:cad>57</ns3:cad>
          </ns3:TrackPointExtension>
        </extensions>
      </trkpt>
      <trkpt lat="55.78086487948894500732421875" lon="24.82872513122856616973876953125">
        <ele>66.8000030517578125</ele>
        <time>2026-07-26T08:54:00.000Z</time>
        <extensions>
          <ns3:TrackPointExtension>
            <ns3:hr>113</ns3:hr>
            <ns3:cad>59</ns3:cad>
          </ns3:TrackPointExtension>
        </extensions>
      </trkpt>
      <trkpt lat="55.780878625810146331787109375" lon="24.82852161861956119537353515625">
        <ele>67</ele>
        <time>2026-07-26T08:54:07.000Z</time>
        <extensions>
          <ns3:TrackPointExtension>
            <ns3:hr>112</ns3:hr>
            <ns3:cad>57</ns3:cad>
          </ns3:TrackPointExtension>
        </extensions>
      </trkpt>
      <trkpt lat="55.7808848284184932708740234375" lon="24.8284043557941913604736328125">
        <ele>67.40000152587890625</ele>
        <time>2026-07-26T08:54:13.000Z</time>
        <extensions>
          <ns3:TrackPointExtension>
            <ns3:hr>115</ns3:hr>
            <ns3:cad>0</ns3:cad>
          </ns3:TrackPointExtension>
        </extensions>
      </trkpt>
      <trkpt lat="55.78088608570396900177001953125" lon="24.8283909447491168975830078125">
        <ele>67.40000152587890625</ele>
        <time>2026-07-26T08:54:14.000Z</time>
        <extensions>
          <ns3:TrackPointExtension>
            <ns3:hr>122</ns3:hr>
            <ns3:cad>57</ns3:cad>
          </ns3:TrackPointExtension>
        </extensions>
      </trkpt>
      <trkpt lat="55.7808861695230007171630859375" lon="24.8283778689801692962646484375">
        <ele>67.40000152587890625</ele>
        <time>2026-07-26T08:54:15.000Z</time>
        <extensions>
          <ns3:TrackPointExtension>
            <ns3:hr>125</ns3:hr>
            <ns3:cad>57</ns3:cad>
          </ns3:TrackPointExtension>
        </extensions>
      </trkpt>
      <trkpt lat="55.7808885164558887481689453125" lon="24.8283599317073822021484375">
        <ele>67.1999969482421875</ele>
        <time>2026-07-26T08:54:16.000Z</time>
        <extensions>
          <ns3:TrackPointExtension>
            <ns3:hr>125</ns3:hr>
            <ns3:cad>57</ns3:cad>
          </ns3:TrackPointExtension>
        </extensions>
      </trkpt>
      <trkpt lat="55.780894048511981964111328125" lon="24.82828424312174320220947265625">
        <ele>67</ele>
        <time>2026-07-26T08:54:19.000Z</time>
        <extensions>
          <ns3:TrackPointExtension>
            <ns3:hr>125</ns3:hr>
            <ns3:cad>57</ns3:cad>
          </ns3:TrackPointExtension>
        </extensions>
      </trkpt>
      <trkpt lat="55.7809086330235004425048828125" lon="24.8280690796673297882080078125">
        <ele>67</ele>
        <time>2026-07-26T08:54:27.000Z</time>
        <extensions>
          <ns3:TrackPointExtension>
            <ns3:hr>123</ns3:hr>
            <ns3:cad>58</ns3:cad>
          </ns3:TrackPointExtension>
        </extensions>
      </trkpt>
      <trkpt lat="55.7809257321059703826904296875" lon="24.8278783075511455535888671875">
        <ele>67</ele>
        <time>2026-07-26T08:54:35.000Z</time>
        <extensions>
          <ns3:TrackPointExtension>
            <ns3:hr>123</ns3:hr>
            <ns3:cad>58</ns3:cad>
          </ns3:TrackPointExtension>
        </extensions>
      </trkpt>
      <trkpt lat="55.78094668686389923095703125" lon="24.82762031257152557373046875">
        <ele>67</ele>
        <time>2026-07-26T08:54:45.000Z</time>
        <extensions>
          <ns3:TrackPointExtension>
            <ns3:hr>124</ns3:hr>
            <ns3:cad>58</ns3:cad>
          </ns3:TrackPointExtension>
        </extensions>
      </trkpt>
      <trkpt lat="55.78097560442984104156494140625" lon="24.82741537503898143768310546875">
        <ele>67</ele>
        <time>2026-07-26T08:54:54.000Z</time>
        <extensions>
          <ns3:TrackPointExtension>
            <ns3:hr>124</ns3:hr>
            <ns3:cad>59</ns3:cad>
          </ns3:TrackPointExtension>
        </extensions>
      </trkpt>
      <trkpt lat="55.78098381869494915008544921875" lon="24.82718638144433498382568359375">
        <ele>67</ele>
        <time>2026-07-26T08:55:02.000Z</time>
        <extensions>
          <ns3:TrackPointExtension>
            <ns3:hr>123</ns3:hr>
            <ns3:cad>57</ns3:cad>
          </ns3:TrackPointExtension>
        </extensions>
      </trkpt>
      <trkpt lat="55.78100158832967281341552734375" lon="24.82700633816421031951904296875">
        <ele>67.1999969482421875</ele>
        <time>2026-07-26T08:55:09.000Z</time>
        <extensions>
          <ns3:TrackPointExtension>
            <ns3:hr>124</ns3:hr>
            <ns3:cad>59</ns3:cad>
          </ns3:TrackPointExtension>
        </extensions>
      </trkpt>
      <trkpt lat="55.78101919032633304595947265625" lon="24.8267782665789127349853515625">
        <ele>67</ele>
        <time>2026-07-26T08:55:18.000Z</time>
        <extensions>
          <ns3:TrackPointExtension>
            <ns3:hr>121</ns3:hr>
            <ns3:cad>58</ns3:cad>
          </ns3:TrackPointExtension>
        </extensions>
      </trkpt>
      <trkpt lat="55.78105221502482891082763671875" lon="24.8264912702143192291259765625">
        <ele>67</ele>
        <time>2026-07-26T08:55:29.000Z</time>
        <extensions>
          <ns3:TrackPointExtension>
            <ns3:hr>120</ns3:hr>
            <ns3:cad>58</ns3:cad>
          </ns3:TrackPointExtension>
        </extensions>
      </trkpt>
      <trkpt lat="55.78108591027557849884033203125" lon="24.82622967101633548736572265625">
        <ele>67</ele>
        <time>2026-07-26T08:55:39.000Z</time>
        <extensions>
          <ns3:TrackPointExtension>
            <ns3:hr>120</ns3:hr>
            <ns3:cad>58</ns3:cad>
          </ns3:TrackPointExtension>
        </extensions>
      </trkpt>
      <trkpt lat="55.7810963876545429229736328125" lon="24.825979135930538177490234375">
        <ele>67.40000152587890625</ele>
        <time>2026-07-26T08:55:48.000Z</time>
        <extensions>
          <ns3:TrackPointExtension>
            <ns3:hr>122</ns3:hr>
            <ns3:cad>57</ns3:cad>
          </ns3:TrackPointExtension>
        </extensions>
      </trkpt>
      <trkpt lat="55.781118012964725494384765625" lon="24.82578475959599018096923828125">
        <ele>67.40000152587890625</ele>
        <time>2026-07-26T08:55:57.000Z</time>
        <extensions>
          <ns3:TrackPointExtension>
            <ns3:hr>122</ns3:hr>
            <ns3:cad>58</ns3:cad>
          </ns3:TrackPointExtension>
        </extensions>
      </trkpt>
      <trkpt lat="55.7811372913420200347900390625" lon="24.82559247873723506927490234375">
        <ele>67.40000152587890625</ele>
        <time>2026-07-26T08:56:04.000Z</time>
        <extensions>
          <ns3:TrackPointExtension>
            <ns3:hr>125</ns3:hr>
            <ns3:cad>58</ns3:cad>
          </ns3:TrackPointExtension>
        </extensions>
      </trkpt>
      <trkpt lat="55.78113980591297149658203125" lon="24.8255303688347339630126953125">
        <ele>67.40000152587890625</ele>
        <time>2026-07-26T08:56:06.000Z</time>
        <extensions>
          <ns3:TrackPointExtension>
            <ns3:hr>125</ns3:hr>
            <ns3:cad>58</ns3:cad>
          </ns3:TrackPointExtension>
        </extensions>
      </trkpt>
      <trkpt lat="55.78114609234035015106201171875" lon="24.8252896405756473541259765625">
        <ele>67.40000152587890625</ele>
        <time>2026-07-26T08:56:15.000Z</time>
        <extensions>
          <ns3:TrackPointExtension>
            <ns3:hr>125</ns3:hr>
            <ns3:cad>57</ns3:cad>
          </ns3:TrackPointExtension>
        </extensions>
      </trkpt>
      <trkpt lat="55.7811500318348407745361328125" lon="24.825176484882831573486328125">
        <ele>67.1999969482421875</ele>
        <time>2026-07-26T08:56:20.000Z</time>
        <extensions>
          <ns3:TrackPointExtension>
            <ns3:hr>125</ns3:hr>
            <ns3:cad>59</ns3:cad>
          </ns3:TrackPointExtension>
        </extensions>
      </trkpt>
      <trkpt lat="55.7811724953353404998779296875" lon="24.82491505332291126251220703125">
        <ele>67.40000152587890625</ele>
        <time>2026-07-26T08:56:31.000Z</time>
        <extensions>
          <ns3:TrackPointExtension>
            <ns3:hr>125</ns3:hr>
            <ns3:cad>59</ns3:cad>
          </ns3:TrackPointExtension>
        </extensions>
      </trkpt>
      <trkpt lat="55.78119135461747646331787109375" lon="24.82473165728151798248291015625">
        <ele>67.40000152587890625</ele>
        <time>2026-07-26T08:56:38.000Z</time>
        <extensions>
          <ns3:TrackPointExtension>
            <ns3:hr>122</ns3:hr>
            <ns3:cad>58</ns3:cad>
          </ns3:TrackPointExtension>
        </extensions>
      </trkpt>
      <trkpt lat="55.78119772486388683319091796875" lon="24.8246906697750091552734375">
        <ele>67.40000152587890625</ele>
        <time>2026-07-26T08:56:40.000Z</time>
        <extensions>
          <ns3:TrackPointExtension>
            <ns3:hr>122</ns3:hr>
            <ns3:cad>59</ns3:cad>
          </ns3:TrackPointExtension>
        </extensions>
      </trkpt>
      <trkpt lat="55.78122102655470371246337890625" lon="24.82446360401809215545654296875">
        <ele>67.1999969482421875</ele>
        <time>2026-07-26T08:56:48.000Z</time>
        <extensions>
          <ns3:TrackPointExtension>
            <ns3:hr>121</ns3:hr>
            <ns3:cad>57</ns3:cad>
          </ns3:TrackPointExtension>
        </extensions>
      </trkpt>
      <trkpt lat="55.78123326413333415985107421875" lon="24.824249446392059326171875">
        <ele>67.1999969482421875</ele>
        <time>2026-07-26T08:56:57.000Z</time>
        <extensions>
          <ns3:TrackPointExtension>
            <ns3:hr>121</ns3:hr>
            <ns3:cad>57</ns3:cad>
          </ns3:TrackPointExtension>
        </extensions>
      </trkpt>
      <trkpt lat="55.7812531292438507080078125" lon="24.8240040242671966552734375">
        <ele>67.40000152587890625</ele>
        <time>2026-07-26T08:57:06.000Z</time>
        <extensions>
          <ns3:TrackPointExtension>
            <ns3:hr>122</ns3:hr>
            <ns3:cad>59</ns3:cad>
          </ns3:TrackPointExtension>
        </extensions>
      </trkpt>
      <trkpt lat="55.78127500601112842559814453125" lon="24.82374058105051517486572265625">
        <ele>67.40000152587890625</ele>
        <time>2026-07-26T08:57:17.000Z</time>
        <extensions>
          <ns3:TrackPointExtension>
            <ns3:hr>122</ns3:hr>
            <ns3:cad>58</ns3:cad>
          </ns3:TrackPointExtension>
        </extensions>
      </trkpt>
      <trkpt lat="55.78130266629159450531005859375" lon="24.82344738207757472991943359375">
        <ele>67.1999969482421875</ele>
        <time>2026-07-26T08:57:28.000Z</time>
        <extensions>
          <ns3:TrackPointExtension>
            <ns3:hr>122</ns3:hr>
            <ns3:cad>57</ns3:cad>
          </ns3:TrackPointExtension>
        </extensions>
      </trkpt>
      <trkpt lat="55.78132630325853824615478515625" lon="24.82320061884820461273193359375">
        <ele>66.8000030517578125</ele>
        <time>2026-07-26T08:57:38.000Z</time>
        <extensions>
          <ns3:TrackPointExtension>
            <ns3:hr>120</ns3:hr>
            <ns3:cad>58</ns3:cad>
          </ns3:TrackPointExtension>
        </extensions>
      </trkpt>
      <trkpt lat="55.78134767711162567138671875" lon="24.8229702003300189971923828125">
        <ele>66.59999847412109375</ele>
        <time>2026-07-26T08:57:48.000Z</time>
        <extensions>
          <ns3:TrackPointExtension>
            <ns3:hr>119</ns3:hr>
            <ns3:cad>58</ns3:cad>
          </ns3:TrackPointExtension>
        </extensions>
      </trkpt>
      <trkpt lat="55.78136955387890338897705078125" lon="24.82275151647627353668212890625">
        <ele>66.40000152587890625</ele>
        <time>2026-07-26T08:57:57.000Z</time>
        <extensions>
          <ns3:TrackPointExtension>
            <ns3:hr>118</ns3:hr>
            <ns3:cad>0</ns3:cad>
          </ns3:TrackPointExtension>
        </extensions>
      </trkpt>
      <trkpt lat="55.78139402903616428375244140625" lon="24.82255018316209316253662109375">
        <ele>66.40000152587890625</ele>
        <time>2026-07-26T08:58:05.000Z</time>
        <extensions>
          <ns3:TrackPointExtension>
            <ns3:hr>118</ns3:hr>
            <ns3:cad>58</ns3:cad>
          </ns3:TrackPointExtension>
        </extensions>
      </trkpt>
      <trkpt lat="55.7814242877066135406494140625" lon="24.8223103769123554229736328125">
        <ele>66.1999969482421875</ele>
        <time>2026-07-26T08:58:13.000Z</time>
        <extensions>
          <ns3:TrackPointExtension>
            <ns3:hr>119</ns3:hr>
            <ns3:cad>59</ns3:cad>
          </ns3:TrackPointExtension>
        </extensions>
      </trkpt>
      <trkpt lat="55.7814232818782329559326171875" lon="24.82211248017847537994384765625">
        <ele>66.40000152587890625</ele>
        <time>2026-07-26T08:58:21.000Z</time>
        <extensions>
          <ns3:TrackPointExtension>
            <ns3:hr>118</ns3:hr>
            <ns3:cad>59</ns3:cad>
          </ns3:TrackPointExtension>
        </extensions>
      </trkpt>
      <trkpt lat="55.781451277434825897216796875" lon="24.821907542645931243896484375">
        <ele>66.1999969482421875</ele>
        <time>2026-07-26T08:58:30.000Z</time>
        <extensions>
          <ns3:TrackPointExtension>
            <ns3:hr>119</ns3:hr>
            <ns3:cad>57</ns3:cad>
          </ns3:TrackPointExtension>
        </extensions>
      </trkpt>
      <trkpt lat="55.78146929852664470672607421875" lon="24.8217581771314144134521484375">
        <ele>66</ele>
        <time>2026-07-26T08:58:36.000Z</time>
        <extensions>
          <ns3:TrackPointExtension>
            <ns3:hr>120</ns3:hr>
            <ns3:cad>59</ns3:cad>
          </ns3:TrackPointExtension>
        </extensions>
      </trkpt>
      <trkpt lat="55.78147298656404018402099609375" lon="24.82173428870737552642822265625">
        <ele>65.8000030517578125</ele>
        <time>2026-07-26T08:58:37.000Z</time>
        <extensions>
          <ns3:TrackPointExtension>
            <ns3:hr>120</ns3:hr>
            <ns3:cad>58</ns3:cad>
          </ns3:TrackPointExtension>
        </extensions>
      </trkpt>
      <trkpt lat="55.78147466294467449188232421875" lon="24.82148702256381511688232421875">
        <ele>65.59999847412109375</ele>
        <time>2026-07-26T08:58:46.000Z</time>
        <extensions>
          <ns3:TrackPointExtension>
            <ns3:hr>120</ns3:hr>
            <ns3:cad>59</ns3:cad>
          </ns3:TrackPointExtension>
        </extensions>
      </trkpt>
      <trkpt lat="55.78149243257939815521240234375" lon="24.8212509043514728546142578125">
        <ele>65.8000030517578125</ele>
        <time>2026-07-26T08:58:55.000Z</time>
        <extensions>
          <ns3:TrackPointExtension>
            <ns3:hr>119</ns3:hr>
            <ns3:cad>58</ns3:cad>
          </ns3:TrackPointExtension>
        </extensions>
      </trkpt>
      <trkpt lat="55.78151405788958072662353515625" lon="24.82101277448236942291259765625">
        <ele>66.1999969482421875</ele>
        <time>2026-07-26T08:59:04.000Z</time>
        <extensions>
          <ns3:TrackPointExtension>
            <ns3:hr>119</ns3:hr>
            <ns3:cad>59</ns3:cad>
          </ns3:TrackPointExtension>
        </extensions>
      </trkpt>
      <trkpt lat="55.7815282233059406280517578125" lon="24.82082988135516643524169921875">
        <ele>65.8000030517578125</ele>
        <time>2026-07-26T08:59:12.000Z</time>
        <extensions>
          <ns3:TrackPointExtension>
            <ns3:hr>121</ns3:hr>
            <ns3:cad>58</ns3:cad>
          </ns3:TrackPointExtension>
        </extensions>
      </trkpt>
      <trkpt lat="55.78155697323381900787353515625" lon="24.820539616048336029052734375">
        <ele>66</ele>
        <time>2026-07-26T08:59:23.000Z</time>
        <extensions>
          <ns3:TrackPointExtension>
            <ns3:hr>123</ns3:hr>
            <ns3:cad>59</ns3:cad>
          </ns3:TrackPointExtension>
        </extensions>
      </trkpt>
      <trkpt lat="55.78156619332730770111083984375" lon="24.820354543626308441162109375">
        <ele>65.8000030517578125</ele>
        <time>2026-07-26T08:59:31.000Z</time>
        <extensions>
          <ns3:TrackPointExtension>
            <ns3:hr>123</ns3:hr>
            <ns3:cad>57</ns3:cad>
          </ns3:TrackPointExtension>
        </extensions>
      </trkpt>
      <trkpt lat="55.781602151691913604736328125" lon="24.82005338184535503387451171875">
        <ele>65.8000030517578125</ele>
        <time>2026-07-26T08:59:43.000Z</time>
        <extensions>
          <ns3:TrackPointExtension>
            <ns3:hr>124</ns3:hr>
            <ns3:cad>57</ns3:cad>
          </ns3:TrackPointExtension>
        </extensions>
      </trkpt>
      <trkpt lat="55.78162620775401592254638671875" lon="24.81982849538326263427734375">
        <ele>65.59999847412109375</ele>
        <time>2026-07-26T08:59:52.000Z</time>
        <extensions>
          <ns3:TrackPointExtension>
            <ns3:hr>124</ns3:hr>
            <ns3:cad>58</ns3:cad>
          </ns3:TrackPointExtension>
        </extensions>
      </trkpt>
      <trkpt lat="55.78164095990359783172607421875" lon="24.81956773437559604644775390625">
        <ele>66</ele>
        <time>2026-07-26T09:00:02.000Z</time>
        <extensions>
          <ns3:TrackPointExtension>
            <ns3:hr>122</ns3:hr>
            <ns3:cad>59</ns3:cad>
          </ns3:TrackPointExtension>
        </extensions>
      </trkpt>
      <trkpt lat="55.7816532813012599945068359375" lon="24.8193492181599140167236328125">
        <ele>66.1999969482421875</ele>
        <time>2026-07-26T09:00:11.000Z</time>
        <extensions>
          <ns3:TrackPointExtension>
            <ns3:hr>122</ns3:hr>
            <ns3:cad>58</ns3:cad>
          </ns3:TrackPointExtension>
        </extensions>
      </trkpt>
      <trkpt lat="55.78166359104216098785400390625" lon="24.8190866969525814056396484375">
        <ele>66.1999969482421875</ele>
        <time>2026-07-26T09:00:21.000Z</time>
        <extensions>
          <ns3:TrackPointExtension>
            <ns3:hr>123</ns3:hr>
            <ns3:cad>58</ns3:cad>
          </ns3:TrackPointExtension>
        </extensions>
      </trkpt>
      <trkpt lat="55.7816868089139461517333984375" lon="24.81880313716828823089599609375">
        <ele>66</ele>
        <time>2026-07-26T09:00:31.000Z</time>
        <extensions>
          <ns3:TrackPointExtension>
            <ns3:hr>124</ns3:hr>
            <ns3:cad>58</ns3:cad>
          </ns3:TrackPointExtension>
        </extensions>
      </trkpt>
      <trkpt lat="55.7817086018621921539306640625" lon="24.8186313919723033905029296875">
        <ele>66.1999969482421875</ele>
        <time>2026-07-26T09:00:38.000Z</time>
        <extensions>
          <ns3:TrackPointExtension>
            <ns3:hr>122</ns3:hr>
            <ns3:cad>59</ns3:cad>
          </ns3:TrackPointExtension>
        </extensions>
      </trkpt>
      <trkpt lat="55.78170734457671642303466796875" lon="24.81846568174660205841064453125">
        <ele>65.8000030517578125</ele>
        <time>2026-07-26T09:00:44.000Z</time>
        <extensions>
          <ns3:TrackPointExtension>
            <ns3:hr>121</ns3:hr>
            <ns3:cad>58</ns3:cad>
          </ns3:TrackPointExtension>
        </extensions>
      </trkpt>
      <trkpt lat="55.781731568276882171630859375" lon="24.81831346638500690460205078125">
        <ele>66</ele>
        <time>2026-07-26T09:00:51.000Z</time>
        <extensions>
          <ns3:TrackPointExtension>
            <ns3:hr>120</ns3:hr>
            <ns3:cad>58</ns3:cad>
          </ns3:TrackPointExtension>
        </extensions>
      </trkpt>
      <trkpt lat="55.78175269067287445068359375" lon="24.81809436343610286712646484375">
        <ele>66</ele>
        <time>2026-07-26T09:01:00.000Z</time>
        <extensions>
          <ns3:TrackPointExtension>
            <ns3:hr>120</ns3:hr>
            <ns3:cad>58</ns3:cad>
          </ns3:TrackPointExtension>
        </extensions>
      </trkpt>
      <trkpt lat="55.781783200800418853759765625" lon="24.81786453165113925933837890625">
        <ele>66.59999847412109375</ele>
        <time>2026-07-26T09:01:09.000Z</time>
        <extensions>
          <ns3:TrackPointExtension>
            <ns3:hr>120</ns3:hr>
            <ns3:cad>59</ns3:cad>
          </ns3:TrackPointExtension>
        </extensions>
      </trkpt>
      <trkpt lat="55.7818043231964111328125" lon="24.817650206387042999267578125">
        <ele>66.59999847412109375</ele>
        <time>2026-07-26T09:01:17.000Z</time>
        <extensions>
          <ns3:TrackPointExtension>
            <ns3:hr>121</ns3:hr>
            <ns3:cad>59</ns3:cad>
          </ns3:TrackPointExtension>
        </extensions>
      </trkpt>
      <trkpt lat="55.78184028156101703643798828125" lon="24.81743437238037586212158203125">
        <ele>67</ele>
        <time>2026-07-26T09:01:26.000Z</time>
        <extensions>
          <ns3:TrackPointExtension>
            <ns3:hr>123</ns3:hr>
            <ns3:cad>58</ns3:cad>
          </ns3:TrackPointExtension>
        </extensions>
      </trkpt>
      <trkpt lat="55.7818651758134365081787109375" lon="24.817254580557346343994140625">
        <ele>66.59999847412109375</ele>
        <time>2026-07-26T09:01:34.000Z</time>
        <extensions>
          <ns3:TrackPointExtension>
            <ns3:hr>125</ns3:hr>
            <ns3:cad>59</ns3:cad>
          </ns3:TrackPointExtension>
        </extensions>
      </trkpt>
      <trkpt lat="55.78188017942011356353759765625" lon="24.81704209931194782257080078125">
        <ele>67</ele>
        <time>2026-07-26T09:01:42.000Z</time>
        <extensions>
          <ns3:TrackPointExtension>
            <ns3:hr>124</ns3:hr>
            <ns3:cad>58</ns3:cad>
          </ns3:TrackPointExtension>
        </extensions>
      </trkpt>
      <trkpt lat="55.78190683387219905853271484375" lon="24.816853590309619903564453125">
        <ele>66.59999847412109375</ele>
        <time>2026-07-26T09:01:50.000Z</time>
        <extensions>
          <ns3:TrackPointExtension>
            <ns3:hr>124</ns3:hr>
            <ns3:cad>59</ns3:cad>
          </ns3:TrackPointExtension>
        </extensions>
      </trkpt>
      <trkpt lat="55.781936757266521453857421875" lon="24.81664714403450489044189453125">
        <ele>66.59999847412109375</ele>
        <time>2026-07-26T09:01:59.000Z</time>
        <extensions>
          <ns3:TrackPointExtension>
            <ns3:hr>123</ns3:hr>
            <ns3:cad>57</ns3:cad>
          </ns3:TrackPointExtension>
        </extensions>
      </trkpt>
      <trkpt lat="55.78198193572461605072021484375" lon="24.81635042466223239898681640625">
        <ele>66.8000030517578125</ele>
        <time>2026-07-26T09:02:10.000Z</time>
        <extensions>
          <ns3:TrackPointExtension>
            <ns3:hr>121</ns3:hr>
            <ns3:cad>57</ns3:cad>
          </ns3:TrackPointExtension>
        </extensions>
      </trkpt>
      <trkpt lat="55.78199140727519989013671875" lon="24.81626878492534160614013671875">
        <ele>67</ele>
        <time>2026-07-26T09:02:13.000Z</time>
        <extensions>
          <ns3:TrackPointExtension>
            <ns3:hr>121</ns3:hr>
            <ns3:cad>57</ns3:cad>
          </ns3:TrackPointExtension>
        </extensions>
      </trkpt>
      <trkpt lat="55.78200272284448146820068359375" lon="24.81614607386291027069091796875">
        <ele>67.40000152587890625</ele>
        <time>2026-07-26T09:02:18.000Z</time>
        <extensions>
          <ns3:TrackPointExtension>
            <ns3:hr>121</ns3:hr>
            <ns3:cad>57</ns3:cad>
          </ns3:TrackPointExtension>
        </extensions>
      </trkpt>
      <trkpt lat="55.78202568925917148590087890625" lon="24.81592185795307159423828125">
        <ele>67</ele>
        <time>2026-07-26T09:02:27.000Z</time>
        <extensions>
          <ns3:TrackPointExtension>
            <ns3:hr>121</ns3:hr>
            <ns3:cad>58</ns3:cad>
          </ns3:TrackPointExtension>
        </extensions>
      </trkpt>
      <trkpt lat="55.78203742392361164093017578125" lon="24.8157563991844654083251953125">
        <ele>67.40000152587890625</ele>
        <time>2026-07-26T09:02:34.000Z</time>
        <extensions>
          <ns3:TrackPointExtension>
            <ns3:hr>122</ns3:hr>
            <ns3:cad>58</ns3:cad>
          </ns3:TrackPointExtension>
        </extensions>
      </trkpt>
      <trkpt lat="55.7820391841232776641845703125" lon="24.815566800534725189208984375">
        <ele>68</ele>
        <time>2026-07-26T09:02:41.000Z</time>
        <extensions>
          <ns3:TrackPointExtension>
            <ns3:hr>122</ns3:hr>
            <ns3:cad>58</ns3:cad>
          </ns3:TrackPointExtension>
        </extensions>
      </trkpt>
      <trkpt lat="55.78202585689723491668701171875" lon="24.81546462513506412506103515625">
        <ele>68.1999969482421875</ele>
        <time>2026-07-26T09:02:45.000Z</time>
        <extensions>
          <ns3:TrackPointExtension>
            <ns3:hr>123</ns3:hr>
            <ns3:cad>59</ns3:cad>
          </ns3:TrackPointExtension>
        </extensions>
      </trkpt>
      <trkpt lat="55.782002471387386322021484375" lon="24.81534560211002826690673828125">
        <ele>68.40000152587890625</ele>
        <time>2026-07-26T09:02:50.000Z</time>
        <extensions>
          <ns3:TrackPointExtension>
            <ns3:hr>125</ns3:hr>
            <ns3:cad>58</ns3:cad>
          </ns3:TrackPointExtension>
        </extensions>
      </trkpt>
      <trkpt lat="55.7819711230695247650146484375" lon="24.81522037647664546966552734375">
        <ele>68.8000030517578125</ele>
        <time>2026-07-26T09:02:56.000Z</time>
        <extensions>
          <ns3:TrackPointExtension>
            <ns3:hr>127</ns3:hr>
            <ns3:cad>58</ns3:cad>
          </ns3:TrackPointExtension>
        </extensions>
      </trkpt>
      <trkpt lat="55.781903229653835296630859375" lon="24.81510017998516559600830078125">
        <ele>69.1999969482421875</ele>
        <time>2026-07-26T09:03:03.000Z</time>
        <extensions>
          <ns3:TrackPointExtension>
            <ns3:hr>126</ns3:hr>
            <ns3:cad>57</ns3:cad>
          </ns3:TrackPointExtension>
        </extensions>
      </trkpt>
      <trkpt lat="55.78188889659941196441650390625" lon="24.81507771648466587066650390625">
        <ele>69.1999969482421875</ele>
        <time>2026-07-26T09:03:04.000Z</time>
        <extensions>
          <ns3:TrackPointExtension>
            <ns3:hr>125</ns3:hr>
            <ns3:cad>57</ns3:cad>
          </ns3:TrackPointExtension>
        </extensions>
      </trkpt>
      <trkpt lat="55.78183961100876331329345703125" lon="24.81497897766530513763427734375">
        <ele>69.59999847412109375</ele>
        <time>2026-07-26T09:03:09.000Z</time>
        <extensions>
          <ns3:TrackPointExtension>
            <ns3:hr>127</ns3:hr>
            <ns3:cad>58</ns3:cad>
          </ns3:TrackPointExtension>
        </extensions>
      </trkpt>
      <trkpt lat="55.7817937619984149932861328125" lon="24.8148756287992000579833984375">
        <ele>70.1999969482421875</ele>
        <time>2026-07-26T09:03:14.000Z</time>
        <extensions>
          <ns3:TrackPointExtension>
            <ns3:hr>128</ns3:hr>
            <ns3:cad>57</ns3:cad>
          </ns3:TrackPointExtension>
        </extensions>
      </trkpt>
      <trkpt lat="55.7817676104605197906494140625" lon="24.81483983807265758514404296875">
        <ele>70.59999847412109375</ele>
        <time>2026-07-26T09:03:16.000Z</time>
        <extensions>
          <ns3:TrackPointExtension>
            <ns3:hr>128</ns3:hr>
            <ns3:cad>57</ns3:cad>
          </ns3:TrackPointExtension>
        </extensions>
      </trkpt>
      <trkpt lat="55.78170767985284328460693359375" lon="24.814829528331756591796875">
        <ele>70.59999847412109375</ele>
        <time>2026-07-26T09:03:22.000Z</time>
        <extensions>
          <ns3:TrackPointExtension>
            <ns3:hr>130</ns3:hr>
            <ns3:cad>55</ns3:cad>
          </ns3:TrackPointExtension>
        </extensions>
      </trkpt>
      <trkpt lat="55.78164095990359783172607421875" lon="24.8148421011865139007568359375">
        <ele>69.8000030517578125</ele>
        <time>2026-07-26T09:03:28.000Z</time>
        <extensions>
          <ns3:TrackPointExtension>
            <ns3:hr>130</ns3:hr>
            <ns3:cad>56</ns3:cad>
          </ns3:TrackPointExtension>
        </extensions>
      </trkpt>
      <trkpt lat="55.7815748266875743865966796875" lon="24.81488292105495929718017578125">
        <ele>69.1999969482421875</ele>
        <time>2026-07-26T09:03:32.000Z</time>
        <extensions>
          <ns3:TrackPointExtension>
            <ns3:hr>129</ns3:hr>
            <ns3:cad>57</ns3:cad>
          </ns3:TrackPointExtension>
        </extensions>
      </trkpt>
      <trkpt lat="55.7815298996865749359130859375" lon="24.8149161972105503082275390625">
        <ele>69</ele>
        <time>2026-07-26T09:03:35.000Z</time>
        <extensions>
          <ns3:TrackPointExtension>
            <ns3:hr>125</ns3:hr>
            <ns3:cad>57</ns3:cad>
          </ns3:TrackPointExtension>
        </extensions>
      </trkpt>
      <trkpt lat="55.7815178297460079193115234375" lon="24.81491980142891407012939453125">
        <ele>69</ele>
        <time>2026-07-26T09:03:36.000Z</time>
        <extensions>
          <ns3:TrackPointExtension>
            <ns3:hr>125</ns3:hr>
            <ns3:cad>57</ns3:cad>
          </ns3:TrackPointExtension>
        </extensions>
      </trkpt>
      <trkpt lat="55.78147399239242076873779296875" lon="24.814917035400867462158203125">
        <ele>69</ele>
        <time>2026-07-26T09:03:42.000Z</time>
        <extensions>
          <ns3:TrackPointExtension>
            <ns3:hr>123</ns3:hr>
            <ns3:cad>56</ns3:cad>
          </ns3:TrackPointExtension>
        </extensions>
      </trkpt>
      <trkpt lat="55.7814427278935909271240234375" lon="24.8149006068706512451171875">
        <ele>69</ele>
        <time>2026-07-26T09:03:44.000Z</time>
        <extensions>
          <ns3:TrackPointExtension>
            <ns3:hr>123</ns3:hr>
            <ns3:cad>55</ns3:cad>
          </ns3:TrackPointExtension>
        </extensions>
      </trkpt>
      <trkpt lat="55.781321860849857330322265625" lon="24.814843945205211639404296875">
        <ele>69.1999969482421875</ele>
        <time>2026-07-26T09:03:53.000Z</time>
        <extensions>
          <ns3:TrackPointExtension>
            <ns3:hr>121</ns3:hr>
            <ns3:cad>55</ns3:cad>
          </ns3:TrackPointExtension>
        </extensions>
      </trkpt>
      <trkpt lat="55.78120945952832698822021484375" lon="24.81484000571072101593017578125">
        <ele>69.59999847412109375</ele>
        <time>2026-07-26T09:04:02.000Z</time>
        <extensions>
          <ns3:TrackPointExtension>
            <ns3:hr>121</ns3:hr>
            <ns3:cad>55</ns3:cad>
          </ns3:TrackPointExtension>
        </extensions>
      </trkpt>
      <trkpt lat="55.78118146397173404693603515625" lon="24.8148920573294162750244140625">
        <ele>69.59999847412109375</ele>
        <time>2026-07-26T09:04:06.000Z</time>
        <extensions>
          <ns3:TrackPointExtension>
            <ns3:hr>120</ns3:hr>
            <ns3:cad>55</ns3:cad>
          </ns3:TrackPointExtension>
        </extensions>
      </trkpt>
      <trkpt lat="55.78117065131664276123046875" lon="24.81492365710437297821044921875">
        <ele>69.59999847412109375</ele>
        <time>2026-07-26T09:04:08.000Z</time>
        <extensions>
          <ns3:TrackPointExtension>
            <ns3:hr>120</ns3:hr>
            <ns3:cad>53</ns3:cad>
          </ns3:TrackPointExtension>
        </extensions>
      </trkpt>
      <trkpt lat="55.78112237155437469482421875" lon="24.8150295205414295196533203125">
        <ele>69.59999847412109375</ele>
        <time>2026-07-26T09:04:15.000Z</time>
        <extensions>
          <ns3:TrackPointExtension>
            <ns3:hr>121</ns3:hr>
            <ns3:cad>0</ns3:cad>
          </ns3:TrackPointExtension>
        </extensions>
      </trkpt>
      <trkpt lat="55.781069062650203704833984375" lon="24.815106131136417388916015625">
        <ele>70.1999969482421875</ele>
        <time>2026-07-26T09:04:21.000Z</time>
        <extensions>
          <ns3:TrackPointExtension>
            <ns3:hr>122</ns3:hr>
            <ns3:cad>52</ns3:cad>
          </ns3:TrackPointExtension>
        </extensions>
      </trkpt>
      <trkpt lat="55.78107618726789951324462890625" lon="24.8151002638041973114013671875">
        <ele>70.59999847412109375</ele>
        <time>2026-07-26T09:04:22.000Z</time>
        <extensions>
          <ns3:TrackPointExtension>
            <ns3:hr>122</ns3:hr>
            <ns3:cad>52</ns3:cad>
          </ns3:TrackPointExtension>
        </extensions>
      </trkpt>
      <trkpt lat="55.7810772769153118133544921875" lon="24.815100096166133880615234375">
        <ele>70.8000030517578125</ele>
        <time>2026-07-26T09:04:23.000Z</time>
        <extensions>
          <ns3:TrackPointExtension>
            <ns3:hr>121</ns3:hr>
            <ns3:cad>0</ns3:cad>
          </ns3:TrackPointExtension>
        </extensions>
      </trkpt>
      <trkpt lat="55.78107031993567943572998046875" lon="24.81510923244059085845947265625">
        <ele>71</ele>
        <time>2026-07-26T09:04:25.000Z</time>
        <extensions>
          <ns3:TrackPointExtension>
            <ns3:hr>121</ns3:hr>
            <ns3:cad>0</ns3:cad>
          </ns3:TrackPointExtension>
        </extensions>
      </trkpt>
      <trkpt lat="55.781075768172740936279296875" lon="24.81512482278048992156982421875">
        <ele>71</ele>
        <time>2026-07-26T09:04:27.000Z</time>
        <extensions>
          <ns3:TrackPointExtension>
            <ns3:hr>121</ns3:hr>
            <ns3:cad>0</ns3:cad>
          </ns3:TrackPointExtension>
        </extensions>
      </trkpt>
      <trkpt lat="55.7810692302882671356201171875" lon="24.81516086496412754058837890625">
        <ele>70.8000030517578125</ele>
        <time>2026-07-26T09:04:29.000Z</time>
        <extensions>
          <ns3:TrackPointExtension>
            <ns3:hr>122</ns3:hr>
            <ns3:cad>0</ns3:cad>
          </ns3:TrackPointExtension>
        </extensions>
      </trkpt>
      <trkpt lat="55.7810658775269985198974609375" lon="24.8152192868292331695556640625">
        <ele>71</ele>
        <time>2026-07-26T09:04:32.000Z</time>
        <extensions>
          <ns3:TrackPointExtension>
            <ns3:hr>125</ns3:hr>
            <ns3:cad>52</ns3:cad>
          </ns3:TrackPointExtension>
        </extensions>
      </trkpt>
      <trkpt lat="55.78106713481247425079345703125" lon="24.8152394033968448638916015625">
        <ele>71.59999847412109375</ele>
        <time>2026-07-26T09:04:34.000Z</time>
        <extensions>
          <ns3:TrackPointExtension>
            <ns3:hr>129</ns3:hr>
            <ns3:cad>51</ns3:cad>
          </ns3:TrackPointExtension>
        </extensions>
      </trkpt>
      <trkpt lat="55.781073756515979766845703125" lon="24.815268404781818389892578125">
        <ele>72.40000152587890625</ele>
        <time>2026-07-26T09:04:37.000Z</time>
        <extensions>
          <ns3:TrackPointExtension>
            <ns3:hr>129</ns3:hr>
            <ns3:cad>50</ns3:cad>
          </ns3:TrackPointExtension>
        </extensions>
      </trkpt>
      <trkpt lat="55.781075097620487213134765625" lon="24.81527418829500675201416015625">
        <ele>72.8000030517578125</ele>
        <time>2026-07-26T09:04:38.000Z</time>
        <extensions>
          <ns3:TrackPointExtension>
            <ns3:hr>128</ns3:hr>
            <ns3:cad>50</ns3:cad>
          </ns3:TrackPointExtension>
        </extensions>
      </trkpt>
      <trkpt lat="55.78107886947691440582275390625" lon="24.815316013991832733154296875">
        <ele>74</ele>
        <time>2026-07-26T09:04:42.000Z</time>
        <extensions>
          <ns3:TrackPointExtension>
            <ns3:hr>127</ns3:hr>
            <ns3:cad>46</ns3:cad>
          </ns3:TrackPointExtension>
        </extensions>
      </trkpt>
      <trkpt lat="55.78107451088726520538330078125" lon="24.81535255908966064453125">
        <ele>75</ele>
        <time>2026-07-26T09:04:45.000Z</time>
        <extensions>
          <ns3:TrackPointExtension>
            <ns3:hr>128</ns3:hr>
            <ns3:cad>46</ns3:cad>
          </ns3:TrackPointExtension>
        </extensions>
      </trkpt>
      <trkpt lat="55.7810802944004535675048828125" lon="24.8153512179851531982421875">
        <ele>75.1999969482421875</ele>
        <time>2026-07-26T09:04:46.000Z</time>
        <extensions>
          <ns3:TrackPointExtension>
            <ns3:hr>128</ns3:hr>
            <ns3:cad>46</ns3:cad>
          </ns3:TrackPointExtension>
        </extensions>
      </trkpt>
      <trkpt lat="55.78107870183885097503662109375" lon="24.8153795488178730010986328125">
        <ele>76</ele>
        <time>2026-07-26T09:04:48.000Z</time>
        <extensions>
          <ns3:TrackPointExtension>
            <ns3:hr>131</ns3:hr>
            <ns3:cad>46</ns3:cad>
          </ns3:TrackPointExtension>
        </extensions>
      </trkpt>
      <trkpt lat="55.78107886947691440582275390625" lon="24.81539103202521800994873046875">
        <ele>76.1999969482421875</ele>
        <time>2026-07-26T09:04:49.000Z</time>
        <extensions>
          <ns3:TrackPointExtension>
            <ns3:hr>132</ns3:hr>
            <ns3:cad>45</ns3:cad>
          </ns3:TrackPointExtension>
        </extensions>
      </trkpt>
      <trkpt lat="55.7810756005346775054931640625" lon="24.81540310196578502655029296875">
        <ele>76.8000030517578125</ele>
        <time>2026-07-26T09:04:51.000Z</time>
        <extensions>
          <ns3:TrackPointExtension>
            <ns3:hr>135</ns3:hr>
            <ns3:cad>45</ns3:cad>
          </ns3:TrackPointExtension>
        </extensions>
      </trkpt>
      <trkpt lat="55.7810739241540431976318359375" lon="24.81542238034307956695556640625">
        <ele>77.40000152587890625</ele>
        <time>2026-07-26T09:04:53.000Z</time>
        <extensions>
          <ns3:TrackPointExtension>
            <ns3:hr>138</ns3:hr>
            <ns3:cad>45</ns3:cad>
          </ns3:TrackPointExtension>
        </extensions>
      </trkpt>
      <trkpt lat="55.78107300214469432830810546875" lon="24.81544249691069126129150390625">
        <ele>78.1999969482421875</ele>
        <time>2026-07-26T09:04:55.000Z</time>
        <extensions>
          <ns3:TrackPointExtension>
            <ns3:hr>140</ns3:hr>
            <ns3:cad>47</ns3:cad>
          </ns3:TrackPointExtension>
        </extensions>
      </trkpt>
      <trkpt lat="55.7810715772211551666259765625" lon="24.8154576681554317474365234375">
        <ele>78.8000030517578125</ele>
        <time>2026-07-26T09:04:56.000Z</time>
        <extensions>
          <ns3:TrackPointExtension>
            <ns3:hr>141</ns3:hr>
            <ns3:cad>47</ns3:cad>
          </ns3:TrackPointExtension>
        </extensions>
      </trkpt>
      <trkpt lat="55.7810678891837596893310546875" lon="24.81546747498214244842529296875">
        <ele>80</ele>
        <time>2026-07-26T09:04:58.000Z</time>
        <extensions>
          <ns3:TrackPointExtension>
            <ns3:hr>142</ns3:hr>
            <ns3:cad>45</ns3:cad>
          </ns3:TrackPointExtension>
        </extensions>
      </trkpt>
      <trkpt lat="55.781063698232173919677734375" lon="24.815490357577800750732421875">
        <ele>81</ele>
        <time>2026-07-26T09:05:00.000Z</time>
        <extensions>
          <ns3:TrackPointExtension>
            <ns3:hr>142</ns3:hr>
            <ns3:cad>43</ns3:cad>
          </ns3:TrackPointExtension>
        </extensions>
      </trkpt>
      <trkpt lat="55.78106604516506195068359375" lon="24.815498404204845428466796875">
        <ele>81.59999847412109375</ele>
        <time>2026-07-26T09:05:01.000Z</time>
        <extensions>
          <ns3:TrackPointExtension>
            <ns3:hr>142</ns3:hr>
            <ns3:cad>43</ns3:cad>
          </ns3:TrackPointExtension>
        </extensions>
      </trkpt>
      <trkpt lat="55.78107006847858428955078125" lon="24.81552564539015293121337890625">
        <ele>82.1999969482421875</ele>
        <time>2026-07-26T09:05:03.000Z</time>
        <extensions>
          <ns3:TrackPointExtension>
            <ns3:hr>144</ns3:hr>
            <ns3:cad>43</ns3:cad>
          </ns3:TrackPointExtension>
        </extensions>
      </trkpt>
      <trkpt lat="55.78107652254402637481689453125" lon="24.81556923128664493560791015625">
        <ele>83.40000152587890625</ele>
        <time>2026-07-26T09:05:07.000Z</time>
        <extensions>
          <ns3:TrackPointExtension>
            <ns3:hr>146</ns3:hr>
            <ns3:cad>43</ns3:cad>
          </ns3:TrackPointExtension>
        </extensions>
      </trkpt>
      <trkpt lat="55.78107786364853382110595703125" lon="24.815576188266277313232421875">
        <ele>83.8000030517578125</ele>
        <time>2026-07-26T09:05:08.000Z</time>
        <extensions>
          <ns3:TrackPointExtension>
            <ns3:hr>146</ns3:hr>
            <ns3:cad>43</ns3:cad>
          </ns3:TrackPointExtension>
        </extensions>
      </trkpt>
      <trkpt lat="55.7810776121914386749267578125" lon="24.81559739448130130767822265625">
        <ele>84.59999847412109375</ele>
        <time>2026-07-26T09:05:10.000Z</time>
        <extensions>
          <ns3:TrackPointExtension>
            <ns3:hr>148</ns3:hr>
            <ns3:cad>43</ns3:cad>
          </ns3:TrackPointExtension>
        </extensions>
      </trkpt>
      <trkpt lat="55.78107316978275775909423828125" lon="24.81563150882720947265625">
        <ele>85.59999847412109375</ele>
        <time>2026-07-26T09:05:13.000Z</time>
        <extensions>
          <ns3:TrackPointExtension>
            <ns3:hr>150</ns3:hr>
            <ns3:cad>41</ns3:cad>
          </ns3:TrackPointExtension>
        </extensions>
      </trkpt>
      <trkpt lat="55.78106646426022052764892578125" lon="24.81564785353839397430419921875">
        <ele>85.8000030517578125</ele>
        <time>2026-07-26T09:05:15.000Z</time>
        <extensions>
          <ns3:TrackPointExtension>
            <ns3:hr>151</ns3:hr>
            <ns3:cad>77</ns3:cad>
          </ns3:TrackPointExtension>
        </extensions>
      </trkpt>
      <trkpt lat="55.7810172624886035919189453125" lon="24.81571340002119541168212890625">
        <ele>85.8000030517578125</ele>
        <time>2026-07-26T09:05:22.000Z</time>
        <extensions>
          <ns3:TrackPointExtension>
            <ns3:hr>154</ns3:hr>
            <ns3:cad>0</ns3:cad>
          </ns3:TrackPointExtension>
        </extensions>
      </trkpt>
      <trkpt lat="55.780991613864898681640625" lon="24.8158063553273677825927734375">
        <ele>86.40000152587890625</ele>
        <time>2026-07-26T09:05:28.000Z</time>
        <extensions>
          <ns3:TrackPointExtension>
            <ns3:hr>156</ns3:hr>
            <ns3:cad>50</ns3:cad>
          </ns3:TrackPointExtension>
        </extensions>
      </trkpt>
      <trkpt lat="55.78099094331264495849609375" lon="24.81592898257076740264892578125">
        <ele>86.8000030517578125</ele>
        <time>2026-07-26T09:05:35.000Z</time>
        <extensions>
          <ns3:TrackPointExtension>
            <ns3:hr>159</ns3:hr>
            <ns3:cad>48</ns3:cad>
          </ns3:TrackPointExtension>
        </extensions>
      </trkpt>
      <trkpt lat="55.7809917815029621124267578125" lon="24.815920181572437286376953125">
        <ele>87</ele>
        <time>2026-07-26T09:05:37.000Z</time>
        <extensions>
          <ns3:TrackPointExtension>
            <ns3:hr>159</ns3:hr>
            <ns3:cad>0</ns3:cad>
          </ns3:TrackPointExtension>
        </extensions>
      </trkpt>
      <trkpt lat="55.78100913204252719879150390625" lon="24.815928228199481964111328125">
        <ele>87</ele>
        <time>2026-07-26T09:05:46.000Z</time>
        <extensions>
          <ns3:TrackPointExtension>
            <ns3:hr>157</ns3:hr>
            <ns3:cad>0</ns3:cad>
          </ns3:TrackPointExtension>
        </extensions>
      </trkpt>
      <trkpt lat="55.7810578308999538421630859375" lon="24.81599754653871059417724609375">
        <ele>86.8000030517578125</ele>
        <time>2026-07-26T09:05:52.000Z</time>
        <extensions>
          <ns3:TrackPointExtension>
            <ns3:hr>157</ns3:hr>
            <ns3:cad>0</ns3:cad>
          </ns3:TrackPointExtension>
        </extensions>
      </trkpt>
      <trkpt lat="55.781092531979084014892578125" lon="24.816040880978107452392578125">
        <ele>86.1999969482421875</ele>
        <time>2026-07-26T09:05:59.000Z</time>
        <extensions>
          <ns3:TrackPointExtension>
            <ns3:hr>155</ns3:hr>
            <ns3:cad>0</ns3:cad>
          </ns3:TrackPointExtension>
        </extensions>
      </trkpt>
      <trkpt lat="55.78109479509294033050537109375" lon="24.81606175191700458526611328125">
        <ele>86</ele>
        <time>2026-07-26T09:06:02.000Z</time>
        <extensions>
          <ns3:TrackPointExtension>
            <ns3:hr>152</ns3:hr>
            <ns3:cad>0</ns3:cad>
          </ns3:TrackPointExtension>
        </extensions>
      </trkpt>
      <trkpt lat="55.7811051048338413238525390625" lon="24.81608840636909008026123046875">
        <ele>86</ele>
        <time>2026-07-26T09:06:06.000Z</time>
        <extensions>
          <ns3:TrackPointExtension>
            <ns3:hr>151</ns3:hr>
            <ns3:cad>0</ns3:cad>
          </ns3:TrackPointExtension>
        </extensions>
      </trkpt>
      <trkpt lat="55.7811208628118038177490234375" lon="24.8160859756171703338623046875">
        <ele>85.8000030517578125</ele>
        <time>2026-07-26T09:06:12.000Z</time>
        <extensions>
          <ns3:TrackPointExtension>
            <ns3:hr>151</ns3:hr>
            <ns3:cad>0</ns3:cad>
          </ns3:TrackPointExtension>
        </extensions>
      </trkpt>
      <trkpt lat="55.78115548007190227508544921875" lon="24.81608823873102664947509765625">
        <ele>86</ele>
        <time>2026-07-26T09:06:19.000Z</time>
        <extensions>
          <ns3:TrackPointExtension>
            <ns3:hr>150</ns3:hr>
            <ns3:cad>0</ns3:cad>
          </ns3:TrackPointExtension>
        </extensions>
      </trkpt>
      <trkpt lat="55.78115724027156829833984375" lon="24.81608136557042598724365234375">
        <ele>86</ele>
        <time>2026-07-26T09:06:21.000Z</time>
        <extensions>
          <ns3:TrackPointExtension>
            <ns3:hr>147</ns3:hr>
            <ns3:cad>0</ns3:cad>
          </ns3:TrackPointExtension>
        </extensions>
      </trkpt>
      <trkpt lat="55.781135447323322296142578125" lon="24.816050268709659576416015625">
        <ele>85.59999847412109375</ele>
        <time>2026-07-26T09:06:24.000Z</time>
        <extensions>
          <ns3:TrackPointExtension>
            <ns3:hr>146</ns3:hr>
            <ns3:cad>0</ns3:cad>
          </ns3:TrackPointExtension>
        </extensions>
      </trkpt>
      <trkpt lat="55.78110686503350734710693359375" lon="24.81600928120315074920654296875">
        <ele>85.40000152587890625</ele>
        <time>2026-07-26T09:06:27.000Z</time>
        <extensions>
          <ns3:TrackPointExtension>
            <ns3:hr>145</ns3:hr>
            <ns3:cad>0</ns3:cad>
          </ns3:TrackPointExtension>
        </extensions>
      </trkpt>
      <trkpt lat="55.7810310088098049163818359375" lon="24.81593417935073375701904296875">
        <ele>86</ele>
        <time>2026-07-26T09:06:35.000Z</time>
        <extensions>
          <ns3:TrackPointExtension>
            <ns3:hr>147</ns3:hr>
            <ns3:cad>48</ns3:cad>
          </ns3:TrackPointExtension>
        </extensions>
      </trkpt>
      <trkpt lat="55.78098691999912261962890625" lon="24.8158298246562480926513671875">
        <ele>86.59999847412109375</ele>
        <time>2026-07-26T09:06:42.000Z</time>
        <extensions>
          <ns3:TrackPointExtension>
            <ns3:hr>146</ns3:hr>
            <ns3:cad>52</ns3:cad>
          </ns3:TrackPointExtension>
        </extensions>
      </trkpt>
      <trkpt lat="55.7809907756745815277099609375" lon="24.8158110491931438446044921875">
        <ele>86.59999847412109375</ele>
        <time>2026-07-26T09:06:43.000Z</time>
        <extensions>
          <ns3:TrackPointExtension>
            <ns3:hr>143</ns3:hr>
            <ns3:cad>52</ns3:cad>
          </ns3:TrackPointExtension>
        </extensions>
      </trkpt>
      <trkpt lat="55.7809927873313426971435546875" lon="24.815767295658588409423828125">
        <ele>86.40000152587890625</ele>
        <time>2026-07-26T09:06:45.000Z</time>
        <extensions>
          <ns3:TrackPointExtension>
            <ns3:hr>140</ns3:hr>
            <ns3:cad>52</ns3:cad>
          </ns3:TrackPointExtension>
        </extensions>
      </trkpt>
      <trkpt lat="55.78100301325321197509765625" lon="24.81572806835174560546875">
        <ele>86</ele>
        <time>2026-07-26T09:06:47.000Z</time>
        <extensions>
          <ns3:TrackPointExtension>
            <ns3:hr>137</ns3:hr>
            <ns3:cad>51</ns3:cad>
          </ns3:TrackPointExtension>
        </extensions>
      </trkpt>
      <trkpt lat="55.7810189388692378997802734375" lon="24.81569831259548664093017578125">
        <ele>85.8000030517578125</ele>
        <time>2026-07-26T09:06:49.000Z</time>
        <extensions>
          <ns3:TrackPointExtension>
            <ns3:hr>137</ns3:hr>
            <ns3:cad>53</ns3:cad>
          </ns3:TrackPointExtension>
        </extensions>
      </trkpt>
      <trkpt lat="55.7810792885720729827880859375" lon="24.81563125737011432647705078125">
        <ele>85.40000152587890625</ele>
        <time>2026-07-26T09:06:57.000Z</time>
        <extensions>
          <ns3:TrackPointExtension>
            <ns3:hr>134</ns3:hr>
            <ns3:cad>53</ns3:cad>
          </ns3:TrackPointExtension>
        </extensions>
      </trkpt>
      <trkpt lat="55.7810789532959461212158203125" lon="24.81561969034373760223388671875">
        <ele>85.40000152587890625</ele>
        <time>2026-07-26T09:06:58.000Z</time>
        <extensions>
          <ns3:TrackPointExtension>
            <ns3:hr>133</ns3:hr>
            <ns3:cad>51</ns3:cad>
          </ns3:TrackPointExtension>
        </extensions>
      </trkpt>
      <trkpt lat="55.781077109277248382568359375" lon="24.81560577638447284698486328125">
        <ele>85.1999969482421875</ele>
        <time>2026-07-26T09:06:59.000Z</time>
        <extensions>
          <ns3:TrackPointExtension>
            <ns3:hr>132</ns3:hr>
            <ns3:cad>51</ns3:cad>
          </ns3:TrackPointExtension>
        </extensions>
      </trkpt>
      <trkpt lat="55.7810678891837596893310546875" lon="24.81555682606995105743408203125">
        <ele>84.40000152587890625</ele>
        <time>2026-07-26T09:07:03.000Z</time>
        <extensions>
          <ns3:TrackPointExtension>
            <ns3:hr>130</ns3:hr>
            <ns3:cad>52</ns3:cad>
          </ns3:TrackPointExtension>
        </extensions>
      </trkpt>
      <trkpt lat="55.7810665480792522430419921875" lon="24.815534614026546478271484375">
        <ele>83.1999969482421875</ele>
        <time>2026-07-26T09:07:05.000Z</time>
        <extensions>
          <ns3:TrackPointExtension>
            <ns3:hr>131</ns3:hr>
            <ns3:cad>52</ns3:cad>
          </ns3:TrackPointExtension>
        </extensions>
      </trkpt>
      <trkpt lat="55.781065709888935089111328125" lon="24.815491028130054473876953125">
        <ele>81.8000030517578125</ele>
        <time>2026-07-26T09:07:08.000Z</time>
        <extensions>
          <ns3:TrackPointExtension>
            <ns3:hr>127</ns3:hr>
            <ns3:cad>52</ns3:cad>
          </ns3:TrackPointExtension>
        </extensions>
      </trkpt>
      <trkpt lat="55.78106998465955257415771484375" lon="24.8154573328793048858642578125">
        <ele>80.40000152587890625</ele>
        <time>2026-07-26T09:07:11.000Z</time>
        <extensions>
          <ns3:TrackPointExtension>
            <ns3:hr>127</ns3:hr>
            <ns3:cad>45</ns3:cad>
          </ns3:TrackPointExtension>
        </extensions>
      </trkpt>
      <trkpt lat="55.78106696717441082000732421875" lon="24.81541986577212810516357421875">
        <ele>79.59999847412109375</ele>
        <time>2026-07-26T09:07:13.000Z</time>
        <extensions>
          <ns3:TrackPointExtension>
            <ns3:hr>129</ns3:hr>
            <ns3:cad>49</ns3:cad>
          </ns3:TrackPointExtension>
        </extensions>
      </trkpt>
      <trkpt lat="55.781063698232173919677734375" lon="24.8153993301093578338623046875">
        <ele>79</ele>
        <time>2026-07-26T09:07:14.000Z</time>
        <extensions>
          <ns3:TrackPointExtension>
            <ns3:hr>130</ns3:hr>
            <ns3:cad>53</ns3:cad>
          </ns3:TrackPointExtension>
        </extensions>
      </trkpt>
      <trkpt lat="55.7810605131089687347412109375" lon="24.81536337174475193023681640625">
        <ele>77.8000030517578125</ele>
        <time>2026-07-26T09:07:16.000Z</time>
        <extensions>
          <ns3:TrackPointExtension>
            <ns3:hr>131</ns3:hr>
            <ns3:cad>53</ns3:cad>
          </ns3:TrackPointExtension>
        </extensions>
      </trkpt>
      <trkpt lat="55.78105824999511241912841796875" lon="24.81532665900886058807373046875">
        <ele>76.40000152587890625</ele>
        <time>2026-07-26T09:07:19.000Z</time>
        <extensions>
          <ns3:TrackPointExtension>
            <ns3:hr>132</ns3:hr>
            <ns3:cad>62</ns3:cad>
          </ns3:TrackPointExtension>
        </extensions>
      </trkpt>
      <trkpt lat="55.7810588367283344268798828125" lon="24.81530101038515567779541015625">
        <ele>75.59999847412109375</ele>
        <time>2026-07-26T09:07:21.000Z</time>
        <extensions>
          <ns3:TrackPointExtension>
            <ns3:hr>131</ns3:hr>
            <ns3:cad>61</ns3:cad>
          </ns3:TrackPointExtension>
        </extensions>
      </trkpt>
      <trkpt lat="55.78105799853801727294921875" lon="24.81529028154909610748291015625">
        <ele>75.1999969482421875</ele>
        <time>2026-07-26T09:07:22.000Z</time>
        <extensions>
          <ns3:TrackPointExtension>
            <ns3:hr>131</ns3:hr>
            <ns3:cad>60</ns3:cad>
          </ns3:TrackPointExtension>
        </extensions>
      </trkpt>
      <trkpt lat="55.78105866909027099609375" lon="24.8152668960392475128173828125">
        <ele>74</ele>
        <time>2026-07-26T09:07:25.000Z</time>
        <extensions>
          <ns3:TrackPointExtension>
            <ns3:hr>131</ns3:hr>
            <ns3:cad>57</ns3:cad>
          </ns3:TrackPointExtension>
        </extensions>
      </trkpt>
      <trkpt lat="55.78106227330863475799560546875" lon="24.81523479335010051727294921875">
        <ele>72.8000030517578125</ele>
        <time>2026-07-26T09:07:28.000Z</time>
        <extensions>
          <ns3:TrackPointExtension>
            <ns3:hr>132</ns3:hr>
            <ns3:cad>55</ns3:cad>
          </ns3:TrackPointExtension>
        </extensions>
      </trkpt>
      <trkpt lat="55.78106344677507877349853515625" lon="24.8151931352913379669189453125">
        <ele>71.8000030517578125</ele>
        <time>2026-07-26T09:07:31.000Z</time>
        <extensions>
          <ns3:TrackPointExtension>
            <ns3:hr>132</ns3:hr>
            <ns3:cad>55</ns3:cad>
          </ns3:TrackPointExtension>
        </extensions>
      </trkpt>
      <trkpt lat="55.7810655422508716583251953125" lon="24.8151267506182193756103515625">
        <ele>71</ele>
        <time>2026-07-26T09:07:37.000Z</time>
        <extensions>
          <ns3:TrackPointExtension>
            <ns3:hr>131</ns3:hr>
            <ns3:cad>0</ns3:cad>
          </ns3:TrackPointExtension>
        </extensions>
      </trkpt>
      <trkpt lat="55.7810678891837596893310546875" lon="24.81509707868099212646484375">
        <ele>71</ele>
        <time>2026-07-26T09:07:45.000Z</time>
        <extensions>
          <ns3:TrackPointExtension>
            <ns3:hr>134</ns3:hr>
            <ns3:cad>0</ns3:cad>
          </ns3:TrackPointExtension>
        </extensions>
      </trkpt>
      <trkpt lat="55.78106881119310855865478515625" lon="24.815098084509372711181640625">
        <ele>71</ele>
        <time>2026-07-26T09:07:46.000Z</time>
        <extensions>
          <ns3:TrackPointExtension>
            <ns3:hr>136</ns3:hr>
            <ns3:cad>0</ns3:cad>
          </ns3:TrackPointExtension>
        </extensions>
      </trkpt>
      <trkpt lat="55.78107275068759918212890625" lon="24.81515466235578060150146484375">
        <ele>70.8000030517578125</ele>
        <time>2026-07-26T09:07:51.000Z</time>
        <extensions>
          <ns3:TrackPointExtension>
            <ns3:hr>133</ns3:hr>
            <ns3:cad>0</ns3:cad>
          </ns3:TrackPointExtension>
        </extensions>
      </trkpt>
      <trkpt lat="55.78106998465955257415771484375" lon="24.81514125131070613861083984375">
        <ele>70.8000030517578125</ele>
        <time>2026-07-26T09:07:52.000Z</time>
        <extensions>
          <ns3:TrackPointExtension>
            <ns3:hr>133</ns3:hr>
            <ns3:cad>0</ns3:cad>
          </ns3:TrackPointExtension>
        </extensions>
      </trkpt>
      <trkpt lat="55.78108943067491054534912109375" lon="24.8150553368031978607177734375">
        <ele>70.59999847412109375</ele>
        <time>2026-07-26T09:07:57.000Z</time>
        <extensions>
          <ns3:TrackPointExtension>
            <ns3:hr>131</ns3:hr>
            <ns3:cad>51</ns3:cad>
          </ns3:TrackPointExtension>
        </extensions>
      </trkpt>
      <trkpt lat="55.7811094634234905242919921875" lon="24.81501401402056217193603515625">
        <ele>70.1999969482421875</ele>
        <time>2026-07-26T09:07:59.000Z</time>
        <extensions>
          <ns3:TrackPointExtension>
            <ns3:hr>128</ns3:hr>
            <ns3:cad>56</ns3:cad>
          </ns3:TrackPointExtension>
        </extensions>
      </trkpt>
      <trkpt lat="55.78111298382282257080078125" lon="24.81500026769936084747314453125">
        <ele>70</ele>
        <time>2026-07-26T09:08:00.000Z</time>
        <extensions>
          <ns3:TrackPointExtension>
            <ns3:hr>128</ns3:hr>
            <ns3:cad>56</ns3:cad>
          </ns3:TrackPointExtension>
        </extensions>
      </trkpt>
      <trkpt lat="55.78113888390362262725830078125" lon="24.814961962401866912841796875">
        <ele>69.59999847412109375</ele>
        <time>2026-07-26T09:08:04.000Z</time>
        <extensions>
          <ns3:TrackPointExtension>
            <ns3:hr>127</ns3:hr>
            <ns3:cad>57</ns3:cad>
          </ns3:TrackPointExtension>
        </extensions>
      </trkpt>
      <trkpt lat="55.78117065131664276123046875" lon="24.814911670982837677001953125">
        <ele>69.59999847412109375</ele>
        <time>2026-07-26T09:08:08.000Z</time>
        <extensions>
          <ns3:TrackPointExtension>
            <ns3:hr>126</ns3:hr>
            <ns3:cad>57</ns3:cad>
          </ns3:TrackPointExtension>
        </extensions>
      </trkpt>
      <trkpt lat="55.781214237213134765625" lon="24.8148421011865139007568359375">
        <ele>69.8000030517578125</ele>
        <time>2026-07-26T09:08:13.000Z</time>
        <extensions>
          <ns3:TrackPointExtension>
            <ns3:hr>127</ns3:hr>
            <ns3:cad>53</ns3:cad>
          </ns3:TrackPointExtension>
        </extensions>
      </trkpt>
      <trkpt lat="55.78128187917172908782958984375" lon="24.81483547948300838470458984375">
        <ele>69.59999847412109375</ele>
        <time>2026-07-26T09:08:19.000Z</time>
        <extensions>
          <ns3:TrackPointExtension>
            <ns3:hr>127</ns3:hr>
            <ns3:cad>55</ns3:cad>
          </ns3:TrackPointExtension>
        </extensions>
      </trkpt>
      <trkpt lat="55.781351365149021148681640625" lon="24.814859367907047271728515625">
        <ele>69.40000152587890625</ele>
        <time>2026-07-26T09:08:26.000Z</time>
        <extensions>
          <ns3:TrackPointExtension>
            <ns3:hr>125</ns3:hr>
            <ns3:cad>55</ns3:cad>
          </ns3:TrackPointExtension>
        </extensions>
      </trkpt>
      <trkpt lat="55.78141397796571254730224609375" lon="24.81488761492073535919189453125">
        <ele>69.1999969482421875</ele>
        <time>2026-07-26T09:08:31.000Z</time>
        <extensions>
          <ns3:TrackPointExtension>
            <ns3:hr>122</ns3:hr>
            <ns3:cad>53</ns3:cad>
          </ns3:TrackPointExtension>
        </extensions>
      </trkpt>
      <trkpt lat="55.78143484890460968017578125" lon="24.81489281170070171356201171875">
        <ele>69.1999969482421875</ele>
        <time>2026-07-26T09:08:33.000Z</time>
        <extensions>
          <ns3:TrackPointExtension>
            <ns3:hr>120</ns3:hr>
            <ns3:cad>53</ns3:cad>
          </ns3:TrackPointExtension>
        </extensions>
      </trkpt>
      <trkpt lat="55.78147642314434051513671875" lon="24.81490421108901500701904296875">
        <ele>69.1999969482421875</ele>
        <time>2026-07-26T09:08:37.000Z</time>
        <extensions>
          <ns3:TrackPointExtension>
            <ns3:hr>123</ns3:hr>
            <ns3:cad>53</ns3:cad>
          </ns3:TrackPointExtension>
        </extensions>
      </trkpt>
      <trkpt lat="55.78149427659809589385986328125" lon="24.81490689329802989959716796875">
        <ele>69.1999969482421875</ele>
        <time>2026-07-26T09:08:39.000Z</time>
        <extensions>
          <ns3:TrackPointExtension>
            <ns3:hr>124</ns3:hr>
            <ns3:cad>53</ns3:cad>
          </ns3:TrackPointExtension>
        </extensions>
      </trkpt>
      <trkpt lat="55.78157993964850902557373046875" lon="24.8148729465901851654052734375">
        <ele>69.59999847412109375</ele>
        <time>2026-07-26T09:08:47.000Z</time>
        <extensions>
          <ns3:TrackPointExtension>
            <ns3:hr>125</ns3:hr>
            <ns3:cad>0</ns3:cad>
          </ns3:TrackPointExtension>
        </extensions>
      </trkpt>
      <trkpt lat="55.7816274650394916534423828125" lon="24.81485165655612945556640625">
        <ele>69.8000030517578125</ele>
        <time>2026-07-26T09:08:52.000Z</time>
        <extensions>
          <ns3:TrackPointExtension>
            <ns3:hr>128</ns3:hr>
            <ns3:cad>55</ns3:cad>
          </ns3:TrackPointExtension>
        </extensions>
      </trkpt>
      <trkpt lat="55.7816556282341480255126953125" lon="24.8148441128432750701904296875">
        <ele>70.1999969482421875</ele>
        <time>2026-07-26T09:08:54.000Z</time>
        <extensions>
          <ns3:TrackPointExtension>
            <ns3:hr>129</ns3:hr>
            <ns3:cad>53</ns3:cad>
          </ns3:TrackPointExtension>
        </extensions>
      </trkpt>
      <trkpt lat="55.78173886053264141082763671875" lon="24.814813770353794097900390625">
        <ele>70.59999847412109375</ele>
        <time>2026-07-26T09:08:59.000Z</time>
        <extensions>
          <ns3:TrackPointExtension>
            <ns3:hr>130</ns3:hr>
            <ns3:cad>54</ns3:cad>
          </ns3:TrackPointExtension>
        </extensions>
      </trkpt>
      <trkpt lat="55.781765095889568328857421875" lon="24.8148243315517902374267578125">
        <ele>71</ele>
        <time>2026-07-26T09:09:02.000Z</time>
        <extensions>
          <ns3:TrackPointExtension>
            <ns3:hr>131</ns3:hr>
            <ns3:cad>53</ns3:cad>
          </ns3:TrackPointExtension>
        </extensions>
      </trkpt>
      <trkpt lat="55.78181547112762928009033203125" lon="24.81493304483592510223388671875">
        <ele>70.59999847412109375</ele>
        <time>2026-07-26T09:09:07.000Z</time>
        <extensions>
          <ns3:TrackPointExtension>
            <ns3:hr>134</ns3:hr>
            <ns3:cad>52</ns3:cad>
          </ns3:TrackPointExtension>
        </extensions>
      </trkpt>
      <trkpt lat="55.781826786696910858154296875" lon="24.8149540834128856658935546875">
        <ele>70.40000152587890625</ele>
        <time>2026-07-26T09:09:08.000Z</time>
        <extensions>
          <ns3:TrackPointExtension>
            <ns3:hr>135</ns3:hr>
            <ns3:cad>52</ns3:cad>
          </ns3:TrackPointExtension>
        </extensions>
      </trkpt>
      <trkpt lat="55.78187883831560611724853515625" lon="24.81506531126797199249267578125">
        <ele>69.59999847412109375</ele>
        <time>2026-07-26T09:09:14.000Z</time>
        <extensions>
          <ns3:TrackPointExtension>
            <ns3:hr>135</ns3:hr>
            <ns3:cad>55</ns3:cad>
          </ns3:TrackPointExtension>
        </extensions>
      </trkpt>
      <trkpt lat="55.78189090825617313385009765625" lon="24.81509682722389698028564453125">
        <ele>69.40000152587890625</ele>
        <time>2026-07-26T09:09:16.000Z</time>
        <extensions>
          <ns3:TrackPointExtension>
            <ns3:hr>135</ns3:hr>
            <ns3:cad>57</ns3:cad>
          </ns3:TrackPointExtension>
        </extensions>
      </trkpt>
      <trkpt lat="55.78192745335400104522705078125" lon="24.815202690660953521728515625">
        <ele>69.1999969482421875</ele>
        <time>2026-07-26T09:09:21.000Z</time>
        <extensions>
          <ns3:TrackPointExtension>
            <ns3:hr>131</ns3:hr>
            <ns3:cad>57</ns3:cad>
          </ns3:TrackPointExtension>
        </extensions>
      </trkpt>
      <trkpt lat="55.7819469831883907318115234375" lon="24.8152839951217174530029296875">
        <ele>69</ele>
        <time>2026-07-26T09:09:24.000Z</time>
        <extensions>
          <ns3:TrackPointExtension>
            <ns3:hr>129</ns3:hr>
            <ns3:cad>57</ns3:cad>
          </ns3:TrackPointExtension>
        </extensions>
      </trkpt>
      <trkpt lat="55.7819868810474872589111328125" lon="24.81541550718247890472412109375">
        <ele>68.59999847412109375</ele>
        <time>2026-07-26T09:09:30.000Z</time>
        <extensions>
          <ns3:TrackPointExtension>
            <ns3:hr>129</ns3:hr>
            <ns3:cad>57</ns3:cad>
          </ns3:TrackPointExtension>
        </extensions>
      </trkpt>
      <trkpt lat="55.7820073328912258148193359375" lon="24.81558448635041713714599609375">
        <ele>68</ele>
        <time>2026-07-26T09:09:37.000Z</time>
        <extensions>
          <ns3:TrackPointExtension>
            <ns3:hr>129</ns3:hr>
            <ns3:cad>56</ns3:cad>
          </ns3:TrackPointExtension>
        </extensions>
      </trkpt>
      <trkpt lat="55.78201194293797016143798828125" lon="24.81569588184356689453125">
        <ele>67.59999847412109375</ele>
        <time>2026-07-26T09:09:42.000Z</time>
        <extensions>
          <ns3:TrackPointExtension>
            <ns3:hr>126</ns3:hr>
            <ns3:cad>57</ns3:cad>
          </ns3:TrackPointExtension>
        </extensions>
      </trkpt>
      <trkpt lat="55.7820133678615093231201171875" lon="24.815744496881961822509765625">
        <ele>67.59999847412109375</ele>
        <time>2026-07-26T09:09:44.000Z</time>
        <extensions>
          <ns3:TrackPointExtension>
            <ns3:hr>126</ns3:hr>
            <ns3:cad>57</ns3:cad>
          </ns3:TrackPointExtension>
        </extensions>
      </trkpt>
      <trkpt lat="55.78201294876635074615478515625" lon="24.815772660076618194580078125">
        <ele>67.59999847412109375</ele>
        <time>2026-07-26T09:09:45.000Z</time>
        <extensions>
          <ns3:TrackPointExtension>
            <ns3:hr>126</ns3:hr>
            <ns3:cad>57</ns3:cad>
          </ns3:TrackPointExtension>
        </extensions>
      </trkpt>
      <trkpt lat="55.7819868810474872589111328125" lon="24.815907441079616546630859375">
        <ele>67.59999847412109375</ele>
        <time>2026-07-26T09:09:50.000Z</time>
        <extensions>
          <ns3:TrackPointExtension>
            <ns3:hr>125</ns3:hr>
            <ns3:cad>57</ns3:cad>
          </ns3:TrackPointExtension>
        </extensions>
      </trkpt>
      <trkpt lat="55.7819553650915622711181640625" lon="24.81613081879913806915283203125">
        <ele>67.40000152587890625</ele>
        <time>2026-07-26T09:09:58.000Z</time>
        <extensions>
          <ns3:TrackPointExtension>
            <ns3:hr>125</ns3:hr>
            <ns3:cad>57</ns3:cad>
          </ns3:TrackPointExtension>
        </extensions>
      </trkpt>
      <trkpt lat="55.781938768923282623291015625" lon="24.816298373043537139892578125">
        <ele>67.59999847412109375</ele>
        <time>2026-07-26T09:10:05.000Z</time>
        <extensions>
          <ns3:TrackPointExtension>
            <ns3:hr>123</ns3:hr>
            <ns3:cad>57</ns3:cad>
          </ns3:TrackPointExtension>
        </extensions>
      </trkpt>
      <trkpt lat="55.78191605396568775177001953125" lon="24.816539771854877471923828125">
        <ele>67.1999969482421875</ele>
        <time>2026-07-26T09:10:15.000Z</time>
        <extensions>
          <ns3:TrackPointExtension>
            <ns3:hr>122</ns3:hr>
            <ns3:cad>57</ns3:cad>
          </ns3:TrackPointExtension>
        </extensions>
      </trkpt>
      <trkpt lat="55.78188722021877765655517578125" lon="24.81679902411997318267822265625">
        <ele>67</ele>
        <time>2026-07-26T09:10:25.000Z</time>
        <extensions>
          <ns3:TrackPointExtension>
            <ns3:hr>123</ns3:hr>
            <ns3:cad>58</ns3:cad>
          </ns3:TrackPointExtension>
        </extensions>
      </trkpt>
      <trkpt lat="55.7818557880818843841552734375" lon="24.81699365191161632537841796875">
        <ele>66.59999847412109375</ele>
        <time>2026-07-26T09:10:33.000Z</time>
        <extensions>
          <ns3:TrackPointExtension>
            <ns3:hr>124</ns3:hr>
            <ns3:cad>57</ns3:cad>
          </ns3:TrackPointExtension>
        </extensions>
      </trkpt>
      <trkpt lat="55.78181580640375614166259765625" lon="24.817271344363689422607421875">
        <ele>66.59999847412109375</ele>
        <time>2026-07-26T09:10:43.000Z</time>
        <extensions>
          <ns3:TrackPointExtension>
            <ns3:hr>126</ns3:hr>
            <ns3:cad>59</ns3:cad>
          </ns3:TrackPointExtension>
        </extensions>
      </trkpt>
      <trkpt lat="55.78181362710893154144287109375" lon="24.817300178110599517822265625">
        <ele>66.59999847412109375</ele>
        <time>2026-07-26T09:10:44.000Z</time>
        <extensions>
          <ns3:TrackPointExtension>
            <ns3:hr>126</ns3:hr>
            <ns3:cad>59</ns3:cad>
          </ns3:TrackPointExtension>
        </extensions>
      </trkpt>
      <trkpt lat="55.78180071897804737091064453125" lon="24.81745583005249500274658203125">
        <ele>66.8000030517578125</ele>
        <time>2026-07-26T09:10:51.000Z</time>
        <extensions>
          <ns3:TrackPointExtension>
            <ns3:hr>123</ns3:hr>
            <ns3:cad>57</ns3:cad>
          </ns3:TrackPointExtension>
        </extensions>
      </trkpt>
      <trkpt lat="55.781792588531970977783203125" lon="24.81757652945816516876220703125">
        <ele>66.59999847412109375</ele>
        <time>2026-07-26T09:10:56.000Z</time>
        <extensions>
          <ns3:TrackPointExtension>
            <ns3:hr>123</ns3:hr>
            <ns3:cad>57</ns3:cad>
          </ns3:TrackPointExtension>
        </extensions>
      </trkpt>
      <trkpt lat="55.7817763276398181915283203125" lon="24.81774852611124515533447265625">
        <ele>66.8000030517578125</ele>
        <time>2026-07-26T09:11:03.000Z</time>
        <extensions>
          <ns3:TrackPointExtension>
            <ns3:hr>123</ns3:hr>
            <ns3:cad>57</ns3:cad>
          </ns3:TrackPointExtension>
        </extensions>
      </trkpt>
      <trkpt lat="55.78173886053264141082763671875" lon="24.81803501956164836883544921875">
        <ele>66.40000152587890625</ele>
        <time>2026-07-26T09:11:15.000Z</time>
        <extensions>
          <ns3:TrackPointExtension>
            <ns3:hr>124</ns3:hr>
            <ns3:cad>59</ns3:cad>
          </ns3:TrackPointExtension>
        </extensions>
      </trkpt>
      <trkpt lat="55.781708769500255584716796875" lon="24.81827742420136928558349609375">
        <ele>66.1999969482421875</ele>
        <time>2026-07-26T09:11:25.000Z</time>
        <extensions>
          <ns3:TrackPointExtension>
            <ns3:hr>125</ns3:hr>
            <ns3:cad>58</ns3:cad>
          </ns3:TrackPointExtension>
        </extensions>
      </trkpt>
      <trkpt lat="55.7816854678094387054443359375" lon="24.81851446442306041717529296875">
        <ele>66</ele>
        <time>2026-07-26T09:11:35.000Z</time>
        <extensions>
          <ns3:TrackPointExtension>
            <ns3:hr>124</ns3:hr>
            <ns3:cad>59</ns3:cad>
          </ns3:TrackPointExtension>
        </extensions>
      </trkpt>
      <trkpt lat="55.78165437094867229461669921875" lon="24.81877916492521762847900390625">
        <ele>65.8000030517578125</ele>
        <time>2026-07-26T09:11:46.000Z</time>
        <extensions>
          <ns3:TrackPointExtension>
            <ns3:hr>126</ns3:hr>
            <ns3:cad>59</ns3:cad>
          </ns3:TrackPointExtension>
        </extensions>
      </trkpt>
      <trkpt lat="55.78164632432162761688232421875" lon="24.81889382936060428619384765625">
        <ele>65.59999847412109375</ele>
        <time>2026-07-26T09:11:51.000Z</time>
        <extensions>
          <ns3:TrackPointExtension>
            <ns3:hr>127</ns3:hr>
            <ns3:cad>59</ns3:cad>
          </ns3:TrackPointExtension>
        </extensions>
      </trkpt>
      <trkpt lat="55.7816408760845661163330078125" lon="24.8189918138086795806884765625">
        <ele>65.8000030517578125</ele>
        <time>2026-07-26T09:11:55.000Z</time>
        <extensions>
          <ns3:TrackPointExtension>
            <ns3:hr>126</ns3:hr>
            <ns3:cad>59</ns3:cad>
          </ns3:TrackPointExtension>
        </extensions>
      </trkpt>
      <trkpt lat="55.7816326618194580078125" lon="24.8191872797906398773193359375">
        <ele>66</ele>
        <time>2026-07-26T09:12:03.000Z</time>
        <extensions>
          <ns3:TrackPointExtension>
            <ns3:hr>128</ns3:hr>
            <ns3:cad>60</ns3:cad>
          </ns3:TrackPointExtension>
        </extensions>
      </trkpt>
      <trkpt lat="55.78160651028156280517578125" lon="24.81945508159697055816650390625">
        <ele>65.8000030517578125</ele>
        <time>2026-07-26T09:12:13.000Z</time>
        <extensions>
          <ns3:TrackPointExtension>
            <ns3:hr>128</ns3:hr>
            <ns3:cad>59</ns3:cad>
          </ns3:TrackPointExtension>
        </extensions>
      </trkpt>
      <trkpt lat="55.78159251250326633453369140625" lon="24.819700419902801513671875">
        <ele>65.8000030517578125</ele>
        <time>2026-07-26T09:12:23.000Z</time>
        <extensions>
          <ns3:TrackPointExtension>
            <ns3:hr>128</ns3:hr>
            <ns3:cad>59</ns3:cad>
          </ns3:TrackPointExtension>
        </extensions>
      </trkpt>
      <trkpt lat="55.78156971372663974761962890625" lon="24.8199510388076305389404296875">
        <ele>65.59999847412109375</ele>
        <time>2026-07-26T09:12:33.000Z</time>
        <extensions>
          <ns3:TrackPointExtension>
            <ns3:hr>130</ns3:hr>
            <ns3:cad>59</ns3:cad>
          </ns3:TrackPointExtension>
        </extensions>
      </trkpt>
      <trkpt lat="55.78154213726520538330078125" lon="24.8202088661491870880126953125">
        <ele>65.59999847412109375</ele>
        <time>2026-07-26T09:12:45.000Z</time>
        <extensions>
          <ns3:TrackPointExtension>
            <ns3:hr>131</ns3:hr>
            <ns3:cad>59</ns3:cad>
          </ns3:TrackPointExtension>
        </extensions>
      </trkpt>
      <trkpt lat="55.781531743705272674560546875" lon="24.82036267407238483428955078125">
        <ele>65.8000030517578125</ele>
        <time>2026-07-26T09:12:52.000Z</time>
        <extensions>
          <ns3:TrackPointExtension>
            <ns3:hr>134</ns3:hr>
            <ns3:cad>59</ns3:cad>
          </ns3:TrackPointExtension>
        </extensions>
      </trkpt>
      <trkpt lat="55.78153149224817752838134765625" lon="24.82046208344399929046630859375">
        <ele>65.59999847412109375</ele>
        <time>2026-07-26T09:12:56.000Z</time>
        <extensions>
          <ns3:TrackPointExtension>
            <ns3:hr>136</ns3:hr>
            <ns3:cad>59</ns3:cad>
          </ns3:TrackPointExtension>
        </extensions>
      </trkpt>
      <trkpt lat="55.7815218530595302581787109375" lon="24.8205635882914066314697265625">
        <ele>66</ele>
        <time>2026-07-26T09:13:00.000Z</time>
        <extensions>
          <ns3:TrackPointExtension>
            <ns3:hr>132</ns3:hr>
            <ns3:cad>59</ns3:cad>
          </ns3:TrackPointExtension>
        </extensions>
      </trkpt>
      <trkpt lat="55.78151523135602474212646484375" lon="24.82059719972312450408935546875">
        <ele>66</ele>
        <time>2026-07-26T09:13:01.000Z</time>
        <extensions>
          <ns3:TrackPointExtension>
            <ns3:hr>128</ns3:hr>
            <ns3:cad>59</ns3:cad>
          </ns3:TrackPointExtension>
        </extensions>
      </trkpt>
      <trkpt lat="55.78150928020477294921875" lon="24.82062511146068572998046875">
        <ele>66.1999969482421875</ele>
        <time>2026-07-26T09:13:02.000Z</time>
        <extensions>
          <ns3:TrackPointExtension>
            <ns3:hr>125</ns3:hr>
            <ns3:cad>59</ns3:cad>
          </ns3:TrackPointExtension>
        </extensions>
      </trkpt>
      <trkpt lat="55.7814980484545230865478515625" lon="24.82069962657988071441650390625">
        <ele>66.1999969482421875</ele>
        <time>2026-07-26T09:13:05.000Z</time>
        <extensions>
          <ns3:TrackPointExtension>
            <ns3:hr>124</ns3:hr>
            <ns3:cad>59</ns3:cad>
          </ns3:TrackPointExtension>
        </extensions>
      </trkpt>
      <trkpt lat="55.78148153610527515411376953125" lon="24.82090163044631481170654296875">
        <ele>66</ele>
        <time>2026-07-26T09:13:12.000Z</time>
        <extensions>
          <ns3:TrackPointExtension>
            <ns3:hr>127</ns3:hr>
            <ns3:cad>59</ns3:cad>
          </ns3:TrackPointExtension>
        </extensions>
      </trkpt>
      <trkpt lat="55.78148069791495800018310546875" lon="24.820956028997898101806640625">
        <ele>65.8000030517578125</ele>
        <time>2026-07-26T09:13:14.000Z</time>
        <extensions>
          <ns3:TrackPointExtension>
            <ns3:hr>127</ns3:hr>
            <ns3:cad>59</ns3:cad>
          </ns3:TrackPointExtension>
        </extensions>
      </trkpt>
      <trkpt lat="55.78146242536604404449462890625" lon="24.821161888539791107177734375">
        <ele>65.1999969482421875</ele>
        <time>2026-07-26T09:13:24.000Z</time>
        <extensions>
          <ns3:TrackPointExtension>
            <ns3:hr>129</ns3:hr>
            <ns3:cad>59</ns3:cad>
          </ns3:TrackPointExtension>
        </extensions>
      </trkpt>
      <trkpt lat="55.7814360223710536956787109375" lon="24.82141477055847644805908203125">
        <ele>65.59999847412109375</ele>
        <time>2026-07-26T09:13:33.000Z</time>
        <extensions>
          <ns3:TrackPointExtension>
            <ns3:hr>129</ns3:hr>
            <ns3:cad>58</ns3:cad>
          </ns3:TrackPointExtension>
        </extensions>
      </trkpt>
      <trkpt lat="55.7814179174602031707763671875" lon="24.82165667228400707244873046875">
        <ele>66</ele>
        <time>2026-07-26T09:13:42.000Z</time>
        <extensions>
          <ns3:TrackPointExtension>
            <ns3:hr>132</ns3:hr>
            <ns3:cad>59</ns3:cad>
          </ns3:TrackPointExtension>
        </extensions>
      </trkpt>
      <trkpt lat="55.7814085297286510467529296875" lon="24.8217672295868396759033203125">
        <ele>66</ele>
        <time>2026-07-26T09:13:46.000Z</time>
        <extensions>
          <ns3:TrackPointExtension>
            <ns3:hr>135</ns3:hr>
            <ns3:cad>59</ns3:cad>
          </ns3:TrackPointExtension>
        </extensions>
      </trkpt>
      <trkpt lat="55.78140593133866786956787109375" lon="24.8218148387968540191650390625">
        <ele>66</ele>
        <time>2026-07-26T09:13:48.000Z</time>
        <extensions>
          <ns3:TrackPointExtension>
            <ns3:hr>137</ns3:hr>
            <ns3:cad>59</ns3:cad>
          </ns3:TrackPointExtension>
        </extensions>
      </trkpt>
      <trkpt lat="55.78138615004718303680419921875" lon="24.82207459397614002227783203125">
        <ele>65.8000030517578125</ele>
        <time>2026-07-26T09:13:58.000Z</time>
        <extensions>
          <ns3:TrackPointExtension>
            <ns3:hr>134</ns3:hr>
            <ns3:cad>58</ns3:cad>
          </ns3:TrackPointExtension>
        </extensions>
      </trkpt>
      <trkpt lat="55.781365446746349334716796875" lon="24.8223893344402313232421875">
        <ele>65.59999847412109375</ele>
        <time>2026-07-26T09:14:10.000Z</time>
        <extensions>
          <ns3:TrackPointExtension>
            <ns3:hr>134</ns3:hr>
            <ns3:cad>59</ns3:cad>
          </ns3:TrackPointExtension>
        </extensions>
      </trkpt>
      <trkpt lat="55.78133426606655120849609375" lon="24.8226288892328739166259765625">
        <ele>66</ele>
        <time>2026-07-26T09:14:19.000Z</time>
        <extensions>
          <ns3:TrackPointExtension>
            <ns3:hr>133</ns3:hr>
            <ns3:cad>60</ns3:cad>
          </ns3:TrackPointExtension>
        </extensions>
      </trkpt>
      <trkpt lat="55.781320519745349884033203125" lon="24.8228783346712589263916015625">
        <ele>65.40000152587890625</ele>
        <time>2026-07-26T09:14:29.000Z</time>
        <extensions>
          <ns3:TrackPointExtension>
            <ns3:hr>131</ns3:hr>
            <ns3:cad>58</ns3:cad>
          </ns3:TrackPointExtension>
        </extensions>
      </trkpt>
      <trkpt lat="55.781306438148021697998046875" lon="24.82318704016506671905517578125">
        <ele>66</ele>
        <time>2026-07-26T09:14:41.000Z</time>
        <extensions>
          <ns3:TrackPointExtension>
            <ns3:hr>131</ns3:hr>
            <ns3:cad>59</ns3:cad>
          </ns3:TrackPointExtension>
        </extensions>
      </trkpt>
      <trkpt lat="55.78129093162715435028076171875" lon="24.82337596826255321502685546875">
        <ele>66</ele>
        <time>2026-07-26T09:14:48.000Z</time>
        <extensions>
          <ns3:TrackPointExtension>
            <ns3:hr>131</ns3:hr>
            <ns3:cad>59</ns3:cad>
          </ns3:TrackPointExtension>
        </extensions>
      </trkpt>
      <trkpt lat="55.7812660373747348785400390625" lon="24.82360236346721649169921875">
        <ele>66.40000152587890625</ele>
        <time>2026-07-26T09:14:56.000Z</time>
        <extensions>
          <ns3:TrackPointExtension>
            <ns3:hr>129</ns3:hr>
            <ns3:cad>59</ns3:cad>
          </ns3:TrackPointExtension>
        </extensions>
      </trkpt>
      <trkpt lat="55.781262181699275970458984375" lon="24.8236266709864139556884765625">
        <ele>66.59999847412109375</ele>
        <time>2026-07-26T09:14:57.000Z</time>
        <extensions>
          <ns3:TrackPointExtension>
            <ns3:hr>129</ns3:hr>
            <ns3:cad>60</ns3:cad>
          </ns3:TrackPointExtension>
        </extensions>
      </trkpt>
      <trkpt lat="55.781244747340679168701171875" lon="24.8238238133490085601806640625">
        <ele>66.8000030517578125</ele>
        <time>2026-07-26T09:15:05.000Z</time>
        <extensions>
          <ns3:TrackPointExtension>
            <ns3:hr>131</ns3:hr>
            <ns3:cad>59</ns3:cad>
          </ns3:TrackPointExtension>
        </extensions>
      </trkpt>
      <trkpt lat="55.781237371265888214111328125" lon="24.823899082839488983154296875">
        <ele>66.40000152587890625</ele>
        <time>2026-07-26T09:15:08.000Z</time>
        <extensions>
          <ns3:TrackPointExtension>
            <ns3:hr>128</ns3:hr>
            <ns3:cad>60</ns3:cad>
          </ns3:TrackPointExtension>
        </extensions>
      </trkpt>
      <trkpt lat="55.7812237925827503204345703125" lon="24.82402749359607696533203125">
        <ele>66</ele>
        <time>2026-07-26T09:15:13.000Z</time>
        <extensions>
          <ns3:TrackPointExtension>
            <ns3:hr>128</ns3:hr>
            <ns3:cad>60</ns3:cad>
          </ns3:TrackPointExtension>
        </extensions>
      </trkpt>
      <trkpt lat="55.781212560832500457763671875" lon="24.8241336084902286529541015625">
        <ele>65.8000030517578125</ele>
        <time>2026-07-26T09:15:17.000Z</time>
        <extensions>
          <ns3:TrackPointExtension>
            <ns3:hr>131</ns3:hr>
            <ns3:cad>60</ns3:cad>
          </ns3:TrackPointExtension>
        </extensions>
      </trkpt>
      <trkpt lat="55.78119470737874507904052734375" lon="24.82430200092494487762451171875">
        <ele>66</ele>
        <time>2026-07-26T09:15:23.000Z</time>
        <extensions>
          <ns3:TrackPointExtension>
            <ns3:hr>129</ns3:hr>
            <ns3:cad>58</ns3:cad>
          </ns3:TrackPointExtension>
        </extensions>
      </trkpt>
      <trkpt lat="55.7811758480966091156005859375" lon="24.824458993971347808837890625">
        <ele>66</ele>
        <time>2026-07-26T09:15:29.000Z</time>
        <extensions>
          <ns3:TrackPointExtension>
            <ns3:hr>129</ns3:hr>
            <ns3:cad>61</ns3:cad>
          </ns3:TrackPointExtension>
        </extensions>
      </trkpt>
      <trkpt lat="55.78117023222148418426513671875" lon="24.8245111294090747833251953125">
        <ele>65.59999847412109375</ele>
        <time>2026-07-26T09:15:31.000Z</time>
        <extensions>
          <ns3:TrackPointExtension>
            <ns3:hr>129</ns3:hr>
            <ns3:cad>59</ns3:cad>
          </ns3:TrackPointExtension>
        </extensions>
      </trkpt>
      <trkpt lat="55.78115313313901424407958984375" lon="24.82468773610889911651611328125">
        <ele>65.8000030517578125</ele>
        <time>2026-07-26T09:15:38.000Z</time>
        <extensions>
          <ns3:TrackPointExtension>
            <ns3:hr>129</ns3:hr>
            <ns3:cad>59</ns3:cad>
          </ns3:TrackPointExtension>
        </extensions>
      </trkpt>
      <trkpt lat="55.78115011565387248992919921875" lon="24.82476510107517242431640625">
        <ele>66</ele>
        <time>2026-07-26T09:15:41.000Z</time>
        <extensions>
          <ns3:TrackPointExtension>
            <ns3:hr>126</ns3:hr>
            <ns3:cad>59</ns3:cad>
          </ns3:TrackPointExtension>
        </extensions>
      </trkpt>
      <trkpt lat="55.78114424832165241241455078125" lon="24.824868030846118927001953125">
        <ele>65.8000030517578125</ele>
        <time>2026-07-26T09:15:45.000Z</time>
        <extensions>
          <ns3:TrackPointExtension>
            <ns3:hr>125</ns3:hr>
            <ns3:cad>59</ns3:cad>
          </ns3:TrackPointExtension>
        </extensions>
      </trkpt>
      <trkpt lat="55.78113636933267116546630859375" lon="24.8250116966664791107177734375">
        <ele>65.8000030517578125</ele>
        <time>2026-07-26T09:15:51.000Z</time>
        <extensions>
          <ns3:TrackPointExtension>
            <ns3:hr>126</ns3:hr>
            <ns3:cad>59</ns3:cad>
          </ns3:TrackPointExtension>
        </extensions>
      </trkpt>
      <trkpt lat="55.7811312563717365264892578125" lon="24.82521227560937404632568359375">
        <ele>66</ele>
        <time>2026-07-26T09:15:59.000Z</time>
        <extensions>
          <ns3:TrackPointExtension>
            <ns3:hr>126</ns3:hr>
            <ns3:cad>59</ns3:cad>
          </ns3:TrackPointExtension>
        </extensions>
      </trkpt>
      <trkpt lat="55.78112681396305561065673828125" lon="24.8253022134304046630859375">
        <ele>66</ele>
        <time>2026-07-26T09:16:03.000Z</time>
        <extensions>
          <ns3:TrackPointExtension>
            <ns3:hr>123</ns3:hr>
            <ns3:cad>58</ns3:cad>
          </ns3:TrackPointExtension>
        </extensions>
      </trkpt>
      <trkpt lat="55.7811124809086322784423828125" lon="24.82546708546578884124755859375">
        <ele>66</ele>
        <time>2026-07-26T09:16:09.000Z</time>
        <extensions>
          <ns3:TrackPointExtension>
            <ns3:hr>123</ns3:hr>
            <ns3:cad>58</ns3:cad>
          </ns3:TrackPointExtension>
        </extensions>
      </trkpt>
      <trkpt lat="55.781089849770069122314453125" lon="24.825713932514190673828125">
        <ele>65.8000030517578125</ele>
        <time>2026-07-26T09:16:18.000Z</time>
        <extensions>
          <ns3:TrackPointExtension>
            <ns3:hr>123</ns3:hr>
            <ns3:cad>58</ns3:cad>
          </ns3:TrackPointExtension>
        </extensions>
      </trkpt>
      <trkpt lat="55.78105506487190723419189453125" lon="24.82593127526342868804931640625">
        <ele>66.1999969482421875</ele>
        <time>2026-07-26T09:16:27.000Z</time>
        <extensions>
          <ns3:TrackPointExtension>
            <ns3:hr>124</ns3:hr>
            <ns3:cad>59</ns3:cad>
          </ns3:TrackPointExtension>
        </extensions>
      </trkpt>
      <trkpt lat="55.7810521312057971954345703125" lon="24.82604845426976680755615234375">
        <ele>66</ele>
        <time>2026-07-26T09:16:32.000Z</time>
        <extensions>
          <ns3:TrackPointExtension>
            <ns3:hr>127</ns3:hr>
            <ns3:cad>58</ns3:cad>
          </ns3:TrackPointExtension>
        </extensions>
      </trkpt>
      <trkpt lat="55.7810444198548793792724609375" lon="24.8262088000774383544921875">
        <ele>66</ele>
        <time>2026-07-26T09:16:38.000Z</time>
        <extensions>
          <ns3:TrackPointExtension>
            <ns3:hr>126</ns3:hr>
            <ns3:cad>58</ns3:cad>
          </ns3:TrackPointExtension>
        </extensions>
      </trkpt>
      <trkpt lat="55.78102656640112400054931640625" lon="24.82646428048610687255859375">
        <ele>65.8000030517578125</ele>
        <time>2026-07-26T09:16:48.000Z</time>
        <extensions>
          <ns3:TrackPointExtension>
            <ns3:hr>125</ns3:hr>
            <ns3:cad>59</ns3:cad>
          </ns3:TrackPointExtension>
        </extensions>
      </trkpt>
      <trkpt lat="55.78099572099745273590087890625" lon="24.8267289809882640838623046875">
        <ele>65.8000030517578125</ele>
        <time>2026-07-26T09:16:58.000Z</time>
        <extensions>
          <ns3:TrackPointExtension>
            <ns3:hr>126</ns3:hr>
            <ns3:cad>59</ns3:cad>
          </ns3:TrackPointExtension>
        </extensions>
      </trkpt>
      <trkpt lat="55.78097342513501644134521484375" lon="24.826983623206615447998046875">
        <ele>65.59999847412109375</ele>
        <time>2026-07-26T09:17:08.000Z</time>
        <extensions>
          <ns3:TrackPointExtension>
            <ns3:hr>126</ns3:hr>
            <ns3:cad>59</ns3:cad>
          </ns3:TrackPointExtension>
        </extensions>
      </trkpt>
      <trkpt lat="55.7809527218341827392578125" lon="24.82718185521662235260009765625">
        <ele>65.8000030517578125</ele>
        <time>2026-07-26T09:17:16.000Z</time>
        <extensions>
          <ns3:TrackPointExtension>
            <ns3:hr>125</ns3:hr>
            <ns3:cad>58</ns3:cad>
          </ns3:TrackPointExtension>
        </extensions>
      </trkpt>
      <trkpt lat="55.78092413954436779022216796875" lon="24.82742308638989925384521484375">
        <ele>66.1999969482421875</ele>
        <time>2026-07-26T09:17:25.000Z</time>
        <extensions>
          <ns3:TrackPointExtension>
            <ns3:hr>126</ns3:hr>
            <ns3:cad>60</ns3:cad>
          </ns3:TrackPointExtension>
        </extensions>
      </trkpt>
      <trkpt lat="55.78090955503284931182861328125" lon="24.82766347937285900115966796875">
        <ele>66</ele>
        <time>2026-07-26T09:17:34.000Z</time>
        <extensions>
          <ns3:TrackPointExtension>
            <ns3:hr>125</ns3:hr>
            <ns3:cad>58</ns3:cad>
          </ns3:TrackPointExtension>
        </extensions>
      </trkpt>
      <trkpt lat="55.78088357113301753997802734375" lon="24.82788459397852420806884765625">
        <ele>66</ele>
        <time>2026-07-26T09:17:43.000Z</time>
        <extensions>
          <ns3:TrackPointExtension>
            <ns3:hr>126</ns3:hr>
            <ns3:cad>58</ns3:cad>
          </ns3:TrackPointExtension>
        </extensions>
      </trkpt>
      <trkpt lat="55.78087921254336833953857421875" lon="24.8280389048159122467041015625">
        <ele>66.40000152587890625</ele>
        <time>2026-07-26T09:17:49.000Z</time>
        <extensions>
          <ns3:TrackPointExtension>
            <ns3:hr>125</ns3:hr>
            <ns3:cad>60</ns3:cad>
          </ns3:TrackPointExtension>
        </extensions>
      </trkpt>
      <trkpt lat="55.7808801345527172088623046875" lon="24.8280881904065608978271484375">
        <ele>66.59999847412109375</ele>
        <time>2026-07-26T09:17:51.000Z</time>
        <extensions>
          <ns3:TrackPointExtension>
            <ns3:hr>124</ns3:hr>
            <ns3:cad>60</ns3:cad>
          </ns3:TrackPointExtension>
        </extensions>
      </trkpt>
      <trkpt lat="55.78087870962917804718017578125" lon="24.82813823036849498748779296875">
        <ele>66.59999847412109375</ele>
        <time>2026-07-26T09:17:53.000Z</time>
        <extensions>
          <ns3:TrackPointExtension>
            <ns3:hr>121</ns3:hr>
            <ns3:cad>59</ns3:cad>
          </ns3:TrackPointExtension>
        </extensions>
      </trkpt>
      <trkpt lat="55.78086630441248416900634765625" lon="24.82828943990170955657958984375">
        <ele>66.59999847412109375</ele>
        <time>2026-07-26T09:17:59.000Z</time>
        <extensions>
          <ns3:TrackPointExtension>
            <ns3:hr>121</ns3:hr>
            <ns3:cad>59</ns3:cad>
          </ns3:TrackPointExtension>
        </extensions>
      </trkpt>
      <trkpt lat="55.7808427512645721435546875" lon="24.828493036329746246337890625">
        <ele>67.1999969482421875</ele>
        <time>2026-07-26T09:18:07.000Z</time>
        <extensions>
          <ns3:TrackPointExtension>
            <ns3:hr>123</ns3:hr>
            <ns3:cad>59</ns3:cad>
          </ns3:TrackPointExtension>
        </extensions>
      </trkpt>
      <trkpt lat="55.78082104213535785675048828125" lon="24.82872915454208850860595703125">
        <ele>66.1999969482421875</ele>
        <time>2026-07-26T09:18:16.000Z</time>
        <extensions>
          <ns3:TrackPointExtension>
            <ns3:hr>122</ns3:hr>
            <ns3:cad>59</ns3:cad>
          </ns3:TrackPointExtension>
        </extensions>
      </trkpt>
      <trkpt lat="55.7808090560138225555419921875" lon="24.82890316285192966461181640625">
        <ele>66.59999847412109375</ele>
        <time>2026-07-26T09:18:23.000Z</time>
        <extensions>
          <ns3:TrackPointExtension>
            <ns3:hr>123</ns3:hr>
            <ns3:cad>59</ns3:cad>
          </ns3:TrackPointExtension>
        </extensions>
      </trkpt>
      <trkpt lat="55.78078231774270534515380859375" lon="24.82913500629365444183349609375">
        <ele>67.1999969482421875</ele>
        <time>2026-07-26T09:18:32.000Z</time>
        <extensions>
          <ns3:TrackPointExtension>
            <ns3:hr>124</ns3:hr>
            <ns3:cad>58</ns3:cad>
          </ns3:TrackPointExtension>
        </extensions>
      </trkpt>
      <trkpt lat="55.7807704992592334747314453125" lon="24.8293749801814556121826171875">
        <ele>67</ele>
        <time>2026-07-26T09:18:41.000Z</time>
        <extensions>
          <ns3:TrackPointExtension>
            <ns3:hr>124</ns3:hr>
            <ns3:cad>59</ns3:cad>
          </ns3:TrackPointExtension>
        </extensions>
      </trkpt>
      <trkpt lat="55.7807641290128231048583984375" lon="24.8295530118048191070556640625">
        <ele>67</ele>
        <time>2026-07-26T09:18:48.000Z</time>
        <extensions>
          <ns3:TrackPointExtension>
            <ns3:hr>121</ns3:hr>
            <ns3:cad>59</ns3:cad>
          </ns3:TrackPointExtension>
        </extensions>
      </trkpt>
      <trkpt lat="55.78075985424220561981201171875" lon="24.8297887109220027923583984375">
        <ele>67</ele>
        <time>2026-07-26T09:18:57.000Z</time>
        <extensions>
          <ns3:TrackPointExtension>
            <ns3:hr>121</ns3:hr>
            <ns3:cad>58</ns3:cad>
          </ns3:TrackPointExtension>
        </extensions>
      </trkpt>
      <trkpt lat="55.78076119534671306610107421875" lon="24.82998199760913848876953125">
        <ele>67</ele>
        <time>2026-07-26T09:19:04.000Z</time>
        <extensions>
          <ns3:TrackPointExtension>
            <ns3:hr>125</ns3:hr>
            <ns3:cad>58</ns3:cad>
          </ns3:TrackPointExtension>
        </extensions>
      </trkpt>
      <trkpt lat="55.78076354227960109710693359375" lon="24.830076210200786590576171875">
        <ele>67.59999847412109375</ele>
        <time>2026-07-26T09:19:08.000Z</time>
        <extensions>
          <ns3:TrackPointExtension>
            <ns3:hr>126</ns3:hr>
            <ns3:cad>58</ns3:cad>
          </ns3:TrackPointExtension>
        </extensions>
      </trkpt>
      <trkpt lat="55.7807691581547260284423828125" lon="24.83012524433434009552001953125">
        <ele>67.59999847412109375</ele>
        <time>2026-07-26T09:19:10.000Z</time>
        <extensions>
          <ns3:TrackPointExtension>
            <ns3:hr>126</ns3:hr>
            <ns3:cad>58</ns3:cad>
          </ns3:TrackPointExtension>
        </extensions>
      </trkpt>
      <trkpt lat="55.7807631231844425201416015625" lon="24.83024326153099536895751953125">
        <ele>67.59999847412109375</ele>
        <time>2026-07-26T09:19:15.000Z</time>
        <extensions>
          <ns3:TrackPointExtension>
            <ns3:hr>127</ns3:hr>
            <ns3:cad>60</ns3:cad>
          </ns3:TrackPointExtension>
        </extensions>
      </trkpt>
      <trkpt lat="55.78077058307826519012451171875" lon="24.83045666478574275970458984375">
        <ele>66.59999847412109375</ele>
        <time>2026-07-26T09:19:23.000Z</time>
        <extensions>
          <ns3:TrackPointExtension>
            <ns3:hr>126</ns3:hr>
            <ns3:cad>59</ns3:cad>
          </ns3:TrackPointExtension>
        </extensions>
      </trkpt>
      <trkpt lat="55.780753903090953826904296875" lon="24.83062530867755413055419921875">
        <ele>66.40000152587890625</ele>
        <time>2026-07-26T09:19:30.000Z</time>
        <extensions>
          <ns3:TrackPointExtension>
            <ns3:hr>125</ns3:hr>
            <ns3:cad>59</ns3:cad>
          </ns3:TrackPointExtension>
        </extensions>
      </trkpt>
      <trkpt lat="55.78071593306958675384521484375" lon="24.83084474690258502960205078125">
        <ele>66.59999847412109375</ele>
        <time>2026-07-26T09:19:39.000Z</time>
        <extensions>
          <ns3:TrackPointExtension>
            <ns3:hr>125</ns3:hr>
            <ns3:cad>59</ns3:cad>
          </ns3:TrackPointExtension>
        </extensions>
      </trkpt>
      <trkpt lat="55.7806873507797718048095703125" lon="24.8310394585132598876953125">
        <ele>67.8000030517578125</ele>
        <time>2026-07-26T09:19:47.000Z</time>
        <extensions>
          <ns3:TrackPointExtension>
            <ns3:hr>123</ns3:hr>
            <ns3:cad>59</ns3:cad>
          </ns3:TrackPointExtension>
        </extensions>
      </trkpt>
      <trkpt lat="55.7806826569139957427978515625" lon="24.83106435276567935943603515625">
        <ele>67.8000030517578125</ele>
        <time>2026-07-26T09:19:48.000Z</time>
        <extensions>
          <ns3:TrackPointExtension>
            <ns3:hr>122</ns3:hr>
            <ns3:cad>59</ns3:cad>
          </ns3:TrackPointExtension>
        </extensions>
      </trkpt>
      <trkpt lat="55.78065357170999050140380859375" lon="24.8312786780297756195068359375">
        <ele>67.59999847412109375</ele>
        <time>2026-07-26T09:19:56.000Z</time>
        <extensions>
          <ns3:TrackPointExtension>
            <ns3:hr>124</ns3:hr>
            <ns3:cad>59</ns3:cad>
          </ns3:TrackPointExtension>
        </extensions>
      </trkpt>
      <trkpt lat="55.7806454412639141082763671875" lon="24.83143567107617855072021484375">
        <ele>67.40000152587890625</ele>
        <time>2026-07-26T09:20:02.000Z</time>
        <extensions>
          <ns3:TrackPointExtension>
            <ns3:hr>129</ns3:hr>
            <ns3:cad>59</ns3:cad>
          </ns3:TrackPointExtension>
        </extensions>
      </trkpt>
      <trkpt lat="55.780644603073596954345703125" lon="24.8314632475376129150390625">
        <ele>67.40000152587890625</ele>
        <time>2026-07-26T09:20:03.000Z</time>
        <extensions>
          <ns3:TrackPointExtension>
            <ns3:hr>130</ns3:hr>
            <ns3:cad>59</ns3:cad>
          </ns3:TrackPointExtension>
        </extensions>
      </trkpt>
      <trkpt lat="55.78065541572868824005126953125" lon="24.831645302474498748779296875">
        <ele>67.59999847412109375</ele>
        <time>2026-07-26T09:20:10.000Z</time>
        <extensions>
          <ns3:TrackPointExtension>
            <ns3:hr>129</ns3:hr>
            <ns3:cad>59</ns3:cad>
          </ns3:TrackPointExtension>
        </extensions>
      </trkpt>
      <trkpt lat="55.78069799579679965972900390625" lon="24.831817634403705596923828125">
        <ele>68.1999969482421875</ele>
        <time>2026-07-26T09:20:18.000Z</time>
        <extensions>
          <ns3:TrackPointExtension>
            <ns3:hr>128</ns3:hr>
            <ns3:cad>58</ns3:cad>
          </ns3:TrackPointExtension>
        </extensions>
      </trkpt>
      <trkpt lat="55.78072766773402690887451171875" lon="24.83196255750954151153564453125">
        <ele>68</ele>
        <time>2026-07-26T09:20:24.000Z</time>
        <extensions>
          <ns3:TrackPointExtension>
            <ns3:hr>125</ns3:hr>
            <ns3:cad>59</ns3:cad>
          </ns3:TrackPointExtension>
        </extensions>
      </trkpt>
      <trkpt lat="55.78074007295072078704833984375" lon="24.83201536349952220916748046875">
        <ele>68</ele>
        <time>2026-07-26T09:20:26.000Z</time>
        <extensions>
          <ns3:TrackPointExtension>
            <ns3:hr>125</ns3:hr>
            <ns3:cad>59</ns3:cad>
          </ns3:TrackPointExtension>
        </extensions>
      </trkpt>
      <trkpt lat="55.78080008737742900848388671875" lon="24.8322114162147045135498046875">
        <ele>68</ele>
        <time>2026-07-26T09:20:35.000Z</time>
        <extensions>
          <ns3:TrackPointExtension>
            <ns3:hr>124</ns3:hr>
            <ns3:cad>58</ns3:cad>
          </ns3:TrackPointExtension>
        </extensions>
      </trkpt>
      <trkpt lat="55.78086446039378643035888671875" lon="24.83238534070551395416259765625">
        <ele>67.8000030517578125</ele>
        <time>2026-07-26T09:20:43.000Z</time>
        <extensions>
          <ns3:TrackPointExtension>
            <ns3:hr>124</ns3:hr>
            <ns3:cad>58</ns3:cad>
          </ns3:TrackPointExtension>
        </extensions>
      </trkpt>
      <trkpt lat="55.78091022558510303497314453125" lon="24.83254224993288516998291015625">
        <ele>67.8000030517578125</ele>
        <time>2026-07-26T09:20:50.000Z</time>
        <extensions>
          <ns3:TrackPointExtension>
            <ns3:hr>123</ns3:hr>
            <ns3:cad>58</ns3:cad>
          </ns3:TrackPointExtension>
        </extensions>
      </trkpt>
      <trkpt lat="55.780980549752712249755859375" lon="24.83270117081701755523681640625">
        <ele>68</ele>
        <time>2026-07-26T09:20:58.000Z</time>
        <extensions>
          <ns3:TrackPointExtension>
            <ns3:hr>124</ns3:hr>
            <ns3:cad>58</ns3:cad>
          </ns3:TrackPointExtension>
        </extensions>
      </trkpt>
      <trkpt lat="55.78104852698743343353271484375" lon="24.832868389785289764404296875">
        <ele>68</ele>
        <time>2026-07-26T09:21:06.000Z</time>
        <extensions>
          <ns3:TrackPointExtension>
            <ns3:hr>123</ns3:hr>
            <ns3:cad>58</ns3:cad>
          </ns3:TrackPointExtension>
        </extensions>
      </trkpt>
      <trkpt lat="55.78109965659677982330322265625" lon="24.8330180905759334564208984375">
        <ele>67.8000030517578125</ele>
        <time>2026-07-26T09:21:13.000Z</time>
        <extensions>
          <ns3:TrackPointExtension>
            <ns3:hr>125</ns3:hr>
            <ns3:cad>58</ns3:cad>
          </ns3:TrackPointExtension>
        </extensions>
      </trkpt>
      <trkpt lat="55.781190432608127593994140625" lon="24.83321816660463809967041015625">
        <ele>67.8000030517578125</ele>
        <time>2026-07-26T09:21:22.000Z</time>
        <extensions>
          <ns3:TrackPointExtension>
            <ns3:hr>126</ns3:hr>
            <ns3:cad>58</ns3:cad>
          </ns3:TrackPointExtension>
        </extensions>
      </trkpt>
      <trkpt lat="55.78126528300344944000244140625" lon="24.83343542553484439849853515625">
        <ele>67.40000152587890625</ele>
        <time>2026-07-26T09:21:33.000Z</time>
        <extensions>
          <ns3:TrackPointExtension>
            <ns3:hr>126</ns3:hr>
            <ns3:cad>58</ns3:cad>
          </ns3:TrackPointExtension>
        </extensions>
      </trkpt>
      <trkpt lat="55.7813309133052825927734375" lon="24.83360608108341693878173828125">
        <ele>67.40000152587890625</ele>
        <time>2026-07-26T09:21:41.000Z</time>
        <extensions>
          <ns3:TrackPointExtension>
            <ns3:hr>126</ns3:hr>
            <ns3:cad>58</ns3:cad>
          </ns3:TrackPointExtension>
        </extensions>
      </trkpt>
      <trkpt lat="55.7814035005867481231689453125" lon="24.833789728581905364990234375">
        <ele>68</ele>
        <time>2026-07-26T09:21:50.000Z</time>
        <extensions>
          <ns3:TrackPointExtension>
            <ns3:hr>126</ns3:hr>
            <ns3:cad>58</ns3:cad>
          </ns3:TrackPointExtension>
        </extensions>
      </trkpt>
      <trkpt lat="55.7814755849540233612060546875" lon="24.8340006172657012939453125">
        <ele>67.40000152587890625</ele>
        <time>2026-07-26T09:22:00.000Z</time>
        <extensions>
          <ns3:TrackPointExtension>
            <ns3:hr>127</ns3:hr>
            <ns3:cad>59</ns3:cad>
          </ns3:TrackPointExtension>
        </extensions>
      </trkpt>
      <trkpt lat="55.7815463282167911529541015625" lon="24.8341717757284641265869140625">
        <ele>67</ele>
        <time>2026-07-26T09:22:08.000Z</time>
        <extensions>
          <ns3:TrackPointExtension>
            <ns3:hr>126</ns3:hr>
            <ns3:cad>59</ns3:cad>
          </ns3:TrackPointExtension>
        </extensions>
      </trkpt>
      <trkpt lat="55.781597793102264404296875" lon="24.83433480374515056610107421875">
        <ele>67</ele>
        <time>2026-07-26T09:22:15.000Z</time>
        <extensions>
          <ns3:TrackPointExtension>
            <ns3:hr>129</ns3:hr>
            <ns3:cad>59</ns3:cad>
          </ns3:TrackPointExtension>
        </extensions>
      </trkpt>
      <trkpt lat="55.78161866404116153717041015625" lon="24.83439347706735134124755859375">
        <ele>67.40000152587890625</ele>
        <time>2026-07-26T09:22:18.000Z</time>
        <extensions>
          <ns3:TrackPointExtension>
            <ns3:hr>128</ns3:hr>
            <ns3:cad>58</ns3:cad>
          </ns3:TrackPointExtension>
        </extensions>
      </trkpt>
      <trkpt lat="55.7816822826862335205078125" lon="24.83455155976116657257080078125">
        <ele>67.1999969482421875</ele>
        <time>2026-07-26T09:22:25.000Z</time>
        <extensions>
          <ns3:TrackPointExtension>
            <ns3:hr>128</ns3:hr>
            <ns3:cad>57</ns3:cad>
          </ns3:TrackPointExtension>
        </extensions>
      </trkpt>
      <trkpt lat="55.78176115639507770538330078125" lon="24.834745265543460845947265625">
        <ele>67.40000152587890625</ele>
        <time>2026-07-26T09:22:34.000Z</time>
        <extensions>
          <ns3:TrackPointExtension>
            <ns3:hr>128</ns3:hr>
            <ns3:cad>58</ns3:cad>
          </ns3:TrackPointExtension>
        </extensions>
      </trkpt>
      <trkpt lat="55.7818458974361419677734375" lon="24.834940396249294281005859375">
        <ele>67.59999847412109375</ele>
        <time>2026-07-26T09:22:44.000Z</time>
        <extensions>
          <ns3:TrackPointExtension>
            <ns3:hr>126</ns3:hr>
            <ns3:cad>59</ns3:cad>
          </ns3:TrackPointExtension>
        </extensions>
      </trkpt>
      <trkpt lat="55.7818943448364734649658203125" lon="24.83507626689970493316650390625">
        <ele>67.8000030517578125</ele>
        <time>2026-07-26T09:22:50.000Z</time>
        <extensions>
          <ns3:TrackPointExtension>
            <ns3:hr>123</ns3:hr>
            <ns3:cad>59</ns3:cad>
          </ns3:TrackPointExtension>
        </extensions>
      </trkpt>
      <trkpt lat="55.7819738052785396575927734375" lon="24.8352939449250698089599609375">
        <ele>68.1999969482421875</ele>
        <time>2026-07-26T09:23:00.000Z</time>
        <extensions>
          <ns3:TrackPointExtension>
            <ns3:hr>123</ns3:hr>
            <ns3:cad>60</ns3:cad>
          </ns3:TrackPointExtension>
        </extensions>
      </trkpt>
      <trkpt lat="55.782042704522609710693359375" lon="24.83547708950936794281005859375">
        <ele>68.40000152587890625</ele>
        <time>2026-07-26T09:23:08.000Z</time>
        <extensions>
          <ns3:TrackPointExtension>
            <ns3:hr>124</ns3:hr>
            <ns3:cad>60</ns3:cad>
          </ns3:TrackPointExtension>
        </extensions>
      </trkpt>
      <trkpt lat="55.78209442086517810821533203125" lon="24.835597537457942962646484375">
        <ele>68.59999847412109375</ele>
        <time>2026-07-26T09:23:14.000Z</time>
        <extensions>
          <ns3:TrackPointExtension>
            <ns3:hr>127</ns3:hr>
            <ns3:cad>60</ns3:cad>
          </ns3:TrackPointExtension>
        </extensions>
      </trkpt>
      <trkpt lat="55.7821168005466461181640625" lon="24.8356637544929981231689453125">
        <ele>68.59999847412109375</ele>
        <time>2026-07-26T09:23:17.000Z</time>
        <extensions>
          <ns3:TrackPointExtension>
            <ns3:hr>129</ns3:hr>
            <ns3:cad>61</ns3:cad>
          </ns3:TrackPointExtension>
        </extensions>
      </trkpt>
      <trkpt lat="55.78219030983746051788330078125" lon="24.83590205200016498565673828125">
        <ele>68.8000030517578125</ele>
        <time>2026-07-26T09:23:27.000Z</time>
        <extensions>
          <ns3:TrackPointExtension>
            <ns3:hr>128</ns3:hr>
            <ns3:cad>59</ns3:cad>
          </ns3:TrackPointExtension>
        </extensions>
      </trkpt>
      <trkpt lat="55.78219668008387088775634765625" lon="24.83592635951936244964599609375">
        <ele>68.8000030517578125</ele>
        <time>2026-07-26T09:23:28.000Z</time>
        <extensions>
          <ns3:TrackPointExtension>
            <ns3:hr>128</ns3:hr>
            <ns3:cad>58</ns3:cad>
          </ns3:TrackPointExtension>
        </extensions>
      </trkpt>
      <trkpt lat="55.78226122073829174041748046875" lon="24.83613121323287487030029296875">
        <ele>69.1999969482421875</ele>
        <time>2026-07-26T09:23:37.000Z</time>
        <extensions>
          <ns3:TrackPointExtension>
            <ns3:hr>128</ns3:hr>
            <ns3:cad>60</ns3:cad>
          </ns3:TrackPointExtension>
        </extensions>
      </trkpt>
      <trkpt lat="55.78232609666883945465087890625" lon="24.8362615518271923065185546875">
        <ele>69</ele>
        <time>2026-07-26T09:23:44.000Z</time>
        <extensions>
          <ns3:TrackPointExtension>
            <ns3:hr>127</ns3:hr>
            <ns3:cad>59</ns3:cad>
          </ns3:TrackPointExtension>
        </extensions>
      </trkpt>
      <trkpt lat="55.782432965934276580810546875" lon="24.83650957234203815460205078125">
        <ele>68.59999847412109375</ele>
        <time>2026-07-26T09:23:56.000Z</time>
        <extensions>
          <ns3:TrackPointExtension>
            <ns3:hr>128</ns3:hr>
            <ns3:cad>59</ns3:cad>
          </ns3:TrackPointExtension>
        </extensions>
      </trkpt>
      <trkpt lat="55.7825011946260929107666015625" lon="24.8366343788802623748779296875">
        <ele>68</ele>
        <time>2026-07-26T09:24:03.000Z</time>
        <extensions>
          <ns3:TrackPointExtension>
            <ns3:hr>127</ns3:hr>
            <ns3:cad>60</ns3:cad>
          </ns3:TrackPointExtension>
        </extensions>
      </trkpt>
      <trkpt lat="55.782543607056140899658203125" lon="24.8366930522024631500244140625">
        <ele>67.8000030517578125</ele>
        <time>2026-07-26T09:24:07.000Z</time>
        <extensions>
          <ns3:TrackPointExtension>
            <ns3:hr>127</ns3:hr>
            <ns3:cad>59</ns3:cad>
          </ns3:TrackPointExtension>
        </extensions>
      </trkpt>
      <trkpt lat="55.78257839195430278778076171875" lon="24.83673085458576679229736328125">
        <ele>67.59999847412109375</ele>
        <time>2026-07-26T09:24:10.000Z</time>
        <extensions>
          <ns3:TrackPointExtension>
            <ns3:hr>126</ns3:hr>
            <ns3:cad>59</ns3:cad>
          </ns3:TrackPointExtension>
        </extensions>
      </trkpt>
      <trkpt lat="55.782684423029422760009765625" lon="24.836817272007465362548828125">
        <ele>67.8000030517578125</ele>
        <time>2026-07-26T09:24:18.000Z</time>
        <extensions>
          <ns3:TrackPointExtension>
            <ns3:hr>125</ns3:hr>
            <ns3:cad>59</ns3:cad>
          </ns3:TrackPointExtension>
        </extensions>
      </trkpt>
      <trkpt lat="55.78280813992023468017578125" lon="24.83685876242816448211669921875">
        <ele>67.1999969482421875</ele>
        <time>2026-07-26T09:24:28.000Z</time>
        <extensions>
          <ns3:TrackPointExtension>
            <ns3:hr>124</ns3:hr>
            <ns3:cad>58</ns3:cad>
          </ns3:TrackPointExtension>
        </extensions>
      </trkpt>
      <trkpt lat="55.78288282267749309539794921875" lon="24.8368445970118045806884765625">
        <ele>66.8000030517578125</ele>
        <time>2026-07-26T09:24:33.000Z</time>
        <extensions>
          <ns3:TrackPointExtension>
            <ns3:hr>123</ns3:hr>
            <ns3:cad>59</ns3:cad>
          </ns3:TrackPointExtension>
        </extensions>
      </trkpt>
      <trkpt lat="55.78292473219335079193115234375" lon="24.8368318565189838409423828125">
        <ele>66.40000152587890625</ele>
        <time>2026-07-26T09:24:36.000Z</time>
        <extensions>
          <ns3:TrackPointExtension>
            <ns3:hr>122</ns3:hr>
            <ns3:cad>59</ns3:cad>
          </ns3:TrackPointExtension>
        </extensions>
      </trkpt>
      <trkpt lat="55.78300603665411472320556640625" lon="24.83678131364285945892333984375">
        <ele>65.59999847412109375</ele>
        <time>2026-07-26T09:24:42.000Z</time>
        <extensions>
          <ns3:TrackPointExtension>
            <ns3:hr>122</ns3:hr>
            <ns3:cad>59</ns3:cad>
          </ns3:TrackPointExtension>
        </extensions>
      </trkpt>
      <trkpt lat="55.783019363880157470703125" lon="24.83677200973033905029296875">
        <ele>65.59999847412109375</ele>
        <time>2026-07-26T09:24:43.000Z</time>
        <extensions>
          <ns3:TrackPointExtension>
            <ns3:hr>122</ns3:hr>
            <ns3:cad>59</ns3:cad>
          </ns3:TrackPointExtension>
        </extensions>
      </trkpt>
      <trkpt lat="55.78308851458132266998291015625" lon="24.83667251653969287872314453125">
        <ele>65.40000152587890625</ele>
        <time>2026-07-26T09:24:49.000Z</time>
        <extensions>
          <ns3:TrackPointExtension>
            <ns3:hr>121</ns3:hr>
            <ns3:cad>60</ns3:cad>
          </ns3:TrackPointExtension>
        </extensions>
      </trkpt>
      <trkpt lat="55.7831640355288982391357421875" lon="24.8365669883787631988525390625">
        <ele>65.59999847412109375</ele>
        <time>2026-07-26T09:24:57.000Z</time>
        <extensions>
          <ns3:TrackPointExtension>
            <ns3:hr>121</ns3:hr>
            <ns3:cad>59</ns3:cad>
          </ns3:TrackPointExtension>
        </extensions>
      </trkpt>
      <trkpt lat="55.78325749374926090240478515625" lon="24.8364244960248470306396484375">
        <ele>65.1999969482421875</ele>
        <time>2026-07-26T09:25:06.000Z</time>
        <extensions>
          <ns3:TrackPointExtension>
            <ns3:hr>122</ns3:hr>
            <ns3:cad>59</ns3:cad>
          </ns3:TrackPointExtension>
        </extensions>
      </trkpt>
      <trkpt lat="55.7833595015108585357666015625" lon="24.836317040026187896728515625">
        <ele>65</ele>
        <time>2026-07-26T09:25:14.000Z</time>
        <extensions>
          <ns3:TrackPointExtension>
            <ns3:hr>123</ns3:hr>
            <ns3:cad>59</ns3:cad>
          </ns3:TrackPointExtension>
        </extensions>
      </trkpt>
      <trkpt lat="55.783448852598667144775390625" lon="24.83621268533170223236083984375">
        <ele>64.59999847412109375</ele>
        <time>2026-07-26T09:25:21.000Z</time>
        <extensions>
          <ns3:TrackPointExtension>
            <ns3:hr>124</ns3:hr>
            <ns3:cad>59</ns3:cad>
          </ns3:TrackPointExtension>
        </extensions>
      </trkpt>
      <trkpt lat="55.78346016816794872283935546875" lon="24.83619458042085170745849609375">
        <ele>64.59999847412109375</ele>
        <time>2026-07-26T09:25:22.000Z</time>
        <extensions>
          <ns3:TrackPointExtension>
            <ns3:hr>123</ns3:hr>
            <ns3:cad>59</ns3:cad>
          </ns3:TrackPointExtension>
        </extensions>
      </trkpt>
      <trkpt lat="55.78352957032620906829833984375" lon="24.836089052259922027587890625">
        <ele>64.40000152587890625</ele>
        <time>2026-07-26T09:25:29.000Z</time>
        <extensions>
          <ns3:TrackPointExtension>
            <ns3:hr>123</ns3:hr>
            <ns3:cad>58</ns3:cad>
          </ns3:TrackPointExtension>
        </extensions>
      </trkpt>
      <trkpt lat="55.78362143598496913909912109375" lon="24.83599458821117877960205078125">
        <ele>64.59999847412109375</ele>
        <time>2026-07-26T09:25:37.000Z</time>
        <extensions>
          <ns3:TrackPointExtension>
            <ns3:hr>123</ns3:hr>
            <ns3:cad>59</ns3:cad>
          </ns3:TrackPointExtension>
        </extensions>
      </trkpt>
      <trkpt lat="55.783702991902828216552734375" lon="24.83588478527963161468505859375">
        <ele>65</ele>
        <time>2026-07-26T09:25:44.000Z</time>
        <extensions>
          <ns3:TrackPointExtension>
            <ns3:hr>124</ns3:hr>
            <ns3:cad>58</ns3:cad>
          </ns3:TrackPointExtension>
        </extensions>
      </trkpt>
      <trkpt lat="55.7837958633899688720703125" lon="24.8357878066599369049072265625">
        <ele>65</ele>
        <time>2026-07-26T09:25:51.000Z</time>
        <extensions>
          <ns3:TrackPointExtension>
            <ns3:hr>124</ns3:hr>
            <ns3:cad>60</ns3:cad>
          </ns3:TrackPointExtension>
        </extensions>
      </trkpt>
      <trkpt lat="55.7839004695415496826171875" lon="24.83564321883022785186767578125">
        <ele>65</ele>
        <time>2026-07-26T09:26:00.000Z</time>
        <extensions>
          <ns3:TrackPointExtension>
            <ns3:hr>123</ns3:hr>
            <ns3:cad>59</ns3:cad>
          </ns3:TrackPointExtension>
        </extensions>
      </trkpt>
      <trkpt lat="55.78402561135590076446533203125" lon="24.835526458919048309326171875">
        <ele>65.1999969482421875</ele>
        <time>2026-07-26T09:26:09.000Z</time>
        <extensions>
          <ns3:TrackPointExtension>
            <ns3:hr>123</ns3:hr>
            <ns3:cad>58</ns3:cad>
          </ns3:TrackPointExtension>
        </extensions>
      </trkpt>
      <trkpt lat="55.78412233851850032806396484375" lon="24.8354330845177173614501953125">
        <ele>65</ele>
        <time>2026-07-26T09:26:17.000Z</time>
        <extensions>
          <ns3:TrackPointExtension>
            <ns3:hr>123</ns3:hr>
            <ns3:cad>57</ns3:cad>
          </ns3:TrackPointExtension>
        </extensions>
      </trkpt>
      <trkpt lat="55.7842194847762584686279296875" lon="24.83531548641622066497802734375">
        <ele>65.59999847412109375</ele>
        <time>2026-07-26T09:26:25.000Z</time>
        <extensions>
          <ns3:TrackPointExtension>
            <ns3:hr>123</ns3:hr>
            <ns3:cad>58</ns3:cad>
          </ns3:TrackPointExtension>
        </extensions>
      </trkpt>
      <trkpt lat="55.7842432893812656402587890625" lon="24.83529008924961090087890625">
        <ele>65.8000030517578125</ele>
        <time>2026-07-26T09:26:27.000Z</time>
        <extensions>
          <ns3:TrackPointExtension>
            <ns3:hr>123</ns3:hr>
            <ns3:cad>58</ns3:cad>
          </ns3:TrackPointExtension>
        </extensions>
      </trkpt>
      <trkpt lat="55.7843271084129810333251953125" lon="24.8351903446018695831298828125">
        <ele>65.8000030517578125</ele>
        <time>2026-07-26T09:26:35.000Z</time>
        <extensions>
          <ns3:TrackPointExtension>
            <ns3:hr>124</ns3:hr>
            <ns3:cad>57</ns3:cad>
          </ns3:TrackPointExtension>
        </extensions>
      </trkpt>
      <trkpt lat="55.7844072394073009490966796875" lon="24.83508716337382793426513671875">
        <ele>65.40000152587890625</ele>
        <time>2026-07-26T09:26:42.000Z</time>
        <extensions>
          <ns3:TrackPointExtension>
            <ns3:hr>125</ns3:hr>
            <ns3:cad>55</ns3:cad>
          </ns3:TrackPointExtension>
        </extensions>
      </trkpt>
      <trkpt lat="55.7844870351254940032958984375" lon="24.8349945433437824249267578125">
        <ele>65.59999847412109375</ele>
        <time>2026-07-26T09:26:51.000Z</time>
        <extensions>
          <ns3:TrackPointExtension>
            <ns3:hr>122</ns3:hr>
            <ns3:cad>55</ns3:cad>
          </ns3:TrackPointExtension>
        </extensions>
      </trkpt>
      <trkpt lat="55.7845172099769115447998046875" lon="24.834994040429592132568359375">
        <ele>65.59999847412109375</ele>
        <time>2026-07-26T09:26:58.000Z</time>
        <extensions>
          <ns3:TrackPointExtension>
            <ns3:hr>122</ns3:hr>
            <ns3:cad>0</ns3:cad>
          </ns3:TrackPointExtension>
        </extensions>
      </trkpt>
      <trkpt lat="55.78451964072883129119873046875" lon="24.83497719280421733856201171875">
        <ele>65.59999847412109375</ele>
        <time>2026-07-26T09:27:01.000Z</time>
        <extensions>
          <ns3:TrackPointExtension>
            <ns3:hr>121</ns3:hr>
            <ns3:cad>0</ns3:cad>
          </ns3:TrackPointExtension>
        </extensions>
      </trkpt>
      <trkpt lat="55.7845155335962772369384765625" lon="24.83491055667400360107421875">
        <ele>66.1999969482421875</ele>
        <time>2026-07-26T09:27:06.000Z</time>
        <extensions>
          <ns3:TrackPointExtension>
            <ns3:hr>120</ns3:hr>
            <ns3:cad>50</ns3:cad>
          </ns3:TrackPointExtension>
        </extensions>
      </trkpt>
      <trkpt lat="55.7845339737832546234130859375" lon="24.834913574159145355224609375">
        <ele>66.1999969482421875</ele>
        <time>2026-07-26T09:27:13.000Z</time>
        <extensions>
          <ns3:TrackPointExtension>
            <ns3:hr>120</ns3:hr>
            <ns3:cad>45</ns3:cad>
          </ns3:TrackPointExtension>
        </extensions>
      </trkpt>
      <trkpt lat="55.78461217693984508514404296875" lon="24.83486755751073360443115234375">
        <ele>65.8000030517578125</ele>
        <time>2026-07-26T09:27:19.000Z</time>
        <extensions>
          <ns3:TrackPointExtension>
            <ns3:hr>118</ns3:hr>
            <ns3:cad>54</ns3:cad>
          </ns3:TrackPointExtension>
        </extensions>
      </trkpt>
      <trkpt lat="55.7847089879214763641357421875" lon="24.834797568619251251220703125">
        <ele>65</ele>
        <time>2026-07-26T09:27:28.000Z</time>
        <extensions>
          <ns3:TrackPointExtension>
            <ns3:hr>117</ns3:hr>
            <ns3:cad>54</ns3:cad>
          </ns3:TrackPointExtension>
        </extensions>
      </trkpt>
      <trkpt lat="55.78475232236087322235107421875" lon="24.8347974009811878204345703125">
        <ele>64.8000030517578125</ele>
        <time>2026-07-26T09:27:31.000Z</time>
        <extensions>
          <ns3:TrackPointExtension>
            <ns3:hr>116</ns3:hr>
            <ns3:cad>54</ns3:cad>
          </ns3:TrackPointExtension>
        </extensions>
      </trkpt>
      <trkpt lat="55.78482558019459247589111328125" lon="24.8348201997578144073486328125">
        <ele>64.1999969482421875</ele>
        <time>2026-07-26T09:27:36.000Z</time>
        <extensions>
          <ns3:TrackPointExtension>
            <ns3:hr>115</ns3:hr>
            <ns3:cad>58</ns3:cad>
          </ns3:TrackPointExtension>
        </extensions>
      </trkpt>
      <trkpt lat="55.78493186272680759429931640625" lon="24.8349476046860218048095703125">
        <ele>65.1999969482421875</ele>
        <time>2026-07-26T09:27:45.000Z</time>
        <extensions>
          <ns3:TrackPointExtension>
            <ns3:hr>114</ns3:hr>
            <ns3:cad>58</ns3:cad>
          </ns3:TrackPointExtension>
        </extensions>
      </trkpt>
      <trkpt lat="55.78501685522496700286865234375" lon="24.83511867932975292205810546875">
        <ele>65.59999847412109375</ele>
        <time>2026-07-26T09:27:55.000Z</time>
        <extensions>
          <ns3:TrackPointExtension>
            <ns3:hr>111</ns3:hr>
            <ns3:cad>58</ns3:cad>
          </ns3:TrackPointExtension>
        </extensions>
      </trkpt>
      <trkpt lat="55.7850645482540130615234375" lon="24.8352305777370929718017578125">
        <ele>65.8000030517578125</ele>
        <time>2026-07-26T09:28:00.000Z</time>
        <extensions>
          <ns3:TrackPointExtension>
            <ns3:hr>111</ns3:hr>
            <ns3:cad>59</ns3:cad>
          </ns3:TrackPointExtension>
        </extensions>
      </trkpt>
      <trkpt lat="55.78509631566703319549560546875" lon="24.83530358411371707916259765625">
        <ele>66</ele>
        <time>2026-07-26T09:28:03.000Z</time>
        <extensions>
          <ns3:TrackPointExtension>
            <ns3:hr>112</ns3:hr>
            <ns3:cad>59</ns3:cad>
          </ns3:TrackPointExtension>
        </extensions>
      </trkpt>
      <trkpt lat="55.78512464649975299835205078125" lon="24.83538958244025707244873046875">
        <ele>66</ele>
        <time>2026-07-26T09:28:07.000Z</time>
        <extensions>
          <ns3:TrackPointExtension>
            <ns3:hr>115</ns3:hr>
            <ns3:cad>57</ns3:cad>
          </ns3:TrackPointExtension>
        </extensions>
      </trkpt>
      <trkpt lat="55.78514308668673038482666015625" lon="24.8354340903460979461669921875">
        <ele>66</ele>
        <time>2026-07-26T09:28:09.000Z</time>
        <extensions>
          <ns3:TrackPointExtension>
            <ns3:hr>116</ns3:hr>
            <ns3:cad>58</ns3:cad>
          </ns3:TrackPointExtension>
        </extensions>
      </trkpt>
      <trkpt lat="55.78522120602428913116455078125" lon="24.83559041284024715423583984375">
        <ele>66.1999969482421875</ele>
        <time>2026-07-26T09:28:17.000Z</time>
        <extensions>
          <ns3:TrackPointExtension>
            <ns3:hr>116</ns3:hr>
            <ns3:cad>58</ns3:cad>
          </ns3:TrackPointExtension>
        </extensions>
      </trkpt>
      <trkpt lat="55.7852484472095966339111328125" lon="24.83564279973506927490234375">
        <ele>66</ele>
        <time>2026-07-26T09:28:20.000Z</time>
        <extensions>
          <ns3:TrackPointExtension>
            <ns3:hr>119</ns3:hr>
            <ns3:cad>58</ns3:cad>
          </ns3:TrackPointExtension>
        </extensions>
      </trkpt>
      <trkpt lat="55.78529597260057926177978515625" lon="24.83573776669800281524658203125">
        <ele>66.1999969482421875</ele>
        <time>2026-07-26T09:28:25.000Z</time>
        <extensions>
          <ns3:TrackPointExtension>
            <ns3:hr>120</ns3:hr>
            <ns3:cad>59</ns3:cad>
          </ns3:TrackPointExtension>
        </extensions>
      </trkpt>
      <trkpt lat="55.78536721877753734588623046875" lon="24.8358890600502490997314453125">
        <ele>66</ele>
        <time>2026-07-26T09:28:33.000Z</time>
        <extensions>
          <ns3:TrackPointExtension>
            <ns3:hr>120</ns3:hr>
            <ns3:cad>59</ns3:cad>
          </ns3:TrackPointExtension>
        </extensions>
      </trkpt>
      <trkpt lat="55.78545522876083850860595703125" lon="24.83603574335575103759765625">
        <ele>66</ele>
        <time>2026-07-26T09:28:41.000Z</time>
        <extensions>
          <ns3:TrackPointExtension>
            <ns3:hr>122</ns3:hr>
            <ns3:cad>60</ns3:cad>
          </ns3:TrackPointExtension>
        </extensions>
      </trkpt>
      <trkpt lat="55.78553033061325550079345703125" lon="24.83618670143187046051025390625">
        <ele>65.59999847412109375</ele>
        <time>2026-07-26T09:28:49.000Z</time>
        <extensions>
          <ns3:TrackPointExtension>
            <ns3:hr>123</ns3:hr>
            <ns3:cad>58</ns3:cad>
          </ns3:TrackPointExtension>
        </extensions>
      </trkpt>
      <trkpt lat="55.7856195978820323944091796875" lon="24.8363557644188404083251953125">
        <ele>65.59999847412109375</ele>
        <time>2026-07-26T09:28:57.000Z</time>
        <extensions>
          <ns3:TrackPointExtension>
            <ns3:hr>122</ns3:hr>
            <ns3:cad>58</ns3:cad>
          </ns3:TrackPointExtension>
        </extensions>
      </trkpt>
      <trkpt lat="55.78568640165030956268310546875" lon="24.83648995868861675262451171875">
        <ele>65.59999847412109375</ele>
        <time>2026-07-26T09:29:04.000Z</time>
        <extensions>
          <ns3:TrackPointExtension>
            <ns3:hr>123</ns3:hr>
            <ns3:cad>58</ns3:cad>
          </ns3:TrackPointExtension>
        </extensions>
      </trkpt>
      <trkpt lat="55.78578472137451171875" lon="24.83671945519745349884033203125">
        <ele>65.8000030517578125</ele>
        <time>2026-07-26T09:29:16.000Z</time>
        <extensions>
          <ns3:TrackPointExtension>
            <ns3:hr>122</ns3:hr>
            <ns3:cad>57</ns3:cad>
          </ns3:TrackPointExtension>
        </extensions>
      </trkpt>
      <trkpt lat="55.7858569733798503875732421875" lon="24.836899079382419586181640625">
        <ele>66.1999969482421875</ele>
        <time>2026-07-26T09:29:24.000Z</time>
        <extensions>
          <ns3:TrackPointExtension>
            <ns3:hr>121</ns3:hr>
            <ns3:cad>59</ns3:cad>
          </ns3:TrackPointExtension>
        </extensions>
      </trkpt>
      <trkpt lat="55.785946659743785858154296875" lon="24.83716587536036968231201171875">
        <ele>66.59999847412109375</ele>
        <time>2026-07-26T09:29:35.000Z</time>
        <extensions>
          <ns3:TrackPointExtension>
            <ns3:hr>123</ns3:hr>
            <ns3:cad>59</ns3:cad>
          </ns3:TrackPointExtension>
        </extensions>
      </trkpt>
      <trkpt lat="55.7860353402793407440185546875" lon="24.8374390415847301483154296875">
        <ele>66.8000030517578125</ele>
        <time>2026-07-26T09:29:47.000Z</time>
        <extensions>
          <ns3:TrackPointExtension>
            <ns3:hr>122</ns3:hr>
            <ns3:cad>59</ns3:cad>
          </ns3:TrackPointExtension>
        </extensions>
      </trkpt>
      <trkpt lat="55.78607817180454730987548828125" lon="24.8375704698264598846435546875">
        <ele>67.1999969482421875</ele>
        <time>2026-07-26T09:29:53.000Z</time>
        <extensions>
          <ns3:TrackPointExtension>
            <ns3:hr>125</ns3:hr>
            <ns3:cad>59</ns3:cad>
          </ns3:TrackPointExtension>
        </extensions>
      </trkpt>
      <trkpt lat="55.786096192896366119384765625" lon="24.83763325028121471405029296875">
        <ele>67</ele>
        <time>2026-07-26T09:29:56.000Z</time>
        <extensions>
          <ns3:TrackPointExtension>
            <ns3:hr>126</ns3:hr>
            <ns3:cad>60</ns3:cad>
          </ns3:TrackPointExtension>
        </extensions>
      </trkpt>
      <trkpt lat="55.786187388002872467041015625" lon="24.83786827884614467620849609375">
        <ele>66.59999847412109375</ele>
        <time>2026-07-26T09:30:07.000Z</time>
        <extensions>
          <ns3:TrackPointExtension>
            <ns3:hr>124</ns3:hr>
            <ns3:cad>60</ns3:cad>
          </ns3:TrackPointExtension>
        </extensions>
      </trkpt>
      <trkpt lat="55.78627715818583965301513671875" lon="24.83804966323077678680419921875">
        <ele>67.1999969482421875</ele>
        <time>2026-07-26T09:30:15.000Z</time>
        <extensions>
          <ns3:TrackPointExtension>
            <ns3:hr>123</ns3:hr>
            <ns3:cad>61</ns3:cad>
          </ns3:TrackPointExtension>
        </extensions>
      </trkpt>
      <trkpt lat="55.78636248596012592315673828125" lon="24.83827681280672550201416015625">
        <ele>67</ele>
        <time>2026-07-26T09:30:26.000Z</time>
        <extensions>
          <ns3:TrackPointExtension>
            <ns3:hr>123</ns3:hr>
            <ns3:cad>60</ns3:cad>
          </ns3:TrackPointExtension>
        </extensions>
      </trkpt>
      <trkpt lat="55.78644362278282642364501953125" lon="24.83846724964678287506103515625">
        <ele>66.8000030517578125</ele>
        <time>2026-07-26T09:30:35.000Z</time>
        <extensions>
          <ns3:TrackPointExtension>
            <ns3:hr>122</ns3:hr>
            <ns3:cad>60</ns3:cad>
          </ns3:TrackPointExtension>
        </extensions>
      </trkpt>
      <trkpt lat="55.786523334681987762451171875" lon="24.83869439922273159027099609375">
        <ele>67</ele>
        <time>2026-07-26T09:30:45.000Z</time>
        <extensions>
          <ns3:TrackPointExtension>
            <ns3:hr>121</ns3:hr>
            <ns3:cad>59</ns3:cad>
          </ns3:TrackPointExtension>
        </extensions>
      </trkpt>
      <trkpt lat="55.78660748898983001708984375" lon="24.8389326967298984527587890625">
        <ele>67</ele>
        <time>2026-07-26T09:30:55.000Z</time>
        <extensions>
          <ns3:TrackPointExtension>
            <ns3:hr>120</ns3:hr>
            <ns3:cad>60</ns3:cad>
          </ns3:TrackPointExtension>
        </extensions>
      </trkpt>
      <trkpt lat="55.7866814173758029937744140625" lon="24.839125312864780426025390625">
        <ele>67</ele>
        <time>2026-07-26T09:31:04.000Z</time>
        <extensions>
          <ns3:TrackPointExtension>
            <ns3:hr>119</ns3:hr>
            <ns3:cad>60</ns3:cad>
          </ns3:TrackPointExtension>
        </extensions>
      </trkpt>
      <trkpt lat="55.78675526194274425506591796875" lon="24.83932186849415302276611328125">
        <ele>67.40000152587890625</ele>
        <time>2026-07-26T09:31:13.000Z</time>
        <extensions>
          <ns3:TrackPointExtension>
            <ns3:hr>119</ns3:hr>
            <ns3:cad>60</ns3:cad>
          </ns3:TrackPointExtension>
        </extensions>
      </trkpt>
      <trkpt lat="55.78682617284357547760009765625" lon="24.83953527174890041351318359375">
        <ele>67.40000152587890625</ele>
        <time>2026-07-26T09:31:22.000Z</time>
        <extensions>
          <ns3:TrackPointExtension>
            <ns3:hr>120</ns3:hr>
            <ns3:cad>59</ns3:cad>
          </ns3:TrackPointExtension>
        </extensions>
      </trkpt>
      <trkpt lat="55.786876380443572998046875" lon="24.83965404331684112548828125">
        <ele>67.8000030517578125</ele>
        <time>2026-07-26T09:31:28.000Z</time>
        <extensions>
          <ns3:TrackPointExtension>
            <ns3:hr>120</ns3:hr>
            <ns3:cad>58</ns3:cad>
          </ns3:TrackPointExtension>
        </extensions>
      </trkpt>
      <trkpt lat="55.7868943177163600921630859375" lon="24.83969536609947681427001953125">
        <ele>68.1999969482421875</ele>
        <time>2026-07-26T09:31:30.000Z</time>
        <extensions>
          <ns3:TrackPointExtension>
            <ns3:hr>120</ns3:hr>
            <ns3:cad>59</ns3:cad>
          </ns3:TrackPointExtension>
        </extensions>
      </trkpt>
      <trkpt lat="55.7869576849043369293212890625" lon="24.83983769081532955169677734375">
        <ele>67.8000030517578125</ele>
        <time>2026-07-26T09:31:37.000Z</time>
        <extensions>
          <ns3:TrackPointExtension>
            <ns3:hr>121</ns3:hr>
            <ns3:cad>61</ns3:cad>
          </ns3:TrackPointExtension>
        </extensions>
      </trkpt>
      <trkpt lat="55.78703136183321475982666015625" lon="24.84001186676323413848876953125">
        <ele>67.59999847412109375</ele>
        <time>2026-07-26T09:31:46.000Z</time>
        <extensions>
          <ns3:TrackPointExtension>
            <ns3:hr>124</ns3:hr>
            <ns3:cad>59</ns3:cad>
          </ns3:TrackPointExtension>
        </extensions>
      </trkpt>
      <trkpt lat="55.78705273568630218505859375" lon="24.840050674974918365478515625">
        <ele>67.59999847412109375</ele>
        <time>2026-07-26T09:31:48.000Z</time>
        <extensions>
          <ns3:TrackPointExtension>
            <ns3:hr>124</ns3:hr>
            <ns3:cad>59</ns3:cad>
          </ns3:TrackPointExtension>
        </extensions>
      </trkpt>
      <trkpt lat="55.78713127411901950836181640625" lon="24.84018688090145587921142578125">
        <ele>68</ele>
        <time>2026-07-26T09:31:55.000Z</time>
        <extensions>
          <ns3:TrackPointExtension>
            <ns3:hr>122</ns3:hr>
            <ns3:cad>61</ns3:cad>
          </ns3:TrackPointExtension>
        </extensions>
      </trkpt>
      <trkpt lat="55.7871960662305355072021484375" lon="24.84030313789844512939453125">
        <ele>67.59999847412109375</ele>
        <time>2026-07-26T09:32:02.000Z</time>
        <extensions>
          <ns3:TrackPointExtension>
            <ns3:hr>122</ns3:hr>
            <ns3:cad>58</ns3:cad>
          </ns3:TrackPointExtension>
        </extensions>
      </trkpt>
      <trkpt lat="55.787271000444889068603515625" lon="24.8404297046363353729248046875">
        <ele>67.40000152587890625</ele>
        <time>2026-07-26T09:32:09.000Z</time>
        <extensions>
          <ns3:TrackPointExtension>
            <ns3:hr>122</ns3:hr>
            <ns3:cad>59</ns3:cad>
          </ns3:TrackPointExtension>
        </extensions>
      </trkpt>
      <trkpt lat="55.7873680628836154937744140625" lon="24.84058083035051822662353515625">
        <ele>67.59999847412109375</ele>
        <time>2026-07-26T09:32:18.000Z</time>
        <extensions>
          <ns3:TrackPointExtension>
            <ns3:hr>124</ns3:hr>
            <ns3:cad>59</ns3:cad>
          </ns3:TrackPointExtension>
        </extensions>
      </trkpt>
      <trkpt lat="55.78747786581516265869140625" lon="24.8407374881207942962646484375">
        <ele>67.40000152587890625</ele>
        <time>2026-07-26T09:32:27.000Z</time>
        <extensions>
          <ns3:TrackPointExtension>
            <ns3:hr>124</ns3:hr>
            <ns3:cad>59</ns3:cad>
          </ns3:TrackPointExtension>
        </extensions>
      </trkpt>
      <trkpt lat="55.787591524422168731689453125" lon="24.84090051613748073577880859375">
        <ele>67</ele>
        <time>2026-07-26T09:32:37.000Z</time>
        <extensions>
          <ns3:TrackPointExtension>
            <ns3:hr>125</ns3:hr>
            <ns3:cad>60</ns3:cad>
          </ns3:TrackPointExtension>
        </extensions>
      </trkpt>
      <trkpt lat="55.7876367866992950439453125" lon="24.84096002764999866485595703125">
        <ele>67</ele>
        <time>2026-07-26T09:32:41.000Z</time>
        <extensions>
          <ns3:TrackPointExtension>
            <ns3:hr>122</ns3:hr>
            <ns3:cad>60</ns3:cad>
          </ns3:TrackPointExtension>
        </extensions>
      </trkpt>
      <trkpt lat="55.78767500817775726318359375" lon="24.841005541384220123291015625">
        <ele>67</ele>
        <time>2026-07-26T09:32:44.000Z</time>
        <extensions>
          <ns3:TrackPointExtension>
            <ns3:hr>121</ns3:hr>
            <ns3:cad>59</ns3:cad>
          </ns3:TrackPointExtension>
        </extensions>
      </trkpt>
      <trkpt lat="55.78774164430797100067138671875" lon="24.84110654331743717193603515625">
        <ele>66.8000030517578125</ele>
        <time>2026-07-26T09:32:50.000Z</time>
        <extensions>
          <ns3:TrackPointExtension>
            <ns3:hr>120</ns3:hr>
            <ns3:cad>60</ns3:cad>
          </ns3:TrackPointExtension>
        </extensions>
      </trkpt>
      <trkpt lat="55.7878002338111400604248046875" lon="24.84119254164397716522216796875">
        <ele>67</ele>
        <time>2026-07-26T09:32:55.000Z</time>
        <extensions>
          <ns3:TrackPointExtension>
            <ns3:hr>121</ns3:hr>
            <ns3:cad>59</ns3:cad>
          </ns3:TrackPointExtension>
        </extensions>
      </trkpt>
      <trkpt lat="55.787913389503955841064453125" lon="24.8413550667464733123779296875">
        <ele>67</ele>
        <time>2026-07-26T09:33:05.000Z</time>
        <extensions>
          <ns3:TrackPointExtension>
            <ns3:hr>121</ns3:hr>
            <ns3:cad>58</ns3:cad>
          </ns3:TrackPointExtension>
        </extensions>
      </trkpt>
      <trkpt lat="55.78804247081279754638671875" lon="24.84156251884996891021728515625">
        <ele>67.40000152587890625</ele>
        <time>2026-07-26T09:33:17.000Z</time>
        <extensions>
          <ns3:TrackPointExtension>
            <ns3:hr>120</ns3:hr>
            <ns3:cad>60</ns3:cad>
          </ns3:TrackPointExtension>
        </extensions>
      </trkpt>
      <trkpt lat="55.78811044804751873016357421875" lon="24.841673411428928375244140625">
        <ele>67.40000152587890625</ele>
        <time>2026-07-26T09:33:23.000Z</time>
        <extensions>
          <ns3:TrackPointExtension>
            <ns3:hr>123</ns3:hr>
            <ns3:cad>59</ns3:cad>
          </ns3:TrackPointExtension>
        </extensions>
      </trkpt>
      <trkpt lat="55.7881452329456806182861328125" lon="24.841739796102046966552734375">
        <ele>67.1999969482421875</ele>
        <time>2026-07-26T09:33:27.000Z</time>
        <extensions>
          <ns3:TrackPointExtension>
            <ns3:hr>123</ns3:hr>
            <ns3:cad>61</ns3:cad>
          </ns3:TrackPointExtension>
        </extensions>
      </trkpt>
      <trkpt lat="55.7882555387914180755615234375" lon="24.84194456599652767181396484375">
        <ele>67.59999847412109375</ele>
        <time>2026-07-26T09:33:38.000Z</time>
        <extensions>
          <ns3:TrackPointExtension>
            <ns3:hr>123</ns3:hr>
            <ns3:cad>59</ns3:cad>
          </ns3:TrackPointExtension>
        </extensions>
      </trkpt>
      <trkpt lat="55.78838068060576915740966796875" lon="24.84212947078049182891845703125">
        <ele>67.8000030517578125</ele>
        <time>2026-07-26T09:33:49.000Z</time>
        <extensions>
          <ns3:TrackPointExtension>
            <ns3:hr>124</ns3:hr>
            <ns3:cad>58</ns3:cad>
          </ns3:TrackPointExtension>
        </extensions>
      </trkpt>
      <trkpt lat="55.78839828260242938995361328125" lon="24.84216098673641681671142578125">
        <ele>67.8000030517578125</ele>
        <time>2026-07-26T09:33:51.000Z</time>
        <extensions>
          <ns3:TrackPointExtension>
            <ns3:hr>124</ns3:hr>
            <ns3:cad>60</ns3:cad>
          </ns3:TrackPointExtension>
        </extensions>
      </trkpt>
      <trkpt lat="55.78850339166820049285888671875" lon="24.8423434607684612274169921875">
        <ele>68.40000152587890625</ele>
        <time>2026-07-26T09:34:01.000Z</time>
        <extensions>
          <ns3:TrackPointExtension>
            <ns3:hr>124</ns3:hr>
            <ns3:cad>60</ns3:cad>
          </ns3:TrackPointExtension>
        </extensions>
      </trkpt>
      <trkpt lat="55.78861503861844539642333984375" lon="24.84255393035709857940673828125">
        <ele>68.40000152587890625</ele>
        <time>2026-07-26T09:34:12.000Z</time>
        <extensions>
          <ns3:TrackPointExtension>
            <ns3:hr>124</ns3:hr>
            <ns3:cad>59</ns3:cad>
          </ns3:TrackPointExtension>
        </extensions>
      </trkpt>
      <trkpt lat="55.78872375190258026123046875" lon="24.84275559894740581512451171875">
        <ele>68.40000152587890625</ele>
        <time>2026-07-26T09:34:23.000Z</time>
        <extensions>
          <ns3:TrackPointExtension>
            <ns3:hr>124</ns3:hr>
            <ns3:cad>58</ns3:cad>
          </ns3:TrackPointExtension>
        </extensions>
      </trkpt>
      <trkpt lat="55.7887859456241130828857421875" lon="24.842862300574779510498046875">
        <ele>68.8000030517578125</ele>
        <time>2026-07-26T09:34:29.000Z</time>
        <extensions>
          <ns3:TrackPointExtension>
            <ns3:hr>125</ns3:hr>
            <ns3:cad>60</ns3:cad>
          </ns3:TrackPointExtension>
        </extensions>
      </trkpt>
      <trkpt lat="55.788874961435794830322265625" lon="24.84309825114905834197998046875">
        <ele>68.8000030517578125</ele>
        <time>2026-07-26T09:34:40.000Z</time>
        <extensions>
          <ns3:TrackPointExtension>
            <ns3:hr>126</ns3:hr>
            <ns3:cad>61</ns3:cad>
          </ns3:TrackPointExtension>
        </extensions>
      </trkpt>
      <trkpt lat="55.788895748555660247802734375" lon="24.8431699164211750030517578125">
        <ele>68.8000030517578125</ele>
        <time>2026-07-26T09:34:43.000Z</time>
        <extensions>
          <ns3:TrackPointExtension>
            <ns3:hr>125</ns3:hr>
            <ns3:cad>60</ns3:cad>
          </ns3:TrackPointExtension>
        </extensions>
      </trkpt>
      <trkpt lat="55.7889457046985626220703125" lon="24.8433559946715831756591796875">
        <ele>69</ele>
        <time>2026-07-26T09:34:51.000Z</time>
        <extensions>
          <ns3:TrackPointExtension>
            <ns3:hr>125</ns3:hr>
            <ns3:cad>59</ns3:cad>
          </ns3:TrackPointExtension>
        </extensions>
      </trkpt>
      <trkpt lat="55.7889941520988941192626953125" lon="24.84353260137140750885009765625">
        <ele>69.59999847412109375</ele>
        <time>2026-07-26T09:34:58.000Z</time>
        <extensions>
          <ns3:TrackPointExtension>
            <ns3:hr>125</ns3:hr>
            <ns3:cad>60</ns3:cad>
          </ns3:TrackPointExtension>
        </extensions>
      </trkpt>
      <trkpt lat="55.78900781460106372833251953125" lon="24.8435745947062969207763671875">
        <ele>69</ele>
        <time>2026-07-26T09:35:00.000Z</time>
        <extensions>
          <ns3:TrackPointExtension>
            <ns3:hr>128</ns3:hr>
            <ns3:cad>58</ns3:cad>
          </ns3:TrackPointExtension>
        </extensions>
      </trkpt>
      <trkpt lat="55.7890484668314456939697265625" lon="24.84369479119777679443359375">
        <ele>69</ele>
        <time>2026-07-26T09:35:06.000Z</time>
        <extensions>
          <ns3:TrackPointExtension>
            <ns3:hr>128</ns3:hr>
            <ns3:cad>59</ns3:cad>
          </ns3:TrackPointExtension>
        </extensions>
      </trkpt>
      <trkpt lat="55.78913320787250995635986328125" lon="24.8439534567296504974365234375">
        <ele>69.40000152587890625</ele>
        <time>2026-07-26T09:35:17.000Z</time>
        <extensions>
          <ns3:TrackPointExtension>
            <ns3:hr>127</ns3:hr>
            <ns3:cad>59</ns3:cad>
          </ns3:TrackPointExtension>
        </extensions>
      </trkpt>
      <trkpt lat="55.789175368845462799072265625" lon="24.84408480115234851837158203125">
        <ele>69.8000030517578125</ele>
        <time>2026-07-26T09:35:23.000Z</time>
        <extensions>
          <ns3:TrackPointExtension>
            <ns3:hr>127</ns3:hr>
            <ns3:cad>59</ns3:cad>
          </ns3:TrackPointExtension>
        </extensions>
      </trkpt>
      <trkpt lat="55.78919556923210620880126953125" lon="24.84415554441511631011962890625">
        <ele>69.8000030517578125</ele>
        <time>2026-07-26T09:35:26.000Z</time>
        <extensions>
          <ns3:TrackPointExtension>
            <ns3:hr>127</ns3:hr>
            <ns3:cad>59</ns3:cad>
          </ns3:TrackPointExtension>
        </extensions>
      </trkpt>
      <trkpt lat="55.78928575851023197174072265625" lon="24.8443832807242870330810546875">
        <ele>69.40000152587890625</ele>
        <time>2026-07-26T09:35:37.000Z</time>
        <extensions>
          <ns3:TrackPointExtension>
            <ns3:hr>129</ns3:hr>
            <ns3:cad>59</ns3:cad>
          </ns3:TrackPointExtension>
        </extensions>
      </trkpt>
      <trkpt lat="55.78936354257166385650634765625" lon="24.8446240089833736419677734375">
        <ele>69.40000152587890625</ele>
        <time>2026-07-26T09:35:48.000Z</time>
        <extensions>
          <ns3:TrackPointExtension>
            <ns3:hr>128</ns3:hr>
            <ns3:cad>59</ns3:cad>
          </ns3:TrackPointExtension>
        </extensions>
      </trkpt>
      <trkpt lat="55.78943948261439800262451171875" lon="24.8448600433766841888427734375">
        <ele>70</ele>
        <time>2026-07-26T09:35:58.000Z</time>
        <extensions>
          <ns3:TrackPointExtension>
            <ns3:hr>128</ns3:hr>
            <ns3:cad>60</ns3:cad>
          </ns3:TrackPointExtension>
        </extensions>
      </trkpt>
      <trkpt lat="55.7895104773342609405517578125" lon="24.845048300921916961669921875">
        <ele>69.8000030517578125</ele>
        <time>2026-07-26T09:36:07.000Z</time>
        <extensions>
          <ns3:TrackPointExtension>
            <ns3:hr>127</ns3:hr>
            <ns3:cad>61</ns3:cad>
          </ns3:TrackPointExtension>
        </extensions>
      </trkpt>
      <trkpt lat="55.78956806100904941558837890625" lon="24.84515802003443241119384765625">
        <ele>69.8000030517578125</ele>
        <time>2026-07-26T09:36:13.000Z</time>
        <extensions>
          <ns3:TrackPointExtension>
            <ns3:hr>126</ns3:hr>
            <ns3:cad>60</ns3:cad>
          </ns3:TrackPointExtension>
        </extensions>
      </trkpt>
      <trkpt lat="55.78962103463709354400634765625" lon="24.84533202834427356719970703125">
        <ele>69.40000152587890625</ele>
        <time>2026-07-26T09:36:20.000Z</time>
        <extensions>
          <ns3:TrackPointExtension>
            <ns3:hr>126</ns3:hr>
            <ns3:cad>60</ns3:cad>
          </ns3:TrackPointExtension>
        </extensions>
      </trkpt>
      <trkpt lat="55.789639055728912353515625" lon="24.84539908356964588165283203125">
        <ele>69.59999847412109375</ele>
        <time>2026-07-26T09:36:23.000Z</time>
        <extensions>
          <ns3:TrackPointExtension>
            <ns3:hr>129</ns3:hr>
            <ns3:cad>60</ns3:cad>
          </ns3:TrackPointExtension>
        </extensions>
      </trkpt>
      <trkpt lat="55.7896591722965240478515625" lon="24.84548558481037616729736328125">
        <ele>69.40000152587890625</ele>
        <time>2026-07-26T09:36:27.000Z</time>
        <extensions>
          <ns3:TrackPointExtension>
            <ns3:hr>132</ns3:hr>
            <ns3:cad>59</ns3:cad>
          </ns3:TrackPointExtension>
        </extensions>
      </trkpt>
      <trkpt lat="55.78966914676129817962646484375" lon="24.84552984125912189483642578125">
        <ele>69.40000152587890625</ele>
        <time>2026-07-26T09:36:29.000Z</time>
        <extensions>
          <ns3:TrackPointExtension>
            <ns3:hr>135</ns3:hr>
            <ns3:cad>59</ns3:cad>
          </ns3:TrackPointExtension>
        </extensions>
      </trkpt>
      <trkpt lat="55.78968398272991180419921875" lon="24.84558180905878543853759765625">
        <ele>69.40000152587890625</ele>
        <time>2026-07-26T09:36:31.000Z</time>
        <extensions>
          <ns3:TrackPointExtension>
            <ns3:hr>137</ns3:hr>
            <ns3:cad>60</ns3:cad>
          </ns3:TrackPointExtension>
        </extensions>
      </trkpt>
      <trkpt lat="55.78976101242005825042724609375" lon="24.84580694697797298431396484375">
        <ele>69.59999847412109375</ele>
        <time>2026-07-26T09:36:41.000Z</time>
        <extensions>
          <ns3:TrackPointExtension>
            <ns3:hr>138</ns3:hr>
            <ns3:cad>59</ns3:cad>
          </ns3:TrackPointExtension>
        </extensions>
      </trkpt>
      <trkpt lat="55.789800323545932769775390625" lon="24.84595614485442638397216796875">
        <ele>69.59999847412109375</ele>
        <time>2026-07-26T09:36:47.000Z</time>
        <extensions>
          <ns3:TrackPointExtension>
            <ns3:hr>141</ns3:hr>
            <ns3:cad>60</ns3:cad>
          </ns3:TrackPointExtension>
        </extensions>
      </trkpt>
      <trkpt lat="55.789819769561290740966796875" lon="24.84602051787078380584716796875">
        <ele>69.59999847412109375</ele>
        <time>2026-07-26T09:36:50.000Z</time>
        <extensions>
          <ns3:TrackPointExtension>
            <ns3:hr>142</ns3:hr>
            <ns3:cad>59</ns3:cad>
          </ns3:TrackPointExtension>
        </extensions>
      </trkpt>
      <trkpt lat="55.7898668758571147918701171875" lon="24.846284128725528717041015625">
        <ele>69.59999847412109375</ele>
        <time>2026-07-26T09:37:01.000Z</time>
        <extensions>
          <ns3:TrackPointExtension>
            <ns3:hr>144</ns3:hr>
            <ns3:cad>58</ns3:cad>
          </ns3:TrackPointExtension>
        </extensions>
      </trkpt>
      <trkpt lat="55.78992881812155246734619140625" lon="24.84652318060398101806640625">
        <ele>70.1999969482421875</ele>
        <time>2026-07-26T09:37:11.000Z</time>
        <extensions>
          <ns3:TrackPointExtension>
            <ns3:hr>141</ns3:hr>
            <ns3:cad>59</ns3:cad>
          </ns3:TrackPointExtension>
        </extensions>
      </trkpt>
      <trkpt lat="55.78994491137564182281494140625" lon="24.846636168658733367919921875">
        <ele>70.8000030517578125</ele>
        <time>2026-07-26T09:37:19.000Z</time>
        <extensions>
          <ns3:TrackPointExtension>
            <ns3:hr>141</ns3:hr>
            <ns3:cad>0</ns3:cad>
          </ns3:TrackPointExtension>
        </extensions>
      </trkpt>
      <trkpt lat="55.7899515330791473388671875" lon="24.84667740762233734130859375">
        <ele>70.8000030517578125</ele>
        <time>2026-07-26T09:37:22.000Z</time>
        <extensions>
          <ns3:TrackPointExtension>
            <ns3:hr>136</ns3:hr>
            <ns3:cad>0</ns3:cad>
          </ns3:TrackPointExtension>
        </extensions>
      </trkpt>
      <trkpt lat="55.789955891668796539306640625" lon="24.8467282019555568695068359375">
        <ele>70.59999847412109375</ele>
        <time>2026-07-26T09:37:24.000Z</time>
        <extensions>
          <ns3:TrackPointExtension>
            <ns3:hr>133</ns3:hr>
            <ns3:cad>0</ns3:cad>
          </ns3:TrackPointExtension>
        </extensions>
      </trkpt>
      <trkpt lat="55.78995899297297000885009765625" lon="24.8467540182173252105712890625">
        <ele>70.59999847412109375</ele>
        <time>2026-07-26T09:37:25.000Z</time>
        <extensions>
          <ns3:TrackPointExtension>
            <ns3:hr>132</ns3:hr>
            <ns3:cad>0</ns3:cad>
          </ns3:TrackPointExtension>
        </extensions>
      </trkpt>
      <trkpt lat="55.78999000601470470428466796875" lon="24.84689676202833652496337890625">
        <ele>70.8000030517578125</ele>
        <time>2026-07-26T09:37:31.000Z</time>
        <extensions>
          <ns3:TrackPointExtension>
            <ns3:hr>129</ns3:hr>
            <ns3:cad>56</ns3:cad>
          </ns3:TrackPointExtension>
        </extensions>
      </trkpt>
      <trkpt lat="55.78999838791787624359130859375" lon="24.84694303013384342193603515625">
        <ele>70.59999847412109375</ele>
        <time>2026-07-26T09:37:33.000Z</time>
        <extensions>
          <ns3:TrackPointExtension>
            <ns3:hr>128</ns3:hr>
            <ns3:cad>59</ns3:cad>
          </ns3:TrackPointExtension>
        </extensions>
      </trkpt>
      <trkpt lat="55.7900616712868213653564453125" lon="24.84724444337189197540283203125">
        <ele>70.59999847412109375</ele>
        <time>2026-07-26T09:37:45.000Z</time>
        <extensions>
          <ns3:TrackPointExtension>
            <ns3:hr>126</ns3:hr>
            <ns3:cad>59</ns3:cad>
          </ns3:TrackPointExtension>
        </extensions>
      </trkpt>
      <trkpt lat="55.7900941930711269378662109375" lon="24.84744443558156490325927734375">
        <ele>71</ele>
        <time>2026-07-26T09:37:54.000Z</time>
        <extensions>
          <ns3:TrackPointExtension>
            <ns3:hr>124</ns3:hr>
            <ns3:cad>58</ns3:cad>
          </ns3:TrackPointExtension>
        </extensions>
      </trkpt>
      <trkpt lat="55.79012922942638397216796875" lon="24.84772120602428913116455078125">
        <ele>71</ele>
        <time>2026-07-26T09:38:05.000Z</time>
        <extensions>
          <ns3:TrackPointExtension>
            <ns3:hr>126</ns3:hr>
            <ns3:cad>59</ns3:cad>
          </ns3:TrackPointExtension>
        </extensions>
      </trkpt>
      <trkpt lat="55.79018781892955303192138671875" lon="24.84800334088504314422607421875">
        <ele>71.1999969482421875</ele>
        <time>2026-07-26T09:38:16.000Z</time>
        <extensions>
          <ns3:TrackPointExtension>
            <ns3:hr>126</ns3:hr>
            <ns3:cad>59</ns3:cad>
          </ns3:TrackPointExtension>
        </extensions>
      </trkpt>
      <trkpt lat="55.7902135513722896575927734375" lon="24.848169051110744476318359375">
        <ele>71</ele>
        <time>2026-07-26T09:38:23.000Z</time>
        <extensions>
          <ns3:TrackPointExtension>
            <ns3:hr>125</ns3:hr>
            <ns3:cad>60</ns3:cad>
          </ns3:TrackPointExtension>
        </extensions>
      </trkpt>
      <trkpt lat="55.790257640182971954345703125" lon="24.8484686203300952911376953125">
        <ele>71</ele>
        <time>2026-07-26T09:38:35.000Z</time>
        <extensions>
          <ns3:TrackPointExtension>
            <ns3:hr>124</ns3:hr>
            <ns3:cad>60</ns3:cad>
          </ns3:TrackPointExtension>
        </extensions>
      </trkpt>
      <trkpt lat="55.79027566127479076385498046875" lon="24.8487073369324207305908203125">
        <ele>71</ele>
        <time>2026-07-26T09:38:44.000Z</time>
        <extensions>
          <ns3:TrackPointExtension>
            <ns3:hr>123</ns3:hr>
            <ns3:cad>60</ns3:cad>
          </ns3:TrackPointExtension>
        </extensions>
      </trkpt>
      <trkpt lat="55.79031539149582386016845703125" lon="24.848907999694347381591796875">
        <ele>70.8000030517578125</ele>
        <time>2026-07-26T09:38:52.000Z</time>
        <extensions>
          <ns3:TrackPointExtension>
            <ns3:hr>123</ns3:hr>
            <ns3:cad>61</ns3:cad>
          </ns3:TrackPointExtension>
        </extensions>
      </trkpt>
      <trkpt lat="55.79034204594790935516357421875" lon="24.84915803186595439910888671875">
        <ele>70.59999847412109375</ele>
        <time>2026-07-26T09:39:02.000Z</time>
        <extensions>
          <ns3:TrackPointExtension>
            <ns3:hr>122</ns3:hr>
            <ns3:cad>60</ns3:cad>
          </ns3:TrackPointExtension>
        </extensions>
      </trkpt>
      <trkpt lat="55.7903691194951534271240234375" lon="24.8494114167988300323486328125">
        <ele>70.59999847412109375</ele>
        <time>2026-07-26T09:39:12.000Z</time>
        <extensions>
          <ns3:TrackPointExtension>
            <ns3:hr>123</ns3:hr>
            <ns3:cad>61</ns3:cad>
          </ns3:TrackPointExtension>
        </extensions>
      </trkpt>
      <trkpt lat="55.79041513614356517791748046875" lon="24.84970386140048503875732421875">
        <ele>70.8000030517578125</ele>
        <time>2026-07-26T09:39:24.000Z</time>
        <extensions>
          <ns3:TrackPointExtension>
            <ns3:hr>123</ns3:hr>
            <ns3:cad>60</ns3:cad>
          </ns3:TrackPointExtension>
        </extensions>
      </trkpt>
      <trkpt lat="55.79043340869247913360595703125" lon="24.84990519471466541290283203125">
        <ele>71</ele>
        <time>2026-07-26T09:39:32.000Z</time>
        <extensions>
          <ns3:TrackPointExtension>
            <ns3:hr>123</ns3:hr>
            <ns3:cad>61</ns3:cad>
          </ns3:TrackPointExtension>
        </extensions>
      </trkpt>
      <trkpt lat="55.79044547863304615020751953125" lon="24.85008741728961467742919921875">
        <ele>71</ele>
        <time>2026-07-26T09:39:39.000Z</time>
        <extensions>
          <ns3:TrackPointExtension>
            <ns3:hr>122</ns3:hr>
            <ns3:cad>60</ns3:cad>
          </ns3:TrackPointExtension>
        </extensions>
      </trkpt>
      <trkpt lat="55.7904589734971523284912109375" lon="24.850233010947704315185546875">
        <ele>71</ele>
        <time>2026-07-26T09:39:45.000Z</time>
        <extensions>
          <ns3:TrackPointExtension>
            <ns3:hr>123</ns3:hr>
            <ns3:cad>61</ns3:cad>
          </ns3:TrackPointExtension>
        </extensions>
      </trkpt>
      <trkpt lat="55.79046693630516529083251953125" lon="24.85028925351798534393310546875">
        <ele>70.59999847412109375</ele>
        <time>2026-07-26T09:39:47.000Z</time>
        <extensions>
          <ns3:TrackPointExtension>
            <ns3:hr>126</ns3:hr>
            <ns3:cad>60</ns3:cad>
          </ns3:TrackPointExtension>
        </extensions>
      </trkpt>
      <trkpt lat="55.79048906452953815460205078125" lon="24.85049947164952754974365234375">
        <ele>72</ele>
        <time>2026-07-26T09:39:55.000Z</time>
        <extensions>
          <ns3:TrackPointExtension>
            <ns3:hr>125</ns3:hr>
            <ns3:cad>61</ns3:cad>
          </ns3:TrackPointExtension>
        </extensions>
      </trkpt>
      <trkpt lat="55.79050004482269287109375" lon="24.8507062532007694244384765625">
        <ele>71.8000030517578125</ele>
        <time>2026-07-26T09:40:03.000Z</time>
        <extensions>
          <ns3:TrackPointExtension>
            <ns3:hr>127</ns3:hr>
            <ns3:cad>60</ns3:cad>
          </ns3:TrackPointExtension>
        </extensions>
      </trkpt>
      <trkpt lat="55.790513120591640472412109375" lon="24.85089509747922420501708984375">
        <ele>71.8000030517578125</ele>
        <time>2026-07-26T09:40:10.000Z</time>
        <extensions>
          <ns3:TrackPointExtension>
            <ns3:hr>126</ns3:hr>
            <ns3:cad>60</ns3:cad>
          </ns3:TrackPointExtension>
        </extensions>
      </trkpt>
      <trkpt lat="55.79053156077861785888671875" lon="24.85109232366085052490234375">
        <ele>71.59999847412109375</ele>
        <time>2026-07-26T09:40:18.000Z</time>
        <extensions>
          <ns3:TrackPointExtension>
            <ns3:hr>128</ns3:hr>
            <ns3:cad>60</ns3:cad>
          </ns3:TrackPointExtension>
        </extensions>
      </trkpt>
      <trkpt lat="55.79057556577026844024658203125" lon="24.851356185972690582275390625">
        <ele>71.8000030517578125</ele>
        <time>2026-07-26T09:40:28.000Z</time>
        <extensions>
          <ns3:TrackPointExtension>
            <ns3:hr>127</ns3:hr>
            <ns3:cad>60</ns3:cad>
          </ns3:TrackPointExtension>
        </extensions>
      </trkpt>
      <trkpt lat="55.79058310948312282562255859375" lon="24.85156573355197906494140625">
        <ele>71.8000030517578125</ele>
        <time>2026-07-26T09:40:36.000Z</time>
        <extensions>
          <ns3:TrackPointExtension>
            <ns3:hr>127</ns3:hr>
            <ns3:cad>59</ns3:cad>
          </ns3:TrackPointExtension>
        </extensions>
      </trkpt>
      <trkpt lat="55.790588892996311187744140625" lon="24.85189723782241344451904296875">
        <ele>71.1999969482421875</ele>
        <time>2026-07-26T09:40:49.000Z</time>
        <extensions>
          <ns3:TrackPointExtension>
            <ns3:hr>128</ns3:hr>
            <ns3:cad>60</ns3:cad>
          </ns3:TrackPointExtension>
        </extensions>
      </trkpt>
      <trkpt lat="55.7905806787312030792236328125" lon="24.85200704075396060943603515625">
        <ele>70.8000030517578125</ele>
        <time>2026-07-26T09:40:53.000Z</time>
        <extensions>
          <ns3:TrackPointExtension>
            <ns3:hr>128</ns3:hr>
            <ns3:cad>60</ns3:cad>
          </ns3:TrackPointExtension>
        </extensions>
      </trkpt>
      <trkpt lat="55.790572464466094970703125" lon="24.8521063663065433502197265625">
        <ele>70.59999847412109375</ele>
        <time>2026-07-26T09:40:56.000Z</time>
        <extensions>
          <ns3:TrackPointExtension>
            <ns3:hr>128</ns3:hr>
            <ns3:cad>60</ns3:cad>
          </ns3:TrackPointExtension>
        </extensions>
      </trkpt>
      <trkpt lat="55.790556035935878753662109375" lon="24.85241406597197055816650390625">
        <ele>70</ele>
        <time>2026-07-26T09:41:08.000Z</time>
        <extensions>
          <ns3:TrackPointExtension>
            <ns3:hr>127</ns3:hr>
            <ns3:cad>61</ns3:cad>
          </ns3:TrackPointExtension>
        </extensions>
      </trkpt>
      <trkpt lat="55.79055310226976871490478515625" lon="24.85250853002071380615234375">
        <ele>69.8000030517578125</ele>
        <time>2026-07-26T09:41:12.000Z</time>
        <extensions>
          <ns3:TrackPointExtension>
            <ns3:hr>128</ns3:hr>
            <ns3:cad>61</ns3:cad>
          </ns3:TrackPointExtension>
        </extensions>
      </trkpt>
      <trkpt lat="55.79055243171751499176025390625" lon="24.8527172394096851348876953125">
        <ele>69.40000152587890625</ele>
        <time>2026-07-26T09:41:21.000Z</time>
        <extensions>
          <ns3:TrackPointExtension>
            <ns3:hr>129</ns3:hr>
            <ns3:cad>59</ns3:cad>
          </ns3:TrackPointExtension>
        </extensions>
      </trkpt>
      <trkpt lat="55.790572799742221832275390625" lon="24.8530494980514049530029296875">
        <ele>68.8000030517578125</ele>
        <time>2026-07-26T09:41:35.000Z</time>
        <extensions>
          <ns3:TrackPointExtension>
            <ns3:hr>127</ns3:hr>
            <ns3:cad>59</ns3:cad>
          </ns3:TrackPointExtension>
        </extensions>
      </trkpt>
      <trkpt lat="55.79058654606342315673828125" lon="24.85322677530348300933837890625">
        <ele>68.59999847412109375</ele>
        <time>2026-07-26T09:41:42.000Z</time>
        <extensions>
          <ns3:TrackPointExtension>
            <ns3:hr>124</ns3:hr>
            <ns3:cad>60</ns3:cad>
          </ns3:TrackPointExtension>
        </extensions>
      </trkpt>
      <trkpt lat="55.7905897311866283416748046875" lon="24.85327505506575107574462890625">
        <ele>68.59999847412109375</ele>
        <time>2026-07-26T09:41:44.000Z</time>
        <extensions>
          <ns3:TrackPointExtension>
            <ns3:hr>121</ns3:hr>
            <ns3:cad>60</ns3:cad>
          </ns3:TrackPointExtension>
        </extensions>
      </trkpt>
      <trkpt lat="55.79059702344238758087158203125" lon="24.853351078927516937255859375">
        <ele>68.40000152587890625</ele>
        <time>2026-07-26T09:41:47.000Z</time>
        <extensions>
          <ns3:TrackPointExtension>
            <ns3:hr>118</ns3:hr>
            <ns3:cad>59</ns3:cad>
          </ns3:TrackPointExtension>
        </extensions>
      </trkpt>
      <trkpt lat="55.79060674645006656646728515625" lon="24.85343783162534236907958984375">
        <ele>68.40000152587890625</ele>
        <time>2026-07-26T09:41:51.000Z</time>
        <extensions>
          <ns3:TrackPointExtension>
            <ns3:hr>117</ns3:hr>
            <ns3:cad>61</ns3:cad>
          </ns3:TrackPointExtension>
        </extensions>
      </trkpt>
      <trkpt lat="55.790615715086460113525390625" lon="24.85356129705905914306640625">
        <ele>68.1999969482421875</ele>
        <time>2026-07-26T09:41:56.000Z</time>
        <extensions>
          <ns3:TrackPointExtension>
            <ns3:hr>114</ns3:hr>
            <ns3:cad>61</ns3:cad>
          </ns3:TrackPointExtension>
        </extensions>
      </trkpt>
      <trkpt lat="55.79061965458095073699951171875" lon="24.85366330482065677642822265625">
        <ele>67.8000030517578125</ele>
        <time>2026-07-26T09:42:00.000Z</time>
        <extensions>
          <ns3:TrackPointExtension>
            <ns3:hr>111</ns3:hr>
            <ns3:cad>60</ns3:cad>
          </ns3:TrackPointExtension>
        </extensions>
      </trkpt>
      <trkpt lat="55.79062803648412227630615234375" lon="24.85374100506305694580078125">
        <ele>68.1999969482421875</ele>
        <time>2026-07-26T09:42:03.000Z</time>
        <extensions>
          <ns3:TrackPointExtension>
            <ns3:hr>110</ns3:hr>
            <ns3:cad>60</ns3:cad>
          </ns3:TrackPointExtension>
        </extensions>
      </trkpt>
      <trkpt lat="55.7906406931579113006591796875" lon="24.8538367263972759246826171875">
        <ele>67.8000030517578125</ele>
        <time>2026-07-26T09:42:07.000Z</time>
        <extensions>
          <ns3:TrackPointExtension>
            <ns3:hr>113</ns3:hr>
            <ns3:cad>59</ns3:cad>
          </ns3:TrackPointExtension>
        </extensions>
      </trkpt>
      <trkpt lat="55.79064446501433849334716796875" lon="24.85388307832181453704833984375">
        <ele>68</ele>
        <time>2026-07-26T09:42:09.000Z</time>
        <extensions>
          <ns3:TrackPointExtension>
            <ns3:hr>116</ns3:hr>
            <ns3:cad>59</ns3:cad>
          </ns3:TrackPointExtension>
        </extensions>
      </trkpt>
      <trkpt lat="55.79065016470849514007568359375" lon="24.8539306037127971649169921875">
        <ele>67.8000030517578125</ele>
        <time>2026-07-26T09:42:11.000Z</time>
        <extensions>
          <ns3:TrackPointExtension>
            <ns3:hr>117</ns3:hr>
            <ns3:cad>59</ns3:cad>
          </ns3:TrackPointExtension>
        </extensions>
      </trkpt>
      <trkpt lat="55.790665335953235626220703125" lon="24.85406278632581233978271484375">
        <ele>67.8000030517578125</ele>
        <time>2026-07-26T09:42:16.000Z</time>
        <extensions>
          <ns3:TrackPointExtension>
            <ns3:hr>119</ns3:hr>
            <ns3:cad>59</ns3:cad>
          </ns3:TrackPointExtension>
        </extensions>
      </trkpt>
      <trkpt lat="55.79070514999330043792724609375" lon="24.85432061366736888885498046875">
        <ele>67.8000030517578125</ele>
        <time>2026-07-26T09:42:27.000Z</time>
        <extensions>
          <ns3:TrackPointExtension>
            <ns3:hr>119</ns3:hr>
            <ns3:cad>59</ns3:cad>
          </ns3:TrackPointExtension>
        </extensions>
      </trkpt>
      <trkpt lat="55.7907389290630817413330078125" lon="24.854510128498077392578125">
        <ele>67.40000152587890625</ele>
        <time>2026-07-26T09:42:35.000Z</time>
        <extensions>
          <ns3:TrackPointExtension>
            <ns3:hr>122</ns3:hr>
            <ns3:cad>59</ns3:cad>
          </ns3:TrackPointExtension>
        </extensions>
      </trkpt>
      <trkpt lat="55.790741443634033203125" lon="24.85453552566468715667724609375">
        <ele>67.40000152587890625</ele>
        <time>2026-07-26T09:42:36.000Z</time>
        <extensions>
          <ns3:TrackPointExtension>
            <ns3:hr>122</ns3:hr>
            <ns3:cad>59</ns3:cad>
          </ns3:TrackPointExtension>
        </extensions>
      </trkpt>
      <trkpt lat="55.790762566030025482177734375" lon="24.8547268845140933990478515625">
        <ele>67.1999969482421875</ele>
        <time>2026-07-26T09:42:43.000Z</time>
        <extensions>
          <ns3:TrackPointExtension>
            <ns3:hr>119</ns3:hr>
            <ns3:cad>60</ns3:cad>
          </ns3:TrackPointExtension>
        </extensions>
      </trkpt>
      <trkpt lat="55.7907734625041484832763671875" lon="24.85477105714380741119384765625">
        <ele>67.1999969482421875</ele>
        <time>2026-07-26T09:42:45.000Z</time>
        <extensions>
          <ns3:TrackPointExtension>
            <ns3:hr>119</ns3:hr>
            <ns3:cad>60</ns3:cad>
          </ns3:TrackPointExtension>
        </extensions>
      </trkpt>
      <trkpt lat="55.79081813804805278778076171875" lon="24.854933917522430419921875">
        <ele>67.1999969482421875</ele>
        <time>2026-07-26T09:42:52.000Z</time>
        <extensions>
          <ns3:TrackPointExtension>
            <ns3:hr>120</ns3:hr>
            <ns3:cad>60</ns3:cad>
          </ns3:TrackPointExtension>
        </extensions>
      </trkpt>
      <trkpt lat="55.790869854390621185302734375" lon="24.85519618727266788482666015625">
        <ele>67.40000152587890625</ele>
        <time>2026-07-26T09:43:03.000Z</time>
        <extensions>
          <ns3:TrackPointExtension>
            <ns3:hr>121</ns3:hr>
            <ns3:cad>60</ns3:cad>
          </ns3:TrackPointExtension>
        </extensions>
      </trkpt>
      <trkpt lat="55.79091235063970088958740234375" lon="24.85536701045930385589599609375">
        <ele>67.8000030517578125</ele>
        <time>2026-07-26T09:43:09.000Z</time>
        <extensions>
          <ns3:TrackPointExtension>
            <ns3:hr>122</ns3:hr>
            <ns3:cad>60</ns3:cad>
          </ns3:TrackPointExtension>
        </extensions>
      </trkpt>
      <trkpt lat="55.79095727764070034027099609375" lon="24.85564269125461578369140625">
        <ele>68.1999969482421875</ele>
        <time>2026-07-26T09:43:20.000Z</time>
        <extensions>
          <ns3:TrackPointExtension>
            <ns3:hr>125</ns3:hr>
            <ns3:cad>59</ns3:cad>
          </ns3:TrackPointExtension>
        </extensions>
      </trkpt>
      <trkpt lat="55.79097789712250232696533203125" lon="24.8557591997087001800537109375">
        <ele>68.40000152587890625</ele>
        <time>2026-07-26T09:43:25.000Z</time>
        <extensions>
          <ns3:TrackPointExtension>
            <ns3:hr>128</ns3:hr>
            <ns3:cad>61</ns3:cad>
          </ns3:TrackPointExtension>
        </extensions>
      </trkpt>
      <trkpt lat="55.79100203700363636016845703125" lon="24.85591032542288303375244140625">
        <ele>68.40000152587890625</ele>
        <time>2026-07-26T09:43:31.000Z</time>
        <extensions>
          <ns3:TrackPointExtension>
            <ns3:hr>129</ns3:hr>
            <ns3:cad>62</ns3:cad>
          </ns3:TrackPointExtension>
        </extensions>
      </trkpt>
      <trkpt lat="55.79104478470981121063232421875" lon="24.85607561655342578887939453125">
        <ele>68.8000030517578125</ele>
        <time>2026-07-26T09:43:38.000Z</time>
        <extensions>
          <ns3:TrackPointExtension>
            <ns3:hr>128</ns3:hr>
            <ns3:cad>60</ns3:cad>
          </ns3:TrackPointExtension>
        </extensions>
      </trkpt>
      <trkpt lat="55.79107915051281452178955078125" lon="24.85619388520717620849609375">
        <ele>68.59999847412109375</ele>
        <time>2026-07-26T09:43:43.000Z</time>
        <extensions>
          <ns3:TrackPointExtension>
            <ns3:hr>127</ns3:hr>
            <ns3:cad>59</ns3:cad>
          </ns3:TrackPointExtension>
        </extensions>
      </trkpt>
      <trkpt lat="55.79112407751381397247314453125" lon="24.8563928715884685516357421875">
        <ele>68.40000152587890625</ele>
        <time>2026-07-26T09:43:51.000Z</time>
        <extensions>
          <ns3:TrackPointExtension>
            <ns3:hr>128</ns3:hr>
            <ns3:cad>59</ns3:cad>
          </ns3:TrackPointExtension>
        </extensions>
      </trkpt>
      <trkpt lat="55.7911281846463680267333984375" lon="24.856487251818180084228515625">
        <ele>69</ele>
        <time>2026-07-26T09:43:58.000Z</time>
        <extensions>
          <ns3:TrackPointExtension>
            <ns3:hr>127</ns3:hr>
            <ns3:cad>0</ns3:cad>
          </ns3:TrackPointExtension>
        </extensions>
      </trkpt>
      <trkpt lat="55.791134051978588104248046875" lon="24.85648398287594318389892578125">
        <ele>68.59999847412109375</ele>
        <time>2026-07-26T09:44:05.000Z</time>
        <extensions>
          <ns3:TrackPointExtension>
            <ns3:hr>125</ns3:hr>
            <ns3:cad>0</ns3:cad>
          </ns3:TrackPointExtension>
        </extensions>
      </trkpt>
      <trkpt lat="55.79115115106105804443359375" lon="24.85654114745557308197021484375">
        <ele>67.8000030517578125</ele>
        <time>2026-07-26T09:44:10.000Z</time>
        <extensions>
          <ns3:TrackPointExtension>
            <ns3:hr>124</ns3:hr>
            <ns3:cad>0</ns3:cad>
          </ns3:TrackPointExtension>
        </extensions>
      </trkpt>
      <trkpt lat="55.79114980995655059814453125" lon="24.8565417341887950897216796875">
        <ele>67.8000030517578125</ele>
        <time>2026-07-26T09:44:11.000Z</time>
        <extensions>
          <ns3:TrackPointExtension>
            <ns3:hr>124</ns3:hr>
            <ns3:cad>0</ns3:cad>
          </ns3:TrackPointExtension>
        </extensions>
      </trkpt>
      <trkpt lat="55.79117571003735065460205078125" lon="24.856628738343715667724609375">
        <ele>67.59999847412109375</ele>
        <time>2026-07-26T09:44:17.000Z</time>
        <extensions>
          <ns3:TrackPointExtension>
            <ns3:hr>124</ns3:hr>
            <ns3:cad>0</ns3:cad>
          </ns3:TrackPointExtension>
        </extensions>
      </trkpt>
      <trkpt lat="55.7912254147231578826904296875" lon="24.8568776808679103851318359375">
        <ele>67.40000152587890625</ele>
        <time>2026-07-26T09:44:27.000Z</time>
        <extensions>
          <ns3:TrackPointExtension>
            <ns3:hr>125</ns3:hr>
            <ns3:cad>58</ns3:cad>
          </ns3:TrackPointExtension>
        </extensions>
      </trkpt>
      <trkpt lat="55.79125986434519290924072265625" lon="24.85709804110229015350341796875">
        <ele>68</ele>
        <time>2026-07-26T09:44:36.000Z</time>
        <extensions>
          <ns3:TrackPointExtension>
            <ns3:hr>125</ns3:hr>
            <ns3:cad>58</ns3:cad>
          </ns3:TrackPointExtension>
        </extensions>
      </trkpt>
      <trkpt lat="55.7912787236273288726806640625" lon="24.85721790231764316558837890625">
        <ele>68</ele>
        <time>2026-07-26T09:44:41.000Z</time>
        <extensions>
          <ns3:TrackPointExtension>
            <ns3:hr>122</ns3:hr>
            <ns3:cad>59</ns3:cad>
          </ns3:TrackPointExtension>
        </extensions>
      </trkpt>
      <trkpt lat="55.791285596787929534912109375" lon="24.85726165585219860076904296875">
        <ele>68</ele>
        <time>2026-07-26T09:44:43.000Z</time>
        <extensions>
          <ns3:TrackPointExtension>
            <ns3:hr>121</ns3:hr>
            <ns3:cad>59</ns3:cad>
          </ns3:TrackPointExtension>
        </extensions>
      </trkpt>
      <trkpt lat="55.7913202978670597076416015625" lon="24.85752685926854610443115234375">
        <ele>68.59999847412109375</ele>
        <time>2026-07-26T09:44:53.000Z</time>
        <extensions>
          <ns3:TrackPointExtension>
            <ns3:hr>123</ns3:hr>
            <ns3:cad>60</ns3:cad>
          </ns3:TrackPointExtension>
        </extensions>
      </trkpt>
      <trkpt lat="55.79133496619760990142822265625" lon="24.85766465775668621063232421875">
        <ele>68.40000152587890625</ele>
        <time>2026-07-26T09:44:58.000Z</time>
        <extensions>
          <ns3:TrackPointExtension>
            <ns3:hr>126</ns3:hr>
            <ns3:cad>59</ns3:cad>
          </ns3:TrackPointExtension>
        </extensions>
      </trkpt>
      <trkpt lat="55.79134200699627399444580078125" lon="24.85770941711962223052978515625">
        <ele>68.1999969482421875</ele>
        <time>2026-07-26T09:45:00.000Z</time>
        <extensions>
          <ns3:TrackPointExtension>
            <ns3:hr>128</ns3:hr>
            <ns3:cad>59</ns3:cad>
          </ns3:TrackPointExtension>
        </extensions>
      </trkpt>
      <trkpt lat="55.79137645661830902099609375" lon="24.85790052451193332672119140625">
        <ele>68.59999847412109375</ele>
        <time>2026-07-26T09:45:08.000Z</time>
        <extensions>
          <ns3:TrackPointExtension>
            <ns3:hr>127</ns3:hr>
            <ns3:cad>60</ns3:cad>
          </ns3:TrackPointExtension>
        </extensions>
      </trkpt>
      <trkpt lat="55.791382491588592529296875" lon="24.8579515703022480010986328125">
        <ele>68.8000030517578125</ele>
        <time>2026-07-26T09:45:10.000Z</time>
        <extensions>
          <ns3:TrackPointExtension>
            <ns3:hr>127</ns3:hr>
            <ns3:cad>59</ns3:cad>
          </ns3:TrackPointExtension>
        </extensions>
      </trkpt>
      <trkpt lat="55.791411660611629486083984375" lon="24.858152903616428375244140625">
        <ele>69.40000152587890625</ele>
        <time>2026-07-26T09:45:18.000Z</time>
        <extensions>
          <ns3:TrackPointExtension>
            <ns3:hr>129</ns3:hr>
            <ns3:cad>59</ns3:cad>
          </ns3:TrackPointExtension>
        </extensions>
      </trkpt>
      <trkpt lat="55.79143588431179523468017578125" lon="24.85836446285247802734375">
        <ele>69.8000030517578125</ele>
        <time>2026-07-26T09:45:26.000Z</time>
        <extensions>
          <ns3:TrackPointExtension>
            <ns3:hr>130</ns3:hr>
            <ns3:cad>58</ns3:cad>
          </ns3:TrackPointExtension>
        </extensions>
      </trkpt>
      <trkpt lat="55.79144275747239589691162109375" lon="24.85840913839638233184814453125">
        <ele>70</ele>
        <time>2026-07-26T09:45:28.000Z</time>
        <extensions>
          <ns3:TrackPointExtension>
            <ns3:hr>130</ns3:hr>
            <ns3:cad>58</ns3:cad>
          </ns3:TrackPointExtension>
        </extensions>
      </trkpt>
      <trkpt lat="55.791491456329822540283203125" lon="24.85868959687650203704833984375">
        <ele>70.59999847412109375</ele>
        <time>2026-07-26T09:45:40.000Z</time>
        <extensions>
          <ns3:TrackPointExtension>
            <ns3:hr>130</ns3:hr>
            <ns3:cad>59</ns3:cad>
          </ns3:TrackPointExtension>
        </extensions>
      </trkpt>
      <trkpt lat="55.7915372215211391448974609375" lon="24.858863353729248046875">
        <ele>71</ele>
        <time>2026-07-26T09:45:48.000Z</time>
        <extensions>
          <ns3:TrackPointExtension>
            <ns3:hr>131</ns3:hr>
            <ns3:cad>58</ns3:cad>
          </ns3:TrackPointExtension>
        </extensions>
      </trkpt>
      <trkpt lat="55.79154853709042072296142578125" lon="24.85890425741672515869140625">
        <ele>71</ele>
        <time>2026-07-26T09:45:50.000Z</time>
        <extensions>
          <ns3:TrackPointExtension>
            <ns3:hr>130</ns3:hr>
            <ns3:cad>59</ns3:cad>
          </ns3:TrackPointExtension>
        </extensions>
      </trkpt>
      <trkpt lat="55.791583321988582611083984375" lon="24.85902763903141021728515625">
        <ele>71</ele>
        <time>2026-07-26T09:45:56.000Z</time>
        <extensions>
          <ns3:TrackPointExtension>
            <ns3:hr>127</ns3:hr>
            <ns3:cad>57</ns3:cad>
          </ns3:TrackPointExtension>
        </extensions>
      </trkpt>
      <trkpt lat="55.79163369722664356231689453125" lon="24.8591749928891658782958984375">
        <ele>71.1999969482421875</ele>
        <time>2026-07-26T09:46:03.000Z</time>
        <extensions>
          <ns3:TrackPointExtension>
            <ns3:hr>127</ns3:hr>
            <ns3:cad>60</ns3:cad>
          </ns3:TrackPointExtension>
        </extensions>
      </trkpt>
      <trkpt lat="55.79170913435518741607666015625" lon="24.85935897566378116607666015625">
        <ele>72</ele>
        <time>2026-07-26T09:46:12.000Z</time>
        <extensions>
          <ns3:TrackPointExtension>
            <ns3:hr>131</ns3:hr>
            <ns3:cad>60</ns3:cad>
          </ns3:TrackPointExtension>
        </extensions>
      </trkpt>
      <trkpt lat="55.7917196117341518402099609375" lon="24.85938361845910549163818359375">
        <ele>72</ele>
        <time>2026-07-26T09:46:13.000Z</time>
        <extensions>
          <ns3:TrackPointExtension>
            <ns3:hr>132</ns3:hr>
            <ns3:cad>60</ns3:cad>
          </ns3:TrackPointExtension>
        </extensions>
      </trkpt>
      <trkpt lat="55.7917893491685390472412109375" lon="24.85956315882503986358642578125">
        <ele>72.59999847412109375</ele>
        <time>2026-07-26T09:46:21.000Z</time>
        <extensions>
          <ns3:TrackPointExtension>
            <ns3:hr>133</ns3:hr>
            <ns3:cad>59</ns3:cad>
          </ns3:TrackPointExtension>
        </extensions>
      </trkpt>
      <trkpt lat="55.791818685829639434814453125" lon="24.8596755601465702056884765625">
        <ele>73</ele>
        <time>2026-07-26T09:46:26.000Z</time>
        <extensions>
          <ns3:TrackPointExtension>
            <ns3:hr>134</ns3:hr>
            <ns3:cad>59</ns3:cad>
          </ns3:TrackPointExtension>
        </extensions>
      </trkpt>
      <trkpt lat="55.79184391535818576812744140625" lon="24.8597680963575839996337890625">
        <ele>73.40000152587890625</ele>
        <time>2026-07-26T09:46:30.000Z</time>
        <extensions>
          <ns3:TrackPointExtension>
            <ns3:hr>134</ns3:hr>
            <ns3:cad>58</ns3:cad>
          </ns3:TrackPointExtension>
        </extensions>
      </trkpt>
      <trkpt lat="55.7919077016413211822509765625" lon="24.85983959399163722991943359375">
        <ele>73.8000030517578125</ele>
        <time>2026-07-26T09:46:37.000Z</time>
        <extensions>
          <ns3:TrackPointExtension>
            <ns3:hr>133</ns3:hr>
            <ns3:cad>57</ns3:cad>
          </ns3:TrackPointExtension>
        </extensions>
      </trkpt>
      <trkpt lat="55.791934020817279815673828125" lon="24.85986155457794666290283203125">
        <ele>74</ele>
        <time>2026-07-26T09:46:39.000Z</time>
        <extensions>
          <ns3:TrackPointExtension>
            <ns3:hr>134</ns3:hr>
            <ns3:cad>57</ns3:cad>
          </ns3:TrackPointExtension>
        </extensions>
      </trkpt>
      <trkpt lat="55.79200853593647480010986328125" lon="24.8598973453044891357421875">
        <ele>74.59999847412109375</ele>
        <time>2026-07-26T09:46:44.000Z</time>
        <extensions>
          <ns3:TrackPointExtension>
            <ns3:hr>134</ns3:hr>
            <ns3:cad>57</ns3:cad>
          </ns3:TrackPointExtension>
        </extensions>
      </trkpt>
      <trkpt lat="55.7920817099511623382568359375" lon="24.8599870316684246063232421875">
        <ele>75</ele>
        <time>2026-07-26T09:46:50.000Z</time>
        <extensions>
          <ns3:TrackPointExtension>
            <ns3:hr>138</ns3:hr>
            <ns3:cad>57</ns3:cad>
          </ns3:TrackPointExtension>
        </extensions>
      </trkpt>
      <trkpt lat="55.7921040058135986328125" lon="24.86001293174922466278076171875">
        <ele>75.1999969482421875</ele>
        <time>2026-07-26T09:46:52.000Z</time>
        <extensions>
          <ns3:TrackPointExtension>
            <ns3:hr>139</ns3:hr>
            <ns3:cad>57</ns3:cad>
          </ns3:TrackPointExtension>
        </extensions>
      </trkpt>
      <trkpt lat="55.79218841157853603363037109375" lon="24.8601011931896209716796875">
        <ele>76.1999969482421875</ele>
        <time>2026-07-26T09:47:00.000Z</time>
        <extensions>
          <ns3:TrackPointExtension>
            <ns3:hr>138</ns3:hr>
            <ns3:cad>56</ns3:cad>
          </ns3:TrackPointExtension>
        </extensions>
      </trkpt>
      <trkpt lat="55.7922077737748622894287109375" lon="24.86013681627810001373291015625">
        <ele>76.40000152587890625</ele>
        <time>2026-07-26T09:47:02.000Z</time>
        <extensions>
          <ns3:TrackPointExtension>
            <ns3:hr>140</ns3:hr>
            <ns3:cad>57</ns3:cad>
          </ns3:TrackPointExtension>
        </extensions>
      </trkpt>
      <trkpt lat="55.7922470010817050933837890625" lon="24.86022633500397205352783203125">
        <ele>76.8000030517578125</ele>
        <time>2026-07-26T09:47:06.000Z</time>
        <extensions>
          <ns3:TrackPointExtension>
            <ns3:hr>143</ns3:hr>
            <ns3:cad>57</ns3:cad>
          </ns3:TrackPointExtension>
        </extensions>
      </trkpt>
      <trkpt lat="55.792284719645977020263671875" lon="24.86030546016991138458251953125">
        <ele>77</ele>
        <time>2026-07-26T09:47:10.000Z</time>
        <extensions>
          <ns3:TrackPointExtension>
            <ns3:hr>144</ns3:hr>
            <ns3:cad>56</ns3:cad>
          </ns3:TrackPointExtension>
        </extensions>
      </trkpt>
      <trkpt lat="55.7923341728746891021728515625" lon="24.8604498803615570068359375">
        <ele>77.1999969482421875</ele>
        <time>2026-07-26T09:47:17.000Z</time>
        <extensions>
          <ns3:TrackPointExtension>
            <ns3:hr>143</ns3:hr>
            <ns3:cad>59</ns3:cad>
          </ns3:TrackPointExtension>
        </extensions>
      </trkpt>
      <trkpt lat="55.7923467457294464111328125" lon="24.8604954779148101806640625">
        <ele>77.1999969482421875</ele>
        <time>2026-07-26T09:47:19.000Z</time>
        <extensions>
          <ns3:TrackPointExtension>
            <ns3:hr>142</ns3:hr>
            <ns3:cad>59</ns3:cad>
          </ns3:TrackPointExtension>
        </extensions>
      </trkpt>
      <trkpt lat="55.792415477335453033447265625" lon="24.860701672732830047607421875">
        <ele>77.40000152587890625</ele>
        <time>2026-07-26T09:47:28.000Z</time>
        <extensions>
          <ns3:TrackPointExtension>
            <ns3:hr>140</ns3:hr>
            <ns3:cad>60</ns3:cad>
          </ns3:TrackPointExtension>
        </extensions>
      </trkpt>
      <trkpt lat="55.79246409237384796142578125" lon="24.86087006516754627227783203125">
        <ele>77.8000030517578125</ele>
        <time>2026-07-26T09:47:36.000Z</time>
        <extensions>
          <ns3:TrackPointExtension>
            <ns3:hr>137</ns3:hr>
            <ns3:cad>59</ns3:cad>
          </ns3:TrackPointExtension>
        </extensions>
      </trkpt>
      <trkpt lat="55.79252687282860279083251953125" lon="24.861059747636318206787109375">
        <ele>77.1999969482421875</ele>
        <time>2026-07-26T09:47:45.000Z</time>
        <extensions>
          <ns3:TrackPointExtension>
            <ns3:hr>137</ns3:hr>
            <ns3:cad>58</ns3:cad>
          </ns3:TrackPointExtension>
        </extensions>
      </trkpt>
      <trkpt lat="55.792588479816913604736328125" lon="24.86121372319757938385009765625">
        <ele>76.59999847412109375</ele>
        <time>2026-07-26T09:47:53.000Z</time>
        <extensions>
          <ns3:TrackPointExtension>
            <ns3:hr>136</ns3:hr>
            <ns3:cad>59</ns3:cad>
          </ns3:TrackPointExtension>
        </extensions>
      </trkpt>
      <trkpt lat="55.7926359213888645172119140625" lon="24.8613566346466541290283203125">
        <ele>76.8000030517578125</ele>
        <time>2026-07-26T09:47:59.000Z</time>
        <extensions>
          <ns3:TrackPointExtension>
            <ns3:hr>133</ns3:hr>
            <ns3:cad>60</ns3:cad>
          </ns3:TrackPointExtension>
        </extensions>
      </trkpt>
      <trkpt lat="55.79265930689871311187744140625" lon="24.86144590191543102264404296875">
        <ele>76.8000030517578125</ele>
        <time>2026-07-26T09:48:03.000Z</time>
        <extensions>
          <ns3:TrackPointExtension>
            <ns3:hr>132</ns3:hr>
            <ns3:cad>59</ns3:cad>
          </ns3:TrackPointExtension>
        </extensions>
      </trkpt>
      <trkpt lat="55.79271010123193264007568359375" lon="24.86161404289305210113525390625">
        <ele>76.59999847412109375</ele>
        <time>2026-07-26T09:48:11.000Z</time>
        <extensions>
          <ns3:TrackPointExtension>
            <ns3:hr>130</ns3:hr>
            <ns3:cad>60</ns3:cad>
          </ns3:TrackPointExtension>
        </extensions>
      </trkpt>
      <trkpt lat="55.792756788432598114013671875" lon="24.86178318969905376434326171875">
        <ele>76.8000030517578125</ele>
        <time>2026-07-26T09:48:18.000Z</time>
        <extensions>
          <ns3:TrackPointExtension>
            <ns3:hr>127</ns3:hr>
            <ns3:cad>58</ns3:cad>
          </ns3:TrackPointExtension>
        </extensions>
      </trkpt>
      <trkpt lat="55.7927707023918628692626953125" lon="24.86182543449103832244873046875">
        <ele>76.8000030517578125</ele>
        <time>2026-07-26T09:48:20.000Z</time>
        <extensions>
          <ns3:TrackPointExtension>
            <ns3:hr>126</ns3:hr>
            <ns3:cad>58</ns3:cad>
          </ns3:TrackPointExtension>
        </extensions>
      </trkpt>
      <trkpt lat="55.79281537793576717376708984375" lon="24.86197832040488719940185546875">
        <ele>76.59999847412109375</ele>
        <time>2026-07-26T09:48:27.000Z</time>
        <extensions>
          <ns3:TrackPointExtension>
            <ns3:hr>126</ns3:hr>
            <ns3:cad>59</ns3:cad>
          </ns3:TrackPointExtension>
        </extensions>
      </trkpt>
      <trkpt lat="55.7928572036325931549072265625" lon="24.8621297813951969146728515625">
        <ele>76.59999847412109375</ele>
        <time>2026-07-26T09:48:34.000Z</time>
        <extensions>
          <ns3:TrackPointExtension>
            <ns3:hr>126</ns3:hr>
            <ns3:cad>59</ns3:cad>
          </ns3:TrackPointExtension>
        </extensions>
      </trkpt>
      <trkpt lat="55.792921744287014007568359375" lon="24.862302951514720916748046875">
        <ele>76.40000152587890625</ele>
        <time>2026-07-26T09:48:42.000Z</time>
        <extensions>
          <ns3:TrackPointExtension>
            <ns3:hr>125</ns3:hr>
            <ns3:cad>58</ns3:cad>
          </ns3:TrackPointExtension>
        </extensions>
      </trkpt>
      <trkpt lat="55.79295367933809757232666015625" lon="24.8624372296035289764404296875">
        <ele>76.1999969482421875</ele>
        <time>2026-07-26T09:48:48.000Z</time>
        <extensions>
          <ns3:TrackPointExtension>
            <ns3:hr>125</ns3:hr>
            <ns3:cad>57</ns3:cad>
          </ns3:TrackPointExtension>
        </extensions>
      </trkpt>
      <trkpt lat="55.79296256415545940399169921875" lon="24.86248207278549671173095703125">
        <ele>76</ele>
        <time>2026-07-26T09:48:50.000Z</time>
        <extensions>
          <ns3:TrackPointExtension>
            <ns3:hr>124</ns3:hr>
            <ns3:cad>57</ns3:cad>
          </ns3:TrackPointExtension>
        </extensions>
      </trkpt>
      <trkpt lat="55.7929956726729869842529296875" lon="24.8626554943621158599853515625">
        <ele>76.40000152587890625</ele>
        <time>2026-07-26T09:48:57.000Z</time>
        <extensions>
          <ns3:TrackPointExtension>
            <ns3:hr>123</ns3:hr>
            <ns3:cad>58</ns3:cad>
          </ns3:TrackPointExtension>
        </extensions>
      </trkpt>
      <trkpt lat="55.79304705373942852020263671875" lon="24.8629176802933216094970703125">
        <ele>76</ele>
        <time>2026-07-26T09:49:08.000Z</time>
        <extensions>
          <ns3:TrackPointExtension>
            <ns3:hr>122</ns3:hr>
            <ns3:cad>58</ns3:cad>
          </ns3:TrackPointExtension>
        </extensions>
      </trkpt>
      <trkpt lat="55.793099440634250640869140625" lon="24.86316301859915256500244140625">
        <ele>75.8000030517578125</ele>
        <time>2026-07-26T09:49:19.000Z</time>
        <extensions>
          <ns3:TrackPointExtension>
            <ns3:hr>121</ns3:hr>
            <ns3:cad>58</ns3:cad>
          </ns3:TrackPointExtension>
        </extensions>
      </trkpt>
      <trkpt lat="55.79312986694276332855224609375" lon="24.86337457783520221710205078125">
        <ele>75.8000030517578125</ele>
        <time>2026-07-26T09:49:28.000Z</time>
        <extensions>
          <ns3:TrackPointExtension>
            <ns3:hr>120</ns3:hr>
            <ns3:cad>59</ns3:cad>
          </ns3:TrackPointExtension>
        </extensions>
      </trkpt>
      <trkpt lat="55.79314805567264556884765625" lon="24.86347147263586521148681640625">
        <ele>75.8000030517578125</ele>
        <time>2026-07-26T09:49:32.000Z</time>
        <extensions>
          <ns3:TrackPointExtension>
            <ns3:hr>117</ns3:hr>
            <ns3:cad>59</ns3:cad>
          </ns3:TrackPointExtension>
        </extensions>
      </trkpt>
      <trkpt lat="55.793161131441593170166015625" lon="24.8635476641356945037841796875">
        <ele>76</ele>
        <time>2026-07-26T09:49:35.000Z</time>
        <extensions>
          <ns3:TrackPointExtension>
            <ns3:hr>120</ns3:hr>
            <ns3:cad>60</ns3:cad>
          </ns3:TrackPointExtension>
        </extensions>
      </trkpt>
      <trkpt lat="55.79318560659885406494140625" lon="24.863648749887943267822265625">
        <ele>75.8000030517578125</ele>
        <time>2026-07-26T09:49:39.000Z</time>
        <extensions>
          <ns3:TrackPointExtension>
            <ns3:hr>122</ns3:hr>
            <ns3:cad>60</ns3:cad>
          </ns3:TrackPointExtension>
        </extensions>
      </trkpt>
      <trkpt lat="55.79322156496345996856689453125" lon="24.8638457246124744415283203125">
        <ele>75.40000152587890625</ele>
        <time>2026-07-26T09:49:47.000Z</time>
        <extensions>
          <ns3:TrackPointExtension>
            <ns3:hr>122</ns3:hr>
            <ns3:cad>60</ns3:cad>
          </ns3:TrackPointExtension>
        </extensions>
      </trkpt>
      <trkpt lat="55.79325643368065357208251953125" lon="24.8640453815460205078125">
        <ele>75.40000152587890625</ele>
        <time>2026-07-26T09:49:55.000Z</time>
        <extensions>
          <ns3:TrackPointExtension>
            <ns3:hr>125</ns3:hr>
            <ns3:cad>58</ns3:cad>
          </ns3:TrackPointExtension>
        </extensions>
      </trkpt>
      <trkpt lat="55.79326213337481021881103515625" lon="24.8640747182071208953857421875">
        <ele>75.40000152587890625</ele>
        <time>2026-07-26T09:49:56.000Z</time>
        <extensions>
          <ns3:TrackPointExtension>
            <ns3:hr>125</ns3:hr>
            <ns3:cad>57</ns3:cad>
          </ns3:TrackPointExtension>
        </extensions>
      </trkpt>
      <trkpt lat="55.793320722877979278564453125" lon="24.864282421767711639404296875">
        <ele>75.1999969482421875</ele>
        <time>2026-07-26T09:50:05.000Z</time>
        <extensions>
          <ns3:TrackPointExtension>
            <ns3:hr>125</ns3:hr>
            <ns3:cad>59</ns3:cad>
          </ns3:TrackPointExtension>
        </extensions>
      </trkpt>
      <trkpt lat="55.7933443598449230194091796875" lon="24.864386357367038726806640625">
        <ele>75.1999969482421875</ele>
        <time>2026-07-26T09:50:09.000Z</time>
        <extensions>
          <ns3:TrackPointExtension>
            <ns3:hr>126</ns3:hr>
            <ns3:cad>59</ns3:cad>
          </ns3:TrackPointExtension>
        </extensions>
      </trkpt>
      <trkpt lat="55.79337696544826030731201171875" lon="24.86449825577437877655029296875">
        <ele>75</ele>
        <time>2026-07-26T09:50:14.000Z</time>
        <extensions>
          <ns3:TrackPointExtension>
            <ns3:hr>125</ns3:hr>
            <ns3:cad>59</ns3:cad>
          </ns3:TrackPointExtension>
        </extensions>
      </trkpt>
      <trkpt lat="55.79341761767864227294921875" lon="24.8646399937570095062255859375">
        <ele>75.1999969482421875</ele>
        <time>2026-07-26T09:50:20.000Z</time>
        <extensions>
          <ns3:TrackPointExtension>
            <ns3:hr>122</ns3:hr>
            <ns3:cad>59</ns3:cad>
          </ns3:TrackPointExtension>
        </extensions>
      </trkpt>
      <trkpt lat="55.79343630932271480560302734375" lon="24.86469992436468601226806640625">
        <ele>75.1999969482421875</ele>
        <time>2026-07-26T09:50:23.000Z</time>
        <extensions>
          <ns3:TrackPointExtension>
            <ns3:hr>122</ns3:hr>
            <ns3:cad>59</ns3:cad>
          </ns3:TrackPointExtension>
        </extensions>
      </trkpt>
      <trkpt lat="55.7935069687664508819580078125" lon="24.86489094793796539306640625">
        <ele>75</ele>
        <time>2026-07-26T09:50:32.000Z</time>
        <extensions>
          <ns3:TrackPointExtension>
            <ns3:hr>122</ns3:hr>
            <ns3:cad>60</ns3:cad>
          </ns3:TrackPointExtension>
        </extensions>
      </trkpt>
      <trkpt lat="55.79358969815075397491455078125" lon="24.86507602035999298095703125">
        <ele>75</ele>
        <time>2026-07-26T09:50:41.000Z</time>
        <extensions>
          <ns3:TrackPointExtension>
            <ns3:hr>122</ns3:hr>
            <ns3:cad>60</ns3:cad>
          </ns3:TrackPointExtension>
        </extensions>
      </trkpt>
      <trkpt lat="55.7936963997781276702880859375" lon="24.86528598703444004058837890625">
        <ele>74.8000030517578125</ele>
        <time>2026-07-26T09:50:52.000Z</time>
        <extensions>
          <ns3:TrackPointExtension>
            <ns3:hr>122</ns3:hr>
            <ns3:cad>60</ns3:cad>
          </ns3:TrackPointExtension>
        </extensions>
      </trkpt>
      <trkpt lat="55.79378600232303142547607421875" lon="24.86549084074795246124267578125">
        <ele>74.8000030517578125</ele>
        <time>2026-07-26T09:51:02.000Z</time>
        <extensions>
          <ns3:TrackPointExtension>
            <ns3:hr>122</ns3:hr>
            <ns3:cad>60</ns3:cad>
          </ns3:TrackPointExtension>
        </extensions>
      </trkpt>
      <trkpt lat="55.79388138838112354278564453125" lon="24.865646995604038238525390625">
        <ele>74.8000030517578125</ele>
        <time>2026-07-26T09:51:11.000Z</time>
        <extensions>
          <ns3:TrackPointExtension>
            <ns3:hr>121</ns3:hr>
            <ns3:cad>59</ns3:cad>
          </ns3:TrackPointExtension>
        </extensions>
      </trkpt>
      <trkpt lat="55.7939827255904674530029296875" lon="24.86582100391387939453125">
        <ele>75</ele>
        <time>2026-07-26T09:51:20.000Z</time>
        <extensions>
          <ns3:TrackPointExtension>
            <ns3:hr>123</ns3:hr>
            <ns3:cad>60</ns3:cad>
          </ns3:TrackPointExtension>
        </extensions>
      </trkpt>
      <trkpt lat="55.79406998120248317718505859375" lon="24.865961484611034393310546875">
        <ele>74.8000030517578125</ele>
        <time>2026-07-26T09:51:28.000Z</time>
        <extensions>
          <ns3:TrackPointExtension>
            <ns3:hr>124</ns3:hr>
            <ns3:cad>0</ns3:cad>
          </ns3:TrackPointExtension>
        </extensions>
      </trkpt>
      <trkpt lat="55.79414675943553447723388671875" lon="24.86613205634057521820068359375">
        <ele>75</ele>
        <time>2026-07-26T09:51:37.000Z</time>
        <extensions>
          <ns3:TrackPointExtension>
            <ns3:hr>124</ns3:hr>
            <ns3:cad>60</ns3:cad>
          </ns3:TrackPointExtension>
        </extensions>
      </trkpt>
      <trkpt lat="55.794234015047550201416015625" lon="24.86629064194858074188232421875">
        <ele>75.40000152587890625</ele>
        <time>2026-07-26T09:51:46.000Z</time>
        <extensions>
          <ns3:TrackPointExtension>
            <ns3:hr>127</ns3:hr>
            <ns3:cad>61</ns3:cad>
          </ns3:TrackPointExtension>
        </extensions>
      </trkpt>
      <trkpt lat="55.79425253905355930328369140625" lon="24.86632199026644229888916015625">
        <ele>75.59999847412109375</ele>
        <time>2026-07-26T09:51:48.000Z</time>
        <extensions>
          <ns3:TrackPointExtension>
            <ns3:hr>127</ns3:hr>
            <ns3:cad>60</ns3:cad>
          </ns3:TrackPointExtension>
        </extensions>
      </trkpt>
      <trkpt lat="55.794363431632518768310546875" lon="24.86649549566209316253662109375">
        <ele>76.1999969482421875</ele>
        <time>2026-07-26T09:51:58.000Z</time>
        <extensions>
          <ns3:TrackPointExtension>
            <ns3:hr>128</ns3:hr>
            <ns3:cad>59</ns3:cad>
          </ns3:TrackPointExtension>
        </extensions>
      </trkpt>
      <trkpt lat="55.7943729870021343231201171875" lon="24.86651360057294368743896484375">
        <ele>76.1999969482421875</ele>
        <time>2026-07-26T09:51:59.000Z</time>
        <extensions>
          <ns3:TrackPointExtension>
            <ns3:hr>128</ns3:hr>
            <ns3:cad>59</ns3:cad>
          </ns3:TrackPointExtension>
        </extensions>
      </trkpt>
      <trkpt lat="55.7944024913012981414794921875" lon="24.86655266024172306060791015625">
        <ele>76.59999847412109375</ele>
        <time>2026-07-26T09:52:05.000Z</time>
        <extensions>
          <ns3:TrackPointExtension>
            <ns3:hr>130</ns3:hr>
            <ns3:cad>0</ns3:cad>
          </ns3:TrackPointExtension>
        </extensions>
      </trkpt>
      <trkpt lat="55.79447549767792224884033203125" lon="24.86663580872118473052978515625">
        <ele>77.1999969482421875</ele>
        <time>2026-07-26T09:52:12.000Z</time>
        <extensions>
          <ns3:TrackPointExtension>
            <ns3:hr>131</ns3:hr>
            <ns3:cad>58</ns3:cad>
          </ns3:TrackPointExtension>
        </extensions>
      </trkpt>
      <trkpt lat="55.79452402889728546142578125" lon="24.86669615842401981353759765625">
        <ele>77.8000030517578125</ele>
        <time>2026-07-26T09:52:16.000Z</time>
        <extensions>
          <ns3:TrackPointExtension>
            <ns3:hr>132</ns3:hr>
            <ns3:cad>59</ns3:cad>
          </ns3:TrackPointExtension>
        </extensions>
      </trkpt>
      <trkpt lat="55.79457658343017101287841796875" lon="24.866771511733531951904296875">
        <ele>78.40000152587890625</ele>
        <time>2026-07-26T09:52:21.000Z</time>
        <extensions>
          <ns3:TrackPointExtension>
            <ns3:hr>133</ns3:hr>
            <ns3:cad>58</ns3:cad>
          </ns3:TrackPointExtension>
        </extensions>
      </trkpt>
      <trkpt lat="55.794601142406463623046875" lon="24.86679825000464916229248046875">
        <ele>78.59999847412109375</ele>
        <time>2026-07-26T09:52:23.000Z</time>
        <extensions>
          <ns3:TrackPointExtension>
            <ns3:hr>133</ns3:hr>
            <ns3:cad>58</ns3:cad>
          </ns3:TrackPointExtension>
        </extensions>
      </trkpt>
      <trkpt lat="55.7946574687957763671875" lon="24.86686664633452892303466796875">
        <ele>79.40000152587890625</ele>
        <time>2026-07-26T09:52:28.000Z</time>
        <extensions>
          <ns3:TrackPointExtension>
            <ns3:hr>132</ns3:hr>
            <ns3:cad>59</ns3:cad>
          </ns3:TrackPointExtension>
        </extensions>
      </trkpt>
      <trkpt lat="55.79473164863884449005126953125" lon="24.8669580928981304168701171875">
        <ele>80.40000152587890625</ele>
        <time>2026-07-26T09:52:35.000Z</time>
        <extensions>
          <ns3:TrackPointExtension>
            <ns3:hr>134</ns3:hr>
            <ns3:cad>58</ns3:cad>
          </ns3:TrackPointExtension>
        </extensions>
      </trkpt>
      <trkpt lat="55.7947432994842529296875" lon="24.8669711686670780181884765625">
        <ele>80.59999847412109375</ele>
        <time>2026-07-26T09:52:36.000Z</time>
        <extensions>
          <ns3:TrackPointExtension>
            <ns3:hr>134</ns3:hr>
            <ns3:cad>57</ns3:cad>
          </ns3:TrackPointExtension>
        </extensions>
      </trkpt>
      <trkpt lat="55.79478017985820770263671875" lon="24.8670060373842716217041015625">
        <ele>81.1999969482421875</ele>
        <time>2026-07-26T09:52:39.000Z</time>
        <extensions>
          <ns3:TrackPointExtension>
            <ns3:hr>137</ns3:hr>
            <ns3:cad>58</ns3:cad>
          </ns3:TrackPointExtension>
        </extensions>
      </trkpt>
      <trkpt lat="55.7948142103850841522216796875" lon="24.86703579314053058624267578125">
        <ele>81.59999847412109375</ele>
        <time>2026-07-26T09:52:42.000Z</time>
        <extensions>
          <ns3:TrackPointExtension>
            <ns3:hr>139</ns3:hr>
            <ns3:cad>57</ns3:cad>
          </ns3:TrackPointExtension>
        </extensions>
      </trkpt>
      <trkpt lat="55.79486223869025707244873046875" lon="24.86708155833184719085693359375">
        <ele>82</ele>
        <time>2026-07-26T09:52:46.000Z</time>
        <extensions>
          <ns3:TrackPointExtension>
            <ns3:hr>141</ns3:hr>
            <ns3:cad>59</ns3:cad>
          </ns3:TrackPointExtension>
        </extensions>
      </trkpt>
      <trkpt lat="55.794902555644512176513671875" lon="24.8671250604093074798583984375">
        <ele>82.59999847412109375</ele>
        <time>2026-07-26T09:52:50.000Z</time>
        <extensions>
          <ns3:TrackPointExtension>
            <ns3:hr>142</ns3:hr>
            <ns3:cad>59</ns3:cad>
          </ns3:TrackPointExtension>
        </extensions>
      </trkpt>
      <trkpt lat="55.79496919177472591400146484375" lon="24.86718432046473026275634765625">
        <ele>83.59999847412109375</ele>
        <time>2026-07-26T09:52:56.000Z</time>
        <extensions>
          <ns3:TrackPointExtension>
            <ns3:hr>143</ns3:hr>
            <ns3:cad>57</ns3:cad>
          </ns3:TrackPointExtension>
        </extensions>
      </trkpt>
      <trkpt lat="55.79499249346554279327392578125" lon="24.86720569431781768798828125">
        <ele>83.8000030517578125</ele>
        <time>2026-07-26T09:52:58.000Z</time>
        <extensions>
          <ns3:TrackPointExtension>
            <ns3:hr>144</ns3:hr>
            <ns3:cad>57</ns3:cad>
          </ns3:TrackPointExtension>
        </extensions>
      </trkpt>
      <trkpt lat="55.795067846775054931640625" lon="24.86726461909711360931396484375">
        <ele>84.59999847412109375</ele>
        <time>2026-07-26T09:53:04.000Z</time>
        <extensions>
          <ns3:TrackPointExtension>
            <ns3:hr>146</ns3:hr>
            <ns3:cad>59</ns3:cad>
          </ns3:TrackPointExtension>
        </extensions>
      </trkpt>
      <trkpt lat="55.7951052300631999969482421875" lon="24.86728020943701267242431640625">
        <ele>84.8000030517578125</ele>
        <time>2026-07-26T09:53:07.000Z</time>
        <extensions>
          <ns3:TrackPointExtension>
            <ns3:hr>149</ns3:hr>
            <ns3:cad>59</ns3:cad>
          </ns3:TrackPointExtension>
        </extensions>
      </trkpt>
      <trkpt lat="55.79517756588757038116455078125" lon="24.867344833910465240478515625">
        <ele>85.40000152587890625</ele>
        <time>2026-07-26T09:53:13.000Z</time>
        <extensions>
          <ns3:TrackPointExtension>
            <ns3:hr>151</ns3:hr>
            <ns3:cad>57</ns3:cad>
          </ns3:TrackPointExtension>
        </extensions>
      </trkpt>
      <trkpt lat="55.7952141948044300079345703125" lon="24.8673748411238193511962890625">
        <ele>86</ele>
        <time>2026-07-26T09:53:16.000Z</time>
        <extensions>
          <ns3:TrackPointExtension>
            <ns3:hr>152</ns3:hr>
            <ns3:cad>57</ns3:cad>
          </ns3:TrackPointExtension>
        </extensions>
      </trkpt>
      <trkpt lat="55.795288793742656707763671875" lon="24.8674308322370052337646484375">
        <ele>86.40000152587890625</ele>
        <time>2026-07-26T09:53:22.000Z</time>
        <extensions>
          <ns3:TrackPointExtension>
            <ns3:hr>151</ns3:hr>
            <ns3:cad>58</ns3:cad>
          </ns3:TrackPointExtension>
        </extensions>
      </trkpt>
      <trkpt lat="55.79537831246852874755859375" lon="24.8675049282610416412353515625">
        <ele>86.8000030517578125</ele>
        <time>2026-07-26T09:53:29.000Z</time>
        <extensions>
          <ns3:TrackPointExtension>
            <ns3:hr>151</ns3:hr>
            <ns3:cad>57</ns3:cad>
          </ns3:TrackPointExtension>
        </extensions>
      </trkpt>
      <trkpt lat="55.79542684368789196014404296875" lon="24.86755329184234142303466796875">
        <ele>87</ele>
        <time>2026-07-26T09:53:33.000Z</time>
        <extensions>
          <ns3:TrackPointExtension>
            <ns3:hr>150</ns3:hr>
            <ns3:cad>60</ns3:cad>
          </ns3:TrackPointExtension>
        </extensions>
      </trkpt>
      <trkpt lat="55.79551502130925655364990234375" lon="24.86763409338891506195068359375">
        <ele>87.1999969482421875</ele>
        <time>2026-07-26T09:53:40.000Z</time>
        <extensions>
          <ns3:TrackPointExtension>
            <ns3:hr>150</ns3:hr>
            <ns3:cad>60</ns3:cad>
          </ns3:TrackPointExtension>
        </extensions>
      </trkpt>
      <trkpt lat="55.79561208374798297882080078125" lon="24.86773274838924407958984375">
        <ele>87.59999847412109375</ele>
        <time>2026-07-26T09:53:48.000Z</time>
        <extensions>
          <ns3:TrackPointExtension>
            <ns3:hr>147</ns3:hr>
            <ns3:cad>59</ns3:cad>
          </ns3:TrackPointExtension>
        </extensions>
      </trkpt>
      <trkpt lat="55.79567025415599346160888671875" lon="24.86777834594249725341796875">
        <ele>88</ele>
        <time>2026-07-26T09:53:52.000Z</time>
        <extensions>
          <ns3:TrackPointExtension>
            <ns3:hr>147</ns3:hr>
            <ns3:cad>61</ns3:cad>
          </ns3:TrackPointExtension>
        </extensions>
      </trkpt>
      <trkpt lat="55.79568316228687763214111328125" lon="24.86779083497822284698486328125">
        <ele>88</ele>
        <time>2026-07-26T09:53:53.000Z</time>
        <extensions>
          <ns3:TrackPointExtension>
            <ns3:hr>147</ns3:hr>
            <ns3:cad>61</ns3:cad>
          </ns3:TrackPointExtension>
        </extensions>
      </trkpt>
      <trkpt lat="55.7957305200397968292236328125" lon="24.8678408749401569366455078125">
        <ele>88</ele>
        <time>2026-07-26T09:53:57.000Z</time>
        <extensions>
          <ns3:TrackPointExtension>
            <ns3:hr>144</ns3:hr>
            <ns3:cad>59</ns3:cad>
          </ns3:TrackPointExtension>
        </extensions>
      </trkpt>
      <trkpt lat="55.79577653668820858001708984375" lon="24.8678961955010890960693359375">
        <ele>87.59999847412109375</ele>
        <time>2026-07-26T09:54:01.000Z</time>
        <extensions>
          <ns3:TrackPointExtension>
            <ns3:hr>143</ns3:hr>
            <ns3:cad>59</ns3:cad>
          </ns3:TrackPointExtension>
        </extensions>
      </trkpt>
      <trkpt lat="55.7958604395389556884765625" lon="24.8679776675999164581298828125">
        <ele>88</ele>
        <time>2026-07-26T09:54:07.000Z</time>
        <extensions>
          <ns3:TrackPointExtension>
            <ns3:hr>145</ns3:hr>
            <ns3:cad>60</ns3:cad>
          </ns3:TrackPointExtension>
        </extensions>
      </trkpt>
      <trkpt lat="55.7959730923175811767578125" lon="24.86810415051877498626708984375">
        <ele>88</ele>
        <time>2026-07-26T09:54:16.000Z</time>
        <extensions>
          <ns3:TrackPointExtension>
            <ns3:hr>144</ns3:hr>
            <ns3:cad>60</ns3:cad>
          </ns3:TrackPointExtension>
        </extensions>
      </trkpt>
      <trkpt lat="55.7960688136518001556396484375" lon="24.86819031648337841033935546875">
        <ele>88</ele>
        <time>2026-07-26T09:54:24.000Z</time>
        <extensions>
          <ns3:TrackPointExtension>
            <ns3:hr>143</ns3:hr>
            <ns3:cad>60</ns3:cad>
          </ns3:TrackPointExtension>
        </extensions>
      </trkpt>
      <trkpt lat="55.7961388863623142242431640625" lon="24.86828721128404140472412109375">
        <ele>88.59999847412109375</ele>
        <time>2026-07-26T09:54:30.000Z</time>
        <extensions>
          <ns3:TrackPointExtension>
            <ns3:hr>140</ns3:hr>
            <ns3:cad>61</ns3:cad>
          </ns3:TrackPointExtension>
        </extensions>
      </trkpt>
      <trkpt lat="55.7961730845272541046142578125" lon="24.86833356320858001708984375">
        <ele>88.59999847412109375</ele>
        <time>2026-07-26T09:54:33.000Z</time>
        <extensions>
          <ns3:TrackPointExtension>
            <ns3:hr>141</ns3:hr>
            <ns3:cad>61</ns3:cad>
          </ns3:TrackPointExtension>
        </extensions>
      </trkpt>
      <trkpt lat="55.796218849718570709228515625" lon="24.8683877103030681610107421875">
        <ele>88.40000152587890625</ele>
        <time>2026-07-26T09:54:37.000Z</time>
        <extensions>
          <ns3:TrackPointExtension>
            <ns3:hr>138</ns3:hr>
            <ns3:cad>61</ns3:cad>
          </ns3:TrackPointExtension>
        </extensions>
      </trkpt>
      <trkpt lat="55.7962629385292530059814453125" lon="24.8684326373040676116943359375">
        <ele>88.40000152587890625</ele>
        <time>2026-07-26T09:54:41.000Z</time>
        <extensions>
          <ns3:TrackPointExtension>
            <ns3:hr>137</ns3:hr>
            <ns3:cad>60</ns3:cad>
          </ns3:TrackPointExtension>
        </extensions>
      </trkpt>
      <trkpt lat="55.79635874368250370025634765625" lon="24.86855291761457920074462890625">
        <ele>88.1999969482421875</ele>
        <time>2026-07-26T09:54:49.000Z</time>
        <extensions>
          <ns3:TrackPointExtension>
            <ns3:hr>139</ns3:hr>
            <ns3:cad>59</ns3:cad>
          </ns3:TrackPointExtension>
        </extensions>
      </trkpt>
      <trkpt lat="55.796452201902866363525390625" lon="24.8686626367270946502685546875">
        <ele>88.1999969482421875</ele>
        <time>2026-07-26T09:54:57.000Z</time>
        <extensions>
          <ns3:TrackPointExtension>
            <ns3:hr>138</ns3:hr>
            <ns3:cad>59</ns3:cad>
          </ns3:TrackPointExtension>
        </extensions>
      </trkpt>
      <trkpt lat="55.79655420966446399688720703125" lon="24.86879582516849040985107421875">
        <ele>88</ele>
        <time>2026-07-26T09:55:06.000Z</time>
        <extensions>
          <ns3:TrackPointExtension>
            <ns3:hr>134</ns3:hr>
            <ns3:cad>61</ns3:cad>
          </ns3:TrackPointExtension>
        </extensions>
      </trkpt>
      <trkpt lat="55.7965780980885028839111328125" lon="24.86882415600121021270751953125">
        <ele>88.1999969482421875</ele>
        <time>2026-07-26T09:55:08.000Z</time>
        <extensions>
          <ns3:TrackPointExtension>
            <ns3:hr>132</ns3:hr>
            <ns3:cad>61</ns3:cad>
          </ns3:TrackPointExtension>
        </extensions>
      </trkpt>
      <trkpt lat="55.796693600714206695556640625" lon="24.86895776353776454925537109375">
        <ele>88</ele>
        <time>2026-07-26T09:55:17.000Z</time>
        <extensions>
          <ns3:TrackPointExtension>
            <ns3:hr>134</ns3:hr>
            <ns3:cad>61</ns3:cad>
          </ns3:TrackPointExtension>
        </extensions>
      </trkpt>
      <trkpt lat="55.79677976667881011962890625" lon="24.86903135664761066436767578125">
        <ele>88.1999969482421875</ele>
        <time>2026-07-26T09:55:24.000Z</time>
        <extensions>
          <ns3:TrackPointExtension>
            <ns3:hr>131</ns3:hr>
            <ns3:cad>61</ns3:cad>
          </ns3:TrackPointExtension>
        </extensions>
      </trkpt>
      <trkpt lat="55.79688713885843753814697265625" lon="24.8691523075103759765625">
        <ele>88.40000152587890625</ele>
        <time>2026-07-26T09:55:32.000Z</time>
        <extensions>
          <ns3:TrackPointExtension>
            <ns3:hr>131</ns3:hr>
            <ns3:cad>59</ns3:cad>
          </ns3:TrackPointExtension>
        </extensions>
      </trkpt>
      <trkpt lat="55.79700909554958343505859375" lon="24.86932019703090190887451171875">
        <ele>88.59999847412109375</ele>
        <time>2026-07-26T09:55:42.000Z</time>
        <extensions>
          <ns3:TrackPointExtension>
            <ns3:hr>131</ns3:hr>
            <ns3:cad>61</ns3:cad>
          </ns3:TrackPointExtension>
        </extensions>
      </trkpt>
      <trkpt lat="55.79714211635291576385498046875" lon="24.86945011653006076812744140625">
        <ele>88.8000030517578125</ele>
        <time>2026-07-26T09:55:53.000Z</time>
        <extensions>
          <ns3:TrackPointExtension>
            <ns3:hr>131</ns3:hr>
            <ns3:cad>61</ns3:cad>
          </ns3:TrackPointExtension>
        </extensions>
      </trkpt>
      <trkpt lat="55.79725091345608234405517578125" lon="24.8695595003664493560791015625">
        <ele>88.1999969482421875</ele>
        <time>2026-07-26T09:56:01.000Z</time>
        <extensions>
          <ns3:TrackPointExtension>
            <ns3:hr>131</ns3:hr>
            <ns3:cad>60</ns3:cad>
          </ns3:TrackPointExtension>
        </extensions>
      </trkpt>
      <trkpt lat="55.797338671982288360595703125" lon="24.869659245014190673828125">
        <ele>89</ele>
        <time>2026-07-26T09:56:08.000Z</time>
        <extensions>
          <ns3:TrackPointExtension>
            <ns3:hr>131</ns3:hr>
            <ns3:cad>60</ns3:cad>
          </ns3:TrackPointExtension>
        </extensions>
      </trkpt>
      <trkpt lat="55.797457359731197357177734375" lon="24.86979729495942592620849609375">
        <ele>88.59999847412109375</ele>
        <time>2026-07-26T09:56:17.000Z</time>
        <extensions>
          <ns3:TrackPointExtension>
            <ns3:hr>130</ns3:hr>
            <ns3:cad>60</ns3:cad>
          </ns3:TrackPointExtension>
        </extensions>
      </trkpt>
      <trkpt lat="55.7976241596043109893798828125" lon="24.8699480853974819183349609375">
        <ele>88.1999969482421875</ele>
        <time>2026-07-26T09:56:30.000Z</time>
        <extensions>
          <ns3:TrackPointExtension>
            <ns3:hr>128</ns3:hr>
            <ns3:cad>59</ns3:cad>
          </ns3:TrackPointExtension>
        </extensions>
      </trkpt>
      <trkpt lat="55.79763664864003658294677734375" lon="24.8699591495096683502197265625">
        <ele>88.1999969482421875</ele>
        <time>2026-07-26T09:56:31.000Z</time>
        <extensions>
          <ns3:TrackPointExtension>
            <ns3:hr>127</ns3:hr>
            <ns3:cad>59</ns3:cad>
          </ns3:TrackPointExtension>
        </extensions>
      </trkpt>
      <trkpt lat="55.7977998442947864532470703125" lon="24.8701224289834499359130859375">
        <ele>88.59999847412109375</ele>
        <time>2026-07-26T09:56:43.000Z</time>
        <extensions>
          <ns3:TrackPointExtension>
            <ns3:hr>129</ns3:hr>
            <ns3:cad>59</ns3:cad>
          </ns3:TrackPointExtension>
        </extensions>
      </trkpt>
      <trkpt lat="55.797822475433349609375" lon="24.87015302293002605438232421875">
        <ele>88.8000030517578125</ele>
        <time>2026-07-26T09:56:45.000Z</time>
        <extensions>
          <ns3:TrackPointExtension>
            <ns3:hr>129</ns3:hr>
            <ns3:cad>61</ns3:cad>
          </ns3:TrackPointExtension>
        </extensions>
      </trkpt>
      <trkpt lat="55.79784133471548557281494140625" lon="24.870185963809490203857421875">
        <ele>89</ele>
        <time>2026-07-26T09:56:47.000Z</time>
        <extensions>
          <ns3:TrackPointExtension>
            <ns3:hr>128</ns3:hr>
            <ns3:cad>62</ns3:cad>
          </ns3:TrackPointExtension>
        </extensions>
      </trkpt>
      <trkpt lat="55.797901935875415802001953125" lon="24.8702505044639110565185546875">
        <ele>88</ele>
        <time>2026-07-26T09:56:52.000Z</time>
        <extensions>
          <ns3:TrackPointExtension>
            <ns3:hr>128</ns3:hr>
            <ns3:cad>62</ns3:cad>
          </ns3:TrackPointExtension>
        </extensions>
      </trkpt>
      <trkpt lat="55.7979473657906055450439453125" lon="24.870307333767414093017578125">
        <ele>87.8000030517578125</ele>
        <time>2026-07-26T09:56:56.000Z</time>
        <extensions>
          <ns3:TrackPointExtension>
            <ns3:hr>129</ns3:hr>
            <ns3:cad>58</ns3:cad>
          </ns3:TrackPointExtension>
        </extensions>
      </trkpt>
      <trkpt lat="55.79808793030679225921630859375" lon="24.870518557727336883544921875">
        <ele>87</ele>
        <time>2026-07-26T09:57:08.000Z</time>
        <extensions>
          <ns3:TrackPointExtension>
            <ns3:hr>129</ns3:hr>
            <ns3:cad>60</ns3:cad>
          </ns3:TrackPointExtension>
        </extensions>
      </trkpt>
      <trkpt lat="55.79809765331447124481201171875" lon="24.87053574062883853912353515625">
        <ele>87</ele>
        <time>2026-07-26T09:57:09.000Z</time>
        <extensions>
          <ns3:TrackPointExtension>
            <ns3:hr>129</ns3:hr>
            <ns3:cad>61</ns3:cad>
          </ns3:TrackPointExtension>
        </extensions>
      </trkpt>
      <trkpt lat="55.79821717925369739532470703125" lon="24.87075953744351863861083984375">
        <ele>87</ele>
        <time>2026-07-26T09:57:21.000Z</time>
        <extensions>
          <ns3:TrackPointExtension>
            <ns3:hr>129</ns3:hr>
            <ns3:cad>60</ns3:cad>
          </ns3:TrackPointExtension>
        </extensions>
      </trkpt>
      <trkpt lat="55.7983200252056121826171875" lon="24.870989620685577392578125">
        <ele>87.40000152587890625</ele>
        <time>2026-07-26T09:57:32.000Z</time>
        <extensions>
          <ns3:TrackPointExtension>
            <ns3:hr>128</ns3:hr>
            <ns3:cad>60</ns3:cad>
          </ns3:TrackPointExtension>
        </extensions>
      </trkpt>
      <trkpt lat="55.79840946011245250701904296875" lon="24.87116840668022632598876953125">
        <ele>87</ele>
        <time>2026-07-26T09:57:41.000Z</time>
        <extensions>
          <ns3:TrackPointExtension>
            <ns3:hr>128</ns3:hr>
            <ns3:cad>61</ns3:cad>
          </ns3:TrackPointExtension>
        </extensions>
      </trkpt>
      <trkpt lat="55.798495374619960784912109375" lon="24.87135029397904872894287109375">
        <ele>87.1999969482421875</ele>
        <time>2026-07-26T09:57:50.000Z</time>
        <extensions>
          <ns3:TrackPointExtension>
            <ns3:hr>127</ns3:hr>
            <ns3:cad>61</ns3:cad>
          </ns3:TrackPointExtension>
        </extensions>
      </trkpt>
      <trkpt lat="55.79855731688439846038818359375" lon="24.87149261869490146636962890625">
        <ele>86.8000030517578125</ele>
        <time>2026-07-26T09:57:57.000Z</time>
        <extensions>
          <ns3:TrackPointExtension>
            <ns3:hr>127</ns3:hr>
            <ns3:cad>61</ns3:cad>
          </ns3:TrackPointExtension>
        </extensions>
      </trkpt>
      <trkpt lat="55.79857910983264446258544921875" lon="24.87153469584882259368896484375">
        <ele>86.8000030517578125</ele>
        <time>2026-07-26T09:57:59.000Z</time>
        <extensions>
          <ns3:TrackPointExtension>
            <ns3:hr>127</ns3:hr>
            <ns3:cad>61</ns3:cad>
          </ns3:TrackPointExtension>
        </extensions>
      </trkpt>
      <trkpt lat="55.798697210848331451416015625" lon="24.8717729933559894561767578125">
        <ele>86.8000030517578125</ele>
        <time>2026-07-26T09:58:11.000Z</time>
        <extensions>
          <ns3:TrackPointExtension>
            <ns3:hr>125</ns3:hr>
            <ns3:cad>60</ns3:cad>
          </ns3:TrackPointExtension>
        </extensions>
      </trkpt>
      <trkpt lat="55.798705928027629852294921875" lon="24.8717887513339519500732421875">
        <ele>86.8000030517578125</ele>
        <time>2026-07-26T09:58:12.000Z</time>
        <extensions>
          <ns3:TrackPointExtension>
            <ns3:hr>125</ns3:hr>
            <ns3:cad>60</ns3:cad>
          </ns3:TrackPointExtension>
        </extensions>
      </trkpt>
      <trkpt lat="55.79881212674081325531005859375" lon="24.8719925992190837860107421875">
        <ele>86.8000030517578125</ele>
        <time>2026-07-26T09:58:23.000Z</time>
        <extensions>
          <ns3:TrackPointExtension>
            <ns3:hr>125</ns3:hr>
            <ns3:cad>60</ns3:cad>
          </ns3:TrackPointExtension>
        </extensions>
      </trkpt>
      <trkpt lat="55.79890801571309566497802734375" lon="24.872199632227420806884765625">
        <ele>87.59999847412109375</ele>
        <time>2026-07-26T09:58:33.000Z</time>
        <extensions>
          <ns3:TrackPointExtension>
            <ns3:hr>126</ns3:hr>
            <ns3:cad>60</ns3:cad>
          </ns3:TrackPointExtension>
        </extensions>
      </trkpt>
      <trkpt lat="55.799019075930118560791015625" lon="24.8724479041993618011474609375">
        <ele>87.59999847412109375</ele>
        <time>2026-07-26T09:58:45.000Z</time>
        <extensions>
          <ns3:TrackPointExtension>
            <ns3:hr>127</ns3:hr>
            <ns3:cad>61</ns3:cad>
          </ns3:TrackPointExtension>
        </extensions>
      </trkpt>
      <trkpt lat="55.7991382665932178497314453125" lon="24.872692488133907318115234375">
        <ele>87.8000030517578125</ele>
        <time>2026-07-26T09:58:57.000Z</time>
        <extensions>
          <ns3:TrackPointExtension>
            <ns3:hr>127</ns3:hr>
            <ns3:cad>60</ns3:cad>
          </ns3:TrackPointExtension>
        </extensions>
      </trkpt>
      <trkpt lat="55.79914773814380168914794921875" lon="24.8727134428918361663818359375">
        <ele>87.8000030517578125</ele>
        <time>2026-07-26T09:58:58.000Z</time>
        <extensions>
          <ns3:TrackPointExtension>
            <ns3:hr>128</ns3:hr>
            <ns3:cad>60</ns3:cad>
          </ns3:TrackPointExtension>
        </extensions>
      </trkpt>
      <trkpt lat="55.79915628768503665924072265625" lon="24.87273464910686016082763671875">
        <ele>88</ele>
        <time>2026-07-26T09:58:59.000Z</time>
        <extensions>
          <ns3:TrackPointExtension>
            <ns3:hr>128</ns3:hr>
            <ns3:cad>60</ns3:cad>
          </ns3:TrackPointExtension>
        </extensions>
      </trkpt>
      <trkpt lat="55.79926625825464725494384765625" lon="24.87293195910751819610595703125">
        <ele>88.40000152587890625</ele>
        <time>2026-07-26T09:59:10.000Z</time>
        <extensions>
          <ns3:TrackPointExtension>
            <ns3:hr>129</ns3:hr>
            <ns3:cad>60</ns3:cad>
          </ns3:TrackPointExtension>
        </extensions>
      </trkpt>
      <trkpt lat="55.79935845918953418731689453125" lon="24.873118959367275238037109375">
        <ele>88.59999847412109375</ele>
        <time>2026-07-26T09:59:19.000Z</time>
        <extensions>
          <ns3:TrackPointExtension>
            <ns3:hr>130</ns3:hr>
            <ns3:cad>61</ns3:cad>
          </ns3:TrackPointExtension>
        </extensions>
      </trkpt>
      <trkpt lat="55.79944294877350330352783203125" lon="24.873283915221691131591796875">
        <ele>88.8000030517578125</ele>
        <time>2026-07-26T09:59:28.000Z</time>
        <extensions>
          <ns3:TrackPointExtension>
            <ns3:hr>128</ns3:hr>
            <ns3:cad>60</ns3:cad>
          </ns3:TrackPointExtension>
        </extensions>
      </trkpt>
      <trkpt lat="55.79952224157750606536865234375" lon="24.873440824449062347412109375">
        <ele>89</ele>
        <time>2026-07-26T09:59:36.000Z</time>
        <extensions>
          <ns3:TrackPointExtension>
            <ns3:hr>127</ns3:hr>
            <ns3:cad>61</ns3:cad>
          </ns3:TrackPointExtension>
        </extensions>
      </trkpt>
      <trkpt lat="55.79955928958952426910400390625" lon="24.8735310137271881103515625">
        <ele>89.59999847412109375</ele>
        <time>2026-07-26T09:59:40.000Z</time>
        <extensions>
          <ns3:TrackPointExtension>
            <ns3:hr>126</ns3:hr>
            <ns3:cad>61</ns3:cad>
          </ns3:TrackPointExtension>
        </extensions>
      </trkpt>
      <trkpt lat="55.7996371574699878692626953125" lon="24.8736807145178318023681640625">
        <ele>89.8000030517578125</ele>
        <time>2026-07-26T09:59:48.000Z</time>
        <extensions>
          <ns3:TrackPointExtension>
            <ns3:hr>127</ns3:hr>
            <ns3:cad>61</ns3:cad>
          </ns3:TrackPointExtension>
        </extensions>
      </trkpt>
      <trkpt lat="55.79972558654844760894775390625" lon="24.8738553933799266815185546875">
        <ele>89.40000152587890625</ele>
        <time>2026-07-26T09:59:57.000Z</time>
        <extensions>
          <ns3:TrackPointExtension>
            <ns3:hr>126</ns3:hr>
            <ns3:cad>62</ns3:cad>
          </ns3:TrackPointExtension>
        </extensions>
      </trkpt>
      <trkpt lat="55.79983538947999477386474609375" lon="24.8740458302199840545654296875">
        <ele>89.8000030517578125</ele>
        <time>2026-07-26T10:00:08.000Z</time>
        <extensions>
          <ns3:TrackPointExtension>
            <ns3:hr>126</ns3:hr>
            <ns3:cad>60</ns3:cad>
          </ns3:TrackPointExtension>
        </extensions>
      </trkpt>
      <trkpt lat="55.79990110360085964202880859375" lon="24.8742069303989410400390625">
        <ele>89.1999969482421875</ele>
        <time>2026-07-26T10:00:16.000Z</time>
        <extensions>
          <ns3:TrackPointExtension>
            <ns3:hr>126</ns3:hr>
            <ns3:cad>57</ns3:cad>
          </ns3:TrackPointExtension>
        </extensions>
      </trkpt>
      <trkpt lat="55.7999757863581180572509765625" lon="24.8743529431521892547607421875">
        <ele>89.59999847412109375</ele>
        <time>2026-07-26T10:00:24.000Z</time>
        <extensions>
          <ns3:TrackPointExtension>
            <ns3:hr>125</ns3:hr>
            <ns3:cad>61</ns3:cad>
          </ns3:TrackPointExtension>
        </extensions>
      </trkpt>
      <trkpt lat="55.80009288154542446136474609375" lon="24.874566681683063507080078125">
        <ele>89.1999969482421875</ele>
        <time>2026-07-26T10:00:35.000Z</time>
        <extensions>
          <ns3:TrackPointExtension>
            <ns3:hr>124</ns3:hr>
            <ns3:cad>62</ns3:cad>
          </ns3:TrackPointExtension>
        </extensions>
      </trkpt>
      <trkpt lat="55.8001948893070220947265625" lon="24.87475636415183544158935546875">
        <ele>89.40000152587890625</ele>
        <time>2026-07-26T10:00:45.000Z</time>
        <extensions>
          <ns3:TrackPointExtension>
            <ns3:hr>125</ns3:hr>
            <ns3:cad>61</ns3:cad>
          </ns3:TrackPointExtension>
        </extensions>
      </trkpt>
      <trkpt lat="55.8002753555774688720703125" lon="24.87492148764431476593017578125">
        <ele>89.40000152587890625</ele>
        <time>2026-07-26T10:00:53.000Z</time>
        <extensions>
          <ns3:TrackPointExtension>
            <ns3:hr>124</ns3:hr>
            <ns3:cad>61</ns3:cad>
          </ns3:TrackPointExtension>
        </extensions>
      </trkpt>
      <trkpt lat="55.80036311410367488861083984375" lon="24.875111170113086700439453125">
        <ele>89.8000030517578125</ele>
        <time>2026-07-26T10:01:03.000Z</time>
        <extensions>
          <ns3:TrackPointExtension>
            <ns3:hr>124</ns3:hr>
            <ns3:cad>60</ns3:cad>
          </ns3:TrackPointExtension>
        </extensions>
      </trkpt>
      <trkpt lat="55.8004713244736194610595703125" lon="24.87533387728035449981689453125">
        <ele>89.40000152587890625</ele>
        <time>2026-07-26T10:01:14.000Z</time>
        <extensions>
          <ns3:TrackPointExtension>
            <ns3:hr>123</ns3:hr>
            <ns3:cad>59</ns3:cad>
          </ns3:TrackPointExtension>
        </extensions>
      </trkpt>
      <trkpt lat="55.80055841244757175445556640625" lon="24.875505454838275909423828125">
        <ele>89.1999969482421875</ele>
        <time>2026-07-26T10:01:23.000Z</time>
        <extensions>
          <ns3:TrackPointExtension>
            <ns3:hr>126</ns3:hr>
            <ns3:cad>61</ns3:cad>
          </ns3:TrackPointExtension>
        </extensions>
      </trkpt>
      <trkpt lat="55.80060149542987346649169921875" lon="24.8756078816950321197509765625">
        <ele>89.40000152587890625</ele>
        <time>2026-07-26T10:01:28.000Z</time>
        <extensions>
          <ns3:TrackPointExtension>
            <ns3:hr>125</ns3:hr>
            <ns3:cad>62</ns3:cad>
          </ns3:TrackPointExtension>
        </extensions>
      </trkpt>
      <trkpt lat="55.800686068832874298095703125" lon="24.875776357948780059814453125">
        <ele>89.40000152587890625</ele>
        <time>2026-07-26T10:01:37.000Z</time>
        <extensions>
          <ns3:TrackPointExtension>
            <ns3:hr>125</ns3:hr>
            <ns3:cad>60</ns3:cad>
          </ns3:TrackPointExtension>
        </extensions>
      </trkpt>
      <trkpt lat="55.8008206821978092193603515625" lon="24.87606075592339038848876953125">
        <ele>89</ele>
        <time>2026-07-26T10:01:51.000Z</time>
        <extensions>
          <ns3:TrackPointExtension>
            <ns3:hr>122</ns3:hr>
            <ns3:cad>62</ns3:cad>
          </ns3:TrackPointExtension>
        </extensions>
      </trkpt>
      <trkpt lat="55.8008847199380397796630859375" lon="24.876214228570461273193359375">
        <ele>88.8000030517578125</ele>
        <time>2026-07-26T10:01:58.000Z</time>
        <extensions>
          <ns3:TrackPointExtension>
            <ns3:hr>122</ns3:hr>
            <ns3:cad>62</ns3:cad>
          </ns3:TrackPointExtension>
        </extensions>
      </trkpt>
      <trkpt lat="55.800974071025848388671875" lon="24.87638019025325775146484375">
        <ele>89</ele>
        <time>2026-07-26T10:02:07.000Z</time>
        <extensions>
          <ns3:TrackPointExtension>
            <ns3:hr>123</ns3:hr>
            <ns3:cad>59</ns3:cad>
          </ns3:TrackPointExtension>
        </extensions>
      </trkpt>
      <trkpt lat="55.8010639250278472900390625" lon="24.87655025906860828399658203125">
        <ele>88.8000030517578125</ele>
        <time>2026-07-26T10:02:17.000Z</time>
        <extensions>
          <ns3:TrackPointExtension>
            <ns3:hr>127</ns3:hr>
            <ns3:cad>60</ns3:cad>
          </ns3:TrackPointExtension>
        </extensions>
      </trkpt>
      <trkpt lat="55.8011666871607303619384765625" lon="24.8767635785043239593505859375">
        <ele>89</ele>
        <time>2026-07-26T10:02:27.000Z</time>
        <extensions>
          <ns3:TrackPointExtension>
            <ns3:hr>128</ns3:hr>
            <ns3:cad>60</ns3:cad>
          </ns3:TrackPointExtension>
        </extensions>
      </trkpt>
      <trkpt lat="55.801262073218822479248046875" lon="24.8769669234752655029296875">
        <ele>89</ele>
        <time>2026-07-26T10:02:37.000Z</time>
        <extensions>
          <ns3:TrackPointExtension>
            <ns3:hr>128</ns3:hr>
            <ns3:cad>60</ns3:cad>
          </ns3:TrackPointExtension>
        </extensions>
      </trkpt>
      <trkpt lat="55.80133122391998767852783203125" lon="24.877083934843540191650390625">
        <ele>89</ele>
        <time>2026-07-26T10:02:44.000Z</time>
        <extensions>
          <ns3:TrackPointExtension>
            <ns3:hr>128</ns3:hr>
            <ns3:cad>57</ns3:cad>
          </ns3:TrackPointExtension>
        </extensions>
      </trkpt>
      <trkpt lat="55.801446475088596343994140625" lon="24.877313934266567230224609375">
        <ele>89</ele>
        <time>2026-07-26T10:02:56.000Z</time>
        <extensions>
          <ns3:TrackPointExtension>
            <ns3:hr>128</ns3:hr>
            <ns3:cad>60</ns3:cad>
          </ns3:TrackPointExtension>
        </extensions>
      </trkpt>
      <trkpt lat="55.80152518115937709808349609375" lon="24.87747679464519023895263671875">
        <ele>89</ele>
        <time>2026-07-26T10:03:04.000Z</time>
        <extensions>
          <ns3:TrackPointExtension>
            <ns3:hr>127</ns3:hr>
            <ns3:cad>60</ns3:cad>
          </ns3:TrackPointExtension>
        </extensions>
      </trkpt>
      <trkpt lat="55.801609419286251068115234375" lon="24.87768013961613178253173828125">
        <ele>89.59999847412109375</ele>
        <time>2026-07-26T10:03:14.000Z</time>
        <extensions>
          <ns3:TrackPointExtension>
            <ns3:hr>126</ns3:hr>
            <ns3:cad>59</ns3:cad>
          </ns3:TrackPointExtension>
        </extensions>
      </trkpt>
      <trkpt lat="55.80170162022113800048828125" lon="24.877878539264202117919921875">
        <ele>90</ele>
        <time>2026-07-26T10:03:24.000Z</time>
        <extensions>
          <ns3:TrackPointExtension>
            <ns3:hr>127</ns3:hr>
            <ns3:cad>59</ns3:cad>
          </ns3:TrackPointExtension>
        </extensions>
      </trkpt>
      <trkpt lat="55.8017869479954242706298828125" lon="24.8780612647533416748046875">
        <ele>89.8000030517578125</ele>
        <time>2026-07-26T10:03:33.000Z</time>
        <extensions>
          <ns3:TrackPointExtension>
            <ns3:hr>127</ns3:hr>
            <ns3:cad>59</ns3:cad>
          </ns3:TrackPointExtension>
        </extensions>
      </trkpt>
      <trkpt lat="55.8018858544528484344482421875" lon="24.8782864026725292205810546875">
        <ele>90.40000152587890625</ele>
        <time>2026-07-26T10:03:44.000Z</time>
        <extensions>
          <ns3:TrackPointExtension>
            <ns3:hr>127</ns3:hr>
            <ns3:cad>60</ns3:cad>
          </ns3:TrackPointExtension>
        </extensions>
      </trkpt>
      <trkpt lat="55.8019763790071010589599609375" lon="24.87844523973762989044189453125">
        <ele>90.40000152587890625</ele>
        <time>2026-07-26T10:03:53.000Z</time>
        <extensions>
          <ns3:TrackPointExtension>
            <ns3:hr>127</ns3:hr>
            <ns3:cad>60</ns3:cad>
          </ns3:TrackPointExtension>
        </extensions>
      </trkpt>
      <trkpt lat="55.80206983722746372222900390625" lon="24.87865143455564975738525390625">
        <ele>90.1999969482421875</ele>
        <time>2026-07-26T10:04:03.000Z</time>
        <extensions>
          <ns3:TrackPointExtension>
            <ns3:hr>126</ns3:hr>
            <ns3:cad>58</ns3:cad>
          </ns3:TrackPointExtension>
        </extensions>
      </trkpt>
      <trkpt lat="55.802155248820781707763671875" lon="24.878809265792369842529296875">
        <ele>90.1999969482421875</ele>
        <time>2026-07-26T10:04:12.000Z</time>
        <extensions>
          <ns3:TrackPointExtension>
            <ns3:hr>126</ns3:hr>
            <ns3:cad>59</ns3:cad>
          </ns3:TrackPointExtension>
        </extensions>
      </trkpt>
      <trkpt lat="55.802226997911930084228515625" lon="24.878945387899875640869140625">
        <ele>90.40000152587890625</ele>
        <time>2026-07-26T10:04:20.000Z</time>
        <extensions>
          <ns3:TrackPointExtension>
            <ns3:hr>126</ns3:hr>
            <ns3:cad>59</ns3:cad>
          </ns3:TrackPointExtension>
        </extensions>
      </trkpt>
      <trkpt lat="55.8023005910217761993408203125" lon="24.87908494658768177032470703125">
        <ele>90.40000152587890625</ele>
        <time>2026-07-26T10:04:27.000Z</time>
        <extensions>
          <ns3:TrackPointExtension>
            <ns3:hr>126</ns3:hr>
            <ns3:cad>58</ns3:cad>
          </ns3:TrackPointExtension>
        </extensions>
      </trkpt>
      <trkpt lat="55.80239220522344112396240234375" lon="24.87927555106580257415771484375">
        <ele>90.8000030517578125</ele>
        <time>2026-07-26T10:04:37.000Z</time>
        <extensions>
          <ns3:TrackPointExtension>
            <ns3:hr>125</ns3:hr>
            <ns3:cad>59</ns3:cad>
          </ns3:TrackPointExtension>
        </extensions>
      </trkpt>
      <trkpt lat="55.80249362625181674957275390625" lon="24.87945894710719585418701171875">
        <ele>90.40000152587890625</ele>
        <time>2026-07-26T10:04:47.000Z</time>
        <extensions>
          <ns3:TrackPointExtension>
            <ns3:hr>126</ns3:hr>
            <ns3:cad>59</ns3:cad>
          </ns3:TrackPointExtension>
        </extensions>
      </trkpt>
      <trkpt lat="55.80258884467184543609619140625" lon="24.87965860404074192047119140625">
        <ele>91</ele>
        <time>2026-07-26T10:04:57.000Z</time>
        <extensions>
          <ns3:TrackPointExtension>
            <ns3:hr>125</ns3:hr>
            <ns3:cad>61</ns3:cad>
          </ns3:TrackPointExtension>
        </extensions>
      </trkpt>
      <trkpt lat="55.80268758349120616912841796875" lon="24.87984853796660900115966796875">
        <ele>90.8000030517578125</ele>
        <time>2026-07-26T10:05:07.000Z</time>
        <extensions>
          <ns3:TrackPointExtension>
            <ns3:hr>126</ns3:hr>
            <ns3:cad>61</ns3:cad>
          </ns3:TrackPointExtension>
        </extensions>
      </trkpt>
      <trkpt lat="55.802735276520252227783203125" lon="24.87992363981902599334716796875">
        <ele>91.1999969482421875</ele>
        <time>2026-07-26T10:05:12.000Z</time>
        <extensions>
          <ns3:TrackPointExtension>
            <ns3:hr>126</ns3:hr>
            <ns3:cad>61</ns3:cad>
          </ns3:TrackPointExtension>
        </extensions>
      </trkpt>
      <trkpt lat="55.802784226834774017333984375" lon="24.87999723292887210845947265625">
        <ele>91.59999847412109375</ele>
        <time>2026-07-26T10:05:16.000Z</time>
        <extensions>
          <ns3:TrackPointExtension>
            <ns3:hr>126</ns3:hr>
            <ns3:cad>61</ns3:cad>
          </ns3:TrackPointExtension>
        </extensions>
      </trkpt>
      <trkpt lat="55.80292470753192901611328125" lon="24.880185909569263458251953125">
        <ele>91.40000152587890625</ele>
        <time>2026-07-26T10:05:28.000Z</time>
        <extensions>
          <ns3:TrackPointExtension>
            <ns3:hr>127</ns3:hr>
            <ns3:cad>60</ns3:cad>
          </ns3:TrackPointExtension>
        </extensions>
      </trkpt>
      <trkpt lat="55.803039036691188812255859375" lon="24.8803309164941310882568359375">
        <ele>91</ele>
        <time>2026-07-26T10:05:38.000Z</time>
        <extensions>
          <ns3:TrackPointExtension>
            <ns3:hr>126</ns3:hr>
            <ns3:cad>57</ns3:cad>
          </ns3:TrackPointExtension>
        </extensions>
      </trkpt>
      <trkpt lat="55.80305747687816619873046875" lon="24.88051439635455608367919921875">
        <ele>91.8000030517578125</ele>
        <time>2026-07-26T10:05:46.000Z</time>
        <extensions>
          <ns3:TrackPointExtension>
            <ns3:hr>125</ns3:hr>
            <ns3:cad>59</ns3:cad>
          </ns3:TrackPointExtension>
        </extensions>
      </trkpt>
      <trkpt lat="55.8030539564788341522216796875" lon="24.8806048370897769927978515625">
        <ele>91</ele>
        <time>2026-07-26T10:05:53.000Z</time>
        <extensions>
          <ns3:TrackPointExtension>
            <ns3:hr>124</ns3:hr>
            <ns3:cad>0</ns3:cad>
          </ns3:TrackPointExtension>
        </extensions>
      </trkpt>
      <trkpt lat="55.8030133880674839019775390625" lon="24.8806340061128139495849609375">
        <ele>90.8000030517578125</ele>
        <time>2026-07-26T10:05:57.000Z</time>
        <extensions>
          <ns3:TrackPointExtension>
            <ns3:hr>123</ns3:hr>
            <ns3:cad>60</ns3:cad>
          </ns3:TrackPointExtension>
        </extensions>
      </trkpt>
      <trkpt lat="55.80297030508518218994140625" lon="24.88067708909511566162109375">
        <ele>91</ele>
        <time>2026-07-26T10:06:00.000Z</time>
        <extensions>
          <ns3:TrackPointExtension>
            <ns3:hr>123</ns3:hr>
            <ns3:cad>0</ns3:cad>
          </ns3:TrackPointExtension>
        </extensions>
      </trkpt>
      <trkpt lat="55.80291540361940860748291015625" lon="24.8807496763765811920166015625">
        <ele>91.1999969482421875</ele>
        <time>2026-07-26T10:06:04.000Z</time>
        <extensions>
          <ns3:TrackPointExtension>
            <ns3:hr>126</ns3:hr>
            <ns3:cad>62</ns3:cad>
          </ns3:TrackPointExtension>
        </extensions>
      </trkpt>
      <trkpt lat="55.80291666090488433837890625" lon="24.88076032139360904693603515625">
        <ele>91</ele>
        <time>2026-07-26T10:06:07.000Z</time>
        <extensions>
          <ns3:TrackPointExtension>
            <ns3:hr>125</ns3:hr>
            <ns3:cad>59</ns3:cad>
          </ns3:TrackPointExtension>
        </extensions>
      </trkpt>
      <trkpt lat="55.8029755018651485443115234375" lon="24.8806571401655673980712890625">
        <ele>90.8000030517578125</ele>
        <time>2026-07-26T10:06:14.000Z</time>
        <extensions>
          <ns3:TrackPointExtension>
            <ns3:hr>125</ns3:hr>
            <ns3:cad>57</ns3:cad>
          </ns3:TrackPointExtension>
        </extensions>
      </trkpt>
      <trkpt lat="55.80305253155529499053955078125" lon="24.88054834306240081787109375">
        <ele>90.8000030517578125</ele>
        <time>2026-07-26T10:06:20.000Z</time>
        <extensions>
          <ns3:TrackPointExtension>
            <ns3:hr>125</ns3:hr>
            <ns3:cad>60</ns3:cad>
          </ns3:TrackPointExtension>
        </extensions>
      </trkpt>
      <trkpt lat="55.8030542917549610137939453125" lon="24.88055010326206684112548828125">
        <ele>91</ele>
        <time>2026-07-26T10:06:24.000Z</time>
        <extensions>
          <ns3:TrackPointExtension>
            <ns3:hr>124</ns3:hr>
            <ns3:cad>0</ns3:cad>
          </ns3:TrackPointExtension>
        </extensions>
      </trkpt>
      <trkpt lat="55.80305890180170536041259765625" lon="24.8805689625442028045654296875">
        <ele>90.59999847412109375</ele>
        <time>2026-07-26T10:06:33.000Z</time>
        <extensions>
          <ns3:TrackPointExtension>
            <ns3:hr>125</ns3:hr>
            <ns3:cad>0</ns3:cad>
          </ns3:TrackPointExtension>
        </extensions>
      </trkpt>
      <trkpt lat="55.80306108109652996063232421875" lon="24.88057441078126430511474609375">
        <ele>90.59999847412109375</ele>
        <time>2026-07-26T10:06:37.000Z</time>
        <extensions>
          <ns3:TrackPointExtension>
            <ns3:hr>128</ns3:hr>
            <ns3:cad>0</ns3:cad>
          </ns3:TrackPointExtension>
        </extensions>
      </trkpt>
      <trkpt lat="55.80305890180170536041259765625" lon="24.88055680878460407257080078125">
        <ele>90.59999847412109375</ele>
        <time>2026-07-26T10:06:41.000Z</time>
        <extensions>
          <ns3:TrackPointExtension>
            <ns3:hr>122</ns3:hr>
            <ns3:cad>0</ns3:cad>
          </ns3:TrackPointExtension>
        </extensions>
      </trkpt>
      <trkpt lat="55.80306091345846652984619140625" lon="24.880560748279094696044921875">
        <ele>90.59999847412109375</ele>
        <time>2026-07-26T10:06:43.000Z</time>
        <extensions>
          <ns3:TrackPointExtension>
            <ns3:hr>120</ns3:hr>
            <ns3:cad>0</ns3:cad>
          </ns3:TrackPointExtension>
        </extensions>
      </trkpt>
      <trkpt lat="55.8030568063259124755859375" lon="24.88057793118059635162353515625">
        <ele>91</ele>
        <time>2026-07-26T10:06:53.000Z</time>
        <extensions>
          <ns3:TrackPointExtension>
            <ns3:hr>115</ns3:hr>
            <ns3:cad>0</ns3:cad>
          </ns3:TrackPointExtension>
        </extensions>
      </trkpt>
      <trkpt lat="55.80306728370487689971923828125" lon="24.88056468777358531951904296875">
        <ele>91</ele>
        <time>2026-07-26T10:06:55.000Z</time>
        <extensions>
          <ns3:TrackPointExtension>
            <ns3:hr>110</ns3:hr>
            <ns3:cad>0</ns3:cad>
          </ns3:TrackPointExtension>
        </extensions>
      </trkpt>
      <trkpt lat="55.80305881798267364501953125" lon="24.8805548809468746185302734375">
        <ele>90.59999847412109375</ele>
        <time>2026-07-26T10:07:01.000Z</time>
        <extensions>
          <ns3:TrackPointExtension>
            <ns3:hr>110</ns3:hr>
            <ns3:cad>0</ns3:cad>
          </ns3:TrackPointExtension>
        </extensions>
      </trkpt>
      <trkpt lat="55.80307348631322383880615234375" lon="24.88052411936223506927490234375">
        <ele>90.59999847412109375</ele>
        <time>2026-07-26T10:07:12.000Z</time>
        <extensions>
          <ns3:TrackPointExtension>
            <ns3:hr>111</ns3:hr>
            <ns3:cad>0</ns3:cad>
          </ns3:TrackPointExtension>
        </extensions>
      </trkpt>
      <trkpt lat="55.80305873416364192962646484375" lon="24.88033317960798740386962890625">
        <ele>90.8000030517578125</ele>
        <time>2026-07-26T10:07:19.000Z</time>
        <extensions>
          <ns3:TrackPointExtension>
            <ns3:hr>112</ns3:hr>
            <ns3:cad>0</ns3:cad>
          </ns3:TrackPointExtension>
        </extensions>
      </trkpt>
      <trkpt lat="55.80293937586247920989990234375" lon="24.88014240749180316925048828125">
        <ele>91</ele>
        <time>2026-07-26T10:07:22.000Z</time>
        <extensions>
          <ns3:TrackPointExtension>
            <ns3:hr>113</ns3:hr>
            <ns3:cad>0</ns3:cad>
          </ns3:TrackPointExtension>
        </extensions>
      </trkpt>
      <trkpt lat="55.80278665758669376373291015625" lon="24.87993001006543636322021484375">
        <ele>91.40000152587890625</ele>
        <time>2026-07-26T10:07:25.000Z</time>
        <extensions>
          <ns3:TrackPointExtension>
            <ns3:hr>113</ns3:hr>
            <ns3:cad>0</ns3:cad>
          </ns3:TrackPointExtension>
        </extensions>
      </trkpt>
      <trkpt lat="55.8026705682277679443359375" lon="24.87974527291953563690185546875">
        <ele>91.59999847412109375</ele>
        <time>2026-07-26T10:07:27.000Z</time>
        <extensions>
          <ns3:TrackPointExtension>
            <ns3:hr>111</ns3:hr>
            <ns3:cad>0</ns3:cad>
          </ns3:TrackPointExtension>
        </extensions>
      </trkpt>
      <trkpt lat="55.8024870045483112335205078125" lon="24.87939658574759960174560546875">
        <ele>91.8000030517578125</ele>
        <time>2026-07-26T10:07:30.000Z</time>
        <extensions>
          <ns3:TrackPointExtension>
            <ns3:hr>110</ns3:hr>
            <ns3:cad>0</ns3:cad>
          </ns3:TrackPointExtension>
        </extensions>
      </trkpt>
      <trkpt lat="55.80235918052494525909423828125" lon="24.8791400156915187835693359375">
        <ele>91.8000030517578125</ele>
        <time>2026-07-26T10:07:32.000Z</time>
        <extensions>
          <ns3:TrackPointExtension>
            <ns3:hr>110</ns3:hr>
            <ns3:cad>0</ns3:cad>
          </ns3:TrackPointExtension>
        </extensions>
      </trkpt>
      <trkpt lat="55.80223261378705501556396484375" lon="24.87888445146381855010986328125">
        <ele>91.59999847412109375</ele>
        <time>2026-07-26T10:07:34.000Z</time>
        <extensions>
          <ns3:TrackPointExtension>
            <ns3:hr>110</ns3:hr>
            <ns3:cad>0</ns3:cad>
          </ns3:TrackPointExtension>
        </extensions>
      </trkpt>
      <trkpt lat="55.80211065709590911865234375" lon="24.878627546131610870361328125">
        <ele>91.1999969482421875</ele>
        <time>2026-07-26T10:07:36.000Z</time>
        <extensions>
          <ns3:TrackPointExtension>
            <ns3:hr>109</ns3:hr>
            <ns3:cad>0</ns3:cad>
          </ns3:TrackPointExtension>
        </extensions>
      </trkpt>
      <trkpt lat="55.8019944839179515838623046875" lon="24.8783836327493190765380859375">
        <ele>91.1999969482421875</ele>
        <time>2026-07-26T10:07:38.000Z</time>
        <extensions>
          <ns3:TrackPointExtension>
            <ns3:hr>106</ns3:hr>
            <ns3:cad>0</ns3:cad>
          </ns3:TrackPointExtension>
        </extensions>
      </trkpt>
      <trkpt lat="55.80183732323348522186279296875" lon="24.87805246375501155853271484375">
        <ele>90.8000030517578125</ele>
        <time>2026-07-26T10:07:41.000Z</time>
        <extensions>
          <ns3:TrackPointExtension>
            <ns3:hr>108</ns3:hr>
            <ns3:cad>0</ns3:cad>
          </ns3:TrackPointExtension>
        </extensions>
      </trkpt>
      <trkpt lat="55.80161637626588344573974609375" lon="24.87759212963283061981201171875">
        <ele>90.59999847412109375</ele>
        <time>2026-07-26T10:07:44.000Z</time>
        <extensions>
          <ns3:TrackPointExtension>
            <ns3:hr>107</ns3:hr>
            <ns3:cad>0</ns3:cad>
          </ns3:TrackPointExtension>
        </extensions>
      </trkpt>
      <trkpt lat="55.8014362491667270660400390625" lon="24.87722248770296573638916015625">
        <ele>90.59999847412109375</ele>
        <time>2026-07-26T10:07:47.000Z</time>
        <extensions>
          <ns3:TrackPointExtension>
            <ns3:hr>107</ns3:hr>
            <ns3:cad>0</ns3:cad>
          </ns3:TrackPointExtension>
        </extensions>
      </trkpt>
      <trkpt lat="55.8013064973056316375732421875" lon="24.87696231342852115631103515625">
        <ele>90.59999847412109375</ele>
        <time>2026-07-26T10:07:49.000Z</time>
        <extensions>
          <ns3:TrackPointExtension>
            <ns3:hr>106</ns3:hr>
            <ns3:cad>0</ns3:cad>
          </ns3:TrackPointExtension>
        </extensions>
      </trkpt>
      <trkpt lat="55.8011643402278423309326171875" lon="24.8766723833978176116943359375">
        <ele>90.8000030517578125</ele>
        <time>2026-07-26T10:07:51.000Z</time>
        <extensions>
          <ns3:TrackPointExtension>
            <ns3:hr>105</ns3:hr>
            <ns3:cad>0</ns3:cad>
          </ns3:TrackPointExtension>
        </extensions>
      </trkpt>
      <trkpt lat="55.8010909147560596466064453125" lon="24.87652762793004512786865234375">
        <ele>91</ele>
        <time>2026-07-26T10:07:52.000Z</time>
        <extensions>
          <ns3:TrackPointExtension>
            <ns3:hr>102</ns3:hr>
            <ns3:cad>0</ns3:cad>
          </ns3:TrackPointExtension>
        </extensions>
      </trkpt>
      <trkpt lat="55.8009611628949642181396484375" lon="24.8762589879333972930908203125">
        <ele>90.8000030517578125</ele>
        <time>2026-07-26T10:07:54.000Z</time>
        <extensions>
          <ns3:TrackPointExtension>
            <ns3:hr>100</ns3:hr>
            <ns3:cad>0</ns3:cad>
          </ns3:TrackPointExtension>
        </extensions>
      </trkpt>
    </trkseg>
  </trk>
</gpx>
